# Wetter Temperatur Luftdruck Luftfeuchtigkeit Sichtweite Windgeschwindigkeit Windrichtung Zeit
1 Clouds 13 1022 46 16093 2.1 140 19:20 02.04.2020
2 Clouds 13 1022 46 16093 2.1 140 19:20 02.04.2020
3 Clouds 13 1022 46 16093 2.1 140 18:56 02.04.2020
4 Clouds 12 1022 53 16093 3.1 110 18:38 02.04.2020
5 Clouds 10 1022 53 16093 3.1 110 18:19 02.04.2020
6 Clear 10 1022 57 16093 3.1 150 17:44 02.04.2020
7 Clear 10 1023 87 16093 1.5 130 17:26 02.04.2020
8 Clouds 9 1023 75 16093 3.1 130 16:59 02.04.2020
9 Clear 8 1023 70 16093 2.6 140 16:41 02.04.2020
10 Clouds 7 1023 93 16093 1.77 121 16:22 02.04.2020
11 Clouds 6 1023 93 16093 1.77 121 15:59 02.04.2020
12 Clouds 5 1023 100 16093 1.77 121 15:40 02.04.2020
13 Clouds 3 1023 100 16093 1.08 83 15:20 02.04.2020
14 Clouds 3 1023 100 16093 1.08 83 14:58 02.04.2020
15 Clouds 2 1022 100 16093 1.08 83 14:38 02.04.2020
16 Clouds 1 1022 100 16093 1.24 61 14:19 02.04.2020
17 Clouds 1 1022 100 16093 1.24 61 13:55 02.04.2020
18 Clouds 0 1022 76 16093 1.24 61 13:37 02.04.2020
19 Clouds 0 1022 76 16093 1.24 61 13:37 02.04.2020
20 Clouds 0 1022 76 16093 1.24 61 13:19 02.04.2020
21 Clouds 0 1021 100 16093 1.5 190 12:46 02.04.2020
22 Clouds 1 1021 100 16093 1.5 190 12:20 02.04.2020
23 Clouds 1 1021 100 16093 1.5 190 12:20 02.04.2020
24 Clouds 1 1021 100 16093 1.5 190 11:58 02.04.2020
25 Clouds 1 1021 93 16093 0.92 55 11:39 02.04.2020
26 Clouds 1 1021 93 16093 0.92 55 11:39 02.04.2020
27 Clouds 1 1021 93 16093 0.92 55 11:20 02.04.2020
28 Clouds 1 1021 93 16093 0.92 55 10:57 02.04.2020
29 Clouds 1 1021 93 16093 0.92 55 10:39 02.04.2020
30 Clouds 1 1021 93 16093 0.92 55 10:21 02.04.2020
31 Clouds 1 1021 93 16093 0.92 55 09:59 02.04.2020
32 Clear 2 1021 100 16093 0.92 55 09:41 02.04.2020
33 Clear 2 1021 100 16093 0.92 55 09:22 02.04.2020
34 Clear 2 1021 93 16093 1.5 110 08:48 02.04.2020
35 Clear 2 1021 93 16093 1.5 110 08:29 02.04.2020
36 Clear 3 1021 93 16093 1.5 110 07:59 02.04.2020
37 Clear 3 1021 93 16093 1.5 140 07:41 02.04.2020
38 Clear 3 1021 93 16093 1.5 140 07:19 02.04.2020
39 Clouds 4 1021 93 16093 2.1 100 06:25 02.04.2020
40 Clouds 4 1021 86 16093 2.6 90 05:46 02.04.2020
41 Clouds 4 1021 86 16093 2.6 90 05:18 02.04.2020
42 Clouds 7 1019 70 16093 4.6 70 02:26 02.04.2020
43 Clouds 9 1019 61 16093 5.1 80 01:27 02.04.2020
44 Clouds 10 1019 57 16093 4.6 40 00:42 02.04.2020
45 Clouds 10 1019 57 16093 4.6 40 00:22 02.04.2020
46 Clouds 11 1019 57 16093 5.1 70 23:40 01.04.2020
47 Clouds 11 1019 57 16093 5.1 70 23:20 01.04.2020
48 Clouds 11 1019 57 16093 5.1 70 22:57 01.04.2020
49 Clouds 11 1019 57 16093 5.1 70 22:57 01.04.2020
50 Clouds 11 1018 57 16093 5.7 40 22:38 01.04.2020
51 Clouds 11 1018 57 16093 5.7 40 22:20 01.04.2020
52 Clouds 11 1019 54 16093 3.6 360 21:42 01.04.2020
53 Clouds 11 1019 54 16093 3.6 360 21:19 01.04.2020
54 Clouds 10 1019 54 16093 3.6 360 20:57 01.04.2020
55 Clouds 10 1019 61 16093 2.6 10 20:39 01.04.2020
56 Clouds 10 1019 61 16093 2.6 10 20:20 01.04.2020
57 Clouds 10 1019 61 16093 2.6 10 19:59 01.04.2020
58 Clouds 9 1019 70 16093 1.5 30 19:40 01.04.2020
59 Clouds 9 1019 70 16093 1.5 30 19:19 01.04.2020
60 Clouds 8 1019 75 16093 3.6 20 18:42 01.04.2020
61 Clouds 7 1019 81 16093 2.1 20 18:24 01.04.2020
62 Clouds 7 1019 81 16093 2.1 20 17:58 01.04.2020
63 Clouds 6 1019 81 16093 3.6 350 17:38 01.04.2020
64 Clouds 6 1019 81 16093 3.6 350 17:19 01.04.2020
65 Clouds 5 1019 81 16093 3.6 350 16:58 01.04.2020
66 Clouds 5 1019 86 16093 3.6 350 16:39 01.04.2020
67 Clouds 4 1019 86 16093 3.6 350 16:21 01.04.2020
68 Clouds 4 1019 86 16093 3.6 350 15:57 01.04.2020
69 Clouds 4 1019 86 16093 3.6 350 15:57 01.04.2020
70 Clouds 4 1019 86 16093 3.1 350 15:37 01.04.2020
71 Clouds 4 1018 86 16093 3.1 10 15:18 01.04.2020
72 Clouds 3 1018 86 16093 3.1 10 14:55 01.04.2020
73 Clouds 3 1018 86 16093 3.1 10 14:55 01.04.2020
74 Clouds 3 1018 86 16093 2.6 350 14:36 01.04.2020
75 Clouds 3 1018 86 16093 2.6 350 14:18 01.04.2020
76 Clouds 3 1018 86 16093 2.6 350 13:55 01.04.2020
77 Clouds 3 1017 87 16093 3.6 360 13:36 01.04.2020
78 Clouds 3 1017 87 16093 3.6 360 13:18 01.04.2020
79 Clouds 3 1017 87 16093 3.1 340 12:42 01.04.2020
80 Clouds 3 1017 87 16093 3.1 340 12:23 01.04.2020
81 Clouds 3 1017 87 16093 3.1 340 11:59 01.04.2020
82 Clouds 3 1017 87 16093 4.1 350 11:39 01.04.2020
83 Clouds 3 1017 93 16093 2.1 10 11:20 01.04.2020
84 Clouds 3 1017 87 16093 1.5 360 10:41 01.04.2020
85 Clouds 3 1017 93 16093 2.1 10 10:22 01.04.2020
86 Clouds 3 1017 87 16093 3.6 320 09:59 01.04.2020
87 Clouds 3 1017 86 16093 3.1 350 09:40 01.04.2020
88 Clouds 3 1017 93 16093 3.1 360 09:21 01.04.2020
89 Clouds 3 1017 86 16093 3.1 350 08:57 01.04.2020
90 Clouds 3 1017 86 16093 4.1 360 08:38 01.04.2020
91 Clouds 3 1017 93 16093 3.6 360 08:18 01.04.2020
92 Clouds 3 1018 86 16093 3.6 360 07:41 01.04.2020
93 Clouds 3 1018 86 16093 3.6 360 07:19 01.04.2020
94 Clouds 3 1017 86 16093 6.2 10 06:47 01.04.2020
95 Clouds 3 1017 86 16093 6.2 10 06:21 01.04.2020
96 Clouds 3 1018 86 16093 4.6 10 05:50 01.04.2020
97 Clouds 3 1017 86 16093 5.1 20 04:29 01.04.2020
98 Clouds 3 1017 80 16093 6.2 10 03:20 01.04.2020
99 Clouds 3 1017 86 16093 5.1 20 02:37 01.04.2020
100 Clouds 4 1017 86 16093 5.1 20 01:53 01.04.2020
101 Clouds 4 1017 86 16093 5.7 20 01:27 01.04.2020
102 Clouds 4 1017 80 16093 5.7 20 00:47 01.04.2020
103 Clouds 4 1017 80 16093 5.7 20 00:23 01.04.2020
104 Clouds 4 1017 80 16093 5.7 20 23:59 31.03.2020
105 Clouds 4 1016 80 16093 6.7 20 23:40 31.03.2020
106 Clouds 5 1016 80 16093 6.7 20 23:21 31.03.2020
107 Clouds 5 1016 75 16093 5.7 30 22:41 31.03.2020
108 Clouds 5 1016 75 16093 5.7 30 22:21 31.03.2020
109 Clouds 5 1016 75 16093 5.7 30 21:58 31.03.2020
110 Clouds 5 1016 70 16093 5.7 40 21:40 31.03.2020
111 Clouds 5 1016 70 16093 5.7 40 21:40 31.03.2020
112 Clouds 5 1016 70 16093 5.7 40 21:21 31.03.2020
113 Clouds 5 1017 75 16093 5.1 10 20:57 31.03.2020
114 Clouds 5 1017 75 16093 5.1 10 20:57 31.03.2020
115 Clouds 5 1017 75 16093 5.1 10 20:37 31.03.2020
116 Clouds 5 1017 75 16093 5.1 10 20:19 31.03.2020
117 Clouds 4 1017 86 16093 5.1 20 19:56 31.03.2020
118 Clouds 4 1017 86 16093 5.1 20 19:37 31.03.2020
119 Clouds 4 1017 86 16093 5.1 20 19:19 31.03.2020
120 Clouds 4 1018 86 16093 5.1 30 18:44 31.03.2020
121 Rain 4 1018 86 16093 5.1 20 18:20 31.03.2020
122 Rain 3 1018 86 16093 5.1 20 17:57 31.03.2020
123 Drizzle 3 1018 93 11265 4.6 20 17:39 31.03.2020
124 Drizzle 3 1018 93 11265 4.6 20 17:39 31.03.2020
125 Rain 3 1018 86 12874 5.1 20 17:21 31.03.2020
126 Rain 3 1018 86 12874 5.1 20 16:56 31.03.2020
127 Rain 3 1018 93 11265 4.6 10 16:36 31.03.2020
128 Clouds 3 1018 93 11265 4.6 10 16:18 31.03.2020
129 Clouds 3 1018 93 11265 4.6 10 15:55 31.03.2020
130 Clouds 2 1018 93 16093 4.6 350 15:36 31.03.2020
131 Drizzle 2 1018 93 11265 3.6 10 15:18 31.03.2020
132 Clouds 2 1018 78 16093 4.1 30 14:42 31.03.2020
133 Clouds 2 1018 77 16093 4.1 30 14:22 31.03.2020
134 Clouds 2 1018 77 16093 4.1 30 13:58 31.03.2020
135 Clouds 2 1018 77 16093 6.7 10 13:40 31.03.2020
136 Clouds 2 1018 77 16093 6.7 10 13:19 31.03.2020
137 Clouds 2 1019 77 16093 5.7 360 12:45 31.03.2020
138 Clouds 2 1019 73 16093 5.7 360 12:20 31.03.2020
139 Clouds 2 1019 73 16093 5.7 360 11:56 31.03.2020
140 Clouds 3 1019 74 16093 4.6 360 11:37 31.03.2020
141 Clouds 3 1019 74 16093 4.6 10 11:19 31.03.2020
142 Clouds 3 1019 74 16093 4.6 10 10:55 31.03.2020
143 Clouds 3 1020 73 16093 5.1 20 10:55 31.03.2020
144 Clouds 3 1020 73 16093 5.1 20 10:37 31.03.2020
145 Clouds 3 1020 73 16093 5.1 20 10:18 31.03.2020
146 Clouds 3 1020 80 16093 4.6 30 09:43 31.03.2020
147 Clouds 3 1020 80 16093 4.6 30 09:25 31.03.2020
148 Clouds 3 1020 80 16093 4.6 30 08:58 31.03.2020
149 Clouds 3 1020 80 16093 4.6 30 08:58 31.03.2020
150 Clouds 3 1020 80 16093 6.2 30 08:40 31.03.2020
151 Clouds 3 1020 80 16093 6.2 30 08:20 31.03.2020
152 Clouds 3 1020 80 16093 6.2 30 07:57 31.03.2020
153 Clouds 4 1021 74 16093 4.6 70 07:38 31.03.2020
154 -273 0 0 0 0 0 07:20 31.03.2020
155 Clouds 4 1021 65 16093 4.6 60 06:51 31.03.2020
156 Clouds 4 1021 65 16093 4.6 60 06:31 31.03.2020
157 Clouds 5 1021 65 16093 3.1 70 05:41 31.03.2020
158 Clouds 5 1021 77 16093 4.1 90 03:57 31.03.2020
159 Clouds 6 1021 75 16093 4.6 120 02:26 31.03.2020
160 Clouds 6 1021 74 16093 4.1 100 01:46 31.03.2020
161 Rain 7 1021 74 16093 4.1 100 00:52 31.03.2020
162 Rain 8 1020 70 16093 4.1 80 00:25 31.03.2020
163 Clouds 8 1020 70 16093 4.1 80 23:59 30.03.2020
164 Clouds 8 1021 61 16093 4.6 100 23:38 30.03.2020
165 Clouds 9 1021 61 16093 4.6 100 23:19 30.03.2020
166 Clouds 9 1021 61 16093 4.6 100 22:56 30.03.2020
167 Clouds 9 1021 57 16093 5.7 300 22:37 30.03.2020
168 Clouds 9 1021 57 16093 5.7 300 22:37 30.03.2020
169 Clouds 9 1021 57 16093 5.7 300 22:18 30.03.2020
170 Clouds 9 1021 57 16093 5.7 300 21:55 30.03.2020
171 Clouds 9 1021 57 16093 7.7 290 21:37 30.03.2020
172 Clouds 9 1021 57 16093 7.7 290 21:18 30.03.2020
173 Clouds 9 1020 64 16093 5.7 300 20:42 30.03.2020
174 Clouds 9 1020 64 16093 5.7 300 20:24 30.03.2020
175 Clouds 9 1020 64 16093 5.7 300 19:59 30.03.2020
176 Clouds 9 1021 53 16093 6.2 310 19:40 30.03.2020
177 Clouds 9 1021 53 16093 6.2 310 19:22 30.03.2020
178 Clouds 9 1021 53 16093 6.2 310 18:57 30.03.2020
179 Clouds 9 1021 57 16093 7.2 290 18:38 30.03.2020
180 Clouds 8 1021 57 16093 7.2 290 18:20 30.03.2020
181 Clouds 8 1021 57 16093 7.2 290 17:57 30.03.2020
182 Clouds 8 1021 61 16093 7.2 310 17:38 30.03.2020
183 Clouds 7 1020 61 16093 7.7 300 17:19 30.03.2020
184 Clouds 7 1020 61 16093 7.7 300 16:55 30.03.2020
185 Clouds 7 1020 65 16093 7.7 300 16:37 30.03.2020
186 Clouds 6 1020 65 16093 7.7 300 16:18 30.03.2020
187 Clouds 6 1020 65 16093 7.7 300 15:54 30.03.2020
188 Clouds 5 1019 70 16093 6.7 290 15:36 30.03.2020
189 Clouds 5 1019 70 16093 6.7 290 15:18 30.03.2020
190 Clouds 4 1018 75 16093 6.2 310 14:39 30.03.2020
191 Clouds 4 1018 75 16093 6.2 310 14:19 30.03.2020
192 Clouds 4 1018 75 16093 6.2 310 13:59 30.03.2020
193 Clouds 4 1018 65 16093 4.6 290 13:40 30.03.2020
194 Clouds 4 1017 70 16093 5.7 300 13:20 30.03.2020
195 Clouds 5 1017 70 16093 7.2 300 12:54 30.03.2020
196 Clouds 5 1017 70 16093 7.2 300 12:36 30.03.2020
197 Clouds 5 1016 70 16093 8.2 310 12:18 30.03.2020
198 Clouds 5 1016 70 16093 8.2 310 12:18 30.03.2020
199 Clouds 5 1015 70 16093 5.1 310 11:43 30.03.2020
200 Rain 5 1016 75 16093 3.6 280 11:24 30.03.2020
201 Rain 5 1015 70 16093 5.1 310 10:59 30.03.2020
202 Rain 5 1014 70 16093 7.7 290 10:39 30.03.2020
203 Clouds 5 1015 75 16093 4.1 280 10:21 30.03.2020
204 Clouds 5 1014 70 16093 3.6 300 09:54 30.03.2020
205 Rain 5 1014 75 16093 5.7 300 09:36 30.03.2020
206 Clouds 6 1015 75 16093 5.1 280 09:18 30.03.2020
207 Clouds 6 1014 70 16093 7.7 280 08:39 30.03.2020
208 Clouds 6 1014 70 16093 7.7 280 08:20 30.03.2020
209 Clouds 6 1013 70 16093 6.2 280 07:45 30.03.2020
210 Clouds 6 1013 70 16093 6.2 280 07:25 30.03.2020
211 Clouds 6 1013 70 16093 9.8 290 06:47 30.03.2020
212 Rain 6 1013 70 16093 9.8 290 06:29 30.03.2020
213 Rain 7 1012 70 16093 7.2 280 05:46 30.03.2020
214 Clouds 7 1012 70 16093 11.8 280 04:40 30.03.2020
215 Clouds 7 1012 70 16093 11.8 280 04:20 30.03.2020
216 Clouds 7 1011 70 16093 8.7 270 02:52 30.03.2020
217 Clouds 8 1010 65 16093 11.8 260 01:58 30.03.2020
218 Clouds 8 1009 61 16093 13.9 270 01:18 30.03.2020
219 Clouds 8 1008 61 16093 9.8 270 00:29 30.03.2020
220 Rain 8 1008 61 16093 9.8 270 23:57 29.03.2020
221 Rain 8 1008 61 16093 9.8 270 23:57 29.03.2020
222 Rain 8 1007 61 16093 12.3 270 23:39 29.03.2020
223 Rain 8 1007 61 16093 12.3 270 23:20 29.03.2020
224 Clouds 8 1007 61 16093 12.3 270 22:55 29.03.2020
225 Clouds 8 1006 66 16093 10.8 260 22:55 29.03.2020
226 Clouds 8 1006 66 16093 10.8 260 22:37 29.03.2020
227 Clouds 8 1006 66 16093 10.8 260 22:18 29.03.2020
228 Clouds 8 1004 66 16093 10.8 260 21:39 29.03.2020
229 Rain 8 1004 66 16093 10.8 260 21:20 29.03.2020
230 Rain 8 1004 66 16093 10.8 260 20:56 29.03.2020
231 Rain 8 1003 70 16093 14.4 250 20:37 29.03.2020
232 Clouds 8 1003 70 16093 14.4 250 20:19 29.03.2020
233 Clouds 8 1003 70 16093 14.4 250 19:57 29.03.2020
234 Clouds 7 1002 75 16093 10.3 250 19:39 29.03.2020
235 Clouds 7 1002 75 16093 10.3 250 19:21 29.03.2020
236 Clouds 7 1001 81 16093 11.8 240 18:57 29.03.2020
237 Clouds 7 1001 81 16093 11.8 240 18:38 29.03.2020
238 Rain 7 1001 81 16093 11.8 240 18:19 29.03.2020
239 Rain 7 1001 81 16093 11.8 240 18:19 29.03.2020
240 Rain 6 1001 81 14484 12.9 240 17:56 29.03.2020
241 Rain 6 1001 81 14484 12.9 240 17:37 29.03.2020
242 Rain 6 1001 81 14484 12.9 240 17:18 29.03.2020
243 Rain 6 1001 81 14484 12.9 240 16:56 29.03.2020
244 Clouds 6 1000 81 16093 10.8 240 16:38 29.03.2020
245 Rain 6 1000 81 16093 10.8 240 16:18 29.03.2020
246 Rain 6 999 87 16093 11.8 230 15:41 29.03.2020
247 Clouds 7 999 87 16093 11.8 230 15:23 29.03.2020
248 Clouds 7 999 87 16093 11.8 230 14:58 29.03.2020
249 Clouds 8 998 71 16093 10.8 250 14:40 29.03.2020
250 Clouds 8 998 71 16093 10.8 250 14:20 29.03.2020
251 Clouds 9 998 71 16093 10.8 250 13:57 29.03.2020
252 Rain 10 999 71 16093 9.8 230 13:39 29.03.2020
253 Rain 11 997 66 16093 8.7 220 13:20 29.03.2020
254 Clouds 11 996 66 16093 5.7 240 12:55 29.03.2020
255 Clouds 12 997 62 16093 5.1 200 12:37 29.03.2020
256 Clouds 12 997 62 16093 5.1 200 12:19 29.03.2020
257 Clouds 12 997 66 16093 6.2 230 11:55 29.03.2020
258 Clouds 12 997 66 16093 6.2 230 11:36 29.03.2020
259 Clouds 13 997 66 16093 6.2 230 11:18 29.03.2020
260 Rain 13 997 62 16093 5.1 220 10:38 29.03.2020
261 Rain 13 997 62 16093 5.1 220 10:19 29.03.2020
262 Clear 14 997 58 16093 3.6 220 09:41 29.03.2020
263 Clear 14 997 58 16093 3.6 220 09:41 29.03.2020
264 Clouds 14 998 67 16093 4.6 210 09:20 29.03.2020
265 Clouds 15 998 62 16093 4.1 220 08:54 29.03.2020
266 Clouds 15 998 55 16093 6.7 230 08:36 29.03.2020
267 Clouds 15 998 55 16093 6.7 230 08:18 29.03.2020
268 Rain 16 998 72 16093 9.3 210 07:42 29.03.2020
269 Rain 16 998 72 16093 9.3 210 07:21 29.03.2020
270 Clouds 16 998 100 14484 7.7 170 05:46 29.03.2020
271 Rain 13 1000 100 11265 4.1 130 04:27 29.03.2020
272 Rain 11 1001 100 11265 2.6 110 03:31 29.03.2020
273 Rain 9 1002 100 8047 3.6 50 01:51 29.03.2020
274 Rain 10 1002 100 8047 3.6 50 01:23 29.03.2020
275 Rain 11 1002 100 8047 3.6 50 01:23 29.03.2020
276 Rain 12 1002 100 8047 3.6 50 00:58 29.03.2020
277 Rain 13 1003 100 4828 5.1 60 00:33 29.03.2020
278 Rain 13 1003 100 4828 5.1 60 23:57 28.03.2020
279 Rain 14 1003 100 4023 5.7 50 23:39 28.03.2020
280 Rain 15 1004 100 4828 3.6 80 23:19 28.03.2020
281 Clouds 15 1004 93 16093 3.6 90 22:41 28.03.2020
282 Rain 15 1004 93 16093 3.6 90 22:22 28.03.2020
283 Clouds 15 1004 93 16093 3.6 90 21:55 28.03.2020
284 Rain 15 1005 93 16093 4.1 130 21:37 28.03.2020
285 Rain 15 1005 93 16093 4.1 130 21:18 28.03.2020
286 Clouds 14 1005 93 12874 2.6 140 20:42 28.03.2020
287 Clouds 14 1005 93 12874 2.6 140 20:24 28.03.2020
288 Clouds 14 1005 93 12874 2.6 140 20:24 28.03.2020
289 Clouds 13 1005 93 12874 2.6 140 19:58 28.03.2020
290 Rain 13 1006 93 12874 3.22 88 19:39 28.03.2020
291 Rain 12 1006 93 12874 3.22 88 19:21 28.03.2020
292 Rain 11 1006 93 12874 3.22 88 18:59 28.03.2020
293 Rain 11 1006 100 11265 2.6 150 18:39 28.03.2020
294 Rain 10 1006 93 11265 2.1 130 18:20 28.03.2020
295 Rain 9 1007 93 11265 3.22 88 17:39 28.03.2020
296 Rain 9 1007 93 11265 3.22 88 17:39 28.03.2020
297 Rain 9 1007 93 11265 4.44 62 17:21 28.03.2020
298 Rain 8 1007 100 11265 3.1 80 16:57 28.03.2020
299 Rain 8 1007 100 11265 3.1 80 16:37 28.03.2020
300 Rain 8 1006 100 11265 3.6 60 16:18 28.03.2020
301 Rain 7 1006 100 16093 2.6 30 15:39 28.03.2020
302 Rain 7 1006 100 16093 2.6 30 15:19 28.03.2020
303 Rain 7 1006 100 16093 2.6 30 14:57 28.03.2020
304 Rain 7 1006 100 8047 5.7 20 14:38 28.03.2020
305 Thunderstorm 8 1007 100 2414 4.6 350 14:20 28.03.2020
306 Rain 8 1006 100 8047 5.1 340 13:41 28.03.2020
307 Thunderstorm 8 1006 100 8047 2.1 170 13:22 28.03.2020
308 Thunderstorm 8 1005 100 6437 5.1 350 12:40 28.03.2020
309 Rain 8 1004 100 8047 4.6 40 12:22 28.03.2020
310 Rain 8 1004 100 8047 4.6 40 12:22 28.03.2020
311 Mist 8 1004 100 9656 3.1 150 11:43 28.03.2020
312 Rain 8 1004 100 9656 1.5 80 11:23 28.03.2020
313 Rain 8 1004 100 9656 1.5 80 10:58 28.03.2020
314 Rain 8 1005 100 14484 3.6 150 10:38 28.03.2020
315 Rain 8 1005 100 14484 3.6 150 10:18 28.03.2020
316 Rain 8 1005 93 8047 3.6 110 09:42 28.03.2020
317 Rain 8 1006 100 9656 4.1 70 09:23 28.03.2020
318 Rain 8 1006 100 9656 4.1 70 08:55 28.03.2020
319 Thunderstorm 8 1006 100 4828 3.6 70 08:37 28.03.2020
320 Thunderstorm 8 1006 100 4828 3.6 70 08:18 28.03.2020
321 Thunderstorm 8 1007 100 4828 3.1 50 07:41 28.03.2020
322 Rain 8 1007 100 6437 3.1 80 06:58 28.03.2020
323 Drizzle 8 1007 100 8047 6.2 110 06:35 28.03.2020
324 Mist 8 1008 100 6437 4.6 100 05:42 28.03.2020
325 Rain 8 1009 100 6437 3.1 80 05:21 28.03.2020
326 Rain 8 1009 100 4828 4.1 70 04:40 28.03.2020
327 Rain 8 1010 100 4828 5.7 80 03:34 28.03.2020
328 Rain 8 1010 100 4828 5.1 100 01:53 28.03.2020
329 Rain 8 1010 100 4828 5.1 100 01:25 28.03.2020
330 Rain 8 1010 100 4828 5.1 100 00:56 28.03.2020
331 Rain 8 1011 100 4828 3.6 60 00:35 28.03.2020
332 Rain 8 1011 100 8047 5.7 50 23:55 27.03.2020
333 Rain 8 1011 100 8047 5.7 50 23:37 27.03.2020
334 Rain 8 1011 100 8047 5.7 50 23:18 27.03.2020
335 Rain 9 1012 93 11265 4.6 50 22:55 27.03.2020
336 Rain 9 1012 93 11265 4.6 50 22:37 27.03.2020
337 Rain 9 1012 93 11265 4.6 50 22:18 27.03.2020
338 Clouds 10 1012 93 11265 5.1 60 21:42 27.03.2020
339 Clouds 10 1012 93 11265 5.1 60 21:24 27.03.2020
340 Clouds 10 1012 93 11265 5.7 60 20:58 27.03.2020
341 Clouds 10 1012 93 11265 5.7 60 20:58 27.03.2020
342 Clouds 11 1012 87 11265 5.1 80 20:39 27.03.2020
343 Clouds 11 1012 87 11265 5.1 60 20:20 27.03.2020
344 Clouds 11 1012 87 11265 5.1 60 19:57 27.03.2020
345 Clouds 11 1013 87 12874 5.1 70 19:38 27.03.2020
346 Clouds 11 1013 87 12874 5.1 70 19:20 27.03.2020
347 Mist 10 1013 87 9656 4.1 60 18:44 27.03.2020
348 Mist 10 1013 87 9656 4.1 60 18:44 27.03.2020
349 Mist 10 1013 87 9656 4.1 60 18:23 27.03.2020
350 Mist 9 1013 93 4828 3.6 70 17:57 27.03.2020
351 Mist 8 1013 93 4828 3.6 70 17:38 27.03.2020
352 Mist 8 1012 93 2816 5.1 50 17:19 27.03.2020
353 Mist 7 1012 93 8047 4.1 40 16:44 27.03.2020
354 Mist 6 1012 93 8047 4.1 40 16:25 27.03.2020
355 Mist 6 1012 93 8047 4.1 40 15:55 27.03.2020
356 Mist 5 1012 100 3219 4.1 50 15:37 27.03.2020
357 Clouds 4 1012 79 0 4.02 75 15:19 27.03.2020
358 Mist 4 1013 100 8047 4.1 40 14:43 27.03.2020
359 Mist 4 1013 100 8047 4.1 40 14:24 27.03.2020
360 Mist 4 1013 100 8047 4.1 40 13:54 27.03.2020
361 Mist 4 1013 93 8047 3.6 30 13:36 27.03.2020
362 Mist 3 1013 100 4828 4.6 30 13:18 27.03.2020
363 Mist 3 1013 100 4023 2.6 10 12:42 27.03.2020
364 Mist 3 1013 100 4023 2.6 10 12:19 27.03.2020
365 Mist 3 1013 100 4023 4.1 20 11:55 27.03.2020
366 Mist 3 1013 100 4023 4.1 20 11:55 27.03.2020
367 Mist 3 1013 100 4023 4.1 20 11:36 27.03.2020
368 Mist 3 1013 100 4023 4.1 20 11:18 27.03.2020
369 Mist 3 1013 100 3219 3.6 30 10:41 27.03.2020
370 Mist 3 1012 100 4023 3.1 20 10:22 27.03.2020
371 Mist 3 1012 100 4023 3.1 20 09:58 27.03.2020
372 Mist 3 1012 100 2012 2.6 30 09:40 27.03.2020
373 Mist 3 1012 100 1207 3.6 30 09:22 27.03.2020
374 Mist 3 1012 100 1207 3.6 30 08:58 27.03.2020
375 Mist 3 1012 100 1207 3.6 30 08:58 27.03.2020
376 Mist 2 1011 100 1207 5.1 40 08:40 27.03.2020
377 Mist 2 1011 100 1207 5.1 40 08:21 27.03.2020
378 Mist 2 1012 100 1609 5.1 30 07:55 27.03.2020
379 Mist 2 1013 100 1207 6.2 30 07:37 27.03.2020
380 Mist 3 1013 100 4023 6.2 30 07:19 27.03.2020
381 Mist 3 1013 100 8047 4.1 20 06:38 27.03.2020
382 Clouds 3 1013 93 14484 5.1 10 05:44 27.03.2020
383 Clouds 4 1011 93 16093 6.2 20 02:52 27.03.2020
384 Clouds 4 1011 93 16093 5.7 20 01:54 27.03.2020
385 Clouds 4 1011 93 16093 4.6 30 00:56 27.03.2020
386 Clouds 4 1011 87 16093 4.6 20 00:37 27.03.2020
387 Clouds 4 1011 87 16093 4.6 20 00:18 27.03.2020
388 Clouds 4 1011 87 16093 4.6 20 00:18 27.03.2020
389 Clouds 4 1010 93 14484 4.1 40 23:36 26.03.2020
390 Clouds 4 1010 93 14484 4.1 40 23:18 26.03.2020
391 Clouds 4 1009 87 12874 3.6 20 22:54 26.03.2020
392 Rain 4 1009 87 12874 3.6 20 22:36 26.03.2020
393 Rain 5 1009 87 12874 3.6 20 22:18 26.03.2020
394 Clouds 5 1010 87 16093 5.1 60 21:39 26.03.2020
395 Rain 5 1010 87 16093 5.1 60 21:21 26.03.2020
396 Rain 5 1010 87 16093 5.1 60 20:58 26.03.2020
397 Rain 5 1011 93 16093 5.1 50 20:38 26.03.2020
398 Rain 5 1011 93 16093 5.1 50 20:38 26.03.2020
399 Rain 5 1011 93 6437 7.2 40 20:20 26.03.2020
400 Rain 5 1011 93 6437 7.2 40 19:56 26.03.2020
401 Clouds 5 1011 87 12874 5.1 40 19:38 26.03.2020
402 Clouds 6 1011 87 12874 5.1 40 19:20 26.03.2020
403 Clouds 6 1011 87 11265 4.6 40 18:56 26.03.2020
404 Clouds 6 1011 87 11265 4.6 40 18:37 26.03.2020
405 Haze 7 1010 81 9656 4.6 50 18:19 26.03.2020
406 Clouds 7 1011 87 11265 5.7 40 17:42 26.03.2020
407 Clouds 7 1011 87 12874 3.1 60 17:19 26.03.2020
408 Clouds 7 1011 87 12874 3.1 60 17:19 26.03.2020
409 Clouds 7 1011 87 12874 3.1 60 17:19 26.03.2020
410 Clouds 7 1012 87 12874 3.6 50 16:46 26.03.2020
411 Clouds 7 1012 87 12874 3.6 50 16:28 26.03.2020
412 Clouds 7 1011 81 11265 2.6 50 15:59 26.03.2020
413 Clouds 7 1011 93 11265 4.08 2 15:41 26.03.2020
414 Clouds 8 1011 93 11265 4.08 2 15:22 26.03.2020
415 Clouds 9 1011 93 11265 4.08 2 14:58 26.03.2020
416 Clouds 9 1011 93 11265 1.5 250 14:39 26.03.2020
417 Mist 9 1011 93 9656 2.6 240 14:19 26.03.2020
418 Mist 9 1010 93 9656 1.5 240 13:44 26.03.2020
419 Mist 9 1010 93 9656 2.6 240 13:23 26.03.2020
420 Mist 9 1010 93 9656 2.6 240 12:57 26.03.2020
421 Clouds 9 1010 87 12874 4.1 250 12:38 26.03.2020
422 Clouds 9 1010 87 12874 4.1 250 12:19 26.03.2020
423 Clouds 9 1008 93 12874 3.1 210 11:45 26.03.2020
424 Clouds 9 1008 93 12874 3.1 210 11:22 26.03.2020
425 Clouds 9 1008 93 12874 3.1 210 10:56 26.03.2020
426 Clouds 9 1009 87 12874 3.6 210 10:37 26.03.2020
427 Clouds 9 1009 87 12874 3.6 210 10:37 26.03.2020
428 Clouds 9 1009 87 12874 3.6 210 10:19 26.03.2020
429 Clouds 10 1009 87 16093 4.6 220 09:43 26.03.2020
430 Clouds 10 1009 87 16093 4.6 220 09:20 26.03.2020
431 Clouds 10 1009 87 16093 4.6 220 08:55 26.03.2020
432 Clouds 10 1009 81 16093 5.7 220 08:37 26.03.2020
433 Clouds 10 1009 81 16093 5.7 220 08:18 26.03.2020
434 Clouds 11 1010 76 16093 5.7 210 07:43 26.03.2020
435 Clouds 11 1010 76 16093 5.7 210 07:21 26.03.2020
436 Clouds 11 1010 76 16093 7.2 210 06:48 26.03.2020
437 Clouds 11 1009 71 16093 6.2 190 05:57 26.03.2020
438 Clouds 12 1009 76 16093 5.7 190 04:25 26.03.2020
439 Clouds 12 1010 76 16093 4.6 170 03:41 26.03.2020
440 Clouds 11 1011 76 16093 4.6 190 02:54 26.03.2020
441 Clouds 12 1011 71 16093 4.6 200 01:50 26.03.2020
442 Clouds 12 1012 71 16093 5.1 220 00:48 26.03.2020
443 Clouds 12 1012 66 16093 5.7 200 23:56 25.03.2020
444 Clouds 12 1012 66 16093 5.7 200 23:36 25.03.2020
445 Clouds 13 1012 66 16093 5.7 200 23:18 25.03.2020
446 Clouds 14 1013 58 16093 5.7 220 22:39 25.03.2020
447 Clouds 14 1013 58 16093 5.7 220 22:20 25.03.2020
448 Clouds 14 1013 58 16093 5.7 220 21:56 25.03.2020
449 Clouds 14 1013 62 16093 4.1 210 21:37 25.03.2020
450 Clouds 14 1013 62 16093 4.1 210 21:19 25.03.2020
451 Clear 15 1016 61 0 0.89 79 21:19 25.03.2020
452 Clouds 14 1013 62 16093 4.1 210 20:54 25.03.2020
453 Clouds 14 1014 62 16093 4.6 210 20:36 25.03.2020
454 Clouds 13 1014 62 16093 4.6 210 20:18 25.03.2020
455 Clouds 13 1014 62 16093 5.1 210 19:42 25.03.2020
456 Clouds 13 1014 62 16093 5.1 210 19:22 25.03.2020
457 Clouds 13 1014 62 16093 5.1 210 18:56 25.03.2020
458 Clouds 12 1014 62 16093 5.7 190 18:37 25.03.2020
459 Clouds 12 1014 62 16093 5.7 190 18:19 25.03.2020
460 Clear 11 1015 70 12874 2.1 0 17:54 25.03.2020
461 Clouds 11 1014 53 0 3.38 176 17:36 25.03.2020
462 Clear 9 1015 70 12874 2.1 0 17:18 25.03.2020
463 Clear 8 1015 75 11265 2.6 200 16:41 25.03.2020
464 Clear 8 1015 75 11265 2.6 200 16:22 25.03.2020
465 Clear 7 1015 75 11265 2.6 200 15:57 25.03.2020
466 Mist 6 1015 93 8047 2.1 180 15:37 25.03.2020
467 Mist 5 1015 93 8047 2.1 180 15:19 25.03.2020
468 Mist 5 1015 93 8047 2.1 180 15:19 25.03.2020
469 Mist 4 1015 93 4828 1.5 180 14:41 25.03.2020
470 Mist 3 1015 93 4828 1.5 180 14:21 25.03.2020
471 Mist 2 1015 83 6437 2.29 248 13:46 25.03.2020
472 Mist 1 1015 83 6437 2.29 248 13:26 25.03.2020
473 Mist 1 1015 83 6437 2.13 225 12:57 25.03.2020
474 Mist 1 1015 100 6437 2.29 248 12:37 25.03.2020
475 Mist 1 1015 100 6437 2.13 225 12:18 25.03.2020
476 Mist 2 1014 83 8047 2.13 225 11:43 25.03.2020
477 Mist 2 1014 83 8047 2.13 225 11:21 25.03.2020
478 Mist 2 1014 81 8047 2.06 152 10:59 25.03.2020
479 Mist 2 1014 100 9656 2.06 152 10:40 25.03.2020
480 Mist 2 1014 100 9656 2.06 152 10:19 25.03.2020
481 Mist 2 1014 100 9656 2.06 152 09:59 25.03.2020
482 Mist 2 1015 81 9656 2.06 152 09:40 25.03.2020
483 Mist 2 1015 81 9656 2.06 152 09:22 25.03.2020
484 Mist 2 1015 81 9656 2.06 152 08:54 25.03.2020
485 Clear 2 1015 93 11265 2.06 152 08:36 25.03.2020
486 Clear 2 1015 93 11265 1.69 134 08:18 25.03.2020
487 Clear 2 1015 93 12874 2.1 120 07:39 25.03.2020
488 Clear 2 1015 93 12874 2.1 120 07:19 25.03.2020
489 Clear 3 1015 86 12874 1.5 120 06:45 25.03.2020
490 Clear 3 1015 86 12874 1.5 120 06:25 25.03.2020
491 Clouds 3 1016 86 12874 2.1 90 05:50 25.03.2020
492 Clouds 3 1016 86 12874 2.1 90 04:59 25.03.2020
493 Clouds 3 1016 86 12874 3.1 80 04:36 25.03.2020
494 Clouds 3 1016 86 12874 3.1 80 03:34 25.03.2020
495 Clouds 4 1016 86 14484 4.6 80 01:55 25.03.2020
496 Clouds 4 1017 75 14484 4.6 90 01:20 25.03.2020
497 Clouds 5 1016 70 14484 4.6 100 00:43 25.03.2020
498 Clouds 5 1016 70 14484 4.6 100 00:19 25.03.2020
499 Clouds 6 1017 65 14484 4.6 80 23:42 24.03.2020
500 Clouds 6 1017 65 14484 4.6 80 23:22 24.03.2020
501 Clouds 6 1017 65 14484 3.6 110 22:55 24.03.2020
502 Clouds 6 1017 65 14484 3.6 110 22:37 24.03.2020
503 Clouds 6 1017 65 14484 3.6 110 22:37 24.03.2020
504 Clouds 6 1017 65 14484 3.6 110 22:19 24.03.2020
505 Clouds 7 1017 65 14484 3.6 110 21:54 24.03.2020
506 Clouds 7 1018 65 16093 3.1 50 21:36 24.03.2020
507 Clouds 7 1018 65 16093 3.1 50 21:36 24.03.2020
508 Clouds 7 1018 65 16093 3.1 50 21:18 24.03.2020
509 Clouds 7 1018 65 16093 2.1 0 20:41 24.03.2020
510 Clouds 7 1018 65 16093 2.1 0 20:23 24.03.2020
511 Clouds 7 1019 70 14484 2.6 60 19:54 24.03.2020
512 Clouds 7 1019 70 14484 2.6 60 19:36 24.03.2020
513 Clouds 6 1019 70 14484 2.6 60 19:18 24.03.2020
514 Clouds 6 1019 70 14484 2.6 60 18:54 24.03.2020
515 Clear 6 1020 70 16093 4.6 110 18:36 24.03.2020
516 Clear 6 1020 70 16093 4.6 110 18:18 24.03.2020
517 Clouds 5 1020 80 16093 5.7 110 17:41 24.03.2020
518 Clouds 5 1020 80 16093 5.7 110 17:22 24.03.2020
519 Clouds 5 1020 80 16093 5.7 110 17:22 24.03.2020
520 Clouds 5 1019 75 16093 4.6 110 16:57 24.03.2020
521 Clouds 4 1019 70 11265 4.6 70 16:39 24.03.2020
522 Clouds 4 1019 84 16093 4.6 80 16:20 24.03.2020
523 Clouds 3 1020 93 11265 3.1 100 15:44 24.03.2020
524 Clouds 3 1020 93 11265 3.1 100 15:26 24.03.2020
525 Mist 2 1020 86 4828 3.1 90 14:59 24.03.2020
526 Mist 1 1021 84 4023 2.1 90 14:40 24.03.2020
527 Mist 2 1021 93 4828 1.5 100 14:18 24.03.2020
528 Mist 1 1021 81 4828 1.5 100 13:42 24.03.2020
529 Mist 1 1021 81 6437 2.97 113 13:23 24.03.2020
530 Mist 1 1021 81 6437 2.97 113 13:23 24.03.2020
531 Mist 1 1022 81 6437 2.1 180 12:47 24.03.2020
532 Mist 1 1022 81 6437 2.1 180 12:28 24.03.2020
533 Mist 1 1022 81 6437 2.6 180 11:59 24.03.2020
534 Mist 1 1022 81 6437 2.97 113 11:39 24.03.2020
535 Clouds 0 1021 86 4828 3.22 147 11:19 24.03.2020
536 Clouds 0 1021 86 6437 3.22 147 10:42 24.03.2020
537 Mist 0 1022 100 4023 3.22 147 10:19 24.03.2020
538 Mist 0 1021 86 8047 3.22 147 09:57 24.03.2020
539 Mist 0 1021 86 8047 3.22 147 09:39 24.03.2020
540 Clouds 0 1022 86 11265 1.5 240 09:20 24.03.2020
541 Mist 0 1022 86 8047 3.22 147 08:38 24.03.2020
542 Mist 0 1022 100 4828 3.75 152 08:20 24.03.2020
543 Mist 0 1023 83 6437 3.75 152 07:47 24.03.2020
544 Mist 0 1022 93 8047 3.75 152 07:24 24.03.2020
545 Mist 0 1022 83 8047 1.5 260 06:52 24.03.2020
546 Clouds 0 1022 83 6437 1.5 270 06:25 24.03.2020
547 Mist 1 1022 84 9656 1.5 270 04:57 24.03.2020
548 Clouds 1 1022 74 16093 3.6 280 03:48 24.03.2020
549 Clear 2 1022 84 11265 1.93 116 02:49 24.03.2020
550 Clear 3 1021 84 16093 2.1 300 01:42 24.03.2020
551 Clouds 4 1021 75 16093 1.5 300 00:44 24.03.2020
552 Clouds 5 1021 75 16093 2.1 270 00:23 24.03.2020
553 Clouds 5 1022 65 16093 1.5 280 23:44 23.03.2020
554 Clouds 5 1021 65 16093 3.57 124 23:26 23.03.2020
555 Clouds 5 1021 65 16093 3.57 124 23:26 23.03.2020
556 Clouds 5 1022 75 16093 1.5 200 22:55 23.03.2020
557 Clouds 5 1022 83 11265 1.7 123 22:36 23.03.2020
558 Clouds 5 1022 83 16093 2.1 250 22:18 23.03.2020
559 Rain 5 1021 70 16093 1.5 270 21:42 23.03.2020
560 Rain 5 1022 83 16093 1.7 123 21:20 23.03.2020
561 Rain 4 1022 80 8047 1.5 0 20:57 23.03.2020
562 Rain 4 1021 80 16093 1.7 123 20:38 23.03.2020
563 Rain 4 1022 82 16093 1.48 346 20:19 23.03.2020
564 Rain 4 1022 74 16093 2.11 341 19:45 23.03.2020
565 Rain 3 1022 80 16093 2.11 341 19:26 23.03.2020
566 Rain 3 1023 81 16093 2.1 280 18:57 23.03.2020
567 Rain 2 1023 86 16093 2.11 341 18:39 23.03.2020
568 Rain 2 1023 81 14484 2.6 320 18:20 23.03.2020
569 Rain 2 1023 86 16093 1.5 340 17:42 23.03.2020
570 Rain 2 1023 86 16093 1.5 340 17:21 23.03.2020
571 Rain 2 1023 86 16093 3.48 345 16:57 23.03.2020
572 Rain 1 1023 82 16093 1.5 360 16:39 23.03.2020
573 Rain 1 1023 82 16093 1.5 360 16:20 23.03.2020
574 Rain 1 1022 86 16093 2.1 30 15:42 23.03.2020
575 Rain 1 1022 93 6437 2.1 330 15:20 23.03.2020
576 Rain 0 1022 86 8047 3.6 350 14:38 23.03.2020
577 Rain 0 1022 100 4023 4.17 350 14:20 23.03.2020
578 Rain 0 1022 100 4023 4.17 350 14:20 23.03.2020
579 Snow 0 1021 86 6437 3.1 340 13:59 23.03.2020
580 Snow 0 1021 100 6437 4.17 350 13:40 23.03.2020
581 Snow 0 1021 88 3219 3.94 350 13:20 23.03.2020
582 Snow 0 1021 100 4828 3.94 350 12:45 23.03.2020
583 Snow 0 1021 100 4828 3.94 350 12:45 23.03.2020
584 Mist 0 1021 100 6437 2.1 330 12:25 23.03.2020
585 Mist 0 1020 100 6437 1.5 10 11:59 23.03.2020
586 Mist 0 1020 100 6437 1.5 10 11:59 23.03.2020
587 Mist 0 1020 86 9656 2.6 350 11:40 23.03.2020
588 Mist 0 1020 86 9656 2.6 350 11:20 23.03.2020
589 Mist 0 1020 86 9656 2.6 350 11:20 23.03.2020
590 Mist 0 1020 97 4828 1.74 291 10:58 23.03.2020
591 Rain 0 1020 86 8047 2.6 10 10:38 23.03.2020
592 Rain 0 1020 86 8047 2.6 10 10:38 23.03.2020
593 Rain 0 1020 97 3219 1.74 291 10:20 23.03.2020
594 Rain 0 1020 100 2012 1.74 291 09:44 23.03.2020
595 Rain 0 1021 97 3219 1.74 291 09:21 23.03.2020
596 Snow 0 1021 97 4828 1.74 291 08:57 23.03.2020
597 Snow 0 1021 100 2414 1.5 10 08:36 23.03.2020
598 Snow 0 1021 97 4023 2.55 169 08:18 23.03.2020
599 Snow 0 1021 97 3219 2.55 169 07:45 23.03.2020
600 Snow 0 1022 97 4023 2.55 169 07:27 23.03.2020
601 Snow 0 1022 97 2816 2.55 169 06:51 23.03.2020
602 Snow 0 1023 97 3219 2.55 169 05:54 23.03.2020
603 Snow 0 1023 97 2816 2.55 169 05:29 23.03.2020
604 Snow 0 1025 98 3219 1.5 100 03:29 23.03.2020
605 Snow -1 1025 97 3219 2.6 110 01:51 23.03.2020
606 Snow 0 1025 97 3219 2.6 110 01:33 23.03.2020
607 Snow 0 1025 97 1207 3.1 120 00:39 23.03.2020
608 Snow -1 1026 97 1207 2.1 130 23:48 22.03.2020
609 Snow -1 1026 97 805 1.5 140 23:26 22.03.2020
610 Snow 0 1027 66 1207 2.6 150 22:47 22.03.2020
611 Snow 0 1027 66 1207 2.1 140 22:26 22.03.2020
612 Snow 0 1027 66 1207 4.6 170 21:57 22.03.2020
613 Snow 1 1027 80 1609 3.1 140 21:39 22.03.2020
614 Snow 1 1028 66 2012 3.1 170 21:20 22.03.2020
615 Clouds 1 1028 55 16093 4.1 160 20:54 22.03.2020
616 Clouds 1 1028 64 16093 3.6 120 20:36 22.03.2020
617 Clouds 1 1028 64 16093 3.6 120 20:18 22.03.2020
618 Rain 1 1029 55 16093 4.1 110 19:54 22.03.2020
619 Rain 1 1030 64 16093 4.6 130 19:36 22.03.2020
620 Rain 1 1030 64 16093 4.6 130 19:18 22.03.2020
621 Clear 1 1030 59 16093 5.1 130 18:41 22.03.2020
622 Clear 1 1030 59 16093 5.1 130 18:22 22.03.2020
623 Clear 1 1030 59 16093 5.1 130 18:22 22.03.2020
624 Clear 1 1030 55 16093 6.2 140 17:59 22.03.2020
625 Clear 1 1030 55 16093 6.2 140 17:59 22.03.2020
626 Clouds 1 1031 63 16093 6.7 130 17:39 22.03.2020
627 Clouds 0 1031 59 16093 5.7 130 17:21 22.03.2020
628 Clouds 0 1031 72 16093 6.7 130 17:21 22.03.2020
629 Clouds 0 1031 59 16093 5.7 130 16:59 22.03.2020
630 Clouds 0 1032 72 16093 7.2 130 16:41 22.03.2020
631 Clouds 0 1032 72 16093 7.2 130 16:22 22.03.2020
632 Clouds 0 1032 72 16093 5.7 130 15:58 22.03.2020
633 Clouds 0 1033 72 16093 5.7 130 15:39 22.03.2020
634 Clouds -1 1032 74 16093 3.1 130 14:47 22.03.2020
635 Clouds -1 1033 79 16093 4.6 100 14:19 22.03.2020
636 Clouds -2 1033 68 16093 5.1 110 13:57 22.03.2020
637 Clouds -2 1033 68 16093 3.1 110 13:39 22.03.2020
638 Clouds -3 1034 79 16093 3.1 100 13:19 22.03.2020
639 Clouds -3 1033 79 16093 2.1 110 12:44 22.03.2020
640 -273 0 0 0 0 0 12:20 22.03.2020
641 Clouds -3 1033 79 16093 4.1 100 11:56 22.03.2020
642 Clouds -3 1033 79 16093 2.6 100 11:38 22.03.2020
643 Clear -3 1033 74 16093 2.6 100 11:19 22.03.2020
644 Clouds -4 1032 79 16093 2.1 80 10:43 22.03.2020
645 Clear -4 1033 79 16093 2.1 80 10:24 22.03.2020
646 Clear -4 1033 79 16093 2.1 80 10:24 22.03.2020
647 Clear -4 1034 68 16093 2.1 110 09:49 22.03.2020
648 Clear -4 1034 85 16093 2.6 100 09:30 22.03.2020
649 Clear -4 1034 68 16093 2.6 100 08:55 22.03.2020
650 Clear -4 1034 79 16093 2.1 80 08:36 22.03.2020
651 Clear -4 1034 79 16093 2.1 80 08:36 22.03.2020
652 Clear -4 1034 79 16093 2.1 80 08:18 22.03.2020
653 Clear -4 1035 68 16093 2.6 90 07:48 22.03.2020
654 Clear -4 1034 79 16093 2.1 80 07:18 22.03.2020
655 Clear -4 1034 73 16093 1.5 100 05:54 22.03.2020
656 Clear -4 1035 63 16093 2.6 60 04:58 22.03.2020
657 Clear -3 1034 68 16093 2.1 90 02:43 22.03.2020
658 Clouds -2 1035 68 16093 2.1 30 01:20 22.03.2020
659 Clouds -1 1035 63 16093 3.1 30 00:35 22.03.2020
660 Clouds -1 1035 54 16093 4.1 100 23:57 21.03.2020
661 Clouds 0 1035 63 16093 2.1 20 23:38 21.03.2020
662 Clouds 0 1035 58 16093 2.6 40 23:18 21.03.2020
663 Snow 0 1035 68 16093 2.6 360 22:38 21.03.2020
664 Snow 0 1035 68 16093 2.6 360 22:38 21.03.2020
665 Rain 0 1035 68 16093 2.6 360 22:20 21.03.2020
666 Clouds 0 1035 58 16093 4.6 70 21:59 21.03.2020
667 Clouds 1 1035 68 16093 2.6 350 21:39 21.03.2020
668 Clouds 0 1035 68 16093 2.6 350 21:21 21.03.2020
669 Clouds 0 1035 50 16093 3.1 40 20:46 21.03.2020
670 Clouds 0 1036 68 16093 3.1 30 20:23 21.03.2020
671 Clouds 0 1036 58 16093 3.1 70 19:57 21.03.2020
672 Clouds 0 1036 63 16093 4.6 50 19:39 21.03.2020
673 Clouds 0 1036 74 16093 2.1 360 19:20 21.03.2020
674 Clouds 0 1036 58 16093 3.1 50 18:54 21.03.2020
675 Clouds 0 1036 63 16093 4.71 39 18:36 21.03.2020
676 Clouds -1 1036 58 16093 4.1 90 18:18 21.03.2020
677 Clouds -1 1037 58 16093 3.1 50 17:42 21.03.2020
678 Clouds -1 1036 58 16093 3.1 50 17:23 21.03.2020
679 Clouds -1 1036 63 16093 3.6 60 16:57 21.03.2020
680 Clouds -1 1037 58 16093 4.1 20 16:38 21.03.2020
681 Clouds -2 1036 68 16093 4.1 30 16:18 21.03.2020
682 Clouds -2 1036 63 16093 5.1 40 16:18 21.03.2020
683 Clouds -2 1036 68 16093 3.6 90 15:42 21.03.2020
684 Clouds -2 1035 68 16093 3.6 40 15:23 21.03.2020
685 Clouds -2 1035 63 16093 7.2 30 14:58 21.03.2020
686 Clouds -2 1036 68 16093 4.6 50 14:40 21.03.2020
687 Clouds -2 1035 68 16093 5.1 50 14:20 21.03.2020
688 Clouds -3 1035 63 16093 6.7 60 13:59 21.03.2020
689 Clouds -3 1035 68 16093 1.5 20 13:40 21.03.2020
690 Clouds -3 1035 68 16093 5.1 40 13:22 21.03.2020
691 Clouds -3 1035 68 16093 7.2 50 12:59 21.03.2020
692 Clouds -3 1034 68 16093 2.6 40 12:38 21.03.2020
693 Clouds -3 1034 68 16093 2.6 40 12:19 21.03.2020
694 Clouds -3 1034 68 16093 2.6 40 12:19 21.03.2020
695 Clouds -3 1034 68 16093 3.1 30 11:56 21.03.2020
696 Clouds -3 1034 68 16093 6.2 20 11:38 21.03.2020
697 Clouds -3 1034 63 16093 5.7 10 11:19 21.03.2020
698 Clouds -3 1034 79 16093 6.2 40 10:56 21.03.2020
699 Clouds -3 1034 63 16093 6.2 10 10:38 21.03.2020
700 Clouds -3 1033 58 16093 5.7 10 10:19 21.03.2020
701 Clouds -3 1034 63 16093 6.2 20 09:55 21.03.2020
702 Clouds -2 1034 63 16093 7.2 30 09:37 21.03.2020
703 Clouds -2 1034 63 16093 7.2 30 09:18 21.03.2020
704 Clouds -2 1034 63 16093 7.2 30 08:43 21.03.2020
705 Clouds -2 1034 63 16093 7.2 30 08:24 21.03.2020
706 Clouds -2 1033 68 16093 4.1 30 07:45 21.03.2020
707 Clouds -1 1034 68 16093 6.2 40 07:27 21.03.2020
708 Clouds -1 1034 73 16093 7.2 10 06:48 21.03.2020
709 Clouds -1 1034 74 16093 3.1 60 06:28 21.03.2020
710 Clouds -1 1033 73 16093 7.2 30 05:46 21.03.2020
711 Clouds 0 1032 74 16093 3.1 60 04:46 21.03.2020
712 Clouds 0 1032 59 16093 6.7 30 02:51 21.03.2020
713 Clouds 0 1031 74 16093 5.7 30 02:33 21.03.2020
714 Clouds 1 1030 70 16093 3.6 20 01:32 21.03.2020
715 Clouds 1 1030 59 16093 6.7 20 00:48 21.03.2020
716 Clouds 1 1029 69 16093 5.1 30 00:26 21.03.2020
717 Clouds 1 1028 55 16093 3.6 20 23:51 20.03.2020
718 Clouds 2 1028 74 16093 6.7 10 23:27 20.03.2020
719 Clouds 2 1028 69 16093 7.7 30 22:59 20.03.2020
720 Clouds 2 1028 69 16093 7.7 30 22:59 20.03.2020
721 Clouds 2 1026 80 16093 8.2 20 22:40 20.03.2020
722 Clouds 2 1026 80 16093 8.2 20 22:21 20.03.2020
723 Clouds 2 1026 69 16093 8.2 30 21:56 20.03.2020
724 Clouds 3 1025 80 16093 8.2 10 21:38 20.03.2020
725 Rain 3 1025 80 16093 8.2 10 21:18 20.03.2020
726 Rain 3 1025 64 16093 7.2 350 20:55 20.03.2020
727 Rain 3 1024 60 16093 8.2 350 20:37 20.03.2020
728 Clouds 4 1024 77 16093 5.7 10 20:18 20.03.2020
729 Clouds 4 1023 60 16093 6.2 350 19:44 20.03.2020
730 Clouds 4 1023 80 16093 4.6 30 19:18 20.03.2020
731 Clouds 4 1023 69 16093 7.7 340 18:55 20.03.2020
732 Clouds 4 1023 69 16093 7.2 340 18:36 20.03.2020
733 Clouds 4 1023 69 16093 7.2 340 18:18 20.03.2020
734 Clouds 4 1023 69 16093 7.2 340 18:18 20.03.2020
735 Clouds 4 1021 69 16093 5.1 340 17:39 20.03.2020
736 Clouds 4 1021 69 16093 5.1 340 17:21 20.03.2020
737 Clouds 4 1020 80 16093 7.2 340 16:57 20.03.2020
738 Clouds 4 1020 80 16093 5.1 360 16:39 20.03.2020
739 Clouds 4 1020 80 16093 5.1 360 16:39 20.03.2020
740 Clouds 4 1019 80 16093 6.7 340 16:18 20.03.2020
741 Clouds 4 1019 80 16093 5.7 330 15:42 20.03.2020
742 Clouds 4 1018 86 16093 4.6 340 15:21 20.03.2020
743 Rain 4 1017 86 16093 4.1 360 14:54 20.03.2020
744 Rain 4 1016 86 16093 8.2 340 14:36 20.03.2020
745 Rain 4 1016 93 6437 3.1 330 14:18 20.03.2020
746 Clouds 4 1015 93 16093 3.1 350 13:40 20.03.2020
747 Clouds 4 1013 86 16093 7.2 330 13:19 20.03.2020
748 Mist 4 1012 100 4023 8.2 330 12:39 20.03.2020
749 Clouds 5 1012 93 8047 5.1 340 12:20 20.03.2020
750 Clouds 5 1011 93 16093 7.7 330 11:57 20.03.2020
751 Rain 6 1009 87 16093 5.7 340 11:38 20.03.2020
752 Rain 6 1009 87 16093 5.7 340 11:18 20.03.2020
753 Rain 6 1007 93 16093 2.6 10 10:41 20.03.2020
754 Rain 7 1007 100 16093 5.1 360 10:21 20.03.2020
755 Rain 8 1007 100 16093 5.1 340 09:55 20.03.2020
756 Rain 8 1007 100 16093 5.1 340 09:55 20.03.2020
757 Rain 10 1006 93 11265 3.6 30 09:37 20.03.2020
758 Rain 11 1006 93 16093 10.8 230 09:18 20.03.2020
759 Rain 12 1005 82 16093 4.1 210 08:41 20.03.2020
760 Rain 13 1005 87 16093 9.3 220 08:22 20.03.2020
761 Rain 15 1006 77 16093 5.7 210 07:48 20.03.2020
762 Clouds 15 1006 87 16093 7.7 210 07:30 20.03.2020
763 Rain 16 1006 87 16093 4.6 330 06:51 20.03.2020
764 Rain 16 1006 87 16093 7.7 220 06:32 20.03.2020
765 Rain 16 1005 93 16093 4.6 220 04:51 20.03.2020
766 Rain 16 1006 100 16093 8.2 210 03:21 20.03.2020
767 Rain 16 1005 100 16093 5.1 210 01:57 20.03.2020
768 Rain 14 1004 100 4828 1.5 170 00:51 20.03.2020
769 Rain 14 1005 100 4023 1.5 140 00:29 20.03.2020
770 Drizzle 13 1005 93 2414 2.6 160 23:47 19.03.2020
771 Rain 12 1005 100 4828 3.1 190 23:28 19.03.2020
772 Rain 12 1006 100 6437 4.6 180 22:56 19.03.2020
773 Rain 11 1007 100 2414 5.1 140 22:38 19.03.2020
774 Drizzle 11 1007 100 16093 6.7 150 22:19 19.03.2020
775 Rain 11 1008 100 3219 4.1 140 21:42 19.03.2020
776 Rain 10 1009 100 8047 5.1 150 21:20 19.03.2020
777 Rain 10 1009 100 6437 5.1 170 20:59 19.03.2020
778 Rain 10 1011 100 11265 5.7 150 20:41 19.03.2020
779 Rain 10 1011 100 11265 5.7 150 20:22 19.03.2020
780 Rain 9 1011 100 6437 4.1 160 19:55 19.03.2020
781 Rain 9 1012 93 3219 2.6 130 19:37 19.03.2020
782 Rain 8 1013 100 6437 5.7 140 19:19 19.03.2020
783 Rain 8 1013 87 8047 5.1 160 18:42 19.03.2020
784 Rain 8 1013 93 8047 3.6 160 18:22 19.03.2020
785 Rain 8 1014 100 2414 5.7 160 17:58 19.03.2020
786 Clouds 7 1014 100 8047 4.6 140 17:40 19.03.2020
787 Clouds 7 1014 100 8047 4.6 140 17:19 19.03.2020
788 Rain 7 1015 100 6437 3.6 110 16:43 19.03.2020
789 Rain 6 1016 100 8047 6.7 130 16:23 19.03.2020
790 Clouds 6 1016 100 1207 4.1 120 15:45 19.03.2020
791 Mist 6 1017 100 3219 3.1 140 15:27 19.03.2020
792 Mist 5 1017 100 2816 5.1 130 14:58 19.03.2020
793 Rain 5 1017 100 1609 5.1 150 14:40 19.03.2020
794 Rain 5 1018 100 1207 5.1 150 14:19 19.03.2020
795 Fog 5 1017 93 402 4.1 140 13:40 19.03.2020
796 Mist 5 1019 100 2012 3.1 130 13:19 19.03.2020
797 Clouds 5 1019 100 402 2.6 160 12:55 19.03.2020
798 Rain 5 1018 93 402 3.6 110 12:37 19.03.2020
799 Rain 5 1018 93 402 3.6 110 12:18 19.03.2020
800 Rain 4 1019 93 2414 3.6 140 11:41 19.03.2020
801 Rain 4 1018 100 4023 3.6 110 11:23 19.03.2020
802 Rain 4 1019 86 6437 1.5 110 10:56 19.03.2020
803 Rain 4 1019 86 6437 1.5 110 10:36 19.03.2020
804 Mist 4 1020 100 4828 3.6 140 10:18 19.03.2020
805 Mist 4 1020 100 6437 2.1 100 09:44 19.03.2020
806 Rain 4 1020 100 6437 2.1 100 09:25 19.03.2020
807 Rain 4 1020 93 6437 2.6 80 08:48 19.03.2020
808 Rain 4 1020 93 6437 2.6 80 08:23 19.03.2020
809 Rain 4 1020 93 6437 2.6 80 08:23 19.03.2020
810 Rain 4 1020 100 6437 1.5 90 07:59 19.03.2020
811 Clouds 4 1019 100 4828 2.1 90 07:38 19.03.2020
812 Rain 4 1020 93 8047 3.6 90 07:19 19.03.2020
813 Rain 4 1019 93 4828 2.6 70 06:27 19.03.2020
814 Clouds 5 1020 100 6437 1.5 90 05:25 19.03.2020
815 Rain 5 1019 100 6437 2.1 60 04:51 19.03.2020
816 Rain 5 1019 100 4828 2.6 70 04:21 19.03.2020
817 Rain 5 1019 93 8047 4.1 60 01:58 19.03.2020
818 Rain 6 1017 87 4828 2.6 110 00:53 19.03.2020
819 Rain 6 1017 93 4828 2.6 50 00:20 19.03.2020
820 Rain 6 1016 93 6437 3.1 90 23:44 18.03.2020
821 Rain 6 1016 93 6437 3.1 90 23:26 18.03.2020
822 Rain 6 1016 93 6437 5.1 90 22:43 18.03.2020
823 Rain 6 1017 100 4828 4.1 90 22:23 18.03.2020
824 Rain 6 1017 100 2816 3.6 100 21:58 18.03.2020
825 Rain 6 1017 100 3219 4.1 80 21:40 18.03.2020
826 Rain 6 1017 93 4828 2.6 90 21:20 18.03.2020
827 Rain 6 1017 100 4023 4.6 100 20:55 18.03.2020
828 Rain 6 1018 93 4023 4.6 80 20:37 18.03.2020
829 Rain 6 1018 93 6437 2.6 80 20:19 18.03.2020
830 Rain 6 1019 93 4023 3.1 80 19:41 18.03.2020
831 Rain 6 1019 93 11265 3.1 100 19:21 18.03.2020
832 Rain 6 1019 81 16093 1.5 150 18:59 18.03.2020
833 Rain 6 1019 70 16093 1.5 130 18:40 18.03.2020
834 Rain 6 1019 70 16093 1.5 130 18:19 18.03.2020
835 Rain 6 1019 70 16093 1.5 130 18:19 18.03.2020
836 Rain 6 1020 87 8047 2.1 120 17:56 18.03.2020
837 Rain 6 1020 75 16093 3.6 140 17:38 18.03.2020
838 Clouds 6 1021 70 12874 4.1 170 17:19 18.03.2020
839 Clouds 6 1020 65 16093 2.6 130 16:43 18.03.2020
840 Clouds 6 1021 75 16093 3.6 150 16:21 18.03.2020
841 Clouds 6 1021 70 14484 4.1 140 15:58 18.03.2020
842 Clouds 5 1022 75 16093 2.6 150 15:38 18.03.2020
843 Clouds 5 1022 75 16093 2.6 150 15:20 18.03.2020
844 Clouds 4 1022 88 16093 3.6 130 14:43 18.03.2020
845 Clouds 4 1022 81 16093 3.6 130 14:21 18.03.2020
846 Clouds 4 1023 60 16093 3.6 120 13:42 18.03.2020
847 Clouds 4 1022 60 16093 2.6 110 13:19 18.03.2020
848 Clouds 4 1022 60 16093 2.6 110 13:19 18.03.2020
849 Clouds 3 1023 55 16093 3.6 120 12:55 18.03.2020
850 Clouds 3 1023 55 16093 3.6 120 12:37 18.03.2020
851 Clouds 3 1022 55 16093 2.1 100 12:19 18.03.2020
852 Clouds 3 1024 51 16093 3.1 110 11:38 18.03.2020
853 Clouds 3 1024 51 16093 3.1 110 11:19 18.03.2020
854 Clear 3 1023 74 16093 2.6 110 10:57 18.03.2020
855 Clear 3 1024 69 16093 2.6 100 10:37 18.03.2020
856 Clear 3 1024 69 16093 2.6 100 10:19 18.03.2020
857 Clouds 3 1024 44 16093 2.1 130 09:43 18.03.2020
858 Clear 3 1025 59 16093 2.1 110 09:23 18.03.2020
859 Clear 3 1025 44 16093 2.6 170 08:55 18.03.2020
860 Clear 3 1025 55 16093 1.5 130 08:37 18.03.2020
861 Clear 3 1025 55 16093 1.5 130 08:19 18.03.2020
862 Clear 3 1024 41 16093 3.1 130 07:43 18.03.2020
863 Clear 3 1024 44 16093 2.6 120 07:25 18.03.2020
864 Clear 3 1025 44 16093 2.1 130 06:44 18.03.2020
865 Clear 3 1025 40 16093 2.6 110 05:56 18.03.2020
866 Clear 3 1026 40 16093 2.1 110 05:33 18.03.2020
867 Clear 2 1026 40 16093 2.1 110 03:56 18.03.2020
868 Clear 3 1027 34 16093 2.1 90 02:40 18.03.2020
869 Clouds 4 1026 40 16093 4.81 123 01:46 18.03.2020
870 Clouds 5 1025 35 16093 4.6 110 01:21 18.03.2020
871 Clear 7 1024 33 16093 4.99 126 00:23 18.03.2020
872 Clouds 8 1025 25 16093 4.1 60 23:47 17.03.2020
873 Clear 8 1024 33 16093 4.99 126 23:26 17.03.2020
874 Clouds 8 1026 20 16093 4.1 50 22:47 17.03.2020
875 Clear 8 1025 33 16093 3.97 101 22:29 17.03.2020
876 Clouds 8 1025 36 16093 4.6 110 21:59 17.03.2020
877 Clear 8 1026 45 16093 4.1 70 21:37 17.03.2020
878 Clear 8 1026 45 16093 4.1 70 21:19 17.03.2020
879 Clear 7 1026 45 16093 4.1 70 20:39 17.03.2020
880 Clear 7 1026 45 16093 4.1 70 20:21 17.03.2020
881 Clouds 7 1026 31 16093 3.6 350 19:56 17.03.2020
882 Clear 7 1026 48 16093 3.1 20 19:38 17.03.2020
883 Clear 6 1026 48 16093 3.1 20 19:18 17.03.2020
884 Clear 6 1027 45 16093 2.6 340 18:54 17.03.2020
885 Clear 6 1026 44 16093 4.6 340 18:36 17.03.2020
886 Clear 5 1026 44 16093 4.6 340 18:18 17.03.2020
887 Clouds 5 1026 28 16093 3.6 10 18:18 17.03.2020
888 Clouds 4 1026 60 16093 3.1 350 17:40 17.03.2020
889 Clouds 4 1026 48 16093 4.6 310 17:20 17.03.2020
890 Clear 4 1026 47 16093 3.6 320 16:44 17.03.2020
891 Clouds 3 1025 60 16093 4.6 320 16:20 17.03.2020
892 Clouds 3 1025 60 16093 4.6 320 15:56 17.03.2020
893 Clouds 3 1025 60 16093 4.6 320 15:56 17.03.2020
894 Clouds 2 1025 67 16093 2.6 300 15:38 17.03.2020
895 Clouds 2 1025 67 16093 2.6 300 15:18 17.03.2020
896 Clouds 2 1024 86 16093 4.6 290 14:41 17.03.2020
897 Clouds 1 1024 86 16093 4.6 290 14:18 17.03.2020
898 Clouds 1 1023 86 16093 3.6 270 13:43 17.03.2020
899 Clouds 2 1023 86 16093 3.6 270 13:24 17.03.2020
900 Clouds 2 1022 85 16093 3.6 270 12:54 17.03.2020
901 Clouds 2 1022 85 16093 3.6 270 12:36 17.03.2020
902 Clouds 2 1022 93 16093 2.6 300 12:18 17.03.2020
903 Clouds 3 1021 93 16093 2.6 280 11:42 17.03.2020
904 Clouds 3 1021 93 16093 3.6 280 11:24 17.03.2020
905 Clouds 3 1022 93 11265 4.6 280 10:57 17.03.2020
906 Clouds 3 1021 93 11265 2.6 270 10:37 17.03.2020
907 Clouds 3 1021 93 11265 2.6 270 10:18 17.03.2020
908 Clouds 3 1021 93 11265 2.6 280 09:46 17.03.2020
909 Clouds 3 1021 93 11265 3.1 270 09:20 17.03.2020
910 Clouds 3 1021 93 11265 5.85 283 08:59 17.03.2020
911 Clouds 3 1021 93 11265 3.1 270 08:41 17.03.2020
912 Clouds 3 1021 93 11265 3.1 270 08:20 17.03.2020
913 Rain 3 1021 100 11265 2.1 270 07:49 17.03.2020
914 Rain 3 1021 100 11265 2.6 270 07:21 17.03.2020
915 Clouds 3 1020 93 6437 1.5 260 06:52 17.03.2020
916 Clouds 3 1020 93 6437 1.5 260 06:25 17.03.2020
917 Rain 3 1021 93 8047 4.1 280 05:34 17.03.2020
918 Drizzle 3 1022 93 2816 2.6 250 03:36 17.03.2020
919 Rain 3 1022 100 3219 1.5 220 02:31 17.03.2020
920 Drizzle 3 1021 86 8047 2.1 220 01:39 17.03.2020
921 Drizzle 3 1022 100 4828 1.5 230 01:18 17.03.2020
922 Mist 4 1022 93 4828 2.6 240 00:19 17.03.2020
923 Clouds 4 1022 86 14484 3.6 200 23:43 16.03.2020
924 Clouds 4 1021 86 16093 3.1 240 23:22 16.03.2020
925 Clouds 4 1022 86 12874 2.6 210 22:38 16.03.2020
926 Clouds 4 1022 80 16093 3.1 220 22:20 16.03.2020
927 Clouds 4 1022 93 8047 2.1 250 21:45 16.03.2020
928 Clouds 4 1023 86 16093 3.1 220 21:27 16.03.2020
929 Clouds 3 1023 93 4828 2.6 240 20:59 16.03.2020
930 Drizzle 3 1023 86 6437 3.6 210 20:40 16.03.2020
931 Clouds 3 1024 86 16093 3.1 200 20:21 16.03.2020
932 Clouds 3 1024 100 8047 3.6 230 19:47 16.03.2020
933 Rain 3 1025 86 16093 2.1 210 19:25 16.03.2020
934 Rain 2 1025 93 12874 2.1 200 18:59 16.03.2020
935 Rain 2 1025 93 11265 2.6 170 18:40 16.03.2020
936 Rain 2 1025 93 4828 2.1 190 18:20 16.03.2020
937 Rain 2 1026 81 2012 4.91 201 17:46 16.03.2020
938 Rain 2 1026 81 1609 4.91 201 17:26 16.03.2020
939 Rain 2 1026 69 12874 2.6 200 16:58 16.03.2020
940 Clouds 2 1027 74 16093 2.6 180 16:40 16.03.2020
941 Clouds 2 1027 74 16093 2.6 180 16:21 16.03.2020
942 Clouds 2 1026 80 16093 4.78 188 15:43 16.03.2020
943 Clouds 2 1027 74 16093 2.6 150 15:24 16.03.2020
944 Clouds 1 1027 86 16093 4.78 188 14:48 16.03.2020
945 Clouds 0 1028 79 16093 2.6 130 14:24 16.03.2020
946 Clear 0 1028 92 16093 6.19 156 13:51 16.03.2020
947 Clouds 0 1028 80 16093 2.6 140 13:29 16.03.2020
948 Clouds -1 1028 74 16093 4.6 140 12:58 16.03.2020
949 Clear -1 1029 100 16093 1.5 110 12:39 16.03.2020
950 Clouds -1 1028 80 16093 3.1 140 12:20 16.03.2020
951 Clouds -1 1029 80 16093 1.5 140 11:44 16.03.2020
952 Rain -1 1029 80 16093 1.5 140 11:26 16.03.2020
953 Clear -2 1028 92 16093 5.63 157 10:45 16.03.2020
954 Clear -2 1029 92 16093 5.63 157 10:25 16.03.2020
955 Clouds -2 1029 86 16093 2.1 140 09:59 16.03.2020
956 Clear -2 1030 92 16093 2.1 120 09:38 16.03.2020
957 Clouds -1 1030 86 16093 1.5 100 09:19 16.03.2020
958 Clear -2 1030 83 11265 1.5 120 08:43 16.03.2020
959 Clear -2 1030 100 11265 1.5 100 08:23 16.03.2020
960 Clear -1 1031 100 11265 4.84 137 07:43 16.03.2020
961 Clear -1 1031 100 16093 4.84 137 07:21 16.03.2020
962 Clouds -1 1031 80 16093 1.5 80 07:21 16.03.2020
963 Clear -1 1032 82 16093 4.84 137 06:41 16.03.2020
964 Clouds -1 1031 74 16093 2.6 60 06:22 16.03.2020
965 Clear 0 1033 86 16093 2.1 40 04:26 16.03.2020
966 Clear 1 1034 69 16093 1.5 50 01:47 16.03.2020
967 Clear 3 1034 64 16093 2.1 100 00:46 16.03.2020
968 Clear 3 1034 69 16093 3.1 20 00:27 16.03.2020
969 Clear 4 1035 64 16093 1.5 30 23:40 15.03.2020
970 Clear 4 1035 64 16093 1.5 30 23:19 15.03.2020
971 Clear 5 1035 60 16093 1.5 30 22:42 15.03.2020
972 Clear 5 1035 60 16093 1.5 30 22:21 15.03.2020
973 Clear 5 1035 60 16093 5.7 10 21:39 15.03.2020
974 Clouds 5 1036 51 16093 5.1 30 21:21 15.03.2020
975 Clouds 5 1036 51 16093 5.1 30 20:58 15.03.2020
976 Clear 5 1036 60 16093 6.2 40 20:40 15.03.2020
977 Clear 5 1036 60 16093 6.2 40 20:19 15.03.2020
978 Clouds 4 1036 51 16093 6.2 30 19:55 15.03.2020
979 Clouds 4 1036 51 16093 6.2 30 19:55 15.03.2020
980 Clouds 4 1037 55 16093 3.1 0 19:37 15.03.2020
981 Clear 4 1037 55 16093 5.1 50 19:18 15.03.2020
982 Clouds 3 1037 55 16093 5.7 30 18:42 15.03.2020
983 Clouds 3 1038 59 16093 4.1 70 18:24 15.03.2020
984 Clouds 3 1038 59 16093 5.1 90 17:59 15.03.2020
985 Clouds 2 1038 69 16093 5.1 30 17:39 15.03.2020
986 Clouds 2 1038 69 16093 5.1 30 17:20 15.03.2020
987 Clouds 2 1038 74 16093 4.6 60 16:55 15.03.2020
988 Clouds 1 1038 74 16093 4.6 40 16:37 15.03.2020
989 Clouds 1 1038 74 16093 4.6 40 16:18 15.03.2020
990 Clouds 1 1038 74 16093 3.1 70 15:42 15.03.2020
991 Clouds 1 1038 80 16093 5.1 70 15:22 15.03.2020
992 Clouds 1 1037 74 16093 3.1 70 14:47 15.03.2020
993 Clouds 1 1037 83 16093 3.6 50 14:28 15.03.2020
994 Clouds 0 1037 74 16093 6.2 40 13:59 15.03.2020
995 Clear 0 1037 83 16093 2.6 40 13:39 15.03.2020
996 Clear 0 1037 83 16093 2.6 40 13:21 15.03.2020
997 Clouds 0 1037 74 16093 4.6 50 12:57 15.03.2020
998 Clouds 0 1036 85 16093 2.6 20 12:38 15.03.2020
999 Clouds 0 1036 85 16093 2.6 20 12:20 15.03.2020
1000 Clouds 0 1036 85 16093 4.6 30 11:40 15.03.2020
1001 Clouds 0 1036 69 16093 5.1 40 11:22 15.03.2020
1002 Clouds 0 1036 88 16093 5.1 40 10:56 15.03.2020
1003 Clouds 0 1035 88 16093 4.6 30 10:38 15.03.2020
1004 Clouds 0 1035 88 16093 4.6 30 10:20 15.03.2020
1005 Clouds 0 1035 74 16093 2.6 50 09:41 15.03.2020
1006 Clouds 0 1035 80 16093 5.1 40 09:22 15.03.2020
1007 Clouds 0 1035 88 16093 2.6 40 08:54 15.03.2020
1008 Clouds 0 1035 80 16093 4.1 40 08:36 15.03.2020
1009 Clouds 0 1035 80 16093 4.1 40 08:18 15.03.2020
1010 Clouds 0 1035 84 16093 2.6 30 07:44 15.03.2020
1011 Clouds 0 1035 74 16093 5.7 20 06:54 15.03.2020
1012 Clouds 0 1035 80 16093 3.1 30 06:24 15.03.2020
1013 Clouds 0 1035 84 16093 4.6 40 05:21 15.03.2020
1014 Clouds 0 1035 80 16093 3.1 20 04:43 15.03.2020
1015 Clouds 0 1035 80 16093 3.1 20 04:25 15.03.2020
1016 Clouds 0 1034 84 16093 1.5 360 03:54 15.03.2020
1017 Clouds 0 1034 84 16093 3.6 30 02:47 15.03.2020
1018 Snow 0 1034 80 11265 8.2 30 01:40 15.03.2020
1019 Snow 0 1034 80 3219 4.6 30 00:47 15.03.2020
1020 Snow 0 1034 86 1207 6.7 30 00:27 15.03.2020
1021 Rain 1 1033 80 4828 4.6 40 23:56 14.03.2020
1022 Rain 1 1033 80 11265 7.7 40 23:37 14.03.2020
1023 Rain 1 1033 80 11265 7.7 40 23:18 14.03.2020
1024 Mist 1 1033 74 8047 7.7 30 22:44 14.03.2020
1025 Clouds 1 1033 74 16093 3.1 10 22:26 14.03.2020
1026 Rain 2 1031 88 16093 5.7 360 21:57 14.03.2020
1027 Snow 2 1033 74 9656 4.1 30 21:36 14.03.2020
1028 Snow 2 1031 86 11265 3.1 360 21:18 14.03.2020
1029 Snow 2 1032 59 16093 2.6 50 20:59 14.03.2020
1030 Clouds 2 1033 59 16093 3.1 30 20:40 14.03.2020
1031 Snow 2 1032 80 6437 2.6 30 20:19 14.03.2020
1032 Clouds 2 1032 59 16093 2.1 320 19:44 14.03.2020
1033 Clouds 3 1032 59 16093 2.1 320 19:25 14.03.2020
1034 Snow 3 1033 80 4828 2.6 50 18:56 14.03.2020
1035 Clouds 3 1033 64 16093 2.6 50 18:37 14.03.2020
1036 Clouds 3 1033 59 16093 3.6 100 18:19 14.03.2020
1037 Clouds 3 1032 59 16093 1.5 80 17:39 14.03.2020
1038 Clouds 3 1032 59 16093 1.5 80 17:20 14.03.2020
1039 Clouds 3 1033 64 16093 2.1 30 16:41 14.03.2020
1040 Clouds 3 1033 64 16093 2.1 30 16:23 14.03.2020
1041 Clouds 2 1034 59 16093 3.1 60 15:58 14.03.2020
1042 Clouds 2 1033 59 16093 2.6 70 15:27 14.03.2020
1043 Clouds 2 1033 59 16093 5.1 60 14:58 14.03.2020
1044 Clouds 2 1033 64 16093 3.1 70 14:37 14.03.2020
1045 Clouds 2 1033 64 16093 3.1 70 14:18 14.03.2020
1046 Clouds 2 1032 59 16093 3.6 70 13:42 14.03.2020
1047 Clouds 2 1031 55 16093 3.1 50 13:23 14.03.2020
1048 Clouds 2 1032 59 16093 3.6 40 12:57 14.03.2020
1049 Clouds 2 1031 51 16093 3.6 60 12:38 14.03.2020
1050 Clouds 2 1031 51 16093 3.6 60 12:20 14.03.2020
1051 Clouds 2 1031 59 16093 4.6 40 11:42 14.03.2020
1052 Clouds 2 1030 51 16093 2.6 50 11:24 14.03.2020
1053 Clouds 2 1030 51 16093 1.5 50 10:46 14.03.2020
1054 Clouds 2 1031 55 16093 4.6 50 10:27 14.03.2020
1055 Clouds 3 1031 38 16093 4.1 40 09:58 14.03.2020
1056 Clouds 3 1031 48 16093 4.1 10 09:40 14.03.2020
1057 Clouds 3 1031 48 16093 4.1 10 09:20 14.03.2020
1058 Clear 3 1030 51 16093 3.1 20 08:46 14.03.2020
1059 Clouds 3 1031 48 16093 3.1 10 08:24 14.03.2020
1060 Clouds 4 1031 44 16093 2.1 350 07:39 14.03.2020
1061 Clouds 4 1031 44 16093 2.1 350 07:20 14.03.2020
1062 Clear 4 1030 48 16093 3.1 340 06:41 14.03.2020
1063 Clouds 4 1030 38 16093 5.7 330 05:58 14.03.2020
1064 Clear 5 1029 48 16093 3.1 310 04:52 14.03.2020
1065 Clear 5 1029 45 16093 3.1 290 03:25 14.03.2020
1066 Clear 5 1028 44 16093 2.6 270 02:35 14.03.2020
1067 Clear 6 1027 38 16093 3.1 290 01:39 14.03.2020
1068 Clear 8 1026 33 16093 4.1 310 00:22 14.03.2020
1069 Clear 9 1026 39 16093 7.2 260 23:38 13.03.2020
1070 Clear 9 1026 39 16093 7.2 260 23:38 13.03.2020
1071 Clouds 9 1026 26 16093 8.2 270 23:18 13.03.2020
1072 Clouds 9 1026 19 16093 10.3 270 22:41 13.03.2020
1073 Clear 9 1026 39 16093 7.2 270 22:20 13.03.2020
1074 Clear 9 1025 39 16093 6.7 290 21:40 13.03.2020
1075 Clear 9 1025 39 16093 6.7 290 21:18 13.03.2020
1076 Clear 8 1024 39 16093 9.3 270 20:42 13.03.2020
1077 Clear 8 1024 39 16093 9.3 270 20:22 13.03.2020
1078 Clouds 7 1024 39 16093 8.2 270 19:55 13.03.2020
1079 Clear 7 1024 45 16093 9.8 260 19:36 13.03.2020
1080 Smoke 7 1024 36 16093 10.3 260 19:18 13.03.2020
1081 Clear 6 1024 52 16093 9.3 270 18:39 13.03.2020
1082 Clear 6 1024 52 16093 9.3 270 18:21 13.03.2020
1083 Clear 5 1023 48 16093 6.2 260 17:42 13.03.2020
1084 Clear 4 1023 48 16093 6.2 260 17:21 13.03.2020
1085 Clear 4 1023 64 16093 9.8 270 16:56 13.03.2020
1086 Clear 4 1022 55 16093 8.2 260 16:38 13.03.2020
1087 Clear 3 1022 55 16093 8.2 260 16:19 13.03.2020
1088 Clear 3 1020 59 16093 4.6 280 15:42 13.03.2020
1089 Clear 2 1021 59 16093 6.2 270 15:21 13.03.2020
1090 Clouds 2 1020 59 16093 6.7 280 14:55 13.03.2020
1091 Clear 1 1020 69 16093 5.7 270 14:36 13.03.2020
1092 Clear 1 1020 69 16093 5.7 270 14:18 13.03.2020
1093 Clear 0 1019 74 16093 5.1 260 13:42 13.03.2020
1094 Clear 0 1019 74 16093 5.1 260 13:21 13.03.2020
1095 Clouds 1 1018 74 16093 6.2 270 12:57 13.03.2020
1096 Clear 1 1017 74 16093 2.6 290 12:38 13.03.2020
1097 Clear 1 1017 74 16093 2.6 290 12:19 13.03.2020
1098 Clear 1 1015 69 16093 2.6 280 11:46 13.03.2020
1099 Clear 1 1015 69 16093 2.6 280 11:26 13.03.2020
1100 Clear 2 1015 51 16093 7.2 290 10:59 13.03.2020
1101 Clear 2 1014 64 16093 4.6 300 10:41 13.03.2020
1102 Clear 2 1014 64 16093 4.6 300 10:23 13.03.2020
1103 Clear 3 1013 69 16093 4.1 300 09:45 13.03.2020
1104 Clear 3 1013 64 16093 4.6 300 09:26 13.03.2020
1105 Clouds 4 1012 65 16093 7.7 290 08:56 13.03.2020
1106 Clear 4 1012 71 16093 6.7 300 08:37 13.03.2020
1107 Clear 5 1012 70 16093 6.7 300 08:18 13.03.2020
1108 Clear 5 1011 70 16093 8.2 280 07:43 13.03.2020
1109 Clouds 6 1009 70 16093 7.2 290 07:22 13.03.2020
1110 Clear 6 1009 75 16093 5.1 310 06:46 13.03.2020
1111 Clouds 7 1009 75 16093 4.6 300 06:20 13.03.2020
1112 Clouds 7 1008 70 16093 3.1 310 05:43 13.03.2020
1113 Rain 9 1006 66 16093 8.7 300 04:39 13.03.2020
1114 Rain 10 1004 81 16093 6.7 280 03:50 13.03.2020
1115 Rain 11 1004 76 11265 4.6 240 02:29 13.03.2020
1116 Clouds 12 1004 82 16093 2.6 240 01:20 13.03.2020
1117 Clouds 12 1003 76 11265 3.6 230 00:59 13.03.2020
1118 Clouds 12 1003 81 11265 4.6 240 00:39 13.03.2020
1119 Clouds 12 1003 81 11265 4.6 240 00:18 13.03.2020
1120 Clouds 12 1003 76 16093 2.6 220 23:37 12.03.2020
1121 Clouds 13 1003 76 16093 2.6 220 23:18 12.03.2020
1122 Clouds 13 1003 67 16093 4.6 117 22:44 12.03.2020
1123 Clouds 13 1003 76 11265 4.6 180 22:25 12.03.2020
1124 Clouds 13 1003 71 14484 4.6 190 21:55 12.03.2020
1125 Clouds 13 1004 81 11265 4.1 160 21:36 12.03.2020
1126 Clouds 12 1004 81 11265 4.1 160 21:18 12.03.2020
1127 Clouds 12 1004 76 16093 4.6 190 20:42 12.03.2020
1128 Clouds 11 1006 76 11265 6.7 190 20:20 12.03.2020
1129 Clouds 11 1006 71 16093 3.6 160 19:42 12.03.2020
1130 Clouds 11 1006 71 16093 5.1 150 19:21 12.03.2020
1131 Clouds 10 1007 66 16093 4.1 140 18:45 12.03.2020
1132 Clouds 9 1009 81 14484 5.7 170 18:25 12.03.2020
1133 Clear 9 1009 70 14484 5.7 170 17:58 12.03.2020
1134 Clouds 8 1009 75 16093 5.7 180 17:40 12.03.2020
1135 Clouds 8 1009 75 16093 5.7 180 17:22 12.03.2020
1136 Clouds 8 1010 95 12874 6.2 170 16:58 12.03.2020
1137 Clouds 7 1011 81 11265 4.6 160 16:40 12.03.2020
1138 Clouds 7 1011 81 11265 4.6 160 16:21 12.03.2020
1139 Clouds 6 1009 87 11265 6.7 190 15:48 12.03.2020
1140 Clouds 6 1011 81 11265 4.6 150 15:28 12.03.2020
1141 Clouds 6 1011 81 11265 4.6 150 15:28 12.03.2020
1142 Clear 4 1011 100 8047 3.6 170 14:54 12.03.2020
1143 Clouds 4 1011 95 12874 3.6 150 14:54 12.03.2020
1144 Mist 4 1012 100 8047 3.1 150 14:36 12.03.2020
1145 Mist 3 1012 100 8047 3.1 150 14:18 12.03.2020
1146 Mist 2 1013 100 8047 2.1 150 13:38 12.03.2020
1147 Mist 2 1013 100 8047 2.1 150 13:20 12.03.2020
1148 Clear 2 1012 100 8047 2.1 170 12:43 12.03.2020
1149 Mist 2 1013 86 9656 4.6 170 12:24 12.03.2020
1150 Mist 2 1013 86 9656 4.6 170 11:59 12.03.2020
1151 Mist 2 1013 86 9656 4.6 170 11:59 12.03.2020
1152 Mist 2 1012 100 4828 3.1 160 11:39 12.03.2020
1153 Clear 2 1012 93 3219 1.5 150 11:21 12.03.2020
1154 Clear 2 1012 93 3219 1.5 150 11:21 12.03.2020
1155 Mist 2 1013 85 8047 3.1 170 10:59 12.03.2020
1156 Fog 2 1012 93 805 3.1 150 10:41 12.03.2020
1157 Mist 2 1014 100 2012 1.5 170 10:22 12.03.2020
1158 Mist 2 1013 85 9656 1.5 180 10:22 12.03.2020
1159 Mist 2 1014 93 6437 1.5 160 09:49 12.03.2020
1160 Mist 2 1014 100 4828 3.62 180 09:29 12.03.2020
1161 Clear 3 1014 85 11265 1.5 190 08:55 12.03.2020
1162 Clear 3 1015 93 11265 2.1 150 08:37 12.03.2020
1163 Clouds 3 1015 93 11265 1.5 160 08:18 12.03.2020
1164 Clear 3 1014 93 8047 4.32 192 07:47 12.03.2020
1165 Clouds 4 1015 93 11265 3.1 180 07:21 12.03.2020
1166 Clouds 4 1015 79 12874 2.6 180 06:18 12.03.2020
1167 Clouds 5 1014 93 16093 2.6 190 05:33 12.03.2020
1168 Clouds 6 1015 78 12874 3.6 200 02:54 12.03.2020
1169 Clouds 6 1015 78 14484 3.1 190 01:57 12.03.2020
1170 Clouds 6 1016 86 16093 3.6 180 01:21 12.03.2020
1171 Clouds 6 1015 75 16093 2.6 220 00:42 12.03.2020
1172 Clouds 6 1015 77 16093 2.6 200 23:57 11.03.2020
1173 Rain 7 1015 75 16093 2.6 220 23:28 11.03.2020
1174 Rain 6 1016 81 16093 2.1 200 22:59 11.03.2020
1175 Rain 7 1016 81 16093 3.1 40 22:39 11.03.2020
1176 Clouds 6 1016 81 16093 3.1 40 22:21 11.03.2020
1177 Clouds 6 1016 81 16093 3.6 250 21:56 11.03.2020
1178 Clouds 6 1015 81 16093 3.1 180 21:37 11.03.2020
1179 Clouds 6 1015 81 16093 3.1 180 21:37 11.03.2020
1180 Clouds 6 1016 86 16093 2.6 260 21:19 11.03.2020
1181 Clouds 6 1016 81 16093 4.6 250 20:56 11.03.2020
1182 Clouds 6 1016 75 16093 3.1 230 20:36 11.03.2020
1183 Clouds 6 1017 86 16093 2.6 220 20:18 11.03.2020
1184 Clouds 6 1017 81 16093 2.1 220 19:42 11.03.2020
1185 Clouds 6 1017 86 16093 2.1 240 19:24 11.03.2020
1186 Clouds 6 1017 81 16093 3.1 200 18:56 11.03.2020
1187 Drizzle 5 1018 93 6437 4.6 270 18:37 11.03.2020
1188 Clouds 5 1018 81 16093 3.1 250 18:18 11.03.2020
1189 Clouds 5 1018 93 11265 4.6 270 17:54 11.03.2020
1190 Clouds 5 1017 81 11265 4.1 220 17:36 11.03.2020
1191 Clouds 4 1017 81 11265 4.6 250 17:18 11.03.2020
1192 Mist 4 1017 81 3219 3.1 220 16:41 11.03.2020
1193 Mist 4 1017 81 2816 2.6 190 16:19 11.03.2020
1194 Drizzle 4 1017 81 2816 2.6 210 15:43 11.03.2020
1195 Drizzle 4 1018 100 2012 2.74 187 15:23 11.03.2020
1196 Drizzle 3 1017 86 4023 2.74 187 14:46 11.03.2020
1197 Mist 3 1018 81 2816 2.6 190 14:24 11.03.2020
1198 Mist 3 1018 79 4023 2.6 180 13:59 11.03.2020
1199 Mist 3 1018 79 4023 1.5 170 13:40 11.03.2020
1200 Mist 3 1018 100 2414 2.6 150 13:22 11.03.2020
1201 Mist 3 1018 78 6437 2.1 140 12:56 11.03.2020
1202 Clouds 3 1018 86 12874 2.6 180 12:37 11.03.2020
1203 Rain 3 1019 100 2816 3.1 120 12:18 11.03.2020
1204 Rain 3 1019 78 12874 2.1 210 11:40 11.03.2020
1205 Mist 3 1020 93 8047 5.22 120 11:20 11.03.2020
1206 Mist 3 1020 93 8047 1.5 240 10:47 11.03.2020
1207 Mist 2 1019 84 8047 5.22 120 10:21 11.03.2020
1208 Clouds 2 1019 74 12874 1.5 200 09:59 11.03.2020
1209 Clouds 2 1019 74 16093 2.1 140 09:40 11.03.2020
1210 Clouds 2 1019 80 14484 3.1 120 09:21 11.03.2020
1211 Clouds 2 1021 84 16093 1.5 150 08:43 11.03.2020
1212 Clouds 2 1021 80 16093 3.1 150 08:24 11.03.2020
1213 Clouds 2 1021 69 16093 3.6 160 07:47 11.03.2020
1214 Clouds 2 1022 76 16093 2.1 200 07:20 11.03.2020
1215 Clouds 2 1023 76 16093 1.5 160 06:50 11.03.2020
1216 Clouds 2 1023 76 16093 2.97 176 06:31 11.03.2020
1217 Clear 2 1023 76 16093 1.5 140 05:32 11.03.2020
1218 Clear 2 1024 74 16093 1.21 92 02:45 11.03.2020
1219 Clear 3 1023 64 16093 2.6 110 01:53 11.03.2020
1220 Clear 3 1023 64 16093 2.6 110 01:23 11.03.2020
1221 Clear 5 1023 56 16093 3.6 110 00:37 11.03.2020
1222 Clear 6 1023 61 16093 1.5 180 23:50 10.03.2020
1223 Clear 7 1023 52 16093 2.6 100 23:28 10.03.2020
1224 Clear 7 1024 61 16093 4.47 3 22:58 10.03.2020
1225 Clear 7 1025 65 16093 2.6 360 22:37 10.03.2020
1226 Clouds 7 1024 60 16093 4.1 100 22:19 10.03.2020
1227 Clouds 7 1024 60 16093 4.1 100 21:56 10.03.2020
1228 Clear 7 1023 52 16093 1.5 40 21:38 10.03.2020
1229 Clear 7 1023 52 16093 1.5 40 21:18 10.03.2020
1230 Clear 7 1023 52 16093 1.5 40 21:18 10.03.2020
1231 Clear 7 1024 56 16093 4.47 3 20:42 10.03.2020
1232 Clouds 6 1024 81 16093 2.6 350 20:20 10.03.2020
1233 Clouds 6 1024 81 16093 2.6 350 19:59 10.03.2020
1234 Rain 5 1024 81 16093 3.1 20 19:40 10.03.2020
1235 Rain 5 1024 81 16093 4.6 40 19:22 10.03.2020
1236 Rain 4 1024 81 16093 3.1 340 18:56 10.03.2020
1237 Clouds 4 1025 80 16093 1.5 0 18:37 10.03.2020
1238 Clouds 3 1025 80 16093 1.5 0 18:19 10.03.2020
1239 Clouds 3 1024 86 16093 2.6 360 17:55 10.03.2020
1240 Clouds 3 1024 86 16093 3.1 10 17:37 10.03.2020
1241 Clouds 3 1024 85 16093 4.6 20 17:18 10.03.2020
1242 Rain 3 1023 86 16093 3.1 10 16:37 10.03.2020
1243 Rain 3 1023 86 16093 3.1 10 16:18 10.03.2020
1244 Rain 3 1022 86 16093 3.6 10 15:42 10.03.2020
1245 Rain 3 1022 93 16093 4.1 10 15:20 10.03.2020
1246 Rain 3 1022 100 12874 5.1 360 14:58 10.03.2020
1247 Clouds 3 1021 100 11265 3.6 10 14:40 10.03.2020
1248 Clouds 3 1021 100 11265 3.6 10 14:19 10.03.2020
1249 Clouds 3 1021 93 16093 3.1 350 13:44 10.03.2020
1250 Rain 3 1020 100 4828 4.1 10 13:25 10.03.2020
1251 Rain 3 1020 93 8047 4.6 360 12:55 10.03.2020
1252 Rain 3 1019 93 16093 3.1 350 12:37 10.03.2020
1253 Rain 3 1019 93 16093 3.1 350 12:18 10.03.2020
1254 Clouds 3 1017 100 11265 5.1 340 11:42 10.03.2020
1255 Clouds 4 1017 100 11265 5.1 340 11:24 10.03.2020
1256 Clouds 4 1017 100 11265 5.1 340 11:24 10.03.2020
1257 Rain 5 1016 100 16093 6.2 330 10:56 10.03.2020
1258 Rain 5 1015 87 16093 4.1 20 10:38 10.03.2020
1259 Rain 5 1015 93 16093 5.7 20 10:19 10.03.2020
1260 Rain 7 1014 93 16093 2.6 290 09:45 10.03.2020
1261 Rain 7 1014 93 16093 2.6 290 09:20 10.03.2020
1262 Rain 8 1013 93 14484 5.1 320 08:56 10.03.2020
1263 Rain 8 1013 93 11265 3.6 300 08:36 10.03.2020
1264 Drizzle 9 1013 100 16093 3.6 300 08:18 10.03.2020
1265 Rain 9 1012 81 16093 4.6 290 07:40 10.03.2020
1266 Rain 10 1011 93 14484 4.6 290 07:21 10.03.2020
1267 Rain 10 1011 93 14484 4.6 290 07:21 10.03.2020
1268 Rain 10 1011 81 16093 4.6 300 06:38 10.03.2020
1269 Rain 11 1010 87 11265 7.2 260 05:55 10.03.2020
1270 Rain 11 1010 87 11265 7.2 260 05:35 10.03.2020
1271 Rain 12 1009 93 4023 8.2 200 04:31 10.03.2020
1272 Rain 12 1010 93 4023 8.7 200 02:58 10.03.2020
1273 Rain 12 1013 100 11265 11.8 180 01:33 10.03.2020
1274 Rain 12 1011 93 11265 6.2 200 00:51 10.03.2020
1275 Rain 12 1013 100 6437 7.7 180 00:28 10.03.2020
1276 Rain 12 1013 100 8047 6.7 180 23:43 09.03.2020
1277 Rain 12 1014 87 8047 7.7 180 23:22 09.03.2020
1278 Rain 12 1013 93 8047 8.2 170 22:57 09.03.2020
1279 Rain 12 1014 87 8047 7.2 180 22:38 09.03.2020
1280 Rain 12 1016 93 11265 9.3 190 22:19 09.03.2020
1281 Rain 12 1014 87 16093 7.7 200 21:44 09.03.2020
1282 Rain 12 1014 87 16093 7.7 200 21:22 09.03.2020
1283 Rain 12 1014 87 16093 7.7 200 21:22 09.03.2020
1284 Rain 12 1016 71 16093 6.2 190 20:58 09.03.2020
1285 Rain 12 1015 87 16093 5.7 190 20:40 09.03.2020
1286 Rain 11 1015 87 16093 5.7 190 20:22 09.03.2020
1287 Rain 11 1017 71 16093 6.7 200 19:59 09.03.2020
1288 Rain 11 1017 71 16093 6.7 200 19:59 09.03.2020
1289 Rain 11 1017 87 16093 6.2 200 19:41 09.03.2020
1290 Rain 11 1017 87 16093 6.2 200 19:18 09.03.2020
1291 Rain 11 1018 71 16093 7.7 190 18:55 09.03.2020
1292 Rain 10 1020 71 16093 6.2 200 18:37 09.03.2020
1293 Rain 10 1019 71 16093 6.2 190 18:18 09.03.2020
1294 Rain 10 1019 87 16093 5.1 180 17:55 09.03.2020
1295 Rain 10 1019 87 16093 4.6 210 17:37 09.03.2020
1296 Rain 10 1019 87 16093 4.6 210 17:19 09.03.2020
1297 Rain 10 1020 87 16093 6.2 180 16:55 09.03.2020
1298 Drizzle 10 1021 62 16093 5.7 210 16:36 09.03.2020
1299 Drizzle 10 1021 62 16093 5.7 210 16:18 09.03.2020
1300 Rain 10 1021 61 16093 6.7 200 15:55 09.03.2020
1301 Rain 10 1021 61 16093 6.7 200 15:55 09.03.2020
1302 Rain 9 1021 61 16093 6.7 200 15:36 09.03.2020
1303 Rain 9 1020 81 16093 5.1 200 15:18 09.03.2020
1304 Rain 8 1021 66 16093 5.7 200 14:39 09.03.2020
1305 Rain 8 1020 87 14484 6.2 230 14:20 09.03.2020
1306 Rain 8 1019 93 8047 4.1 230 13:58 09.03.2020
1307 Rain 8 1019 93 8047 4.1 230 13:39 09.03.2020
1308 Rain 8 1020 66 11265 7.7 240 13:20 09.03.2020
1309 Rain 9 1020 81 8047 5.7 240 12:58 09.03.2020
1310 Rain 10 1020 81 8047 5.7 240 12:39 09.03.2020
1311 Clouds 11 1019 43 16093 9.3 220 12:18 09.03.2020
1312 Clouds 12 1018 74 16093 7.7 210 11:40 09.03.2020
1313 Clouds 12 1018 71 16093 7.7 210 11:20 09.03.2020
1314 Clear 11 1018 50 16093 5.7 220 10:57 09.03.2020
1315 Clear 11 1018 50 16093 5.7 220 10:39 09.03.2020
1316 Clouds 12 1018 71 16093 7.2 210 10:18 09.03.2020
1317 Clear 12 1019 34 16093 7.2 200 09:42 09.03.2020
1318 Clouds 12 1019 71 16093 8.2 210 09:24 09.03.2020
1319 Rain 12 1019 32 16093 6.2 200 08:47 09.03.2020
1320 Rain 12 1019 72 16093 7.7 210 08:28 09.03.2020
1321 Clear 12 1019 28 16093 5.7 200 07:57 09.03.2020
1322 Clear 12 1019 28 16093 5.7 200 07:37 09.03.2020
1323 Clouds 12 1019 40 16093 7.2 210 07:18 09.03.2020
1324 Clear 12 1019 26 16093 5.7 190 06:39 09.03.2020
1325 Clouds 12 1019 37 16093 7.2 200 06:21 09.03.2020
1326 Clear 12 1020 22 16093 6.2 190 05:42 09.03.2020
1327 Clear 13 1020 60 16093 10.3 200 04:57 09.03.2020
1328 Clear 13 1020 60 16093 10.3 200 04:39 09.03.2020
1329 Clouds 13 1019 33 16093 8.7 200 04:19 09.03.2020
1330 Clear 14 1020 60 16093 7.2 200 02:51 09.03.2020
1331 Clear 16 1017 25 16093 6.2 210 00:42 09.03.2020
1332 Clouds 17 1018 22 16093 9.8 200 00:24 09.03.2020
1333 Clear 17 1019 36 16093 8.7 200 23:58 08.03.2020
1334 Clear 17 1019 36 16093 8.7 200 23:58 08.03.2020
1335 Clouds 18 1018 19 16093 10.3 200 23:29 08.03.2020
1336 Clear 18 1018 22 16093 9.8 210 22:59 08.03.2020
1337 Clouds 18 1019 20 16093 10.3 210 22:40 08.03.2020
1338 Clouds 18 1019 20 16093 10.3 210 22:22 08.03.2020
1339 Clear 17 1019 27 16093 7.2 210 21:59 08.03.2020
1340 Clear 17 1019 27 16093 7.2 210 21:40 08.03.2020
1341 Clouds 17 1020 23 16093 8.2 200 21:20 08.03.2020
1342 Clear 17 1022 50 16093 11.3 200 20:56 08.03.2020
1343 Clear 17 1020 27 16093 6.2 210 20:37 08.03.2020
1344 Clouds 17 1021 25 16093 8.2 200 20:19 08.03.2020
1345 Clear 15 1021 30 16093 7.7 200 19:40 08.03.2020
1346 Clouds 15 1021 28 16093 8.7 200 19:19 08.03.2020
1347 Clouds 14 1021 28 16093 8.7 200 18:55 08.03.2020
1348 Clear 14 1024 37 16093 10.8 210 18:37 08.03.2020
1349 Clouds 13 1023 30 16093 9.8 210 18:18 08.03.2020
1350 Clear 12 1023 40 16093 8.7 210 17:39 08.03.2020
1351 Clouds 9 1025 23 16093 8.2 180 17:20 08.03.2020
1352 Clear 9 1025 43 16093 8.2 200 16:57 08.03.2020
1353 Clear 9 1025 45 16093 9.3 200 16:39 08.03.2020
1354 Clear 8 1025 45 16093 9.3 200 16:20 08.03.2020
1355 Clouds 7 1025 39 16093 6.7 200 15:41 08.03.2020
1356 Clouds 7 1025 39 16093 6.7 200 15:21 08.03.2020
1357 Clouds 6 1025 39 16093 6.7 200 14:56 08.03.2020
1358 Clouds 5 1025 48 16093 6.2 210 14:37 08.03.2020
1359 Clouds 5 1025 48 16093 6.2 210 14:37 08.03.2020
1360 Clouds 4 1025 48 16093 6.2 210 14:19 08.03.2020
1361 Clear 4 1024 55 16093 5.1 210 13:41 08.03.2020
1362 Clear 4 1026 55 16093 6.2 200 13:20 08.03.2020
1363 Clear 4 1024 55 16093 5.7 210 12:46 08.03.2020
1364 Clear 4 1024 55 16093 5.1 220 12:28 08.03.2020
1365 Clear 4 1026 59 16093 5.7 200 11:58 08.03.2020
1366 Clear 4 1026 59 16093 5.7 200 11:58 08.03.2020
1367 Clear 4 1026 59 16093 5.7 200 11:58 08.03.2020
1368 Clear 4 1025 64 16093 4.6 190 11:40 08.03.2020
1369 Clear 4 1026 33 16093 5.1 190 11:21 08.03.2020
1370 Clear 4 1025 64 16093 6.2 190 10:42 08.03.2020
1371 Clear 4 1025 64 16093 6.2 190 10:24 08.03.2020
1372 Clouds 4 1024 41 16093 6.2 200 09:59 08.03.2020
1373 Clear 4 1026 55 16093 5.7 200 09:37 08.03.2020
1374 Clear 4 1026 55 16093 5.7 200 09:18 08.03.2020
1375 Clear 5 1026 33 16093 4.1 190 08:41 08.03.2020
1376 Clouds 5 1026 45 16093 6.2 200 08:20 08.03.2020
1377 Clear 5 1025 48 16093 6.7 210 07:45 08.03.2020
1378 Clear 5 1025 48 16093 7.2 220 07:25 08.03.2020
1379 Clear 5 1025 48 16093 7.2 220 07:25 08.03.2020
1380 Clear 5 1026 60 16093 7.7 190 06:43 08.03.2020
1381 Clear 5 1027 35 16093 3.1 180 06:23 08.03.2020
1382 Clear 5 1026 60 16093 7.7 190 05:41 08.03.2020
1383 Clear 7 1026 45 16093 4.6 200 03:52 08.03.2020
1384 Clear 7 1027 56 16093 5.1 180 02:38 08.03.2020
1385 Clear 8 1027 48 16093 6.2 190 01:34 08.03.2020
1386 Clear 9 1026 29 16093 6.7 180 00:55 08.03.2020
1387 Clear 10 1028 39 16093 5.7 190 00:28 08.03.2020
1388 Clear 11 1027 39 16093 8.7 200 23:47 07.03.2020
1389 Clouds 11 1028 27 16093 7.2 200 23:24 07.03.2020
1390 Clouds 11 1027 27 16093 7.2 180 22:55 07.03.2020
1391 Clouds 11 1028 27 16093 7.7 190 22:36 07.03.2020
1392 Clouds 11 1028 27 16093 7.7 190 22:18 07.03.2020
1393 Clear 10 1027 29 16093 8.2 200 21:43 07.03.2020
1394 Clouds 10 1029 34 16093 5.1 190 21:19 07.03.2020
1395 Clouds 9 1030 36 16093 6.7 210 20:40 07.03.2020
1396 Clouds 8 1030 36 16093 6.7 210 20:20 07.03.2020
1397 Clear 8 1030 39 16093 4.6 200 19:41 07.03.2020
1398 Clouds 7 1032 42 16093 5.7 210 19:22 07.03.2020
1399 Clear 6 1031 45 16093 3.6 190 18:58 07.03.2020
1400 Clouds 6 1033 51 16093 5.1 190 18:39 07.03.2020
1401 Clouds 5 1033 51 16093 5.1 190 18:20 07.03.2020
1402 Clear 4 1032 55 16093 4.6 200 17:41 07.03.2020
1403 Clouds 3 1034 64 16093 4.6 210 17:19 07.03.2020
1404 Clear 2 1033 64 16093 4.1 220 16:56 07.03.2020
1405 Clouds 1 1034 68 16093 4.6 210 16:38 07.03.2020
1406 Clouds 1 1034 68 16093 4.6 210 16:19 07.03.2020
1407 Clear 0 1033 80 16093 4.6 200 15:42 07.03.2020
1408 Clear -1 1035 79 16093 4.6 210 15:22 07.03.2020
1409 Clear -3 1034 92 16093 3.1 220 14:59 07.03.2020
1410 Clear -3 1034 92 16093 3.1 220 14:41 07.03.2020
1411 Clear -4 1035 79 16093 2.1 200 14:23 07.03.2020
1412 Clear -5 1034 92 16093 1.5 220 13:43 07.03.2020
1413 Clouds -5 1034 79 16093 2.6 200 13:22 07.03.2020
1414 Clear -6 1034 100 16093 3.96 193 12:59 07.03.2020
1415 Clear -5 1034 100 16093 3.96 193 12:38 07.03.2020
1416 Clear -5 1033 79 16093 2.6 220 12:19 07.03.2020
1417 Clear -5 1033 92 16093 3.96 193 11:44 07.03.2020
1418 Clear -4 1033 79 16093 0.63 209 11:24 07.03.2020
1419 Clear -4 1034 92 16093 1.5 220 10:59 07.03.2020
1420 Clear -5 1034 92 16093 1.5 220 10:38 07.03.2020
1421 Clear -5 1033 73 16093 2.1 250 10:19 07.03.2020
1422 Clear -4 1033 73 16093 2.6 260 09:41 07.03.2020
1423 Clear -5 1033 73 16093 2.6 260 09:20 07.03.2020
1424 Clear -5 1034 74 16093 0.63 209 08:58 07.03.2020
1425 Clear -5 1034 74 16093 0.63 209 08:40 07.03.2020
1426 Clear -4 1033 74 16093 2.87 36 08:20 07.03.2020
1427 Clear -4 1033 92 16093 2.87 36 07:47 07.03.2020
1428 Clear -4 1034 74 16093 2.87 36 07:21 07.03.2020
1429 Clear -4 1033 79 16093 2.87 36 06:43 07.03.2020
1430 Clear -4 1033 79 16093 2.87 36 06:25 07.03.2020
1431 Clear -3 1033 79 16093 2.87 36 05:41 07.03.2020
1432 Clear -2 1033 68 16093 3.6 40 03:57 07.03.2020
1433 Clear -1 1033 74 16093 2.1 20 02:45 07.03.2020
1434 Clear -1 1032 68 16093 2.1 100 01:58 07.03.2020
1435 Clouds 0 1032 71 16093 5.1 40 01:19 07.03.2020
1436 Clouds 2 1032 59 16093 5.7 40 00:28 07.03.2020
1437 Clear 2 1031 44 16093 2.6 350 23:59 06.03.2020
1438 Clouds 3 1031 55 16093 5.7 40 23:40 06.03.2020
1439 Clouds 3 1031 55 16093 5.7 40 23:22 06.03.2020
1440 Clear 3 1030 44 16093 5.1 10 22:46 06.03.2020
1441 Clouds 3 1030 59 16093 7.2 50 22:20 06.03.2020
1442 Clouds 4 1030 48 16093 2.6 350 21:49 06.03.2020
1443 Clouds 4 1030 55 16093 7.2 10 21:21 06.03.2020
1444 Clouds 4 1030 48 16093 4.6 350 20:46 06.03.2020
1445 Clouds 3 1030 55 16093 6.2 10 20:23 06.03.2020
1446 Clouds 3 1029 48 16093 5.1 360 19:59 06.03.2020
1447 Clouds 3 1029 51 16093 8.2 20 19:41 06.03.2020
1448 Clouds 3 1029 51 16093 8.2 20 19:22 06.03.2020
1449 Clouds 2 1029 69 16093 4.6 360 18:42 06.03.2020
1450 Clouds 2 1029 69 16093 4.6 360 18:20 06.03.2020
1451 Clouds 2 1028 69 11265 11.3 330 17:57 06.03.2020
1452 Clouds 2 1028 69 11265 11.3 330 17:57 06.03.2020
1453 Clouds 2 1027 64 16093 9.3 360 17:39 06.03.2020
1454 Clouds 2 1026 81 16093 8.7 340 17:39 06.03.2020
1455 Clouds 1 1027 59 16093 8.2 350 17:20 06.03.2020
1456 Clouds 1 1027 64 16093 8.2 350 16:54 06.03.2020
1457 Clouds 1 1026 59 16093 10.8 340 16:36 06.03.2020
1458 Clouds 1 1026 59 16093 10.8 340 16:18 06.03.2020
1459 Clouds 0 1025 82 16093 7.2 340 15:42 06.03.2020
1460 Clouds 0 1025 59 16093 9.3 340 15:23 06.03.2020
1461 Clouds 0 1025 82 16093 6.7 350 14:41 06.03.2020
1462 Clouds 0 1024 81 16093 7.2 350 14:23 06.03.2020
1463 Clouds 0 1024 81 16093 7.2 350 14:23 06.03.2020
1464 Clouds 0 1023 81 16093 7.2 340 13:57 06.03.2020
1465 Clouds 0 1023 81 16093 7.2 350 13:39 06.03.2020
1466 Clouds 0 1022 83 16093 7.2 340 13:19 06.03.2020
1467 Clouds 0 1022 83 16093 6.2 340 12:54 06.03.2020
1468 Clouds 0 1022 83 16093 6.2 340 12:36 06.03.2020
1469 Clouds 0 1020 83 16093 6.7 330 12:18 06.03.2020
1470 Clouds 0 1020 83 16093 10.3 340 11:41 06.03.2020
1471 Snow 0 1019 69 16093 10.3 330 11:20 06.03.2020
1472 Clouds 0 1019 84 16093 8.2 340 10:56 06.03.2020
1473 Snow 0 1017 80 14484 8.2 320 10:36 06.03.2020
1474 Snow 0 1017 80 14484 8.2 320 10:18 06.03.2020
1475 Clouds 0 1017 84 16093 8.7 340 09:41 06.03.2020
1476 Snow 0 1016 80 14484 10.8 310 09:23 06.03.2020
1477 Clouds 1 1016 84 8047 7.7 340 08:55 06.03.2020
1478 Clouds 1 1015 80 11265 8.7 310 08:36 06.03.2020
1479 Clouds 1 1015 80 11265 8.7 310 08:18 06.03.2020
1480 Snow 2 1014 80 11265 6.2 280 07:41 06.03.2020
1481 Snow 2 1014 80 11265 7.2 290 07:21 06.03.2020
1482 Clouds 2 1014 80 16093 2.6 300 06:42 06.03.2020
1483 Snow 2 1014 69 14484 8.7 290 06:18 06.03.2020
1484 Clouds 2 1014 74 16093 3.1 280 05:37 06.03.2020
1485 Snow 2 1014 69 16093 5.1 290 05:18 06.03.2020
1486 Rain 3 1013 69 16093 7.7 260 04:25 06.03.2020
1487 Clouds 6 1013 60 16093 4.6 280 01:43 06.03.2020
1488 Clouds 6 1013 48 16093 7.2 280 01:25 06.03.2020
1489 Clouds 7 1014 49 16093 7.2 280 00:49 06.03.2020
1490 Clouds 7 1013 39 16093 8.7 280 00:30 06.03.2020
1491 Clouds 8 1013 46 16093 7.7 290 23:43 05.03.2020
1492 Clouds 9 1012 37 16093 12.3 270 23:24 05.03.2020
1493 Clouds 10 1011 43 16093 6.2 300 22:55 05.03.2020
1494 Clouds 10 1011 43 16093 6.2 300 22:36 05.03.2020
1495 Clouds 10 1011 50 16093 6.2 260 22:18 05.03.2020
1496 Clouds 10 1011 46 16093 4.6 300 21:54 05.03.2020
1497 Clouds 10 1011 46 16093 4.6 300 21:36 05.03.2020
1498 Clouds 10 1011 46 16093 4.6 300 21:36 05.03.2020
1499 Clouds 10 1012 50 16093 8.2 260 21:18 05.03.2020
1500 Clouds 9 1011 57 16093 6.2 260 20:42 05.03.2020
1501 Clouds 9 1011 57 16093 6.2 260 20:42 05.03.2020
1502 Clouds 9 1012 43 16093 11.3 250 20:21 05.03.2020
1503 Clouds 9 1012 55 16093 4.1 250 19:59 05.03.2020
1504 Clouds 10 1012 55 16093 4.1 250 19:39 05.03.2020
1505 Clouds 10 1013 43 16093 6.7 230 19:21 05.03.2020
1506 Clouds 10 1013 43 16093 6.7 230 19:21 05.03.2020
1507 Clouds 10 1012 49 16093 7.7 230 18:58 05.03.2020
1508 Clouds 9 1012 49 16093 7.7 230 18:37 05.03.2020
1509 Clouds 9 1014 42 16093 11.3 210 18:19 05.03.2020
1510 Clear 9 1015 52 16093 9.8 200 17:57 05.03.2020
1511 Clear 9 1015 52 16093 9.8 200 17:57 05.03.2020
1512 Clear 9 1015 52 16093 9.8 200 17:39 05.03.2020
1513 Clouds 8 1015 39 16093 10.8 210 17:20 05.03.2020
1514 Clouds 7 1014 45 16093 6.7 220 16:41 05.03.2020
1515 Clouds 7 1016 48 16093 6.7 200 16:23 05.03.2020
1516 Clouds 6 1015 48 16093 7.7 210 15:57 05.03.2020
1517 Clouds 6 1015 48 16093 7.7 210 15:37 05.03.2020
1518 Clouds 5 1017 51 16093 7.2 200 15:19 05.03.2020
1519 Clear 4 1017 69 16093 6.2 190 14:41 05.03.2020
1520 Clouds 2 1016 51 16093 6.2 190 14:22 05.03.2020
1521 Clear 2 1015 59 16093 5.1 190 13:58 05.03.2020
1522 Clouds 1 1016 59 16093 3.6 180 13:39 05.03.2020
1523 Clouds 1 1016 59 16093 3.6 180 13:20 05.03.2020
1524 Clouds 1 1016 59 16093 3.6 180 13:20 05.03.2020
1525 Clear 1 1016 59 16093 3.6 210 12:55 05.03.2020
1526 Clear 1 1016 59 16093 3.6 210 12:36 05.03.2020
1527 Clear 1 1016 59 16093 4.6 180 12:18 05.03.2020
1528 Clear 1 1016 69 16093 3.6 190 11:55 05.03.2020
1529 Clear 1 1016 69 16093 3.6 190 11:36 05.03.2020
1530 Clear 1 1017 64 16093 4.1 170 11:18 05.03.2020
1531 Clear 1 1018 59 16093 3.6 160 10:55 05.03.2020
1532 Clear 0 1017 64 16093 4.1 170 10:37 05.03.2020
1533 Clear 0 1017 64 16093 4.1 170 10:19 05.03.2020
1534 Clear 0 1018 64 16093 1.5 160 09:40 05.03.2020
1535 Clear -1 1018 64 16093 3.6 170 09:22 05.03.2020
1536 Clear -1 1019 69 16093 2.1 150 08:43 05.03.2020
1537 Clear -1 1018 64 16093 2.1 160 08:24 05.03.2020
1538 Clear -1 1019 86 16093 1.5 120 07:45 05.03.2020
1539 Clear -1 1018 69 16093 3.1 140 07:22 05.03.2020
1540 Clear -1 1020 92 16093 1.71 140 06:46 05.03.2020
1541 Clear -1 1019 80 11265 1.5 140 06:21 05.03.2020
1542 Clear 0 1019 73 16093 1.71 140 05:38 05.03.2020
1543 Clear 0 1018 69 16093 2.52 298 04:26 05.03.2020
1544 Clear 1 1018 69 16093 1.5 320 03:59 05.03.2020
1545 Clouds 2 1018 55 16093 1.5 290 03:18 05.03.2020
1546 Clouds 5 1018 42 16093 4.1 290 01:28 05.03.2020
1547 Clear 6 1018 48 16093 1.5 280 00:58 05.03.2020
1548 Clouds 7 1017 36 16093 6.7 270 00:23 05.03.2020
1549 Clear 8 1017 42 16093 5.7 270 23:41 04.03.2020
1550 Rain 8 1016 31 16093 3.6 290 23:22 04.03.2020
1551 Rain 8 1016 42 16093 3.13 335 22:57 04.03.2020
1552 Clouds 8 1015 34 16093 1.5 260 22:38 04.03.2020
1553 Clouds 8 1015 34 16093 1.5 260 22:19 04.03.2020
1554 Clear 8 1014 36 16093 1.5 300 21:56 04.03.2020
1555 Clouds 8 1013 31 16093 2.6 350 21:38 04.03.2020
1556 Clouds 8 1013 31 16093 2.6 350 21:38 04.03.2020
1557 Clouds 8 1013 31 16093 2.6 350 21:18 04.03.2020
1558 Clear 8 1013 36 16093 2.6 330 20:41 04.03.2020
1559 Rain 7 1013 33 16093 5.7 360 20:23 04.03.2020
1560 Clear 7 1013 45 16093 3.6 340 19:58 04.03.2020
1561 Rain 7 1014 45 16093 6.7 320 19:40 04.03.2020
1562 Rain 7 1014 45 16093 6.7 320 19:22 04.03.2020
1563 Rain 6 1014 52 16093 2.6 290 18:42 04.03.2020
1564 Clouds 6 1014 52 16093 4.1 310 18:24 04.03.2020
1565 Clouds 6 1014 56 16093 5.7 320 17:59 04.03.2020
1566 Clouds 5 1014 60 16093 3.6 310 17:39 04.03.2020
1567 Clouds 5 1014 65 16093 6.2 320 17:20 04.03.2020
1568 Clouds 4 1014 65 16093 5.1 330 16:57 04.03.2020
1569 Clouds 4 1013 80 16093 4.1 320 16:38 04.03.2020
1570 Clouds 3 1013 82 16093 5.1 330 16:19 04.03.2020
1571 Clouds 3 1013 82 16093 6.2 310 15:45 04.03.2020
1572 Clouds 3 1012 93 16093 1.5 280 15:27 04.03.2020
1573 Drizzle 2 1011 100 16093 6.75 303 14:59 04.03.2020
1574 Drizzle 2 1011 100 16093 6.75 303 14:59 04.03.2020
1575 Rain 2 1011 93 14484 1.5 220 14:41 04.03.2020
1576 Rain 2 1011 93 14484 1.5 220 14:20 04.03.2020
1577 Rain 2 1011 93 11265 1.5 340 13:58 04.03.2020
1578 Rain 2 1011 93 11265 1.5 340 13:39 04.03.2020
1579 Rain 2 1011 97 14484 2.1 250 13:21 04.03.2020
1580 Rain 2 1011 97 8047 4.6 300 12:56 04.03.2020
1581 Rain 2 1009 74 16093 4.6 290 12:37 04.03.2020
1582 Rain 2 1009 74 16093 4.6 290 12:19 04.03.2020
1583 Rain 2 1010 93 16093 3.6 300 11:42 04.03.2020
1584 Rain 2 1009 78 16093 3.6 300 11:23 04.03.2020
1585 Rain 2 1009 74 16093 4.15 295 10:59 04.03.2020
1586 Rain 2 1009 74 16093 4.15 295 10:41 04.03.2020
1587 Rain 2 1008 64 16093 2.1 280 10:22 04.03.2020
1588 Clear 2 1009 69 16093 4.15 295 09:44 04.03.2020
1589 Clouds 2 1009 64 16093 4.6 260 09:21 04.03.2020
1590 Clouds 2 1009 60 16093 1.5 220 08:56 04.03.2020
1591 Clouds 2 1009 60 16093 1.5 220 08:37 04.03.2020
1592 Clouds 2 1009 60 16093 3.6 250 08:19 04.03.2020
1593 Clear 2 1008 60 16093 3.6 240 07:39 04.03.2020
1594 Clear 2 1008 60 16093 3.6 240 07:20 04.03.2020
1595 Clear 2 1009 55 16093 2.1 210 06:47 04.03.2020
1596 Clear 2 1009 55 16093 2.1 210 06:47 04.03.2020
1597 Clear 2 1008 60 16093 3.6 240 06:24 04.03.2020
1598 Clear 2 1009 55 16093 3.98 259 05:54 04.03.2020
1599 Clear 3 1008 69 16093 1.5 260 04:34 04.03.2020
1600 Clear 4 1009 60 16093 6.14 271 03:44 04.03.2020
1601 Clear 4 1008 56 16093 5.1 240 03:25 04.03.2020
1602 Clear 4 1009 60 16093 3.1 260 02:55 04.03.2020
1603 Clear 5 1008 52 16093 6.2 270 02:21 04.03.2020
1604 Clear 5 1008 52 16093 5.1 280 01:55 04.03.2020
1605 Clouds 6 1006 48 16093 6.7 280 00:53 04.03.2020
1606 Clouds 7 1005 45 16093 8.7 280 00:27 04.03.2020
1607 Clouds 7 1005 52 16093 5.7 280 23:48 03.03.2020
1608 Clouds 8 1004 49 16093 9.3 280 23:28 03.03.2020
1609 Clear 8 1004 57 16093 8.2 280 22:59 03.03.2020
1610 Clear 8 1004 57 16093 8.2 280 22:40 03.03.2020
1611 Rain 8 1002 45 16093 11.3 290 22:20 03.03.2020
1612 Rain 8 1002 57 16093 9.8 280 21:58 03.03.2020
1613 Rain 8 1002 57 16093 9.8 280 21:39 03.03.2020
1614 Clouds 8 1002 52 16093 7.2 280 21:20 03.03.2020
1615 Clouds 8 1001 57 16093 9.8 280 20:55 03.03.2020
1616 Clouds 8 1001 57 16093 9.8 280 20:37 03.03.2020
1617 Clouds 8 1001 57 16093 9.8 250 20:18 03.03.2020
1618 Clouds 8 1001 57 16093 9.8 250 20:18 03.03.2020
1619 Clouds 8 1001 57 16093 9.8 250 20:18 03.03.2020
1620 Clouds 8 1001 53 16093 8.7 270 19:54 03.03.2020
1621 Clouds 8 1001 57 16093 7.2 270 19:36 03.03.2020
1622 Clouds 8 1001 57 16093 7.2 270 19:18 03.03.2020
1623 Clear 8 1001 65 16093 7.2 260 18:55 03.03.2020
1624 Clear 8 1001 65 16093 7.2 260 18:36 03.03.2020
1625 Clouds 7 1001 66 16093 9.3 250 18:18 03.03.2020
1626 Clouds 6 1001 75 16093 7.7 220 17:40 03.03.2020
1627 Clouds 5 1001 74 16093 5.1 210 17:21 03.03.2020
1628 Clouds 5 1001 66 16093 5.1 210 17:21 03.03.2020
1629 Rain 4 1002 74 16093 5.75 229 16:58 03.03.2020
1630 Rain 3 1002 68 16093 4.84 228 16:38 03.03.2020
1631 Rain 3 1002 74 16093 5.75 229 16:38 03.03.2020
1632 Rain 3 1002 74 16093 5.75 229 16:38 03.03.2020
1633 Clouds 2 1002 69 16093 5.1 220 16:20 03.03.2020
1634 Clouds 2 1003 74 16093 5.75 229 15:57 03.03.2020
1635 Clouds 2 1003 74 16093 5.75 229 15:57 03.03.2020
1636 Clouds 1 1002 80 14484 3.1 230 15:38 03.03.2020
1637 Clouds 1 1002 80 14484 3.1 230 15:18 03.03.2020
1638 Clouds 1 1002 86 16093 4.84 228 14:41 03.03.2020
1639 Clouds 1 1002 86 16093 4.84 228 14:41 03.03.2020
1640 Clouds 0 1002 85 12874 3.1 220 14:19 03.03.2020
1641 Clouds -1 1003 85 16093 3.87 248 13:57 03.03.2020
1642 Clouds -1 1002 85 14484 3.1 250 13:39 03.03.2020
1643 Clouds -1 1002 85 14484 3.1 250 13:19 03.03.2020
1644 Clouds -1 1003 85 16093 3.87 248 12:47 03.03.2020
1645 Clouds -1 1003 85 14484 3.6 250 12:26 03.03.2020
1646 Clouds -1 1003 85 16093 3.87 248 11:57 03.03.2020
1647 Clouds -1 1002 85 16093 2.6 230 11:37 03.03.2020
1648 Clouds -1 1003 85 16093 3.87 248 11:37 03.03.2020
1649 Clouds -1 1002 84 16093 2.6 230 11:18 03.03.2020
1650 Clouds -1 1003 84 16093 1.41 275 10:56 03.03.2020
1651 Clouds -1 1003 84 16093 1.41 275 10:37 03.03.2020
1652 Clouds -1 1003 84 16093 3.1 290 10:18 03.03.2020
1653 Clouds -1 1004 84 16093 1.41 275 09:44 03.03.2020
1654 Clouds -1 1004 80 16093 2.1 270 09:22 03.03.2020
1655 Clouds -1 1004 84 16093 1.41 275 08:56 03.03.2020
1656 Clouds -1 1004 80 14484 1.5 260 08:37 03.03.2020
1657 Clouds -1 1004 80 14484 1.5 260 08:19 03.03.2020
1658 Clouds 0 1004 84 16093 1.55 314 07:42 03.03.2020
1659 Clouds 0 1004 74 16093 2.6 290 07:19 03.03.2020
1660 Clouds 0 1004 93 16093 1.55 314 06:41 03.03.2020
1661 Clouds 0 1004 74 16093 3.1 340 06:22 03.03.2020
1662 Clouds 0 1004 74 16093 3.1 340 06:22 03.03.2020
1663 Clouds 0 1005 84 16093 1.55 314 05:46 03.03.2020
1664 Clear 1 1006 81 16093 1.99 19 04:58 03.03.2020
1665 Clear 1 1007 81 16093 1.99 19 03:52 03.03.2020
1666 Clouds 4 1006 82 16093 2.6 270 01:40 03.03.2020
1667 Clouds 5 1006 60 16093 3.91 131 00:48 03.03.2020
1668 Clouds 5 1005 60 16093 2.6 260 00:26 03.03.2020
1669 Clouds 5 1006 56 16093 3.91 131 23:52 02.03.2020
1670 Clouds 6 1006 48 16093 3.1 120 23:24 02.03.2020
1671 Clouds 6 1006 56 16093 1.94 99 22:58 02.03.2020
1672 Clouds 6 1006 49 16093 3.6 100 22:39 02.03.2020
1673 Clouds 7 1006 49 16093 3.6 100 22:20 02.03.2020
1674 Clear 7 1006 52 16093 1.94 99 21:59 02.03.2020
1675 Clear 7 1006 52 16093 1.94 99 21:39 02.03.2020
1676 Clouds 8 1006 46 16093 3.1 290 21:21 02.03.2020
1677 Clear 8 1006 83 16093 1.94 99 20:58 02.03.2020
1678 Clear 8 1006 52 16093 2.1 300 20:39 02.03.2020
1679 Clouds 8 1006 45 16093 2.1 340 20:20 02.03.2020
1680 Clear 8 1007 82 16093 2.89 356 19:55 02.03.2020
1681 Clouds 8 1007 49 16093 1.5 290 19:37 02.03.2020
1682 Clouds 7 1007 49 16093 1.5 290 19:18 02.03.2020
1683 Clear 7 1008 52 16093 2.89 356 18:44 02.03.2020
1684 Clouds 7 1008 52 16093 1.5 310 18:20 02.03.2020
1685 Clear 6 1008 60 16093 2.89 356 17:59 02.03.2020
1686 Clear 6 1008 60 16093 2.89 356 17:40 02.03.2020
1687 Clouds 5 1008 56 16093 3.1 340 17:21 02.03.2020
1688 Clear 5 1008 84 16093 5.14 313 16:55 02.03.2020
1689 Clear 4 1008 64 16093 2.6 340 16:37 02.03.2020
1690 Clouds 4 1008 64 16093 5.1 340 16:19 02.03.2020
1691 Clear 3 1008 69 16093 5.14 313 15:43 02.03.2020
1692 Clouds 2 1008 74 16093 4.6 320 15:20 02.03.2020
1693 Clear 2 1008 84 16093 5.14 313 14:55 02.03.2020
1694 Clouds 1 1008 80 16093 3.1 310 14:36 02.03.2020
1695 Clouds 1 1008 80 16093 3.1 310 14:18 02.03.2020
1696 Clear 0 1007 88 16093 5.34 320 13:39 02.03.2020
1697 Clouds 1 1007 74 16093 3.1 310 13:19 02.03.2020
1698 Clear 1 1008 88 16093 5.51 319 12:44 02.03.2020
1699 Clouds 1 1007 69 16093 3.6 310 12:21 02.03.2020
1700 Clear 1 1007 86 16093 2.1 300 11:57 02.03.2020
1701 Clear 1 1007 86 16093 2.1 300 11:37 02.03.2020
1702 Clouds 2 1007 95 16093 3.1 290 11:18 02.03.2020
1703 Clear 3 1007 74 16093 1.5 300 10:55 02.03.2020
1704 Clouds 3 1007 93 16093 6.81 336 10:36 02.03.2020
1705 Clouds 4 1006 70 16093 2.1 290 10:18 02.03.2020
1706 Clouds 5 1006 93 16093 6.81 336 09:44 02.03.2020
1707 Clouds 7 1006 70 16093 3.1 300 09:25 02.03.2020
1708 Clouds 8 1006 87 16093 2.1 230 08:47 02.03.2020
1709 Clouds 7 1006 81 16093 3.6 270 08:22 02.03.2020
1710 Clouds 8 1006 93 16093 3.6 230 07:44 02.03.2020
1711 Clouds 8 1006 81 16093 3.1 250 07:20 02.03.2020
1712 Clouds 10 1006 87 16093 5.7 220 06:47 02.03.2020
1713 Clouds 10 1007 76 16093 3.1 210 05:57 02.03.2020
1714 Clouds 9 1007 87 16093 5.1 210 04:51 02.03.2020
1715 Clouds 10 1007 76 16093 4.6 210 03:23 02.03.2020
1716 Clear 10 1008 81 16093 3.6 200 02:49 02.03.2020
1717 Clear 11 1008 81 16093 7.57 199 01:54 02.03.2020
1718 Clouds 11 1007 66 16093 5.7 210 01:32 02.03.2020
1719 Clouds 12 1007 62 16093 8.2 210 00:24 02.03.2020
1720 Clear 12 1008 71 16093 6.2 200 23:59 01.03.2020
1721 Clear 12 1008 71 16093 6.2 200 23:40 01.03.2020
1722 Clouds 13 1007 54 16093 7.2 210 23:20 01.03.2020
1723 Clear 14 1006 47 16093 5.1 220 22:43 01.03.2020
1724 Clouds 13 1006 50 16093 6.7 210 22:21 01.03.2020
1725 Clear 13 1008 62 16093 6.2 200 21:57 01.03.2020
1726 Clear 13 1008 62 16093 6.2 200 21:57 01.03.2020
1727 Clear 14 1008 62 16093 6.2 200 21:38 01.03.2020
1728 Clouds 14 1007 50 16093 6.7 210 21:19 01.03.2020
1729 Clear 14 1006 47 16093 4.1 220 20:44 01.03.2020
1730 Clouds 13 1007 50 16093 7.7 200 20:25 01.03.2020
1731 Clear 11 1009 61 16093 6.2 200 19:57 01.03.2020
1732 Clouds 12 1009 50 16093 6.7 200 19:39 01.03.2020
1733 Clouds 11 1009 50 16093 6.7 200 19:21 01.03.2020
1734 Clear 11 1008 50 16093 9.3 200 18:41 01.03.2020
1735 Clouds 10 1010 49 16093 6.7 200 18:20 01.03.2020
1736 Clear 9 1009 78 16093 7.7 200 17:58 01.03.2020
1737 Clear 9 1009 78 16093 7.7 200 17:40 01.03.2020
1738 Clear 7 1011 52 16093 8.7 200 17:21 01.03.2020
1739 Clear 7 1012 60 16093 8.7 200 16:58 01.03.2020
1740 Clear 7 1012 60 16093 8.7 200 16:39 01.03.2020
1741 Clear 7 1012 60 16093 8.7 200 16:39 01.03.2020
1742 Clouds 5 1011 52 16093 7.7 190 16:19 01.03.2020
1743 Clear 5 1010 60 16093 6.7 200 15:58 01.03.2020
1744 Clear 4 1010 60 16093 6.7 200 15:40 01.03.2020
1745 Clouds 4 1012 59 16093 6.7 190 15:20 01.03.2020
1746 Clouds 3 1011 64 16093 5.7 200 14:57 01.03.2020
1747 Clouds 2 1011 64 16093 5.7 200 14:39 01.03.2020
1748 Clouds 2 1012 64 16093 6.2 190 14:21 01.03.2020
1749 Clouds 1 1011 64 16093 5.7 190 13:56 01.03.2020
1750 Clouds 1 1011 64 16093 5.7 190 13:38 01.03.2020
1751 Clouds 1 1013 59 16093 5.7 180 13:19 01.03.2020
1752 Clear 0 1015 68 16093 5.1 180 12:43 01.03.2020
1753 Clouds 0 1014 59 16093 5.7 180 12:23 01.03.2020
1754 Clear 0 1016 68 16093 4.6 180 11:58 01.03.2020
1755 Clear 0 1016 68 16093 4.6 180 11:39 01.03.2020
1756 Clouds 0 1015 63 16093 4.6 170 11:19 01.03.2020
1757 Clear -1 1016 54 16093 4.1 160 10:55 01.03.2020
1758 Clear -1 1016 54 16093 4.1 160 10:36 01.03.2020
1759 Clouds -1 1016 68 16093 4.6 180 10:18 01.03.2020
1760 Clear -1 1017 54 16093 4.1 160 09:41 01.03.2020
1761 Clouds -1 1017 72 16093 4.1 180 09:22 01.03.2020
1762 Clear -1 1018 58 16093 3.1 160 08:46 01.03.2020
1763 Clouds -1 1018 63 16093 4.1 180 08:27 01.03.2020
1764 Clear -1 1019 58 16093 3.1 160 07:47 01.03.2020
1765 Clouds -1 1018 68 16093 4.1 170 07:28 01.03.2020
1766 Clear -1 1019 58 16093 2.6 160 06:58 01.03.2020
1767 Clear -1 1019 58 16093 2.6 160 06:40 01.03.2020
1768 Clear -1 1019 68 16093 3.6 190 04:47 01.03.2020
1769 Clear -1 1019 58 16093 2.1 190 02:58 01.03.2020
1770 Clear -1 1021 50 16093 3.6 190 02:18 01.03.2020
1771 Clouds 0 1021 47 16093 4.6 210 01:36 01.03.2020
1772 Clear 1 1021 63 16093 3.6 200 00:49 01.03.2020
1773 Clouds 1 1021 37 16093 4.6 210 00:25 01.03.2020
1774 Clear 2 1022 55 16093 4.1 220 23:58 29.02.2020
1775 Clear 2 1022 55 16093 4.1 220 23:40 29.02.2020
1776 Clouds 2 1021 37 16093 4.1 210 23:21 29.02.2020
1777 Clear 2 1022 50 16093 3.6 220 22:37 29.02.2020
1778 Clouds 2 1021 37 16093 4.6 230 22:19 29.02.2020
1779 Clear 2 1022 43 16093 4.6 230 21:39 29.02.2020
1780 Clouds 2 1022 37 16093 5.7 240 21:19 29.02.2020
1781 Clear 2 1022 44 16093 2.1 230 20:41 29.02.2020
1782 Clouds 1 1022 47 16093 6.7 250 20:20 29.02.2020
1783 Clear 1 1023 42 16093 2.1 240 19:55 29.02.2020
1784 Clear 0 1023 30 16093 5.7 290 19:36 29.02.2020
1785 Clear 0 1023 30 16093 5.7 290 19:18 29.02.2020
1786 Clear -1 1024 39 16093 3.6 240 18:42 29.02.2020
1787 Clear -1 1023 30 16093 4.6 260 18:22 29.02.2020
1788 Clear -2 1023 42 16093 3.64 267 17:56 29.02.2020
1789 Clear -2 1023 35 16093 3.6 270 17:37 29.02.2020
1790 Clear -3 1023 35 16093 3.6 270 17:19 29.02.2020
1791 Clear -3 1023 45 16093 5.16 291 16:44 29.02.2020
1792 Clear -5 1023 41 16093 3.1 280 16:19 29.02.2020
1793 Clear -5 1023 53 16093 5.16 291 15:56 29.02.2020
1794 Clear -7 1023 48 16093 3.1 290 15:36 29.02.2020
1795 Clear -7 1023 48 16093 3.1 290 15:18 29.02.2020
1796 Clear -9 1023 57 16093 5.16 291 14:39 29.02.2020
1797 Clear -9 1023 52 16093 3.6 290 14:21 29.02.2020
1798 Clear -10 1023 66 16093 7.58 302 13:45 29.02.2020
1799 Clear -10 1023 66 16093 7.58 302 13:45 29.02.2020
1800 Clear -10 1022 52 16093 3.6 290 13:27 29.02.2020
1801 Clear -10 1022 56 16093 7.74 304 12:57 29.02.2020
1802 Clear -10 1022 56 16093 7.74 304 12:38 29.02.2020
1803 Clear -9 1022 52 16093 3.1 300 12:20 29.02.2020
1804 Clear -9 1022 52 16093 7.74 304 11:45 29.02.2020
1805 Clear -9 1022 44 16093 4.1 310 11:26 29.02.2020
1806 Clear -8 1021 44 16093 3.1 290 10:51 29.02.2020
1807 Clear -8 1021 44 16093 4.6 310 10:30 29.02.2020
1808 Clear -8 1021 52 16093 9.04 317 09:56 29.02.2020
1809 Clear -8 1021 52 16093 9.04 317 09:56 29.02.2020
1810 Clear -8 1021 52 16093 9.04 317 09:37 29.02.2020
1811 Clear -8 1021 41 16093 4.6 300 09:18 29.02.2020
1812 Clear -7 1021 45 16093 4.6 290 08:40 29.02.2020
1813 Clear -7 1021 44 16093 3.6 300 08:20 29.02.2020
1814 Clear -7 1021 45 16093 4.6 300 07:51 29.02.2020
1815 Clear -7 1020 44 16093 4.1 300 07:22 29.02.2020
1816 Clear -7 1021 62 16093 10.42 324 06:54 29.02.2020
1817 Clear -7 1020 41 16093 4.1 310 06:29 29.02.2020
1818 Clear -6 1021 62 16093 10.42 324 05:50 29.02.2020
1819 Clear -6 1021 45 16093 3.6 300 05:31 29.02.2020
1820 Clear -6 1020 49 16093 10.72 321 03:55 29.02.2020
1821 Clear -5 1020 38 16093 4.6 310 03:24 29.02.2020
1822 Clear -5 1020 41 16093 10.72 321 02:52 29.02.2020
1823 Clear -4 1019 45 16093 4.1 300 01:55 29.02.2020
1824 Clear -4 1019 45 16093 2.1 300 00:51 29.02.2020
1825 Clouds -3 1018 49 16093 5.1 290 00:27 29.02.2020
1826 Clouds -3 1018 50 16093 3.6 300 23:41 28.02.2020
1827 Clouds -2 1017 39 16093 5.7 310 23:22 28.02.2020
1828 Clouds -2 1017 54 16093 3.6 280 22:43 28.02.2020
1829 Clouds -2 1017 42 16093 5.1 270 22:22 28.02.2020
1830 Clouds -2 1017 54 16093 3.6 290 21:42 28.02.2020
1831 Clouds -2 1017 49 16093 6.2 310 21:22 28.02.2020
1832 Clouds -2 1017 53 16093 7.52 307 20:58 28.02.2020
1833 Clouds -3 1017 53 16093 7.52 307 20:39 28.02.2020
1834 Clouds -3 1017 49 16093 4.6 280 20:20 28.02.2020
1835 Clouds -3 1017 58 16093 2.1 290 19:57 28.02.2020
1836 Clouds -3 1017 58 16093 2.1 290 19:38 28.02.2020
1837 Clouds -3 1017 58 16093 2.1 290 19:38 28.02.2020
1838 Clouds -3 1017 45 16093 4.1 280 19:20 28.02.2020
1839 Clouds -3 1018 58 16093 3.6 280 18:46 28.02.2020
1840 Clouds -4 1018 49 16093 4.1 290 18:24 28.02.2020
1841 Clouds -4 1018 58 16093 4.1 280 17:57 28.02.2020
1842 Clouds -4 1018 58 16093 4.1 280 17:38 28.02.2020
1843 Clouds -5 1018 53 16093 3.1 290 17:20 28.02.2020
1844 Clouds -5 1018 57 16093 3.6 290 16:38 28.02.2020
1845 Clouds -6 1018 57 16093 5.7 290 16:19 28.02.2020
1846 Clouds -6 1018 57 16093 3.1 320 15:56 28.02.2020
1847 Clouds -6 1018 57 16093 3.1 320 15:38 28.02.2020
1848 Clouds -6 1018 57 16093 3.6 310 15:18 28.02.2020
1849 Clouds -7 1017 62 16093 6.66 300 14:45 28.02.2020
1850 Clouds -7 1017 57 16093 3.1 310 14:20 28.02.2020
1851 Clouds -8 1017 67 16093 6.69 309 13:59 28.02.2020
1852 Clouds -8 1017 67 16093 6.69 309 13:40 28.02.2020
1853 Clouds -8 1017 52 16093 3.6 300 13:20 28.02.2020
1854 Clouds -8 1017 67 16093 6.62 307 12:46 28.02.2020
1855 Clouds -8 1017 57 16093 3.1 300 12:27 28.02.2020
1856 Clear -8 1017 72 16093 6.62 307 11:59 28.02.2020
1857 Clear -8 1017 72 16093 6.62 307 11:40 28.02.2020
1858 Clouds -8 1017 62 16093 2.6 290 11:21 28.02.2020
1859 Clear -8 1017 57 16093 2.6 290 10:43 28.02.2020
1860 Clouds -8 1017 62 16093 2.1 310 10:24 28.02.2020
1861 Clear -8 1017 78 16093 6.89 304 09:54 28.02.2020
1862 Clouds -8 1017 62 16093 3.1 320 09:36 28.02.2020
1863 Clouds -8 1017 62 16093 3.1 320 09:18 28.02.2020
1864 Clear -8 1017 73 16093 6.89 304 08:42 28.02.2020
1865 Clear -8 1017 57 16093 4.1 330 08:20 28.02.2020
1866 Clear -7 1018 53 16093 3.6 300 07:45 28.02.2020
1867 Clear -7 1018 57 16093 2.6 340 07:25 28.02.2020
1868 Clear -6 1018 73 16093 8.36 317 06:50 28.02.2020
1869 Clear -6 1018 62 16093 4.1 310 06:30 28.02.2020
1870 Clouds -5 1018 58 16093 4.1 310 05:29 28.02.2020
1871 Clouds -5 1018 49 16093 5.1 300 04:31 28.02.2020
1872 Clear -4 1018 53 16093 8.91 314 02:48 28.02.2020
1873 Clouds -4 1018 49 16093 4.6 290 02:28 28.02.2020
1874 Clear -3 1018 58 16093 2.6 290 01:46 28.02.2020
1875 Clouds -2 1017 50 16093 6.7 290 00:31 28.02.2020
1876 Clouds -2 1017 58 16093 7.2 270 23:45 27.02.2020
1877 Clouds -1 1017 46 16093 7.2 290 23:22 27.02.2020
1878 Clouds -1 1017 68 16093 3.6 290 22:56 27.02.2020
1879 Clouds -1 1017 54 16093 7.2 260 22:38 27.02.2020
1880 Clouds -1 1017 54 16093 7.2 260 22:20 27.02.2020
1881 Clouds -1 1017 68 16093 7.2 270 21:41 27.02.2020
1882 Clouds -1 1017 54 16093 8.2 280 21:23 27.02.2020
1883 Clouds -2 1017 68 16093 8.2 270 20:59 27.02.2020
1884 Clouds -2 1017 68 16093 8.2 270 20:41 27.02.2020
1885 Snow -2 1017 58 16093 6.7 290 20:21 27.02.2020
1886 Clouds -2 1017 63 16093 5.7 270 19:57 27.02.2020
1887 Clouds -2 1016 50 16093 4.1 260 19:38 27.02.2020
1888 Snow -2 1018 58 16093 6.7 270 19:19 27.02.2020
1889 Clouds -2 1018 63 16093 6.2 260 18:43 27.02.2020
1890 Snow -2 1018 63 16093 6.7 280 18:24 27.02.2020
1891 Clouds -3 1018 54 16093 6.2 260 17:59 27.02.2020
1892 Clouds -3 1018 54 16093 6.2 260 17:40 27.02.2020
1893 Clouds -3 1018 54 16093 6.2 260 17:40 27.02.2020
1894 Clouds -3 1018 53 16093 5.7 270 17:20 27.02.2020
1895 Clouds -3 1019 53 16093 5.1 280 16:59 27.02.2020
1896 Clouds -3 1019 53 16093 5.1 280 16:39 27.02.2020
1897 Clouds -3 1018 53 16093 5.1 290 16:19 27.02.2020
1898 Clear -4 1019 62 16093 4.6 290 15:58 27.02.2020
1899 Clear -4 1019 62 16093 4.6 290 15:37 27.02.2020
1900 Clouds -4 1018 58 16093 5.1 280 15:19 27.02.2020
1901 Clear -5 1018 73 16093 4.6 280 14:56 27.02.2020
1902 Clear -5 1018 73 16093 4.6 280 14:37 27.02.2020
1903 Clouds -5 1018 68 16093 3.6 280 14:19 27.02.2020
1904 Snow -5 1018 79 12874 4.1 300 13:42 27.02.2020
1905 Snow -5 1018 68 16093 3.6 280 13:21 27.02.2020
1906 Snow -5 1018 68 16093 3.6 280 13:21 27.02.2020
1907 Clouds -5 1018 73 16093 8.92 309 12:55 27.02.2020
1908 Clouds -4 1018 73 16093 8.92 309 12:37 27.02.2020
1909 Clouds -4 1018 63 16093 3.1 270 12:18 27.02.2020
1910 Clouds -4 1018 68 16093 8.92 309 11:41 27.02.2020
1911 Clouds -4 1018 58 16093 2.1 290 11:21 27.02.2020
1912 Clouds -4 1018 58 16093 2.1 290 11:21 27.02.2020
1913 Clouds -4 1018 53 16093 3.6 270 10:44 27.02.2020
1914 Clouds -4 1018 53 16093 3.6 270 10:44 27.02.2020
1915 Clouds -4 1018 53 16093 2.6 300 10:23 27.02.2020
1916 Clouds -4 1019 49 16093 4.1 300 09:49 27.02.2020
1917 Clouds -4 1019 49 16093 3.6 310 09:29 27.02.2020
1918 Clouds -4 1019 49 16093 5.1 310 08:58 27.02.2020
1919 Clouds -4 1019 49 16093 5.1 310 08:58 27.02.2020
1920 Clouds -4 1019 49 16093 5.1 310 08:40 27.02.2020
1921 Clouds -4 1019 53 16093 4.6 310 08:22 27.02.2020
1922 Clouds -4 1019 53 16093 1.5 310 07:44 27.02.2020
1923 Clouds -4 1019 49 16093 6.7 310 07:25 27.02.2020
1924 Clouds -3 1019 58 16093 5.1 320 06:46 27.02.2020
1925 Clouds -3 1020 58 16093 4.1 320 05:43 27.02.2020
1926 Clouds -4 1020 58 16093 5.7 330 03:40 27.02.2020
1927 Snow -3 1020 63 14484 8.2 340 02:22 27.02.2020
1928 Snow -3 1018 68 16093 6.7 330 00:45 27.02.2020
1929 Snow -3 1018 63 16093 9.3 330 00:26 27.02.2020
1930 Snow -2 1018 79 16093 3.1 360 23:40 26.02.2020
1931 Snow -2 1018 68 14484 8.7 330 23:19 26.02.2020
1932 Snow -2 1017 63 16093 8.2 340 22:57 26.02.2020
1933 Snow -2 1017 63 16093 8.2 340 22:39 26.02.2020
1934 Snow -1 1017 63 16093 7.2 330 22:20 26.02.2020
1935 Clouds -1 1016 74 11265 8.7 360 21:56 26.02.2020
1936 Clouds -1 1016 74 11265 8.7 360 21:36 26.02.2020
1937 Snow -1 1017 74 14484 8.2 350 21:18 26.02.2020
1938 Snow -1 1016 80 16093 6.7 350 20:54 26.02.2020
1939 Snow -1 1016 80 16093 6.7 350 20:36 26.02.2020
1940 Snow -1 1017 80 16093 7.2 340 20:18 26.02.2020
1941 Clouds -1 1017 74 11265 5.1 330 19:45 26.02.2020
1942 Clouds -1 1017 80 14484 9.3 350 19:21 26.02.2020
1943 Snow -1 1017 82 2012 9.3 350 18:58 26.02.2020
1944 Snow -1 1017 82 2012 9.3 350 18:40 26.02.2020
1945 Clouds -1 1018 74 16093 7.2 350 18:22 26.02.2020
1946 Snow -1 1017 86 4023 7.2 360 17:42 26.02.2020
1947 Snow -1 1017 86 4023 7.2 360 17:42 26.02.2020
1948 Snow -2 1017 74 16093 6.2 360 17:24 26.02.2020
1949 Snow -2 1017 92 8047 6.2 360 16:59 26.02.2020
1950 Snow -2 1017 92 8047 6.2 360 16:41 26.02.2020
1951 Snow -2 1017 86 6437 7.2 350 16:22 26.02.2020
1952 Snow -2 1018 74 12874 9.8 350 15:54 26.02.2020
1953 Snow -2 1017 92 2012 5.1 10 15:36 26.02.2020
1954 Snow -3 1018 74 8047 7.7 340 15:18 26.02.2020
1955 Clouds -3 1018 79 16093 5.1 350 14:42 26.02.2020
1956 Snow -3 1018 92 2816 7.2 360 14:22 26.02.2020
1957 Snow -2 1018 86 2816 7.2 360 13:43 26.02.2020
1958 Snow -2 1017 92 3219 4.6 20 13:22 26.02.2020
1959 Snow -2 1017 86 4023 5.7 20 12:42 26.02.2020
1960 Snow -1 1017 86 4023 6.2 10 12:22 26.02.2020
1961 Snow -1 1017 92 4828 6.7 20 11:59 26.02.2020
1962 Snow -1 1017 92 4828 6.7 20 11:40 26.02.2020
1963 Snow -1 1017 86 3219 6.7 20 11:22 26.02.2020
1964 Snow -1 1017 92 4023 7.2 20 10:43 26.02.2020
1965 Snow -1 1017 92 4023 6.2 30 10:24 26.02.2020
1966 Snow -1 1017 92 2816 5.7 20 09:59 26.02.2020
1967 Snow -1 1017 92 2816 5.7 20 09:41 26.02.2020
1968 Snow -1 1018 92 4828 4.1 20 09:21 26.02.2020
1969 Snow -1 1018 92 4828 4.1 20 09:21 26.02.2020
1970 Snow -1 1017 84 6437 5.1 30 08:54 26.02.2020
1971 Snow -1 1019 92 4023 6.2 20 08:36 26.02.2020
1972 Snow -1 1019 92 4023 6.2 20 08:18 26.02.2020
1973 Snow -1 1017 93 6437 6.2 40 07:41 26.02.2020
1974 Snow -1 1018 93 2816 7.2 30 07:21 26.02.2020
1975 Snow -1 1018 93 8047 4.1 30 06:46 26.02.2020
1976 Snow -1 1019 93 3219 7.2 10 06:23 26.02.2020
1977 Clouds 0 1019 93 6437 4.1 20 05:48 26.02.2020
1978 Snow 0 1018 86 4023 8.2 10 05:18 26.02.2020
1979 Rain 0 1018 80 2414 10.3 20 03:27 26.02.2020
1980 Snow 0 1017 95 4023 6.2 10 01:58 26.02.2020
1981 Snow 0 1017 100 1609 8.7 20 01:25 26.02.2020
1982 Rain 0 1017 86 1207 7.7 10 00:44 26.02.2020
1983 Snow 1 1016 86 1609 9.3 20 00:20 26.02.2020
1984 Snow 1 1015 96 1207 5.1 10 23:42 25.02.2020
1985 Snow 1 1016 74 14484 11.3 20 23:24 25.02.2020
1986 Clouds 1 1016 74 16093 6.7 20 22:56 25.02.2020
1987 Clouds 2 1016 74 16093 6.7 20 22:37 25.02.2020
1988 Clouds 2 1015 69 16093 10.8 20 22:18 25.02.2020
1989 Rain 2 1014 74 16093 8.7 20 21:38 25.02.2020
1990 Clouds 2 1014 74 16093 10.3 30 21:20 25.02.2020
1991 Snow 2 1014 90 8047 5.1 20 20:57 25.02.2020
1992 Snow 3 1014 90 8047 5.1 20 20:39 25.02.2020
1993 Clouds 3 1014 74 16093 9.3 30 20:19 25.02.2020
1994 Snow 3 1014 87 16093 7.2 20 19:56 25.02.2020
1995 Snow 3 1014 87 16093 7.2 20 19:37 25.02.2020
1996 Clouds 3 1015 69 16093 6.2 20 19:18 25.02.2020
1997 Clouds 3 1015 69 16093 6.2 30 18:40 25.02.2020
1998 Clouds 3 1014 69 16093 8.7 20 18:21 25.02.2020
1999 Clouds 3 1015 69 16093 5.7 30 17:56 25.02.2020
2000 Clouds 3 1015 69 16093 5.7 30 17:37 25.02.2020
2001 Clouds 3 1015 69 16093 9.8 20 17:19 25.02.2020
2002 Clouds 3 1015 74 16093 5.1 40 16:56 25.02.2020
2003 Clouds 3 1015 74 16093 5.1 40 16:38 25.02.2020
2004 Clouds 3 1014 69 16093 11.3 30 16:20 25.02.2020
2005 Rain 3 1013 85 16093 7.7 40 15:55 25.02.2020
2006 Snow 2 1013 74 16093 9.8 30 15:36 25.02.2020
2007 Snow 2 1013 74 16093 9.8 30 15:18 25.02.2020
2008 Snow 2 1013 74 16093 9.8 30 15:18 25.02.2020
2009 Drizzle 2 1012 85 16093 6.7 40 14:40 25.02.2020
2010 Clouds 2 1012 74 16093 8.7 40 14:19 25.02.2020
2011 Clouds 2 1012 74 16093 8.7 40 14:19 25.02.2020
2012 Clouds 2 1012 74 16093 8.7 40 14:19 25.02.2020
2013 Clouds 2 1011 89 16093 6.2 40 13:59 25.02.2020
2014 Clouds 2 1011 89 16093 6.2 40 13:41 25.02.2020
2015 Clouds 2 1012 74 16093 8.7 40 13:21 25.02.2020
2016 Clouds 2 1011 93 16093 7.7 30 12:59 25.02.2020
2017 Clouds 2 1011 93 16093 7.7 30 12:39 25.02.2020
2018 Clouds 2 1012 74 16093 8.7 30 12:20 25.02.2020
2019 Clouds 3 1011 91 16093 8.7 50 11:56 25.02.2020
2020 Clouds 3 1011 91 16093 8.7 50 11:37 25.02.2020
2021 Clouds 3 1011 74 16093 8.2 30 11:18 25.02.2020
2022 Clouds 3 1011 93 11265 4.6 30 10:42 25.02.2020
2023 Clouds 3 1010 93 11265 5.7 30 10:23 25.02.2020
2024 Clouds 3 1011 93 11265 5.1 30 09:56 25.02.2020
2025 Clouds 3 1011 93 11265 5.1 30 09:38 25.02.2020
2026 Clouds 3 1010 93 11265 6.2 30 09:18 25.02.2020
2027 Clouds 3 1010 93 11265 5.7 30 08:42 25.02.2020
2028 Clouds 3 1011 94 16093 6.7 30 08:24 25.02.2020
2029 Clouds 3 1010 93 11265 5.1 40 07:49 25.02.2020
2030 Clouds 2 1010 74 16093 6.2 30 07:24 25.02.2020
2031 Rain 2 1011 93 11265 4.6 40 06:55 25.02.2020
2032 Drizzle 2 1011 93 11265 4.1 30 05:54 25.02.2020
2033 Drizzle 2 1011 86 14484 6.7 30 05:19 25.02.2020
2034 Rain 3 1011 74 16093 7.2 30 02:34 25.02.2020
2035 Rain 3 1011 93 11265 3.1 20 00:58 25.02.2020
2036 Clouds 3 1010 69 16093 5.1 40 00:32 25.02.2020
2037 Rain 3 1010 93 11265 3.1 40 23:48 24.02.2020
2038 Clouds 3 1010 69 16093 6.7 30 23:29 24.02.2020
2039 Rain 4 1009 86 11265 3.6 30 22:59 24.02.2020
2040 Rain 4 1009 86 11265 3.6 30 22:37 24.02.2020
2041 Rain 4 1010 88 16093 6.2 30 22:18 24.02.2020
2042 Rain 4 1010 86 11265 2.6 30 21:54 24.02.2020
2043 Clouds 4 1010 69 16093 3.1 50 21:36 24.02.2020
2044 Rain 4 1011 65 16093 6.2 40 21:18 24.02.2020
2045 Clouds 5 1010 88 16093 4.6 30 20:41 24.02.2020
2046 Clouds 5 1011 60 16093 5.1 20 20:21 24.02.2020
2047 Clouds 5 1011 90 16093 2.6 40 19:59 24.02.2020
2048 Clouds 5 1011 90 16093 2.6 40 19:41 24.02.2020
2049 Clouds 5 1012 65 16093 4.6 60 19:22 24.02.2020
2050 Clouds 5 1012 65 16093 4.6 60 19:22 24.02.2020
2051 Clouds 5 1012 90 16093 4.1 50 18:58 24.02.2020
2052 Clouds 5 1012 90 16093 4.1 50 18:40 24.02.2020
2053 Clouds 5 1012 65 16093 5.7 70 18:21 24.02.2020
2054 Clouds 5 1013 90 16093 2.1 50 17:54 24.02.2020
2055 Clouds 4 1013 90 16093 2.1 50 17:36 24.02.2020
2056 Clear 4 1013 64 16093 2.6 70 17:18 24.02.2020
2057 Clouds 4 1013 91 16093 2.91 112 16:54 24.02.2020
2058 Clouds 4 1013 64 16093 6.2 60 16:36 24.02.2020
2059 Clouds 3 1013 64 16093 6.2 60 16:18 24.02.2020
2060 Clouds 3 1014 91 16093 2.91 112 15:54 24.02.2020
2061 Clouds 3 1014 91 16093 2.91 112 15:36 24.02.2020
2062 Clouds 3 1014 60 16093 3.6 60 15:18 24.02.2020
2063 Clear 2 1014 69 16093 1.5 50 14:40 24.02.2020
2064 Clouds 2 1013 64 16093 3.6 30 14:19 24.02.2020
2065 Clear 2 1013 69 16093 4.69 26 13:57 24.02.2020
2066 Clear 2 1013 69 16093 4.69 26 13:38 24.02.2020
2067 Clouds 2 1013 69 16093 3.1 20 13:20 24.02.2020
2068 Mist 2 1013 88 6437 5.34 24 12:56 24.02.2020
2069 Mist 2 1013 88 6437 5.34 24 12:38 24.02.2020
2070 Mist 2 1013 88 6437 5.34 24 12:38 24.02.2020
2071 Clear 2 1014 88 11265 5.34 24 12:19 24.02.2020
2072 Clear 2 1013 100 11265 5.34 24 11:44 24.02.2020
2073 Clouds 1 1013 69 16093 1.5 10 11:26 24.02.2020
2074 Clear 2 1014 93 16093 1.5 320 10:45 24.02.2020
2075 Clouds 2 1013 64 16093 3.1 350 10:26 24.02.2020
2076 Clear 2 1014 93 16093 5.17 4 09:54 24.02.2020
2077 Clear 2 1014 93 16093 5.17 4 09:54 24.02.2020
2078 Clear 2 1013 86 16093 5.17 4 09:36 24.02.2020
2079 Clear 2 1013 86 16093 5.17 4 09:18 24.02.2020
2080 Clear 2 1013 86 16093 5.17 4 08:44 24.02.2020
2081 Clouds 2 1013 64 16093 2.6 300 08:24 24.02.2020
2082 Clear 2 1013 93 16093 4.68 338 07:44 24.02.2020
2083 Clear 2 1013 93 16093 4.68 338 07:24 24.02.2020
2084 Clear 3 1013 75 16093 2.6 210 06:36 24.02.2020
2085 Clouds 3 1013 60 16093 3.1 250 06:18 24.02.2020
2086 Clouds 4 1014 56 16093 2.6 230 05:28 24.02.2020
2087 Clear 5 1014 86 16093 5.49 277 03:45 24.02.2020
2088 Clear 6 1015 84 16093 5.49 277 02:52 24.02.2020
2089 Clear 8 1014 79 16093 1.5 220 01:42 24.02.2020
2090 Clear 10 1014 53 16093 3.1 240 00:52 24.02.2020
2091 Clouds 11 1014 40 16093 5.7 250 00:23 24.02.2020
2092 Clear 12 1014 50 16093 3.6 250 23:59 23.02.2020
2093 Clear 12 1014 50 16093 3.6 250 23:40 23.02.2020
2094 Clouds 12 1014 37 16093 6.7 260 23:18 23.02.2020
2095 Clear 12 1014 47 16093 5.7 250 22:54 23.02.2020
2096 Clouds 12 1013 37 16093 5.1 240 22:36 23.02.2020
2097 Clouds 12 1013 37 16093 5.1 240 22:18 23.02.2020
2098 Clear 12 1014 47 16093 5.7 250 21:43 23.02.2020
2099 Clouds 12 1013 73 16093 7.7 250 21:19 23.02.2020
2100 Clear 12 1014 50 16093 6.2 230 20:55 23.02.2020
2101 Clouds 12 1013 46 16093 6.7 240 20:37 23.02.2020
2102 Clouds 11 1013 46 16093 6.7 240 20:19 23.02.2020
2103 Clear 10 1015 50 16093 3.1 220 19:55 23.02.2020
2104 Clear 10 1015 50 16093 3.1 220 19:36 23.02.2020
2105 Clouds 10 1014 46 16093 7.2 250 19:18 23.02.2020
2106 Clouds 10 1014 46 16093 7.2 250 19:18 23.02.2020
2107 Clear 9 1015 77 16093 4.6 220 18:42 23.02.2020
2108 Clouds 9 1014 49 16093 5.7 230 18:22 23.02.2020
2109 Clear 8 1016 52 16093 5.1 220 17:59 23.02.2020
2110 Clear 8 1016 52 16093 5.1 220 17:41 23.02.2020
2111 Clouds 7 1015 48 16093 6.7 240 17:22 23.02.2020
2112 Clear 6 1016 56 16093 5.1 220 16:58 23.02.2020
2113 Clear 6 1016 56 16093 5.1 220 16:40 23.02.2020
2114 Clouds 5 1016 55 16093 5.7 240 16:21 23.02.2020
2115 Clear 4 1016 64 16093 4.6 220 15:55 23.02.2020
2116 Clear 3 1016 64 16093 4.6 220 15:37 23.02.2020
2117 Clouds 2 1016 64 16093 5.1 220 15:19 23.02.2020
2118 Clear 2 1016 74 16093 4.6 210 14:55 23.02.2020
2119 Clear 1 1016 74 16093 4.6 210 14:37 23.02.2020
2120 Clouds 0 1015 69 16093 3.6 200 14:19 23.02.2020
2121 Clear 0 1016 79 16093 3.6 200 13:55 23.02.2020
2122 Clear 0 1016 79 16093 3.6 200 13:36 23.02.2020
2123 Clear 0 1015 64 16093 4.1 200 13:18 23.02.2020
2124 Clear 0 1016 82 16093 4.6 200 12:40 23.02.2020
2125 Clouds 0 1015 64 16093 3.6 200 12:20 23.02.2020
2126 Clear 0 1016 82 16093 4.6 210 11:39 23.02.2020
2127 Clouds 0 1016 69 16093 4.1 200 11:20 23.02.2020
2128 Clouds 0 1016 69 16093 4.1 200 11:20 23.02.2020
2129 Clear 1 1017 76 16093 7.2 210 10:58 23.02.2020
2130 Clear 1 1015 69 16093 3.1 210 10:40 23.02.2020
2131 Clear 1 1016 69 16093 3.6 200 10:22 23.02.2020
2132 Clear 1 1018 55 16093 3.1 180 09:56 23.02.2020
2133 Clear 1 1018 55 16093 3.1 180 09:38 23.02.2020
2134 Clear 1 1017 64 16093 4.6 210 09:18 23.02.2020
2135 Clear 1 1017 64 16093 4.6 210 09:18 23.02.2020
2136 Clear 1 1018 69 16093 3.6 210 08:45 23.02.2020
2137 Clear 1 1018 64 16093 4.1 210 08:25 23.02.2020
2138 Clear 1 1019 51 16093 3.6 200 07:45 23.02.2020
2139 Clear 2 1018 64 16093 4.6 210 07:27 23.02.2020
2140 Clear 2 1019 59 16093 5.1 210 06:25 23.02.2020
2141 Clear 3 1019 51 16093 5.1 210 05:22 23.02.2020
2142 Clouds 4 1019 55 16093 5.7 200 04:23 23.02.2020
2143 Clear 4 1021 64 16093 4.1 200 02:49 23.02.2020
2144 Clear 6 1021 60 16093 5.1 200 01:42 23.02.2020
2145 Clouds 6 1020 48 16093 3.6 190 01:20 23.02.2020
2146 Clear 7 1020 56 16093 5.1 200 00:44 23.02.2020
2147 Clouds 7 1020 42 16093 5.1 210 00:22 23.02.2020
2148 Clear 9 1021 52 16093 4.6 200 23:43 22.02.2020
2149 Clouds 9 1020 39 16093 6.2 240 23:24 22.02.2020
2150 Clear 9 1021 45 16093 8.2 210 22:46 22.02.2020
2151 Clouds 9 1020 39 16093 8.2 220 22:22 22.02.2020
2152 Clear 9 1021 45 16093 7.7 230 21:55 22.02.2020
2153 Clear 9 1021 45 16093 7.7 230 21:37 22.02.2020
2154 Clouds 9 1021 37 16093 7.2 240 21:18 22.02.2020
2155 Clear 9 1022 45 16093 6.7 220 20:41 22.02.2020
2156 Clouds 9 1022 36 16093 6.2 210 20:22 22.02.2020
2157 Clear 7 1023 45 16093 7.7 230 19:43 22.02.2020
2158 Clear 7 1023 39 16093 6.2 220 19:24 22.02.2020
2159 Clear 6 1024 48 16093 5.7 210 18:58 22.02.2020
2160 Clear 6 1024 48 16093 5.7 210 18:38 22.02.2020
2161 Clear 5 1024 41 16093 7.2 240 18:20 22.02.2020
2162 Clear 4 1024 37 16093 3.6 210 17:54 22.02.2020
2163 Clear 4 1024 37 16093 3.6 210 17:36 22.02.2020
2164 Clear 3 1024 41 16093 6.2 250 17:18 22.02.2020
2165 Clear 2 1025 51 16093 5.7 220 16:40 22.02.2020
2166 Clear 1 1024 47 16093 6.2 230 16:20 22.02.2020
2167 Clear 0 1025 58 16093 3.6 220 15:57 22.02.2020
2168 Clear -1 1025 58 16093 3.6 220 15:39 22.02.2020
2169 Clear -1 1025 58 16093 4.6 210 15:21 22.02.2020
2170 Clear -3 1025 63 16093 4.6 220 14:42 22.02.2020
2171 Clear -3 1024 63 16093 4.1 210 14:22 22.02.2020
2172 Clear -4 1025 68 16093 4.6 220 13:44 22.02.2020
2173 Clear -4 1025 63 16093 4.1 200 13:20 22.02.2020
2174 Clear -4 1026 79 16093 4.1 210 12:59 22.02.2020
2175 Clear -4 1025 63 16093 3.1 210 12:40 22.02.2020
2176 Clear -4 1025 63 16093 3.1 210 12:21 22.02.2020
2177 Clear -3 1026 73 16093 1.5 210 11:44 22.02.2020
2178 Clear -3 1025 63 16093 4.6 210 11:26 22.02.2020
2179 Clear -3 1026 58 16093 3.1 200 10:56 22.02.2020
2180 Clear -3 1026 58 16093 3.1 200 10:37 22.02.2020
2181 Clear -3 1025 58 16093 4.1 210 10:18 22.02.2020
2182 Clear -3 1026 58 16093 3.6 190 09:55 22.02.2020
2183 Clear -3 1026 58 16093 3.6 190 09:37 22.02.2020
2184 Clear -3 1026 58 16093 4.1 210 09:18 22.02.2020
2185 Clear -3 1027 58 16093 3.6 210 08:44 22.02.2020
2186 Clear -3 1026 63 16093 5.1 220 08:25 22.02.2020
2187 Clear -3 1027 58 16093 3.6 200 07:43 22.02.2020
2188 Clouds -2 1026 58 16093 6.2 230 07:18 22.02.2020
2189 Clear -2 1028 58 16093 3.1 220 06:45 22.02.2020
2190 Clear -2 1028 58 16093 3.6 210 05:44 22.02.2020
2191 Clear -1 1027 58 16093 7.2 230 04:29 22.02.2020
2192 Clear -1 1029 63 16093 7.2 210 02:43 22.02.2020
2193 Clear 0 1029 63 16093 6.2 210 01:53 22.02.2020
2194 Clouds 0 1028 43 16093 6.2 210 01:30 22.02.2020
2195 Clear 0 1030 46 16093 5.7 220 00:58 22.02.2020
2196 Clear 1 1030 46 16093 5.7 220 00:36 22.02.2020
2197 Clear 1 1029 37 16093 7.7 220 00:18 22.02.2020
2198 Clear 2 1030 47 16093 7.2 220 23:38 21.02.2020
2199 Clear 2 1029 32 16093 8.7 210 23:20 21.02.2020
2200 Clear 2 1031 40 16093 8.2 220 22:42 21.02.2020
2201 Clear 2 1030 29 16093 7.7 230 22:24 21.02.2020
2202 Clear 2 1031 40 16093 6.7 220 21:56 21.02.2020
2203 Clear 2 1031 31 16093 8.7 230 21:37 21.02.2020
2204 Clear 2 1031 31 16093 8.7 230 21:19 21.02.2020
2205 Clear 2 1033 40 16093 8.2 230 20:43 21.02.2020
2206 Clear 1 1033 31 16093 8.7 230 20:25 21.02.2020
2207 Clear 0 1034 41 16093 7.7 220 19:40 21.02.2020
2208 Clear 0 1034 39 16093 7.2 210 19:21 21.02.2020
2209 Clear -1 1036 42 16093 6.7 210 18:44 21.02.2020
2210 Clear -1 1035 42 16093 5.7 220 18:24 21.02.2020
2211 Clear -2 1036 49 16093 5.1 210 17:58 21.02.2020
2212 Clear -3 1036 49 16093 5.1 210 17:38 21.02.2020
2213 Clear -3 1036 49 16093 5.1 210 17:38 21.02.2020
2214 Clear -3 1036 45 16093 5.1 240 17:20 21.02.2020
2215 Clear -4 1037 49 16093 4.6 220 16:55 21.02.2020
2216 Clear -5 1037 49 16093 4.6 220 16:37 21.02.2020
2217 Clear -6 1036 48 16093 5.1 240 16:19 21.02.2020
2218 Clear -7 1037 48 16093 6.76 240 15:40 21.02.2020
2219 Clear -8 1036 56 16093 3.1 230 15:19 21.02.2020
2220 Clear -10 1037 66 16093 6.76 240 14:44 21.02.2020
2221 Clear -11 1036 66 16093 3.6 200 14:22 21.02.2020
2222 Clear -11 1037 66 16093 6.44 256 13:59 21.02.2020
2223 Clear -11 1037 66 16093 6.44 256 13:41 21.02.2020
2224 Clear -12 1037 66 16093 3.1 230 13:21 21.02.2020
2225 Clear -12 1037 66 16093 6.58 255 12:46 21.02.2020
2226 Clear -12 1037 61 16093 2.6 250 12:27 21.02.2020
2227 Clear -12 1037 66 16093 6.58 255 11:58 21.02.2020
2228 Clear -12 1037 66 16093 6.58 255 11:38 21.02.2020
2229 Clear -12 1037 61 16093 3.6 250 11:20 21.02.2020
2230 Clear -12 1037 66 16093 6.12 253 10:42 21.02.2020
2231 Clear -12 1037 61 16093 3.1 250 10:23 21.02.2020
2232 Clear -11 1038 61 16093 6.12 253 09:58 21.02.2020
2233 Clear -11 1038 61 16093 6.12 253 09:40 21.02.2020
2234 Clear -11 1038 61 16093 3.1 260 09:22 21.02.2020
2235 Clear -11 1038 66 16093 6.12 253 08:56 21.02.2020
2236 Clear -11 1038 66 16093 6.12 253 08:37 21.02.2020
2237 Clear -11 1038 51 16093 3.1 260 08:18 21.02.2020
2238 Clear -11 1039 66 16093 5.12 277 07:42 21.02.2020
2239 Clear -11 1038 51 16093 3.1 300 07:21 21.02.2020
2240 Clear -11 1039 61 16093 5.12 277 06:56 21.02.2020
2241 Clear -11 1039 52 16093 2.1 300 06:33 21.02.2020
2242 Clear -11 1039 52 16093 5.12 277 05:56 21.02.2020
2243 Clear -11 1039 47 16093 3.6 290 05:30 21.02.2020
2244 Clear -10 1039 40 16093 4.6 300 04:26 21.02.2020
2245 Clear -10 1039 52 16093 5.53 298 03:52 21.02.2020
2246 Clear -9 1039 62 16093 5.53 298 02:59 21.02.2020
2247 Clear -8 1039 57 16093 5.53 317 01:43 21.02.2020
2248 Clear -8 1039 31 16093 4.1 300 01:22 21.02.2020
2249 Clear -7 1038 53 16093 4.98 320 00:38 21.02.2020
2250 Clear -7 1038 29 16093 3.6 300 00:19 21.02.2020
2251 Clear -6 1038 45 16093 4.98 320 23:41 20.02.2020
2252 Clouds -6 1038 29 16093 2.6 350 23:22 20.02.2020
2253 Clear -5 1038 45 16093 2.6 10 22:42 20.02.2020
2254 Clouds -5 1038 25 16093 4.1 310 22:23 20.02.2020
2255 Clear -5 1038 45 16093 5.26 338 21:58 20.02.2020
2256 Clear -5 1038 45 16093 5.26 338 21:39 20.02.2020
2257 Clear -5 1038 45 16093 5.26 338 21:39 20.02.2020
2258 Clouds -5 1039 29 16093 4.6 310 21:20 20.02.2020
2259 Clear -6 1039 45 16093 4.1 360 20:56 20.02.2020
2260 Clear -6 1038 31 16093 3.6 340 20:38 20.02.2020
2261 Clouds -6 1039 32 16093 5.1 310 20:19 20.02.2020
2262 Clear -6 1039 45 16093 2.1 30 19:59 20.02.2020
2263 Clear -6 1039 45 16093 2.1 30 19:41 20.02.2020
2264 Clouds -6 1040 29 16093 4.6 350 19:22 20.02.2020
2265 Clear -6 1040 48 16093 4.6 30 18:55 20.02.2020
2266 Clouds -7 1040 34 16093 4.1 330 18:37 20.02.2020
2267 Clouds -7 1040 34 16093 4.1 330 18:18 20.02.2020
2268 -273 0 0 0 0 0 17:39 20.02.2020
2269 Clear -8 1040 62 16093 4.6 360 17:19 20.02.2020
2270 Clear -9 1040 57 16093 7.18 333 16:58 20.02.2020
2271 Clouds -9 1040 47 16093 4.6 340 16:39 20.02.2020
2272 Clouds -10 1040 47 16093 4.6 340 16:19 20.02.2020
2273 Clear -11 1039 52 16093 3.6 350 15:43 20.02.2020
2274 Clouds -12 1039 51 16093 4.6 330 15:24 20.02.2020
2275 Clear -12 1039 51 16093 7.18 333 14:59 20.02.2020
2276 Clouds -13 1039 51 16093 5.7 320 14:41 20.02.2020
2277 Clouds -13 1039 51 16093 5.7 320 14:23 20.02.2020
2278 Clouds -13 1039 51 16093 5.7 320 14:23 20.02.2020
2279 Clear -13 1039 47 16093 7.37 334 13:56 20.02.2020
2280 Clouds -13 1038 51 16093 4.6 340 13:38 20.02.2020
2281 Clouds -13 1038 51 16093 4.6 340 13:19 20.02.2020
2282 Clouds -12 1038 43 16093 7.46 333 12:42 20.02.2020
2283 Clouds -12 1038 47 16093 4.6 350 12:21 20.02.2020
2284 Clouds -12 1037 44 16093 4.6 360 11:58 20.02.2020
2285 Clouds -11 1037 44 16093 4.6 360 11:39 20.02.2020
2286 Clouds -11 1037 43 16093 5.7 350 11:21 20.02.2020
2287 Clouds -11 1037 48 16093 6.2 340 10:56 20.02.2020
2288 Clouds -10 1037 48 16093 6.2 340 10:38 20.02.2020
2289 Clouds -10 1037 40 16093 6.7 330 10:19 20.02.2020
2290 Clouds -9 1037 44 16093 6.7 340 09:39 20.02.2020
2291 Clouds -9 1037 37 16093 6.2 360 09:21 20.02.2020
2292 Clouds -8 1037 44 16093 1.5 350 08:44 20.02.2020
2293 Clouds -8 1037 37 16093 6.7 330 08:24 20.02.2020
2294 Clouds -8 1037 44 16093 2.1 340 07:55 20.02.2020
2295 Clouds -8 1037 44 16093 2.1 340 07:37 20.02.2020
2296 Clouds -7 1037 41 16093 4.6 320 07:19 20.02.2020
2297 Clear -7 1036 44 16093 2.6 350 06:43 20.02.2020
2298 Clouds -7 1037 45 16093 7.47 330 05:58 20.02.2020
2299 Clouds -7 1037 41 16093 6.2 340 05:34 20.02.2020
2300 Clear -7 1036 49 16093 6.93 328 04:48 20.02.2020
2301 Clear -7 1036 57 16093 6.93 328 03:46 20.02.2020
2302 Clear -6 1035 53 16093 6.93 328 02:47 20.02.2020
2303 Clouds -5 1035 35 16093 4.1 320 01:25 20.02.2020
2304 Clouds -5 1035 53 16093 5.68 327 00:46 20.02.2020
2305 Clouds -4 1035 45 16093 2.1 80 00:24 20.02.2020
2306 Clear -4 1035 49 16093 5.68 327 23:46 19.02.2020
2307 Clouds -3 1035 28 16093 3.6 340 23:18 19.02.2020
2308 Clear -3 1035 46 16093 1.5 40 22:43 19.02.2020
2309 Clouds -3 1035 28 16093 2.6 10 22:24 19.02.2020
2310 Clear -3 1035 46 16093 5.41 339 21:58 19.02.2020
2311 Clear -2 1035 46 16093 5.41 339 21:40 19.02.2020
2312 Clouds -2 1035 30 16093 2.6 310 21:19 19.02.2020
2313 Clear -2 1035 36 16093 5.41 339 20:57 19.02.2020
2314 Clear -2 1035 36 16093 5.41 339 20:38 19.02.2020
2315 Clouds -3 1036 33 16093 2.1 300 20:19 19.02.2020
2316 Clear -3 1036 39 16093 4.46 343 19:57 19.02.2020
2317 Clouds -3 1037 35 16093 1.5 0 19:37 19.02.2020
2318 Clouds -3 1037 35 16093 1.5 0 19:19 19.02.2020
2319 Clear -3 1037 42 16093 4.46 343 18:57 19.02.2020
2320 Clear -4 1037 42 16093 4.46 343 18:39 19.02.2020
2321 Clouds -4 1037 35 16093 2.1 330 18:21 19.02.2020
2322 Clear -5 1037 45 16093 4.46 343 17:44 19.02.2020
2323 Clouds -5 1037 35 16093 2.6 10 17:20 19.02.2020
2324 Clear -6 1037 49 16093 5.41 328 16:56 19.02.2020
2325 Clouds -7 1037 44 16093 3.1 350 16:37 19.02.2020
2326 Clouds -7 1037 44 16093 3.1 350 16:18 19.02.2020
2327 Clear -8 1037 53 16093 3.1 340 15:43 19.02.2020
2328 Clouds -8 1036 44 16093 4.1 330 15:24 19.02.2020
2329 Clouds -8 1036 44 16093 4.1 330 15:24 19.02.2020
2330 Clear -8 1036 57 16093 3.6 330 14:57 19.02.2020
2331 Clear -9 1036 57 16093 3.6 330 14:39 19.02.2020
2332 Clouds -9 1036 52 16093 5.1 330 14:21 19.02.2020
2333 Clear -9 1035 61 16093 6.32 330 13:41 19.02.2020
2334 Clouds -9 1035 48 16093 5.1 350 13:22 19.02.2020
2335 Clear -9 1034 62 16093 6.11 322 12:55 19.02.2020
2336 Clear -8 1034 48 16093 5.1 360 12:36 19.02.2020
2337 Clear -8 1034 48 16093 5.1 360 12:18 19.02.2020
2338 Clouds -8 1033 57 16093 6.2 350 11:38 19.02.2020
2339 Clouds -8 1033 57 16093 6.2 350 11:20 19.02.2020
2340 Clouds -8 1033 73 16093 7.13 331 10:58 19.02.2020
2341 Clouds -7 1033 73 16093 7.13 331 10:38 19.02.2020
2342 Clouds -7 1032 73 16093 7.13 331 10:20 19.02.2020
2343 Clear -7 1032 73 16093 7.13 331 09:58 19.02.2020
2344 Clear -7 1032 73 16093 3.1 10 09:37 19.02.2020
2345 Clouds -6 1032 67 16093 4.6 310 09:19 19.02.2020
2346 Clear -6 1031 63 16093 6.7 340 08:45 19.02.2020
2347 Clear -6 1031 62 16093 5.1 320 08:24 19.02.2020
2348 Clear -5 1030 68 16093 3.1 320 07:44 19.02.2020
2349 Clear -5 1030 63 16093 6.2 310 07:26 19.02.2020
2350 Clear -4 1030 63 16093 4.6 280 06:57 19.02.2020
2351 Clear -4 1029 68 16093 4.6 310 06:31 19.02.2020
2352 Clear -3 1028 68 16093 3.6 270 04:28 19.02.2020
2353 Clear -2 1027 63 16093 4.6 270 03:20 19.02.2020
2354 Clear -2 1026 82 16093 3.1 270 02:33 19.02.2020
2355 Clear -1 1025 68 16093 2.1 280 01:25 19.02.2020
2356 Clear 0 1025 59 16093 3.6 280 00:53 19.02.2020
2357 Clouds 0 1024 55 16093 4.1 310 00:34 19.02.2020
2358 Clear 1 1024 59 16093 4.44 293 23:57 18.02.2020
2359 Clear 1 1024 59 16093 4.44 293 23:39 18.02.2020
2360 Clouds 2 1023 55 16093 6.2 290 23:19 18.02.2020
2361 Clear 2 1023 55 16093 3.6 300 22:45 18.02.2020
2362 Clouds 2 1022 55 16093 4.6 280 22:20 18.02.2020
2363 Clear 2 1022 59 16093 2.1 290 21:59 18.02.2020
2364 Clear 2 1022 59 16093 2.1 290 21:38 18.02.2020
2365 Clouds 2 1021 59 16093 4.6 300 21:38 18.02.2020
2366 Clouds 2 1021 59 16093 4.6 300 21:19 18.02.2020
2367 Clouds 2 1021 64 16093 5.7 320 20:58 18.02.2020
2368 Clouds 2 1022 64 16093 4.1 290 20:38 18.02.2020
2369 Clouds 2 1021 64 16093 4.6 290 20:20 18.02.2020
2370 Clouds 2 1021 64 16093 8.7 300 19:56 18.02.2020
2371 Clouds 1 1021 64 16093 6.2 280 19:37 18.02.2020
2372 Clouds 1 1021 64 16093 6.2 290 19:18 18.02.2020
2373 Clouds 1 1021 69 16093 5.7 310 18:41 18.02.2020
2374 Clouds 1 1020 69 16093 6.7 320 18:21 18.02.2020
2375 Clouds 1 1020 74 16093 5.7 300 17:57 18.02.2020
2376 Clouds 1 1019 74 16093 7.7 300 17:38 18.02.2020
2377 Clouds 1 1019 74 16093 7.7 300 17:19 18.02.2020
2378 Clouds 1 1019 80 16093 4.6 290 16:40 18.02.2020
2379 Clouds 1 1018 74 16093 8.7 290 16:21 18.02.2020
2380 Clouds 1 1018 80 16093 3.6 310 15:42 18.02.2020
2381 Clouds 2 1017 74 16093 7.2 300 15:21 18.02.2020
2382 Clouds 2 1017 80 16093 4.1 310 14:58 18.02.2020
2383 Clouds 2 1017 80 16093 4.1 310 14:40 18.02.2020
2384 Clouds 2 1016 74 16093 7.7 300 14:21 18.02.2020
2385 Clouds 2 1015 80 16093 4.1 290 13:57 18.02.2020
2386 Clouds 2 1014 80 16093 8.2 300 13:38 18.02.2020
2387 Clouds 2 1014 80 16093 8.2 300 13:20 18.02.2020
2388 Clouds 2 1014 90 16093 5.7 280 12:43 18.02.2020
2389 Clouds 2 1014 80 16093 6.2 300 12:24 18.02.2020
2390 Clouds 2 1012 74 16093 8.2 280 11:56 18.02.2020
2391 Rain 2 1013 93 16093 8.2 280 11:37 18.02.2020
2392 Rain 2 1012 86 12874 7.2 290 11:18 18.02.2020
2393 Rain 2 1011 100 8047 7.2 270 10:42 18.02.2020
2394 Mist 2 1011 93 8047 8.2 270 10:22 18.02.2020
2395 Mist 3 1010 100 6437 6.2 270 09:56 18.02.2020
2396 Mist 3 1010 100 6437 6.2 270 09:56 18.02.2020
2397 Mist 3 1010 100 6437 6.2 270 09:38 18.02.2020
2398 Mist 3 1009 86 8047 6.2 270 09:19 18.02.2020
2399 Mist 3 1010 100 4023 3.1 240 08:54 18.02.2020
2400 Rain 3 1010 100 4023 3.1 240 08:36 18.02.2020
2401 Rain 3 1009 100 3219 3.6 230 08:18 18.02.2020
2402 Rain 3 1009 100 2414 4.7 180 07:42 18.02.2020
2403 Rain 3 1009 100 3219 2.1 240 07:23 18.02.2020
2404 Rain 2 1009 93 2816 4.1 190 06:48 18.02.2020
2405 Drizzle 2 1009 93 2816 4.1 170 06:27 18.02.2020
2406 Rain 2 1010 100 6437 2.6 160 05:47 18.02.2020
2407 Drizzle 2 1009 93 3219 4.1 150 04:52 18.02.2020
2408 Rain 2 1011 86 2816 3.1 170 03:38 18.02.2020
2409 Drizzle 2 1011 86 3219 3.6 150 02:54 18.02.2020
2410 Rain 2 1012 93 3219 5.1 140 01:23 18.02.2020
2411 Rain 1 1012 97 6437 4.1 110 00:22 18.02.2020
2412 Rain 1 1013 97 4828 5.1 110 23:58 17.02.2020
2413 Rain 1 1013 97 4828 5.1 110 23:38 17.02.2020
2414 Rain 2 1013 98 4828 5.1 120 23:19 17.02.2020
2415 Rain 2 1013 86 8047 5.7 110 22:42 17.02.2020
2416 Rain 2 1014 93 4023 2.1 120 22:21 17.02.2020
2417 Rain 2 1014 86 6437 3.6 120 21:59 17.02.2020
2418 Rain 2 1015 98 11265 5.1 120 21:38 17.02.2020
2419 Rain 2 1015 74 11265 5.1 140 21:18 17.02.2020
2420 Rain 3 1015 69 14484 4.6 140 20:43 17.02.2020
2421 Clouds 3 1016 55 16093 6.7 150 20:21 17.02.2020
2422 Clouds 3 1017 64 16093 6.7 140 19:59 17.02.2020
2423 Clouds 4 1017 64 16093 6.7 140 19:41 17.02.2020
2424 Clouds 4 1017 55 16093 7.2 140 19:20 17.02.2020
2425 Clouds 4 1018 59 16093 5.1 140 18:39 17.02.2020
2426 Clouds 4 1018 59 16093 5.1 140 18:20 17.02.2020
2427 Clouds 3 1019 64 16093 5.7 130 17:59 17.02.2020
2428 Clouds 3 1019 64 16093 5.7 130 17:38 17.02.2020
2429 Clouds 2 1019 59 16093 4.6 150 17:19 17.02.2020
2430 Clouds 2 1019 74 16093 5.1 140 16:58 17.02.2020
2431 Clouds 2 1019 74 16093 5.1 140 16:40 17.02.2020
2432 Clouds 2 1019 64 14484 5.1 130 16:21 17.02.2020
2433 Clouds 1 1019 69 16093 6.67 141 15:45 17.02.2020
2434 Clouds 1 1019 69 14484 5.1 110 15:27 17.02.2020
2435 Clouds 0 1020 79 16093 3.1 120 14:57 17.02.2020
2436 Clouds 0 1020 79 16093 3.1 120 14:39 17.02.2020
2437 Clouds 0 1019 69 11265 4.6 110 14:20 17.02.2020
2438 Clouds 0 1020 82 16093 5.49 124 13:55 17.02.2020
2439 Clouds 0 1020 80 11265 5.49 124 13:36 17.02.2020
2440 Clouds 0 1020 82 16093 5.49 124 13:36 17.02.2020
2441 Clouds 0 1020 80 11265 5.49 124 13:18 17.02.2020
2442 Clouds 0 1020 80 11265 5.51 131 13:18 17.02.2020
2443 Clouds 0 1020 80 11265 5.51 131 12:42 17.02.2020
2444 Mist 0 1020 83 9656 3.1 100 12:23 17.02.2020
2445 Clouds -1 1020 86 11265 5.51 131 11:50 17.02.2020
2446 Mist -1 1020 83 9656 3.1 110 11:29 17.02.2020
2447 Clouds -1 1020 80 11265 3.6 90 10:59 17.02.2020
2448 Clouds -1 1020 80 11265 3.6 90 10:40 17.02.2020
2449 Mist -1 1020 86 9656 3.1 80 10:22 17.02.2020
2450 Clear -2 1020 86 16093 3.88 113 09:58 17.02.2020
2451 Clear -2 1020 86 16093 3.88 113 09:58 17.02.2020
2452 Clear -2 1020 86 16093 3.88 113 09:40 17.02.2020
2453 Clouds -2 1020 80 14484 3.88 113 09:20 17.02.2020
2454 Clouds -2 1020 92 16093 3.88 113 08:56 17.02.2020
2455 Clouds -2 1020 80 16093 1.5 90 08:38 17.02.2020
2456 Clouds -2 1020 80 16093 1.5 90 08:19 17.02.2020
2457 Clouds -2 1021 86 11265 5.22 99 07:42 17.02.2020
2458 Clouds -2 1020 79 16093 5.22 99 07:22 17.02.2020
2459 Clouds -2 1020 86 16093 2.6 80 06:51 17.02.2020
2460 Clouds -2 1020 79 16093 5.22 99 06:30 17.02.2020
2461 Clouds -2 1020 79 16093 5.22 99 06:30 17.02.2020
2462 Clouds -2 1020 86 16093 1.5 130 05:40 17.02.2020
2463 Clouds -2 1020 79 16093 1.82 138 04:58 17.02.2020
2464 Clouds -2 1020 63 16093 2.1 160 03:20 17.02.2020
2465 Clear -1 1020 72 16093 1.47 127 01:47 17.02.2020
2466 Clear 0 1020 74 16093 1.71 84 00:41 17.02.2020
2467 Clouds 1 1020 55 16093 3.6 120 00:19 17.02.2020
2468 Clear 1 1019 64 16093 1.71 84 23:52 16.02.2020
2469 Clouds 3 1019 59 16093 3.6 100 23:29 16.02.2020
2470 Clear 3 1020 51 16093 1.53 20 22:57 16.02.2020
2471 Clear 3 1020 51 16093 1.53 20 22:38 16.02.2020
2472 Clouds 3 1019 48 16093 2.1 240 22:20 16.02.2020
2473 Clouds 3 1019 48 16093 2.1 240 22:20 16.02.2020
2474 Clear 3 1020 51 16093 1.53 20 21:56 16.02.2020
2475 Clear 3 1020 51 16093 1.53 20 21:56 16.02.2020
2476 Clear 3 1020 51 16093 1.53 20 21:38 16.02.2020
2477 Clouds 3 1019 44 16093 1.53 20 21:19 16.02.2020
2478 Clear 3 1020 44 16093 1.53 20 20:56 16.02.2020
2479 Clear 3 1020 44 16093 1.53 20 20:38 16.02.2020
2480 Rain 2 1020 47 16093 2.26 337 20:19 16.02.2020
2481 Rain 2 1020 59 16093 2.26 337 19:56 16.02.2020
2482 Rain 2 1020 59 16093 2.26 337 19:36 16.02.2020
2483 Rain 1 1020 69 16093 2.26 337 19:18 16.02.2020
2484 Rain 2 1021 64 16093 2.26 337 18:41 16.02.2020
2485 Rain 1 1020 59 16093 2.26 337 18:23 16.02.2020
2486 Rain 0 1021 100 16093 2.26 337 17:45 16.02.2020
2487 Snow -1 1021 80 16093 2.1 320 17:21 16.02.2020
2488 Snow -2 1020 100 8047 3.14 306 16:58 16.02.2020
2489 Mist -3 1020 100 8047 3.14 306 16:39 16.02.2020
2490 Clouds -4 1020 100 16093 1.5 250 16:21 16.02.2020
2491 Clouds -4 1020 100 16093 1.5 250 16:21 16.02.2020
2492 Clear -4 1020 92 11265 3.14 306 15:58 16.02.2020
2493 Clear -5 1020 92 11265 3.14 306 15:38 16.02.2020
2494 Clouds -6 1020 92 16093 2.1 230 15:18 16.02.2020
2495 Mist -8 1020 92 2414 3.14 306 14:40 16.02.2020
2496 Clouds -8 1020 92 16093 2.6 220 14:22 16.02.2020
2497 Clear -8 1019 92 6437 1.5 170 13:48 16.02.2020
2498 Clear -8 1018 92 16093 2.93 268 13:25 16.02.2020
2499 Fog -8 1020 92 402 2.93 268 12:56 16.02.2020
2500 Clouds -7 1019 85 16093 2.93 268 12:38 16.02.2020
2501 Clouds -7 1019 85 16093 2.93 268 12:19 16.02.2020
2502 Mist -7 1019 92 1609 2.93 268 11:39 16.02.2020
2503 Clear -6 1019 85 16093 3.49 264 11:19 16.02.2020
2504 Clear -6 1019 92 11265 2.6 210 10:57 16.02.2020
2505 Clear -6 1019 92 11265 2.6 210 10:39 16.02.2020
2506 Clear -6 1019 79 16093 3.6 290 10:20 16.02.2020
2507 Clear -5 1019 85 11265 3.49 264 09:57 16.02.2020
2508 Clear -5 1019 85 11265 3.49 264 09:37 16.02.2020
2509 Clear -5 1019 79 16093 4.6 280 09:19 16.02.2020
2510 Clear -5 1019 85 11265 3.49 264 08:46 16.02.2020
2511 Clear -4 1019 79 16093 4.1 260 08:21 16.02.2020
2512 Clear -4 1019 79 16093 4.1 260 08:21 16.02.2020
2513 Clear -4 1019 79 16093 2.1 230 07:55 16.02.2020
2514 Clear -4 1019 79 16093 2.1 230 07:34 16.02.2020
2515 Clear -4 1019 68 16093 2.1 220 06:36 16.02.2020
2516 Clear -3 1019 74 16093 6.18 249 04:57 16.02.2020
2517 Clear -2 1017 79 16093 2.6 230 03:34 16.02.2020
2518 Clouds -2 1017 68 16093 5.1 230 02:32 16.02.2020
2519 Clouds -1 1018 82 16093 5.7 240 01:45 16.02.2020
2520 Clouds -1 1017 82 16093 6.7 240 01:26 16.02.2020
2521 Clouds -1 1017 86 16093 3.6 230 00:59 16.02.2020
2522 Clouds -1 1017 86 16093 3.6 230 00:39 16.02.2020
2523 Clouds -1 1016 86 16093 7.2 240 00:19 16.02.2020
2524 Clouds 0 1017 86 16093 5.7 230 23:42 15.02.2020
2525 Clouds 0 1016 94 16093 6.7 220 23:23 15.02.2020
2526 Clouds 0 1017 94 16093 6.2 220 22:56 15.02.2020
2527 Clouds -1 1017 94 16093 6.2 220 22:37 15.02.2020
2528 Clouds -1 1016 68 16093 7.2 220 22:18 15.02.2020
2529 Clouds -1 1017 74 16093 7.2 210 21:42 15.02.2020
2530 Snow -1 1016 74 16093 7.2 210 21:23 15.02.2020
2531 Clouds -2 1018 68 16093 8.2 220 20:43 15.02.2020
2532 Clouds -2 1018 68 16093 8.2 220 20:43 15.02.2020
2533 Clouds -2 1017 63 16093 7.2 220 20:21 15.02.2020
2534 Clouds -2 1018 68 16093 7.7 200 19:59 15.02.2020
2535 Clouds -2 1018 68 16093 7.7 200 19:40 15.02.2020
2536 Clouds -3 1017 58 16093 7.2 210 19:21 15.02.2020
2537 Clouds -3 1019 63 16093 8.7 200 18:40 15.02.2020
2538 Clouds -3 1019 63 16093 8.7 200 18:20 15.02.2020
2539 Clouds -3 1021 68 16093 6.7 200 17:55 15.02.2020
2540 Clouds -4 1020 62 16093 7.7 200 17:37 15.02.2020
2541 Clouds -4 1020 62 16093 7.7 200 17:18 15.02.2020
2542 Clouds -4 1022 68 16093 8.7 200 16:39 15.02.2020
2543 Clouds -5 1021 58 16093 7.7 200 16:20 15.02.2020
2544 Clouds -5 1023 73 16093 6.7 190 15:49 15.02.2020
2545 Clouds -6 1022 62 16093 7.2 200 15:31 15.02.2020
2546 Clouds -7 1023 73 16093 6.7 190 14:55 15.02.2020
2547 Clouds -7 1023 67 16093 7.7 200 14:37 15.02.2020
2548 Clouds -7 1023 67 16093 7.7 200 14:18 15.02.2020
2549 Clouds -8 1024 72 16093 6.7 180 13:41 15.02.2020
2550 Clouds -8 1023 67 16093 7.2 190 13:22 15.02.2020
2551 Clouds -9 1023 78 16093 5.7 190 12:55 15.02.2020
2552 Clouds -9 1026 78 16093 6.2 180 12:37 15.02.2020
2553 Clouds -9 1025 66 16093 6.2 200 12:19 15.02.2020
2554 Clouds -10 1027 61 16093 3.6 190 11:41 15.02.2020
2555 Clouds -10 1026 61 16093 6.2 200 11:23 15.02.2020
2556 Clouds -11 1027 66 16093 3.6 170 10:47 15.02.2020
2557 Clouds -11 1027 72 16093 5.1 190 10:29 15.02.2020
2558 Clear -12 1028 65 16093 2.6 160 09:45 15.02.2020
2559 Clouds -12 1028 71 16093 4.6 190 09:26 15.02.2020
2560 Clear -13 1029 65 16093 3.6 160 08:59 15.02.2020
2561 Clear -13 1029 65 16093 3.6 160 08:41 15.02.2020
2562 Clear -14 1028 65 16093 3.6 190 08:22 15.02.2020
2563 Clear -14 1030 65 16093 3.6 170 07:42 15.02.2020
2564 Clear -15 1030 71 16093 4.1 160 07:23 15.02.2020
2565 Clear -15 1030 65 16093 3.1 170 06:39 15.02.2020
2566 Clear -15 1030 65 16093 3.1 170 06:39 15.02.2020
2567 Clear -15 1030 65 16093 4.6 190 06:20 15.02.2020
2568 Clear -15 1030 65 16093 4.1 190 04:52 15.02.2020
2569 Clear -15 1031 65 16093 4.6 190 04:31 15.02.2020
2570 Clear -14 1031 71 16093 2.6 170 02:59 15.02.2020
2571 Clear -14 1033 60 16093 3.1 200 02:29 15.02.2020
2572 Clear -14 1032 65 16093 2.6 200 01:59 15.02.2020
2573 Clear -14 1034 65 16093 6.82 203 01:37 15.02.2020
2574 Clouds -12 1033 51 16093 5.1 190 00:31 15.02.2020
2575 Clear -12 1034 60 16093 3.1 220 23:59 14.02.2020
2576 Clear -11 1033 47 16093 3.1 230 23:38 14.02.2020
2577 Clear -11 1034 47 16093 4.6 220 23:18 14.02.2020
2578 Clear -10 1035 51 16093 3.6 200 22:43 14.02.2020
2579 Clear -10 1034 47 16093 3.1 230 22:22 14.02.2020
2580 Snow -10 1035 55 16093 5.87 214 21:49 14.02.2020
2581 Clear -10 1034 51 16093 3.1 200 21:31 14.02.2020
2582 Clear -11 1035 51 16093 5.87 214 20:56 14.02.2020
2583 Clear -11 1035 51 16093 5.87 214 20:38 14.02.2020
2584 Clear -11 1033 47 16093 2.6 240 20:38 14.02.2020
2585 Clear -11 1035 51 16093 2.6 220 20:19 14.02.2020
2586 Clear -11 1035 51 16093 2.6 220 20:19 14.02.2020
2587 Clear -11 1035 51 16093 2.6 220 20:19 14.02.2020
2588 Clear -12 1036 51 16093 3.15 227 19:41 14.02.2020
2589 Clear -12 1035 43 16093 2.1 230 19:23 14.02.2020
2590 Clear -12 1036 50 16093 3.15 227 18:57 14.02.2020
2591 Clear -13 1036 50 16093 3.15 227 18:39 14.02.2020
2592 Clear -13 1036 50 16093 4.1 240 18:20 14.02.2020
2593 Clear -14 1036 55 16093 3.15 227 17:44 14.02.2020
2594 Clear -15 1036 60 16093 3.6 260 17:23 14.02.2020
2595 Clear -15 1036 60 16093 3.6 260 17:23 14.02.2020
2596 Clear -15 1036 60 16093 3.6 260 17:23 14.02.2020
2597 Clear -16 1036 65 16093 4.6 285 16:59 14.02.2020
2598 Clear -16 1035 59 16093 1.5 230 16:41 14.02.2020
2599 Clouds -17 1036 64 16093 2.6 260 16:22 14.02.2020
2600 Clear -18 1036 77 16093 4.6 285 15:56 14.02.2020
2601 Clear -18 1036 77 16093 4.6 285 15:38 14.02.2020
2602 Clouds -19 1035 64 16093 3.6 290 15:20 14.02.2020
2603 Clear -19 1035 83 16093 4.6 285 14:58 14.02.2020
2604 Clear -20 1035 83 16093 4.6 285 14:40 14.02.2020
2605 Clouds -20 1034 59 16093 2.1 280 14:22 14.02.2020
2606 Clear -20 1034 83 16093 6.11 294 13:55 14.02.2020
2607 Clear -20 1034 59 16093 3.1 280 13:37 14.02.2020
2608 Clear -20 1034 59 16093 3.1 280 13:18 14.02.2020
2609 Clear -20 1034 83 16093 6.14 294 12:56 14.02.2020
2610 Clear -19 1034 64 16093 2.6 300 12:37 14.02.2020
2611 Clear -19 1034 64 16093 2.6 300 12:18 14.02.2020
2612 Clear -19 1033 84 16093 6.14 294 11:54 14.02.2020
2613 Clear -19 1033 59 16093 3.6 310 11:36 14.02.2020
2614 Clear -19 1033 59 16093 3.6 310 11:18 14.02.2020
2615 Clear -19 1033 60 16093 3.6 270 10:40 14.02.2020
2616 Clear -18 1032 64 16093 4.1 300 10:21 14.02.2020
2617 Clear -18 1032 65 16093 4.1 270 09:44 14.02.2020
2618 Clear -18 1032 59 16093 3.6 310 09:22 14.02.2020
2619 Clear -17 1032 60 16093 4.1 270 08:56 14.02.2020
2620 Clear -17 1032 60 16093 4.1 270 08:38 14.02.2020
2621 Clear -17 1031 65 16093 3.6 310 08:19 14.02.2020
2622 Clear -17 1031 65 16093 4.6 270 07:49 14.02.2020
2623 Clear -17 1031 65 16093 4.6 270 07:49 14.02.2020
2624 Clear -17 1030 60 16093 4.6 300 07:24 14.02.2020
2625 Clear -16 1030 60 16093 3.1 260 06:38 14.02.2020
2626 Clear -16 1030 65 16093 4.1 290 06:18 14.02.2020
2627 Clear -16 1029 60 16093 2.6 300 05:28 14.02.2020
2628 Clear -15 1028 60 16093 3.6 310 03:31 14.02.2020
2629 Clear -14 1028 65 16093 9.19 314 02:53 14.02.2020
2630 Clouds -14 1027 66 16093 4.1 300 01:55 14.02.2020
2631 Clouds -13 1025 66 16093 4.6 300 00:44 14.02.2020
2632 Clouds -13 1025 66 16093 4.6 300 00:44 14.02.2020
2633 Clouds -12 1025 61 16093 6.7 290 00:25 14.02.2020
2634 Clouds -12 1024 72 16093 5.1 300 23:52 13.02.2020
2635 Clouds -11 1024 61 16093 5.7 290 23:25 13.02.2020
2636 Clouds -11 1024 61 16093 5.7 290 23:25 13.02.2020
2637 Snow -11 1023 72 11265 3.6 300 23:00 13.02.2020
2638 Snow -11 1023 72 11265 3.6 300 22:38 13.02.2020
2639 Snow -11 1022 66 8047 6.7 320 22:19 13.02.2020
2640 Snow -11 1022 72 11265 5.1 320 21:55 13.02.2020
2641 Snow -11 1022 72 11265 5.1 320 21:55 13.02.2020
2642 Clouds -10 1022 66 16093 3.1 310 21:37 13.02.2020
2643 Snow -10 1021 66 4828 6.7 320 21:19 13.02.2020
2644 Snow -10 1021 72 11265 4.6 300 20:42 13.02.2020
2645 Snow -10 1021 66 8047 6.7 310 20:22 13.02.2020
2646 Snow -10 1021 72 4828 6.7 300 19:57 13.02.2020
2647 Snow -10 1020 66 9656 9.3 320 19:37 13.02.2020
2648 Snow -10 1020 66 9656 9.3 320 19:19 13.02.2020
2649 Snow -10 1021 66 4023 5.7 330 18:56 13.02.2020
2650 Snow -10 1019 78 16093 3.6 320 18:37 13.02.2020
2651 Snow -10 1019 66 8047 7.2 350 18:19 13.02.2020
2652 Snow -10 1018 78 16093 4.1 340 17:54 13.02.2020
2653 Snow -10 1019 66 2012 4.1 340 17:36 13.02.2020
2654 Snow -10 1018 73 8047 7.7 320 17:18 13.02.2020
2655 Snow -9 1017 85 6437 5.7 320 16:40 13.02.2020
2656 Snow -9 1017 78 4828 8.2 320 16:20 13.02.2020
2657 Snow -9 1016 72 1609 7.7 350 15:57 13.02.2020
2658 Snow -9 1016 72 1609 7.7 350 15:39 13.02.2020
2659 Snow -9 1016 72 2816 7.7 330 15:19 13.02.2020
2660 Snow -9 1015 79 8047 6.7 350 14:58 13.02.2020
2661 Snow -8 1014 85 16093 13.43 342 14:39 13.02.2020
2662 Snow -8 1013 85 4828 7.7 350 14:21 13.02.2020
2663 Snow -6 1014 78 3219 6.7 340 13:48 13.02.2020
2664 Snow -7 1014 78 3219 6.7 340 13:48 13.02.2020
2665 Snow -5 1013 79 4828 8.2 350 13:19 13.02.2020
2666 Snow -4 1013 85 4828 6.7 350 12:56 13.02.2020
2667 Snow -4 1013 85 4828 6.7 350 12:56 13.02.2020
2668 Snow -3 1011 90 2816 13.35 359 12:38 13.02.2020
2669 Snow -3 1011 90 2816 13.35 359 12:38 13.02.2020
2670 Snow -2 1011 92 2012 5.7 10 12:19 13.02.2020
2671 Snow -1 1010 92 1207 5.1 360 11:47 13.02.2020
2672 Snow -1 1010 86 2012 5.7 20 11:21 13.02.2020
2673 Snow -1 1009 96 2816 2.1 290 10:57 13.02.2020
2674 Snow -1 1009 96 2816 2.1 290 10:39 13.02.2020
2675 Snow -1 1009 96 3219 2.6 260 10:20 13.02.2020
2676 Snow -1 1009 96 3219 2.1 260 09:42 13.02.2020
2677 Mist -1 1009 96 8047 1.5 280 09:23 13.02.2020
2678 Snow -1 1009 96 4023 5.8 297 08:45 13.02.2020
2679 Snow -1 1008 95 3219 1.5 280 08:19 13.02.2020
2680 Snow -1 1008 95 3219 1.5 280 08:19 13.02.2020
2681 Snow -1 1008 95 3219 1.5 280 08:19 13.02.2020
2682 Snow -1 1009 95 4023 2.6 310 07:43 13.02.2020
2683 Snow 0 1009 95 4828 1.5 290 07:22 13.02.2020
2684 Snow 0 1009 95 2816 3.1 300 06:52 13.02.2020
2685 Snow 0 1009 95 2012 3.52 312 06:33 13.02.2020
2686 Snow 0 1010 95 4023 2.1 230 05:50 13.02.2020
2687 Snow 0 1010 100 3219 2.39 294 04:45 13.02.2020
2688 Snow 0 1010 100 3219 2.39 294 04:18 13.02.2020
2689 Snow 0 1011 100 1609 1.5 200 03:30 13.02.2020
2690 Snow 0 1011 96 1207 2.39 294 02:56 13.02.2020
2691 Snow 0 1011 100 3219 1.5 230 02:20 13.02.2020
2692 Rain 0 1011 86 1207 1.5 210 01:41 13.02.2020
2693 Rain 0 1011 86 2012 2.58 232 00:57 13.02.2020
2694 Rain 0 1011 86 1609 2.58 232 00:27 13.02.2020
2695 Rain 0 1011 86 1207 2.1 190 23:43 12.02.2020
2696 Rain 0 1012 86 805 2.6 0 23:23 12.02.2020
2697 Rain 0 1013 86 1609 3.6 210 22:57 12.02.2020
2698 Rain 1 1012 80 1609 3.1 220 22:39 12.02.2020
2699 Rain 1 1012 80 1609 3.1 220 22:21 12.02.2020
2700 Snow 1 1013 74 4023 3.6 190 21:55 12.02.2020
2701 Clouds 2 1013 80 16093 5.25 211 21:37 12.02.2020
2702 Clouds 2 1014 64 16093 4.6 210 21:18 12.02.2020
2703 Clouds 2 1015 80 16093 5.25 211 20:43 12.02.2020
2704 Clouds 2 1015 64 16093 4.6 210 20:25 12.02.2020
2705 Clouds 2 1016 74 16093 5.65 194 19:57 12.02.2020
2706 Clouds 2 1016 74 16093 5.65 194 19:39 12.02.2020
2707 Clouds 2 1017 59 16093 4.6 200 19:21 12.02.2020
2708 Clouds 1 1017 69 16093 5.77 195 18:50 12.02.2020
2709 Clouds 1 1018 59 16093 4.6 200 18:20 12.02.2020
2710 Clear 1 1018 65 16093 5.65 194 17:59 12.02.2020
2711 Clear 1 1018 65 16093 5.65 194 17:39 12.02.2020
2712 Clouds 0 1018 61 16093 4.6 190 17:19 12.02.2020
2713 Clear -1 1018 74 16093 7.11 194 16:56 12.02.2020
2714 Clear -1 1018 74 16093 6.31 202 16:36 12.02.2020
2715 Clouds -1 1018 68 16093 4.6 190 16:18 12.02.2020
2716 Clouds -1 1018 68 16093 4.6 190 16:18 12.02.2020
2717 Clear -2 1018 74 16093 3.1 170 15:38 12.02.2020
2718 Clouds -3 1018 73 16093 4.6 180 15:19 12.02.2020
2719 Clear -4 1019 85 16093 6.31 202 14:42 12.02.2020
2720 Clouds -5 1018 68 16093 3.6 180 14:21 12.02.2020
2721 Clear -5 1019 85 16093 4.15 214 13:59 12.02.2020
2722 Clear -5 1019 85 16093 4.5 202 13:40 12.02.2020
2723 Clear -5 1019 85 16093 4.5 202 13:40 12.02.2020
2724 Clouds -5 1018 73 16093 1.5 170 13:22 12.02.2020
2725 Clear -5 1020 85 16093 4.15 214 12:58 12.02.2020
2726 Clear -5 1020 85 16093 4.15 214 12:39 12.02.2020
2727 Clear -5 1020 85 16093 4.15 214 12:39 12.02.2020
2728 Clouds -5 1019 73 16093 2.1 200 12:19 12.02.2020
2729 Clear -5 1020 85 16093 4.15 214 11:58 12.02.2020
2730 Clear -5 1019 85 16093 4.15 214 11:40 12.02.2020
2731 Clouds -5 1020 73 16093 2.6 210 11:20 12.02.2020
2732 Clear -5 1021 92 16093 5.5 239 10:58 12.02.2020
2733 Clear -5 1021 92 16093 5.5 239 10:39 12.02.2020
2734 Clouds -5 1020 73 16093 3.6 200 10:20 12.02.2020
2735 Clear -5 1022 79 16093 5.5 239 09:42 12.02.2020
2736 Clear -5 1022 79 16093 5.5 239 09:42 12.02.2020
2737 Clouds -5 1021 73 16093 3.1 210 09:24 12.02.2020
2738 Clouds -5 1021 73 16093 3.1 210 09:24 12.02.2020
2739 Clear -5 1021 92 16093 5.5 239 08:58 12.02.2020
2740 Clear -5 1021 92 16093 5.5 239 08:58 12.02.2020
2741 Clear -5 1021 92 16093 5.5 239 08:38 12.02.2020
2742 Clouds -5 1021 73 16093 2.1 220 08:20 12.02.2020
2743 Clouds -5 1021 73 16093 2.1 220 08:20 12.02.2020
2744 Clouds -5 1021 73 16093 2.1 220 08:20 12.02.2020
2745 Clear -5 1022 85 16093 6.18 257 07:47 12.02.2020
2746 Clear -5 1022 85 16093 6.18 257 07:47 12.02.2020
2747 Clouds -5 1021 73 16093 3.6 220 07:24 12.02.2020
2748 Clear -5 1022 79 16093 2.1 220 06:59 12.02.2020
2749 Clouds -5 1021 68 16093 3.6 280 06:25 12.02.2020
2750 Clear -4 1022 79 16093 6.18 257 05:47 12.02.2020
2751 Clear -4 1021 73 16093 3.6 250 05:21 12.02.2020
2752 Clear -4 1022 79 16093 6.57 267 04:41 12.02.2020
2753 Clear -3 1022 79 16093 6.57 267 03:57 12.02.2020
2754 Clear -3 1021 63 16093 3.6 280 03:28 12.02.2020
2755 Clear -3 1022 79 16093 6.57 267 02:41 12.02.2020
2756 Clouds -3 1021 63 16093 6.2 270 02:21 12.02.2020
2757 Clouds -2 1020 58 16093 5.7 280 01:27 12.02.2020
2758 Clear -1 1021 73 16093 2.6 290 00:40 12.02.2020
2759 Clouds -1 1020 73 16093 5.1 270 00:21 12.02.2020
2760 Clouds 0 1020 59 16093 4.6 290 23:47 11.02.2020
2761 Clouds 0 1020 55 16093 9.3 270 23:29 11.02.2020
2762 Clouds 0 1020 64 16093 6.2 300 22:56 11.02.2020
2763 Clouds 0 1020 64 16093 6.2 300 22:56 11.02.2020
2764 Clouds 0 1020 64 16093 6.2 300 22:38 11.02.2020
2765 Clouds 0 1019 59 16093 6.2 270 22:20 11.02.2020
2766 Clouds 0 1020 59 16093 5.1 280 21:56 11.02.2020
2767 Clouds 0 1020 59 16093 5.1 280 21:38 11.02.2020
2768 Clouds 0 1019 55 16093 6.7 280 21:18 11.02.2020
2769 Clear 0 1020 55 16093 4.6 290 20:57 11.02.2020
2770 Clouds 1 1019 67 16093 3.6 270 20:38 11.02.2020
2771 Clouds 0 1020 55 16093 8.2 270 20:19 11.02.2020
2772 Clouds 0 1020 55 16093 8.2 270 20:19 11.02.2020
2773 Clear 0 1020 55 16093 7.7 280 19:54 11.02.2020
2774 Clouds 1 1019 55 16093 3.6 280 19:36 11.02.2020
2775 Clouds 1 1020 50 16093 8.7 290 19:18 11.02.2020
2776 Clear 0 1020 55 16093 4.6 300 18:42 11.02.2020
2777 Clouds 0 1020 50 16093 8.2 310 18:24 11.02.2020
2778 Clear 0 1021 65 16093 7.16 273 17:55 11.02.2020
2779 Clouds 0 1020 65 16093 5.7 300 17:37 11.02.2020
2780 Clouds 0 1020 74 16093 5.7 300 17:18 11.02.2020
2781 Clouds 0 1020 74 16093 5.7 300 17:18 11.02.2020
2782 Clouds -1 1021 74 16093 5.75 287 16:57 11.02.2020
2783 Clouds -1 1021 74 16093 5.75 287 16:38 11.02.2020
2784 Clouds -1 1020 68 14484 4.1 300 16:19 11.02.2020
2785 Clear -2 1020 86 11265 5.75 287 15:45 11.02.2020
2786 Clouds -2 1020 86 12874 4.6 290 15:26 11.02.2020
2787 Mist -3 1020 92 4828 5.75 287 14:58 11.02.2020
2788 Mist -3 1020 92 4828 5.75 287 14:39 11.02.2020
2789 Mist -3 1019 86 9656 4.1 250 14:18 11.02.2020
2790 Mist -3 1019 100 6437 4.69 273 13:42 11.02.2020
2791 Clouds -3 1019 79 11265 2.1 240 13:22 11.02.2020
2792 Mist -3 1019 92 8047 4.85 269 12:59 11.02.2020
2793 Mist -3 1019 92 8047 4.85 269 12:40 11.02.2020
2794 Mist -3 1019 86 9656 2.6 240 12:21 11.02.2020
2795 Clear -3 1020 92 11265 4.85 269 11:55 11.02.2020
2796 Clear -3 1020 92 11265 4.85 269 11:36 11.02.2020
2797 Mist -3 1020 86 9656 3.1 260 11:18 11.02.2020
2798 Mist -3 1020 92 8047 4.92 274 10:39 11.02.2020
2799 Mist -3 1020 86 9656 2.6 250 10:20 11.02.2020
2800 Mist -3 1020 100 8047 4.92 274 09:57 11.02.2020
2801 Mist -3 1020 100 8047 4.92 274 09:38 11.02.2020
2802 Mist -3 1021 86 8047 3.1 250 09:20 11.02.2020
2803 Clear -3 1021 100 11265 4.92 274 08:48 11.02.2020
2804 Mist -3 1021 92 6437 2.6 260 08:24 11.02.2020
2805 Clear -3 1021 92 11265 4.12 252 07:49 11.02.2020
2806 Clouds -3 1021 86 12874 2.6 250 07:28 11.02.2020
2807 Mist -3 1021 92 8047 4.12 252 06:57 11.02.2020
2808 Mist -3 1021 92 8047 4.12 252 06:38 11.02.2020
2809 Mist -3 1021 86 8047 3.1 250 06:20 11.02.2020
2810 Mist -3 1021 86 8047 3.1 220 05:26 11.02.2020
2811 Mist -3 1021 92 8047 1.54 190 04:54 11.02.2020
2812 Haze -3 1021 80 9656 2.6 250 03:26 11.02.2020
2813 Clouds -2 1021 79 16093 1.5 180 02:33 11.02.2020
2814 Clouds -1 1021 82 16093 1.5 280 01:39 11.02.2020
2815 Clouds -1 1021 79 16093 1.28 360 00:50 11.02.2020
2816 Clouds 0 1020 69 16093 3.1 100 00:22 11.02.2020
2817 Clouds 1 1021 79 16093 1.28 360 23:40 10.02.2020
2818 Clouds 1 1020 64 16093 4.12 1 23:21 10.02.2020
2819 Clouds 1 1020 69 16093 4.12 1 22:43 10.02.2020
2820 Clouds 2 1020 64 16093 2.1 30 22:21 10.02.2020
2821 Clouds 2 1020 64 16093 2.1 30 22:21 10.02.2020
2822 Clouds 2 1020 80 16093 4.12 1 21:58 10.02.2020
2823 Clouds 2 1020 80 16093 4.12 1 21:40 10.02.2020
2824 Clouds 2 1020 74 16093 1.5 0 21:22 10.02.2020
2825 Clouds 1 1021 84 16093 4.12 1 20:55 10.02.2020
2826 Clouds 1 1021 84 16093 4.12 1 20:55 10.02.2020
2827 Clouds 1 1021 69 16093 2.1 340 20:37 10.02.2020
2828 Clouds 1 1021 69 16093 2.1 340 20:19 10.02.2020
2829 Clouds 1 1021 74 14484 2.6 320 19:57 10.02.2020
2830 Clouds 0 1021 86 16093 5.76 342 19:36 10.02.2020
2831 Clouds 0 1021 80 14484 1.5 340 19:18 10.02.2020
2832 Clouds -1 1021 86 16093 5.76 342 18:55 10.02.2020
2833 Clouds -1 1021 86 16093 5.76 342 18:37 10.02.2020
2834 Clouds -1 1021 86 16093 5.76 342 18:37 10.02.2020
2835 Clouds -2 1022 80 12874 2.6 350 18:18 10.02.2020
2836 Clouds -2 1022 86 16093 5.76 342 17:40 10.02.2020
2837 Clouds -3 1022 86 12874 3.1 360 17:22 10.02.2020
2838 Clouds -3 1021 80 16093 5.84 350 16:59 10.02.2020
2839 Clouds -3 1021 80 16093 5.84 350 16:41 10.02.2020
2840 Clouds -3 1022 79 12874 3.6 340 16:20 10.02.2020
2841 Clouds -3 1022 79 12874 3.6 340 16:20 10.02.2020
2842 Clouds -3 1021 79 12874 4.6 340 15:59 10.02.2020
2843 Clouds -3 1021 79 12874 4.6 340 15:59 10.02.2020
2844 Clouds -3 1021 79 12874 4.6 340 15:40 10.02.2020
2845 Clouds -4 1021 79 12874 4.1 330 15:22 10.02.2020
2846 Clouds -3 1020 86 16093 5.84 350 14:58 10.02.2020
2847 Clouds -3 1020 86 16093 5.84 350 14:58 10.02.2020
2848 Clouds -4 1020 86 16093 5.84 350 14:39 10.02.2020
2849 Clouds -4 1020 86 16093 3.6 310 14:19 10.02.2020
2850 Clouds -4 1020 86 16093 3.6 350 13:44 10.02.2020
2851 Clouds -4 1020 86 16093 3.6 350 13:26 10.02.2020
2852 Clouds -4 1019 86 16093 4.1 10 12:59 10.02.2020
2853 Clouds -3 1019 86 16093 4.1 10 12:41 10.02.2020
2854 Clouds -3 1019 86 14484 4.6 360 12:22 10.02.2020
2855 Clouds -3 1018 79 16093 7.75 346 11:46 10.02.2020
2856 Clouds -3 1018 79 14484 5.1 360 11:21 10.02.2020
2857 Clouds -3 1018 92 16093 3.6 340 10:58 10.02.2020
2858 Clouds -3 1018 92 16093 3.6 340 10:39 10.02.2020
2859 Clouds -3 1018 74 16093 6.2 330 10:20 10.02.2020
2860 Clouds -3 1017 79 16093 6.2 340 09:42 10.02.2020
2861 Clouds -3 1017 86 12874 5.7 330 09:23 10.02.2020
2862 Clouds -2 1016 83 16093 7.63 333 08:41 10.02.2020
2863 Clouds -2 1016 79 16093 6.2 340 08:22 10.02.2020
2864 Clouds -1 1017 74 16093 6.2 330 07:55 10.02.2020
2865 Clouds -1 1016 80 14484 6.7 320 07:35 10.02.2020
2866 Clouds 0 1016 74 11265 5.1 330 06:50 10.02.2020
2867 Mist 1 1015 100 2816 8.46 334 05:40 10.02.2020
2868 Mist 2 1014 100 6437 3.96 247 03:59 10.02.2020
2869 Drizzle 2 1013 93 8047 3.6 230 03:23 10.02.2020
2870 Drizzle 2 1013 93 4828 3.1 240 02:51 10.02.2020
2871 Drizzle 2 1013 93 9656 5.1 220 01:34 10.02.2020
2872 Rain 2 1013 100 4828 5.1 210 00:45 10.02.2020
2873 Drizzle 2 1013 93 12874 6.7 210 00:27 10.02.2020
2874 Rain 2 1013 93 16093 7.7 200 23:43 09.02.2020
2875 Rain 2 1012 95 12874 4.1 200 23:24 09.02.2020
2876 Drizzle 1 1013 100 4828 8.2 180 22:54 09.02.2020
2877 Drizzle 2 1013 100 4828 8.2 180 22:54 09.02.2020
2878 Drizzle 1 1013 100 4828 8.2 180 22:36 09.02.2020
2879 Rain 1 1013 97 4828 6.2 190 22:18 09.02.2020
2880 Rain 1 1013 97 8047 7.7 180 21:40 09.02.2020
2881 Rain 1 1013 86 3219 5.7 180 21:22 09.02.2020
2882 Rain 1 1013 86 3219 5.7 180 21:21 09.02.2020
2883 Rain 0 1014 86 2012 7.2 160 20:46 09.02.2020
2884 Rain 0 1015 80 805 7.2 160 20:22 09.02.2020
2885 Rain 0 1015 80 2012 6.2 160 19:57 09.02.2020
2886 Snow 0 1016 89 1609 7.2 160 19:38 09.02.2020
2887 Snow 0 1016 89 1609 7.2 160 19:38 09.02.2020
2888 Snow 0 1016 89 1609 7.2 160 19:38 09.02.2020
2889 Rain 0 1018 74 1609 7.2 170 19:18 09.02.2020
2890 Snow 0 1017 74 1609 5.7 160 18:42 09.02.2020
2891 Clouds 0 1020 69 16093 6.2 170 18:23 09.02.2020
2892 Clouds 0 1021 89 16093 7.7 160 17:59 09.02.2020
2893 Clouds 0 1021 89 16093 7.7 160 17:39 09.02.2020
2894 Clouds 0 1021 89 16093 7.7 160 17:39 09.02.2020
2895 Clouds -1 1021 74 16093 6.2 160 17:21 09.02.2020
2896 Snow -1 1022 80 16093 6.2 150 16:41 09.02.2020
2897 Snow -1 1023 68 14484 5.1 160 16:22 09.02.2020
2898 Snow -2 1023 79 16093 10.07 154 15:58 09.02.2020
2899 Snow -2 1023 79 16093 10.07 154 15:40 09.02.2020
2900 Clouds -2 1023 74 14484 4.6 140 15:21 09.02.2020
2901 Haze -3 1023 74 6437 3.6 140 14:57 09.02.2020
2902 Clouds -3 1024 79 12874 4.1 150 14:38 09.02.2020
2903 Clouds -3 1024 79 12874 4.1 150 14:20 09.02.2020
2904 Clouds -3 1024 86 16093 7.22 192 13:43 09.02.2020
2905 Clouds -3 1023 79 16093 4.1 150 13:25 09.02.2020
2906 Clouds -4 1025 85 16093 6.51 186 12:55 09.02.2020
2907 Clouds -4 1025 85 16093 6.51 186 12:37 09.02.2020
2908 Clouds -4 1025 79 14484 3.6 190 12:18 09.02.2020
2909 Clear -4 1025 85 16093 6.51 186 11:41 09.02.2020
2910 Clouds -4 1024 79 14484 3.1 160 11:20 09.02.2020
2911 Clouds -5 1025 85 11265 5.09 215 10:57 09.02.2020
2912 Clouds -5 1025 85 11265 5.09 215 10:38 09.02.2020
2913 Clouds -5 1025 85 11265 5.09 215 10:38 09.02.2020
2914 Clouds -5 1025 79 14484 3.1 170 10:19 09.02.2020
2915 Clouds -5 1025 85 16093 5.09 215 09:41 09.02.2020
2916 Clouds -5 1025 79 16093 3.1 180 09:22 09.02.2020
2917 Clouds -4 1026 79 16093 1.5 180 08:45 09.02.2020
2918 Clouds -4 1025 79 16093 3.6 200 08:26 09.02.2020
2919 Clear -4 1026 86 11265 1.5 190 07:58 09.02.2020
2920 Clouds -4 1024 74 16093 3.1 210 07:34 09.02.2020
2921 Clear -3 1025 79 11265 3.1 220 06:45 09.02.2020
2922 Clear -3 1025 79 16093 2.1 200 05:59 09.02.2020
2923 Clear -3 1025 79 16093 2.1 200 05:37 09.02.2020
2924 Clouds -3 1024 74 16093 3.1 230 05:18 09.02.2020
2925 Clouds -1 1024 74 16093 4.83 251 03:52 09.02.2020
2926 Clouds -1 1023 79 16093 4.83 251 02:44 09.02.2020
2927 Clouds -1 1022 68 16093 3.6 240 02:24 09.02.2020
2928 Clouds -1 1022 68 16093 2.1 250 01:34 09.02.2020
2929 Snow -1 1022 76 16093 5.31 258 00:41 09.02.2020
2930 Clouds 0 1022 76 16093 5.31 258 00:21 09.02.2020
2931 Clouds 0 1022 76 16093 5.31 258 23:42 08.02.2020
2932 Snow 0 1021 59 16093 5.1 220 23:20 08.02.2020
2933 Clouds 0 1021 64 16093 5.1 250 22:42 08.02.2020
2934 Clouds 1 1020 59 16093 3.1 250 22:21 08.02.2020
2935 Clouds 1 1020 59 16093 4.1 240 21:58 08.02.2020
2936 Clouds 1 1020 59 16093 4.1 240 21:40 08.02.2020
2937 Rain 1 1020 55 16093 4.6 250 21:19 08.02.2020
2938 Rain 1 1020 55 16093 3.16 228 20:55 08.02.2020
2939 Clouds 1 1020 55 16093 3.16 228 20:37 08.02.2020
2940 Clouds 1 1020 51 16093 4.1 270 20:18 08.02.2020
2941 Rain 1 1020 59 16093 1.9 276 19:54 08.02.2020
2942 Rain 1 1019 51 16093 4.1 280 19:36 08.02.2020
2943 Rain 1 1019 51 16093 4.1 280 19:18 08.02.2020
2944 Rain 1 1020 64 16093 1.9 276 18:42 08.02.2020
2945 Rain 1 1020 59 16093 2.1 260 18:22 08.02.2020
2946 Clouds 1 1020 70 16093 1.9 276 17:43 08.02.2020
2947 Clouds 0 1019 83 12874 2.6 280 17:21 08.02.2020
2948 Clouds 0 1019 83 12874 2.6 280 17:21 08.02.2020
2949 Clouds 0 1019 83 16093 1.5 270 16:58 08.02.2020
2950 Clouds -1 1019 100 16093 3.02 289 16:38 08.02.2020
2951 Clouds -1 1019 86 12874 2.1 270 16:20 08.02.2020
2952 Clouds -2 1018 68 16093 1.5 290 15:42 08.02.2020
2953 Clouds -2 1018 92 11265 2.6 230 15:19 08.02.2020
2954 Clouds -2 1018 86 16093 3.02 289 14:57 08.02.2020
2955 Clouds -3 1018 86 16093 3.02 289 14:39 08.02.2020
2956 Clouds -3 1018 86 11265 2.1 240 14:18 08.02.2020
2957 Mist -3 1018 100 2012 3.68 265 13:43 08.02.2020
2958 Clouds -3 1017 80 16093 2.6 250 13:23 08.02.2020
2959 Mist -3 1017 100 4023 2.95 276 12:50 08.02.2020
2960 Clouds -3 1016 79 12874 2.6 230 12:25 08.02.2020
2961 Mist -3 1016 100 8047 2.95 276 11:59 08.02.2020
2962 Mist -3 1016 100 8047 2.95 276 11:40 08.02.2020
2963 Clouds -3 1016 79 14484 2.6 240 11:21 08.02.2020
2964 Clouds -3 1016 86 16093 4.35 257 10:43 08.02.2020
2965 Clouds -3 1016 74 16093 2.6 230 10:24 08.02.2020
2966 Clouds -3 1016 79 16093 1.5 220 09:53 08.02.2020
2967 Clouds -3 1016 74 16093 3.6 230 09:30 08.02.2020
2968 Clouds -2 1016 68 16093 2.1 210 08:59 08.02.2020
2969 Clouds -2 1015 74 16093 3.1 230 08:39 08.02.2020
2970 Clouds -2 1015 74 16093 3.1 230 08:21 08.02.2020
2971 Clouds -2 1014 68 16093 1.5 250 07:50 08.02.2020
2972 Clouds -2 1014 58 16093 2.6 210 07:31 08.02.2020
2973 Clouds -2 1015 58 16093 3.1 220 06:33 08.02.2020
2974 Clouds -2 1014 68 16093 1.5 220 05:50 08.02.2020
2975 Clouds -2 1014 58 16093 3.6 240 05:31 08.02.2020
2976 Clouds -2 1014 68 16093 4.37 264 04:51 08.02.2020
2977 Clouds -1 1013 58 16093 4.37 264 03:55 08.02.2020
2978 Clouds -1 1013 72 16093 4.37 264 02:58 08.02.2020
2979 Clouds -1 1013 46 16093 2.1 260 02:24 08.02.2020
2980 Clouds 0 1011 43 16093 2.1 260 01:28 08.02.2020
2981 Clouds 0 1011 68 16093 1.5 270 00:45 08.02.2020
2982 Clouds 0 1011 40 16093 4.6 280 00:23 08.02.2020
2983 Clear 1 1011 47 16093 5.57 280 23:56 07.02.2020
2984 Rain 1 1009 37 16093 4.6 280 23:37 07.02.2020
2985 Rain 1 1009 37 16093 4.6 280 23:19 07.02.2020
2986 Rain 2 1010 43 16093 4.6 260 22:41 07.02.2020
2987 Rain 2 1010 43 16093 4.6 260 22:41 07.02.2020
2988 Rain 2 1009 32 16093 5.1 300 22:19 07.02.2020
2989 Rain 2 1009 47 16093 6.2 250 21:44 07.02.2020
2990 Rain 2 1008 34 16093 6.2 300 21:23 07.02.2020
2991 Rain 2 1008 43 16093 4.9 293 20:59 07.02.2020
2992 Rain 2 1008 43 16093 4.9 293 20:38 07.02.2020
2993 Rain 2 1008 37 16093 4.1 300 20:18 07.02.2020
2994 Rain 2 1008 37 16093 4.1 300 20:18 07.02.2020
2995 Rain 2 1008 47 16093 5.92 307 19:43 07.02.2020
2996 Clouds 2 1008 34 16093 4.6 330 19:22 07.02.2020
2997 Rain 2 1008 50 16093 5.92 307 18:58 07.02.2020
2998 Rain 2 1008 50 16093 5.92 307 18:40 07.02.2020
2999 Rain 1 1008 43 16093 2.6 330 18:21 07.02.2020
3000 Snow 0 1008 58 16093 5.92 307 17:43 07.02.2020
3001 Snow -1 1007 54 16093 2.6 320 17:22 07.02.2020
3002 Snow -1 1007 63 16093 7.48 322 16:57 07.02.2020
3003 Clouds -2 1006 50 16093 3.1 310 16:39 07.02.2020
3004 Clouds -3 1006 58 16093 2.6 310 16:20 07.02.2020
3005 Snow -4 1006 85 2414 7.48 322 15:48 07.02.2020
3006 Clouds -4 1005 58 16093 3.1 320 15:27 07.02.2020
3007 Clouds -6 1005 85 16093 7.48 322 14:46 07.02.2020
3008 Clouds -6 1005 73 16093 3.1 330 14:27 07.02.2020
3009 Clouds -6 1004 92 16093 8.96 341 13:59 07.02.2020
3010 Clouds -6 1004 92 16093 8.96 341 13:40 07.02.2020
3011 Clouds -6 1004 79 16093 3.1 320 13:21 07.02.2020
3012 Snow -5 1003 86 1207 9.9 338 12:56 07.02.2020
3013 Snow -5 1003 86 1207 9.9 338 12:38 07.02.2020
3014 Snow -5 1003 79 4828 5.1 330 12:20 07.02.2020
3015 Snow -5 1002 79 2816 5.7 330 11:42 07.02.2020
3016 Snow -5 1002 79 2816 5.7 330 11:21 07.02.2020
3017 Snow -5 1002 68 16093 4.1 330 10:42 07.02.2020
3018 Snow -5 1002 73 11265 4.6 320 10:24 07.02.2020
3019 Snow -4 1002 79 4828 2.6 330 09:58 07.02.2020
3020 Clouds -4 1002 73 16093 3.6 330 09:37 07.02.2020
3021 Snow -4 1003 73 6437 3.1 330 09:19 07.02.2020
3022 Snow -4 1002 73 4828 3.6 330 08:43 07.02.2020
3023 Snow -4 1001 79 16093 4.6 320 08:21 07.02.2020
3024 Snow -4 1002 74 16093 4.1 310 07:46 07.02.2020
3025 Snow -3 1002 74 16093 2.6 10 07:28 07.02.2020
3026 Snow -3 1002 86 4828 7.54 33 06:47 07.02.2020
3027 Snow -3 1002 74 16093 5.7 40 06:26 07.02.2020
3028 Snow -3 1003 74 16093 3.6 330 05:56 07.02.2020
3029 Clouds -3 1002 74 16093 4.1 50 04:43 07.02.2020
3030 Snow -3 1002 92 3219 3.1 350 02:51 07.02.2020
3031 Snow -2 1002 79 4828 4.6 340 01:51 07.02.2020
3032 Snow -2 1002 79 16093 4.1 20 00:48 07.02.2020
3033 Snow -2 1002 74 8047 6.2 10 00:21 07.02.2020
3034 Snow -2 1003 68 14484 4.6 20 23:37 06.02.2020
3035 Snow -2 1003 68 14484 4.6 20 23:19 06.02.2020
3036 Snow -2 1002 74 16093 6.2 20 22:44 06.02.2020
3037 Snow -2 1002 74 16093 6.2 20 22:25 06.02.2020
3038 Snow -2 1002 86 4828 4.1 30 21:38 06.02.2020
3039 Snow -2 1002 74 8047 7.7 30 21:20 06.02.2020
3040 Snow -2 1002 74 8047 7.7 30 21:20 06.02.2020
3041 Snow -2 1002 68 6437 7.2 10 20:58 06.02.2020
3042 Snow -2 1002 68 6437 7.2 10 20:39 06.02.2020
3043 Snow -2 1002 74 2414 7.2 30 20:19 06.02.2020
3044 Snow -2 1003 74 2816 7.2 30 19:59 06.02.2020
3045 Snow -2 1002 86 2414 3.6 20 19:41 06.02.2020
3046 Snow -2 1003 68 4023 7.7 30 19:23 06.02.2020
3047 Snow -2 1005 68 4023 5.1 40 18:59 06.02.2020
3048 Snow -2 1004 74 3219 6.2 50 18:40 06.02.2020
3049 Snow -2 1005 68 11265 7.7 20 18:21 06.02.2020
3050 Snow -2 1005 79 16093 4.6 40 17:45 06.02.2020
3051 Snow -2 1005 74 16093 7.2 30 17:21 06.02.2020
3052 Snow -3 1005 68 14484 7.7 50 16:59 06.02.2020
3053 Snow -3 1004 86 11265 4.6 30 16:40 06.02.2020
3054 Snow -3 1005 86 6437 6.2 40 16:22 06.02.2020
3055 Snow -3 1006 86 805 4.6 350 15:42 06.02.2020
3056 Snow -3 1005 79 2012 4.1 360 15:42 06.02.2020
3057 Snow -3 1005 79 2012 4.1 360 15:22 06.02.2020
3058 Snow -3 1006 86 2816 5.7 60 14:51 06.02.2020
3059 Snow -3 1005 86 4828 6.2 70 14:28 06.02.2020
3060 Snow -3 1005 79 16093 5.1 50 13:58 06.02.2020
3061 Snow -3 1005 79 16093 5.1 50 13:40 06.02.2020
3062 Snow -3 1005 79 6437 7.7 60 13:19 06.02.2020
3063 Haze -3 1006 79 9656 4.1 350 12:44 06.02.2020
3064 Snow -3 1005 79 11265 6.2 10 12:19 06.02.2020
3065 Snow -3 1003 86 8047 9.3 30 11:57 06.02.2020
3066 Snow -3 1004 100 8047 4.6 60 11:39 06.02.2020
3067 Snow -3 1006 86 2816 4.6 30 11:19 06.02.2020
3068 Snow -3 1007 86 2816 4.6 20 10:56 06.02.2020
3069 Snow -3 1007 86 2816 4.6 20 10:38 06.02.2020
3070 Snow -3 1007 86 4828 4.1 50 10:19 06.02.2020
3071 Snow -3 1008 86 3219 4.1 40 09:55 06.02.2020
3072 Snow -3 1008 86 2414 4.6 50 09:36 06.02.2020
3073 Snow -3 1008 100 4828 1.5 70 09:36 06.02.2020
3074 Snow -3 1008 86 2414 4.6 50 09:18 06.02.2020
3075 Snow -3 1008 92 3219 5.7 60 08:40 06.02.2020
3076 Snow -3 1009 79 3219 2.6 30 08:20 06.02.2020
3077 Snow -3 1008 86 2414 5.1 50 07:46 06.02.2020
3078 Snow -3 1009 86 3219 4.6 30 07:24 06.02.2020
3079 Snow -3 1009 92 4023 3.6 50 06:21 06.02.2020
3080 Snow -3 1010 79 4023 4.6 70 06:21 06.02.2020
3081 Snow -3 1010 79 4023 4.6 70 06:21 06.02.2020
3082 Snow -3 1009 92 4023 5.1 50 05:48 06.02.2020
3083 Snow -3 1011 86 1207 5.7 80 04:20 06.02.2020
3084 Snow -3 1012 79 9656 5.1 50 03:19 06.02.2020
3085 Snow -3 1012 86 4828 5.7 50 02:27 06.02.2020
3086 Snow -3 1013 74 6437 6.7 50 01:26 06.02.2020
3087 Snow -3 1014 92 805 6.2 40 00:57 06.02.2020
3088 Snow -3 1013 79 4023 6.7 60 00:25 06.02.2020
3089 Snow -3 1014 86 3219 5.7 50 23:44 05.02.2020
3090 Snow -3 1016 86 402 4.1 30 23:25 05.02.2020
3091 Snow -3 1016 92 805 3.6 20 22:57 05.02.2020
3092 Snow -2 1016 92 805 3.6 20 22:39 05.02.2020
3093 Snow -2 1016 63 4828 5.1 60 22:20 05.02.2020
3094 Snow -2 1015 68 11265 5.1 50 21:41 05.02.2020
3095 Clouds -2 1016 58 16093 6.7 60 21:23 05.02.2020
3096 Clouds -2 1016 63 16093 4.6 40 20:57 05.02.2020
3097 Clouds -1 1016 63 16093 4.6 40 20:38 05.02.2020
3098 Clouds -1 1017 54 16093 6.7 70 20:18 05.02.2020
3099 Clouds -1 1017 54 16093 4.1 30 19:55 05.02.2020
3100 Clouds -1 1017 54 16093 4.1 30 19:37 05.02.2020
3101 Clouds -1 1018 54 16093 7.2 80 19:18 05.02.2020
3102 Clouds -1 1019 62 16093 3.6 30 18:43 05.02.2020
3103 Clouds -1 1020 54 16093 6.7 50 18:21 05.02.2020
3104 Clouds -1 1020 54 16093 4.1 40 17:58 05.02.2020
3105 Clouds -1 1020 58 16093 5.1 70 17:37 05.02.2020
3106 Clouds -1 1020 54 16093 3.6 50 17:18 05.02.2020
3107 Clouds -1 1020 54 16093 5.1 60 16:43 05.02.2020
3108 Clouds -2 1021 50 16093 7.2 70 16:25 05.02.2020
3109 Clouds -2 1021 58 16093 4.1 50 15:59 05.02.2020
3110 Clouds -2 1021 63 16093 2.6 40 15:40 05.02.2020
3111 Clouds -2 1021 54 16093 6.2 70 15:18 05.02.2020
3112 Clouds -3 1021 54 16093 4.6 60 14:43 05.02.2020
3113 Clouds -3 1021 58 16093 7.2 50 14:24 05.02.2020
3114 Clouds -3 1021 54 16093 5.1 60 13:58 05.02.2020
3115 Clouds -3 1021 54 16093 5.1 60 13:38 05.02.2020
3116 Clouds -3 1021 58 16093 7.2 60 13:19 05.02.2020
3117 Clouds -3 1021 58 16093 2.1 360 12:43 05.02.2020
3118 Clouds -3 1021 54 16093 4.6 10 12:23 05.02.2020
3119 Clouds -3 1021 54 16093 4.1 30 11:55 05.02.2020
3120 Clouds -3 1021 63 16093 5.7 60 11:36 05.02.2020
3121 Clouds -3 1021 63 16093 5.7 60 11:18 05.02.2020
3122 Clouds -3 1021 58 16093 5.1 30 10:42 05.02.2020
3123 Clouds -2 1021 63 16093 6.2 50 10:24 05.02.2020
3124 Clouds -2 1021 54 16093 5.7 40 09:45 05.02.2020
3125 Clouds -2 1021 63 16093 5.1 40 09:23 05.02.2020
3126 Clouds -2 1021 63 16093 5.1 40 08:59 05.02.2020
3127 Clouds -2 1021 63 16093 5.1 40 08:41 05.02.2020
3128 Snow -2 1022 68 16093 6.2 40 08:22 05.02.2020
3129 Snow -2 1022 68 16093 4.6 40 07:45 05.02.2020
3130 Clouds -2 1022 63 16093 7.7 30 07:26 05.02.2020
3131 Clouds -2 1022 79 16093 7.2 360 06:43 05.02.2020
3132 Clouds -2 1021 79 16093 4.6 20 06:23 05.02.2020
3133 Clouds -2 1021 79 16093 6.2 20 05:49 05.02.2020
3134 Clouds -1 1021 63 16093 7.7 20 05:18 05.02.2020
3135 Clouds -1 1021 63 16093 8.7 20 04:44 05.02.2020
3136 Clouds -1 1020 68 16093 8.7 30 03:20 05.02.2020
3137 Clouds -1 1021 70 16093 9.8 30 02:23 05.02.2020
3138 Clouds -1 1020 63 16093 5.1 30 01:35 05.02.2020
3139 Clouds -1 1020 70 16093 4.6 20 00:39 05.02.2020
3140 Clouds 0 1018 70 16093 7.2 30 23:42 04.02.2020
3141 Clouds 0 1019 64 16093 10.8 20 23:23 04.02.2020
3142 Clouds 0 1018 77 16093 6.7 20 22:58 04.02.2020
3143 Clouds 0 1019 77 16093 3.6 20 22:40 04.02.2020
3144 Clouds 0 1018 64 16093 8.7 20 22:21 04.02.2020
3145 Clouds 1 1019 77 16093 8.2 20 21:59 04.02.2020
3146 Clouds 1 1017 74 16093 9.3 30 21:40 04.02.2020
3147 Clouds 1 1017 64 16093 9.3 10 21:19 04.02.2020
3148 Clouds 1 1016 69 16093 8.2 30 20:57 04.02.2020
3149 Clouds 1 1017 69 16093 7.2 20 20:38 04.02.2020
3150 Clouds 1 1016 64 16093 9.3 20 20:19 04.02.2020
3151 Clouds 2 1016 69 16093 12.3 20 19:55 04.02.2020
3152 Clouds 2 1016 69 16093 9.8 40 19:37 04.02.2020
3153 Clouds 2 1016 69 16093 9.8 40 19:18 04.02.2020
3154 Clouds 2 1017 69 16093 9.8 40 18:41 04.02.2020
3155 Clouds 1 1017 69 16093 9.8 30 18:22 04.02.2020
3156 Clouds 1 1017 69 16093 9.8 30 18:22 04.02.2020
3157 Clouds 1 1018 64 16093 7.7 20 17:58 04.02.2020
3158 Clouds 1 1018 64 16093 7.7 20 17:58 04.02.2020
3159 Clouds 1 1016 80 16093 6.7 20 17:40 04.02.2020
3160 Clouds 1 1017 64 16093 6.7 20 17:20 04.02.2020
3161 Clouds 1 1016 64 16093 12.9 30 17:20 04.02.2020
3162 Clouds 1 1015 80 16093 8.2 30 16:39 04.02.2020
3163 Clouds 1 1016 74 16093 9.8 30 16:21 04.02.2020
3164 Clouds 1 1015 81 16093 6.2 20 15:57 04.02.2020
3165 Clouds 1 1016 74 16093 5.1 20 15:39 04.02.2020
3166 Clouds 1 1015 74 16093 9.8 30 15:20 04.02.2020
3167 Clouds 1 1014 81 16093 7.2 20 14:56 04.02.2020
3168 Clouds 1 1014 81 16093 7.2 20 14:37 04.02.2020
3169 Clouds 1 1014 74 16093 7.7 20 14:19 04.02.2020
3170 Clouds 1 1013 84 16093 6.2 20 13:41 04.02.2020
3171 Clouds 1 1014 74 16093 10.8 20 13:23 04.02.2020
3172 Clouds 2 1013 86 16093 5.1 20 12:57 04.02.2020
3173 Clouds 2 1013 86 16093 5.1 20 12:38 04.02.2020
3174 Clouds 2 1012 74 16093 8.2 20 12:19 04.02.2020
3175 Clouds 2 1011 86 16093 6.2 10 11:55 04.02.2020
3176 Clouds 2 1011 74 16093 10.3 20 11:37 04.02.2020
3177 Clouds 2 1011 74 16093 10.3 20 11:18 04.02.2020
3178 Clouds 2 1010 89 16093 6.7 360 10:44 04.02.2020
3179 Clouds 3 1010 74 16093 10.8 20 10:25 04.02.2020
3180 Clouds 3 1012 74 16093 8.2 10 09:56 04.02.2020
3181 Clouds 3 1011 74 16093 6.7 20 09:37 04.02.2020
3182 Clouds 3 1009 89 16093 7.2 10 09:19 04.02.2020
3183 Clouds 3 1009 86 16093 4.6 360 08:44 04.02.2020
3184 Clouds 3 1008 88 16093 7.2 20 08:26 04.02.2020
3185 Clear 3 1008 86 16093 6.2 10 07:50 04.02.2020
3186 Clouds 3 1008 74 16093 6.2 20 07:24 04.02.2020
3187 Clear 3 1007 86 16093 4.6 360 06:48 04.02.2020
3188 Clouds 3 1007 74 16093 6.2 20 06:30 04.02.2020
3189 Clouds 3 1007 74 16093 5.1 360 05:29 04.02.2020
3190 Clouds 3 1006 86 16093 3.1 10 03:56 04.02.2020
3191 Clouds 3 1006 86 16093 3.1 10 03:37 04.02.2020
3192 Clouds 3 1006 74 16093 6.7 10 03:19 04.02.2020
3193 Clouds 3 1006 89 16093 4.1 360 02:34 04.02.2020
3194 Clouds 3 1005 86 16093 3.6 10 01:56 04.02.2020
3195 Clouds 3 1005 86 16093 3.6 10 01:36 04.02.2020
3196 Clouds 4 1005 86 16093 7.14 16 00:52 04.02.2020
3197 Clouds 4 1005 70 16093 3.6 20 00:22 04.02.2020
3198 Clear 5 1005 80 16093 2.1 30 23:42 03.02.2020
3199 Clear 5 1005 80 16093 2.1 30 23:42 03.02.2020
3200 Clouds 5 1005 75 16093 3.6 10 23:23 03.02.2020
3201 Clear 6 1004 75 16093 2.1 20 22:40 03.02.2020
3202 Clouds 6 1004 61 16093 5.1 70 22:22 03.02.2020
3203 Clear 7 1004 75 16093 5.52 49 21:59 03.02.2020
3204 Clear 7 1004 75 16093 5.52 49 21:40 03.02.2020
3205 Clouds 7 1004 70 16093 6.2 50 21:19 03.02.2020
3206 Clouds 7 1004 70 16093 6.2 50 21:19 03.02.2020
3207 Clear 7 1004 70 16093 3.6 30 20:42 03.02.2020
3208 Clouds 7 1005 65 16093 4.6 70 20:20 03.02.2020
3209 Clear 7 1005 70 16093 4.6 40 19:58 03.02.2020
3210 Clear 7 1005 70 16093 4.6 40 19:40 03.02.2020
3211 Clouds 7 1006 65 16093 5.1 50 19:21 03.02.2020
3212 Clear 7 1006 65 16093 4.8 66 18:57 03.02.2020
3213 Clear 7 1006 65 16093 4.8 66 18:38 03.02.2020
3214 Clouds 7 1007 65 16093 5.1 80 18:20 03.02.2020
3215 Clear 7 1008 65 16093 4.8 66 17:54 03.02.2020
3216 Clear 6 1008 65 16093 4.8 66 17:36 03.02.2020
3217 Clouds 5 1008 70 16093 5.1 80 17:18 03.02.2020
3218 Clear 4 1008 70 16093 3.1 90 16:39 03.02.2020
3219 Clouds 3 1008 75 16093 5.1 50 16:21 03.02.2020
3220 Clear 3 1008 93 16093 4.3 70 15:56 03.02.2020
3221 Clear 2 1008 93 16093 4.3 70 15:37 03.02.2020
3222 Clear 2 1008 93 16093 4.3 70 15:37 03.02.2020
3223 Clouds 1 1009 92 16093 4.1 60 15:19 03.02.2020
3224 Clear 0 1009 100 16093 4.3 70 14:43 03.02.2020
3225 Clouds -1 1009 80 16093 4.3 70 14:25 03.02.2020
3226 Clear -1 1009 100 16093 3.7 46 13:58 03.02.2020
3227 Clear -2 1009 100 16093 3.7 46 13:39 03.02.2020
3228 Clouds -2 1009 92 16093 2.94 51 13:19 03.02.2020
3229 Clear -2 1009 100 16093 2.94 51 12:56 03.02.2020
3230 Clear -2 1009 86 16093 2.94 51 12:36 03.02.2020
3231 Clouds -2 1009 91 16093 2.94 51 12:18 03.02.2020
3232 Clear -2 1009 100 16093 2.94 51 11:39 03.02.2020
3233 Clouds -2 1009 91 16093 2.69 320 11:19 03.02.2020
3234 Clear -1 1009 92 16093 2.69 320 10:57 03.02.2020
3235 Clouds -1 1009 80 16093 2.6 240 10:38 03.02.2020
3236 Clouds -1 1009 80 16093 2.6 240 10:20 03.02.2020
3237 Clear -1 1009 92 16093 2.69 320 09:39 03.02.2020
3238 Clear -1 1009 86 16093 1.5 200 09:20 03.02.2020
3239 Clear -1 1009 91 16093 2.69 320 08:41 03.02.2020
3240 Clear -1 1008 80 16093 1.5 210 08:23 03.02.2020
3241 Clear 0 1008 93 16093 3.78 299 07:56 03.02.2020
3242 Clear 0 1008 93 16093 3.78 299 07:38 03.02.2020
3243 Clear 0 1008 74 16093 2.1 230 07:19 03.02.2020
3244 Clear 1 1009 74 16093 3.78 299 06:42 03.02.2020
3245 Clear 1 1008 69 16093 1.5 260 06:24 03.02.2020
3246 Clouds 2 1008 69 16093 2.6 270 05:35 03.02.2020
3247 Clear 3 1008 90 16093 2.1 260 04:50 03.02.2020
3248 Clear 5 1007 90 16093 3.6 240 02:58 03.02.2020
3249 Clouds 5 1005 90 16093 4.6 260 02:32 03.02.2020
3250 Clear 7 1005 61 16093 6.2 260 00:55 03.02.2020
3251 Clouds 7 1004 57 16093 5.7 280 00:36 03.02.2020
3252 Clouds 7 1004 57 16093 5.7 280 00:18 03.02.2020
3253 Clear 8 1004 53 16093 7.7 260 23:37 02.02.2020
3254 Clouds 9 1003 50 16093 9.3 270 23:18 02.02.2020
3255 Clear 10 1003 43 16093 8.2 280 22:40 02.02.2020
3256 Clouds 10 1002 46 16093 10.3 270 22:22 02.02.2020
3257 Clear 10 1001 53 16093 5.7 270 21:58 02.02.2020
3258 Clear 10 1002 44 16093 10.3 290 21:39 02.02.2020
3259 Clouds 10 1000 50 16093 9.8 260 21:20 02.02.2020
3260 Clear 10 1000 61 16093 4.6 260 20:58 02.02.2020
3261 Clear 10 1000 61 16093 4.6 260 20:39 02.02.2020
3262 Clouds 9 1001 50 16093 8.2 270 20:20 02.02.2020
3263 Clear 9 1001 53 16093 8.2 260 19:58 02.02.2020
3264 Clear 9 1001 53 16093 8.2 260 19:40 02.02.2020
3265 Clouds 9 1000 50 16093 9.3 260 19:21 02.02.2020
3266 Clear 9 1001 53 16093 7.2 260 18:56 02.02.2020
3267 Clear 9 1001 53 16093 7.2 260 18:56 02.02.2020
3268 Clouds 9 1000 57 16093 7.7 270 18:37 02.02.2020
3269 Clouds 9 1000 57 16093 7.7 270 18:19 02.02.2020
3270 Clear 8 1001 61 16093 5.1 250 17:57 02.02.2020
3271 Clouds 8 1000 65 16093 7.7 250 17:37 02.02.2020
3272 Clouds 7 1000 65 16093 7.7 250 17:18 02.02.2020
3273 Clear 6 1001 75 16093 5.7 250 16:57 02.02.2020
3274 Clouds 6 999 70 16093 6.7 260 16:38 02.02.2020
3275 Clouds 5 999 70 16093 6.7 260 16:18 02.02.2020
3276 Clear 5 1000 82 16093 6.2 250 15:55 02.02.2020
3277 Clear 5 1000 82 16093 6.2 250 15:36 02.02.2020
3278 Clouds 4 998 82 16093 7.7 250 15:18 02.02.2020
3279 Clear 4 999 82 16093 6.7 240 14:43 02.02.2020
3280 Clouds 4 998 69 16093 8.7 240 14:19 02.02.2020
3281 Clear 3 999 88 16093 6.2 250 13:59 02.02.2020
3282 Clear 3 999 88 16093 6.2 250 13:41 02.02.2020
3283 Clouds 3 997 69 16093 8.7 240 13:20 02.02.2020
3284 Clear 3 999 88 16093 7.2 240 12:56 02.02.2020
3285 Clear 3 999 88 16093 7.2 240 12:38 02.02.2020
3286 Clouds 3 998 69 16093 7.2 250 12:18 02.02.2020
3287 Clear 3 999 88 16093 7.2 230 11:42 02.02.2020
3288 Clouds 3 998 69 16093 8.7 230 11:19 02.02.2020
3289 Clear 3 1000 69 16093 4.6 220 10:57 02.02.2020
3290 Clear 2 1000 80 16093 7.2 220 10:39 02.02.2020
3291 Clouds 2 1000 74 16093 8.2 230 10:21 02.02.2020
3292 Clear 2 1002 74 16093 4.6 200 09:57 02.02.2020
3293 Clear 2 1002 74 16093 4.6 200 09:39 02.02.2020
3294 Clouds 2 1002 80 16093 6.2 220 09:20 02.02.2020
3295 Clouds 2 1003 74 16093 2.6 190 08:45 02.02.2020
3296 Clouds 2 1003 80 16093 6.2 210 08:26 02.02.2020
3297 Clouds 1 1005 80 16093 3.6 190 07:48 02.02.2020
3298 Clouds 1 1005 74 16093 4.1 220 07:30 02.02.2020
3299 Clouds 1 1007 80 16093 3.1 200 06:46 02.02.2020
3300 Clouds 1 1007 74 16093 6.2 220 06:28 02.02.2020
3301 Clouds 1 1008 86 16093 2.6 230 05:52 02.02.2020
3302 Clouds 1 1009 86 16093 3.1 230 04:58 02.02.2020
3303 Clouds 1 1009 86 16093 3.1 230 04:58 02.02.2020
3304 Clouds 1 1010 86 16093 4.6 250 03:40 02.02.2020
3305 Clouds 1 1009 86 16093 5.1 240 02:39 02.02.2020
3306 Clouds 1 1011 86 16093 5.7 270 01:56 02.02.2020
3307 Clouds 1 1011 86 16093 5.7 270 01:35 02.02.2020
3308 Clouds 1 1010 80 16093 7.7 270 00:45 02.02.2020
3309 Clouds 1 1009 74 16093 5.7 270 00:23 02.02.2020
3310 Clouds 1 1010 86 16093 7.2 270 23:54 01.02.2020
3311 Clouds 1 1009 74 16093 8.2 270 23:36 01.02.2020
3312 Clouds 1 1009 74 16093 8.2 270 23:18 01.02.2020
3313 Clouds 2 1010 86 11265 8.2 260 22:42 01.02.2020
3314 Clouds 2 1010 86 11265 8.2 260 22:42 01.02.2020
3315 Clouds 2 1009 80 16093 8.7 260 22:18 01.02.2020
3316 Drizzle 2 1009 80 8047 5.7 260 21:39 01.02.2020
3317 Drizzle 2 1009 80 8047 5.7 260 21:19 01.02.2020
3318 Mist 2 1009 88 6437 5.7 260 20:42 01.02.2020
3319 Clouds 2 1010 84 16093 7.2 270 20:21 01.02.2020
3320 Clouds 2 1010 84 16093 7.2 270 20:21 01.02.2020
3321 Clouds 2 1011 84 16093 7.7 260 19:58 01.02.2020
3322 Clouds 2 1010 84 11265 3.6 250 19:39 01.02.2020
3323 Clouds 2 1011 74 14484 5.7 260 19:20 01.02.2020
3324 Clouds 2 1012 86 16093 1.5 270 18:59 01.02.2020
3325 Clouds 2 1012 86 16093 1.5 270 18:40 01.02.2020
3326 Clouds 2 1012 84 16093 5.7 250 18:22 01.02.2020
3327 Mist 2 1013 100 8047 6.7 260 17:58 01.02.2020
3328 Mist 2 1013 100 8047 6.7 260 17:40 01.02.2020
3329 Mist 2 1013 93 4828 6.2 260 17:20 01.02.2020
3330 Mist 2 1013 93 4828 5.1 250 16:56 01.02.2020
3331 Mist 2 1013 93 4828 5.1 250 16:38 01.02.2020
3332 Mist 1 1013 93 3219 3.6 250 16:38 01.02.2020
3333 Mist 1 1013 93 3219 3.6 250 16:19 01.02.2020
3334 Mist 1 1013 93 3219 4.1 230 15:41 01.02.2020
3335 Rain 1 1014 100 4023 3.6 210 15:22 01.02.2020
3336 Rain 1 1014 100 2816 5.51 249 14:57 01.02.2020
3337 Rain 1 1014 100 4023 3.6 200 14:38 01.02.2020
3338 Rain 1 1014 100 4023 3.6 200 14:20 01.02.2020
3339 Rain 1 1015 100 4828 5.07 213 13:43 01.02.2020
3340 Rain 1 1015 98 4023 3.6 210 13:20 01.02.2020
3341 Rain 1 1014 97 2816 3.6 210 12:43 01.02.2020
3342 Rain 1 1015 97 4023 3.6 210 12:24 01.02.2020
3343 Rain 0 1015 97 4023 6.1 211 11:55 01.02.2020
3344 Rain 0 1015 97 4023 6.1 211 11:37 01.02.2020
3345 Rain 0 1015 86 4023 2.6 190 11:18 01.02.2020
3346 Rain 0 1016 86 3219 3.6 180 10:54 01.02.2020
3347 Snow 0 1016 100 4828 2.6 160 10:36 01.02.2020
3348 Snow 0 1016 86 4828 3.1 180 10:18 01.02.2020
3349 Rain 0 1017 96 4023 2.1 160 09:41 01.02.2020
3350 Rain 0 1017 86 3219 3.1 170 09:22 01.02.2020
3351 Rain 0 1017 86 4828 3.1 180 08:58 01.02.2020
3352 Rain 0 1018 86 2012 3.1 170 08:22 01.02.2020
3353 Rain 0 1019 86 4023 2.6 180 07:43 01.02.2020
3354 Rain 0 1019 86 4023 2.6 180 07:24 01.02.2020
3355 Rain 1 1018 86 2816 2.1 170 06:44 01.02.2020
3356 Clouds 1 1019 74 12874 2.1 190 05:54 01.02.2020
3357 Clouds 1 1020 86 11265 4.18 181 04:58 01.02.2020
3358 Clouds 1 1020 74 14484 2.6 170 03:26 01.02.2020
3359 Clouds 1 1021 86 16093 4.18 181 02:59 01.02.2020
3360 Clouds 1 1021 86 16093 4.18 181 02:40 01.02.2020
3361 Clouds 1 1020 74 16093 3.1 200 02:20 01.02.2020
3362 Clouds 1 1020 86 16093 3.76 168 01:46 01.02.2020
3363 Clouds 1 1020 69 14484 2.6 160 01:27 01.02.2020
3364 Clouds 1 1020 74 12874 2.6 0 00:24 01.02.2020
3365 Clouds 2 1020 80 16093 3.22 176 23:41 31.01.2020
3366 Clouds 2 1020 80 14484 4.1 190 23:19 31.01.2020
3367 Clouds 2 1020 82 16093 2.91 220 22:57 31.01.2020
3368 Clouds 2 1019 82 11265 2.1 220 22:38 31.01.2020
3369 Clouds 2 1020 80 14484 2.6 200 22:20 31.01.2020
3370 Clouds 2 1020 80 16093 2.91 220 21:55 31.01.2020
3371 Clouds 2 1020 80 16093 2.91 220 21:36 31.01.2020
3372 Clouds 2 1020 74 14484 4.1 210 21:18 31.01.2020
3373 -273 0 0 0 0 0 20:54 31.01.2020
3374 Snow 2 1020 74 8047 1.5 200 20:54 31.01.2020
3375 Clouds 2 1021 82 11265 2.91 220 20:36 31.01.2020
3376 Clouds 2 1021 82 11265 2.91 220 20:36 31.01.2020
3377 Rain 2 1021 69 12874 3.6 190 20:18 31.01.2020
3378 Rain 2 1021 89 8047 3.94 178 19:41 31.01.2020
3379 Snow 2 1021 80 11265 3.1 150 19:22 31.01.2020
3380 Rain 2 1021 80 11265 2.6 180 18:58 31.01.2020
3381 Rain 2 1021 80 11265 2.6 180 18:38 31.01.2020
3382 Rain 1 1021 80 8047 2.1 170 18:19 31.01.2020
3383 Rain 1 1022 80 8047 2.1 190 17:43 31.01.2020
3384 Rain 1 1022 86 6437 1.5 170 17:25 31.01.2020
3385 Rain 1 1022 86 4828 2.6 150 16:57 31.01.2020
3386 Rain 0 1022 86 4828 2.6 150 16:38 31.01.2020
3387 Mist 0 1022 80 6437 2.1 200 16:19 31.01.2020
3388 Clouds 0 1022 95 4023 4.17 178 15:57 31.01.2020
3389 Rain 0 1022 95 4023 4.17 178 15:39 31.01.2020
3390 Rain -1 1022 95 2414 2.1 160 15:19 31.01.2020
3391 Snow -1 1021 95 2414 1.5 160 14:42 31.01.2020
3392 Snow -1 1021 94 2414 2.1 160 14:24 31.01.2020
3393 Rain -1 1020 92 3219 2.1 170 13:54 31.01.2020
3394 Rain -1 1021 92 2816 1.5 170 13:34 31.01.2020
3395 Rain -1 1021 92 2414 2.1 170 12:59 31.01.2020
3396 Rain -1 1021 92 8047 2.99 183 12:41 31.01.2020
3397 Rain -1 1021 92 3219 2.6 170 12:22 31.01.2020
3398 Rain -1 1021 92 3219 2.6 170 11:45 31.01.2020
3399 Rain -1 1021 92 4023 1.5 180 11:26 31.01.2020
3400 Rain -1 1021 75 3219 2.1 160 10:59 31.01.2020
3401 Clouds -1 1022 92 11265 2.25 231 10:41 31.01.2020
3402 Snow -1 1021 75 2816 2.1 170 10:21 31.01.2020
3403 Rain -1 1021 77 4828 1.5 170 09:57 31.01.2020
3404 Clouds 0 1022 75 16093 2.25 231 09:38 31.01.2020
3405 Clouds 0 1022 75 16093 2.25 231 09:38 31.01.2020
3406 Snow 0 1021 75 6437 1.5 170 09:19 31.01.2020
3407 Clouds 0 1022 75 16093 2.25 231 08:50 31.01.2020
3408 Clouds 0 1022 75 16093 2.25 231 08:50 31.01.2020
3409 Clouds 0 1022 75 16093 2.25 231 08:50 31.01.2020
3410 Clouds 0 1022 78 16093 2.66 201 08:25 31.01.2020
3411 Clouds 0 1022 78 16093 2.66 201 07:53 31.01.2020
3412 Clouds 0 1022 69 14484 2.6 170 07:24 31.01.2020
3413 Clouds 0 1022 69 14484 2.6 190 06:43 31.01.2020
3414 Clouds 0 1022 69 14484 2.6 190 06:18 31.01.2020
3415 Clouds 0 1022 69 14484 2.6 190 05:43 31.01.2020
3416 Clouds 0 1023 78 16093 2.53 200 04:54 31.01.2020
3417 Clouds 0 1023 78 16093 2.53 200 02:58 31.01.2020
3418 Clouds 0 1023 74 16093 1.72 180 01:38 31.01.2020
3419 Clouds 0 1023 79 16093 1.68 163 00:45 31.01.2020
3420 Clouds 1 1022 59 16093 3.1 190 00:26 31.01.2020
3421 Clouds 1 1022 69 16093 1.68 163 23:53 30.01.2020
3422 Clouds 1 1022 59 16093 2.6 180 23:24 30.01.2020
3423 Clouds 1 1022 69 16093 2.15 168 22:56 30.01.2020
3424 Clouds 1 1022 59 16093 2.1 160 22:36 30.01.2020
3425 Clouds 1 1022 59 16093 2.1 160 22:18 30.01.2020
3426 Clouds 1 1022 69 16093 2.15 168 21:43 30.01.2020
3427 Clouds 1 1022 59 16093 2.6 210 21:20 30.01.2020
3428 Clouds 1 1022 69 16093 2.15 168 20:59 30.01.2020
3429 Clouds 1 1022 69 16093 2.15 168 20:39 30.01.2020
3430 Clouds 1 1022 59 16093 4.1 180 20:21 30.01.2020
3431 Clouds 1 1022 59 16093 4.1 180 20:21 30.01.2020
3432 Clouds 1 1023 69 16093 1.97 162 19:55 30.01.2020
3433 Clouds 1 1022 78 16093 2.6 200 19:36 30.01.2020
3434 Clouds 1 1023 59 16093 2.6 170 19:18 30.01.2020
3435 Clouds 1 1023 69 16093 1.97 162 18:40 30.01.2020
3436 Clouds 1 1023 59 16093 1.5 0 18:21 30.01.2020
3437 Clouds 0 1023 78 14484 1.97 162 17:55 30.01.2020
3438 Clouds 0 1023 59 16093 4.1 180 17:37 30.01.2020
3439 Clouds 0 1023 59 16093 4.1 180 17:18 30.01.2020
3440 Clouds 0 1023 74 11265 1.38 302 16:56 30.01.2020
3441 Clouds 0 1023 84 16093 1.38 302 16:37 30.01.2020
3442 Clouds 0 1023 84 11265 1.38 302 16:18 30.01.2020
3443 Clouds -1 1024 84 12874 2.1 170 15:42 30.01.2020
3444 Clouds -1 1024 84 12874 2.1 170 15:19 30.01.2020
3445 Clouds -1 1024 92 11265 1.38 302 14:46 30.01.2020
3446 Clouds -1 1024 84 11265 1.38 302 14:26 30.01.2020
3447 Clouds -1 1024 84 11265 1.38 302 14:26 30.01.2020
3448 Clouds -1 1023 92 11265 1.86 323 13:54 30.01.2020
3449 Clouds -1 1023 86 11265 1.86 323 13:36 30.01.2020
3450 Clouds -1 1023 80 14484 1.55 347 13:18 30.01.2020
3451 Clouds -1 1023 86 11265 1.55 347 12:41 30.01.2020
3452 Clouds -1 1022 80 11265 1.55 347 12:22 30.01.2020
3453 Clouds -1 1022 86 16093 1.55 347 11:56 30.01.2020
3454 Clouds -1 1022 86 16093 1.55 347 11:38 30.01.2020
3455 Clouds -1 1022 80 12874 2.48 244 11:19 30.01.2020
3456 Clouds -1 1022 86 16093 2.48 244 10:42 30.01.2020
3457 Clouds -1 1022 80 12874 2.1 290 10:22 30.01.2020
3458 Clouds -1 1023 80 16093 2.48 244 09:48 30.01.2020
3459 Clouds -1 1022 80 12874 2.1 260 09:30 30.01.2020
3460 Clouds -1 1022 80 16093 1.5 330 08:59 30.01.2020
3461 Clouds -1 1022 80 16093 2.48 244 08:39 30.01.2020
3462 Snow -1 1022 79 12874 1.5 180 08:20 30.01.2020
3463 Clouds -1 1023 78 16093 2.31 213 07:49 30.01.2020
3464 Clouds -1 1022 78 16093 2.31 213 07:28 30.01.2020
3465 Clouds -1 1023 78 16093 2.31 213 06:47 30.01.2020
3466 Clouds -1 1023 78 16093 2.31 213 06:28 30.01.2020
3467 Clouds -1 1023 78 16093 2.31 213 05:44 30.01.2020
3468 Snow -1 1023 72 16093 2.73 105 05:20 30.01.2020
3469 Clouds -1 1023 86 16093 2.73 105 03:54 30.01.2020
3470 Clouds -1 1023 86 16093 2.73 105 03:36 30.01.2020
3471 Clouds -1 1023 72 16093 2.73 105 02:42 30.01.2020
3472 Clouds 0 1023 78 16093 3.3 27 00:43 30.01.2020
3473 Clouds 0 1022 78 16093 3.3 27 00:21 30.01.2020
3474 Clouds 0 1022 78 16093 3.3 27 23:46 29.01.2020
3475 Clouds 0 1022 83 16093 3.21 10 23:22 29.01.2020
3476 Clouds 0 1022 83 16093 3.21 10 22:57 29.01.2020
3477 Clouds 0 1022 83 16093 3.21 10 22:39 29.01.2020
3478 Clouds 0 1022 59 16093 3.21 10 22:19 29.01.2020
3479 Clouds 0 1022 83 16093 3.21 10 21:58 29.01.2020
3480 Clouds 0 1022 83 16093 3.21 10 21:38 29.01.2020
3481 Clouds 0 1022 83 16093 3.21 10 21:38 29.01.2020
3482 Snow 0 1021 83 12874 3.21 10 21:19 29.01.2020
3483 Clouds 0 1022 83 16093 3.21 10 20:58 29.01.2020
3484 Clouds 0 1022 83 16093 3.21 10 20:38 29.01.2020
3485 Snow 0 1022 74 14484 2.1 140 20:19 29.01.2020
3486 Clouds 0 1022 74 16093 1.42 51 19:56 29.01.2020
3487 Snow 0 1022 86 9656 3.1 170 19:37 29.01.2020
3488 Snow 0 1022 86 9656 3.1 170 19:37 29.01.2020
3489 Snow 0 1022 86 9656 3.1 170 19:37 29.01.2020
3490 Snow 0 1022 86 9656 3.1 170 19:18 29.01.2020
3491 Clouds 0 1023 74 16093 1.42 51 18:46 29.01.2020
3492 Snow 0 1023 74 8047 3.1 160 18:19 29.01.2020
3493 Clouds -1 1023 74 16093 1.42 51 17:58 29.01.2020
3494 Clouds -1 1023 80 16093 1.42 51 17:39 29.01.2020
3495 Clouds -1 1023 80 16093 1.5 310 17:20 29.01.2020
3496 Haze -1 1022 80 6437 2.6 70 16:41 29.01.2020
3497 Clouds -1 1022 69 16093 3.6 60 16:23 29.01.2020
3498 Clouds -1 1023 69 16093 1.38 41 15:55 29.01.2020
3499 Snow -1 1022 69 16093 3.1 70 15:37 29.01.2020
3500 Snow -1 1022 69 16093 3.1 70 15:18 29.01.2020
3501 Clouds -2 1022 69 16093 1.38 41 14:42 29.01.2020
3502 Snow -2 1022 86 14484 2.97 33 14:20 29.01.2020
3503 Clouds -2 1022 67 16093 2.97 33 13:54 29.01.2020
3504 Clouds -2 1021 80 16093 2.97 33 13:36 29.01.2020
3505 Snow -2 1021 86 14484 2.31 41 13:18 29.01.2020
3506 Snow -2 1021 74 14484 2.1 360 12:54 29.01.2020
3507 Snow -1 1021 86 14484 1.5 290 12:36 29.01.2020
3508 Snow -1 1021 86 14484 1.5 290 12:18 29.01.2020
3509 Clouds -1 1021 86 16093 2.31 41 11:42 29.01.2020
3510 Snow -1 1021 86 12874 1.5 260 11:20 29.01.2020
3511 Clouds -1 1021 70 16093 2.17 20 10:46 29.01.2020
3512 Snow -1 1021 80 12874 2.17 20 10:23 29.01.2020
3513 Snow -1 1021 80 14484 2.17 20 09:58 29.01.2020
3514 Snow -1 1021 80 14484 2.17 20 09:39 29.01.2020
3515 Snow -1 1021 80 14484 2.17 20 09:18 29.01.2020
3516 Clouds -1 1021 70 16093 2.17 20 08:44 29.01.2020
3517 Snow -1 1021 80 16093 1.5 50 08:24 29.01.2020
3518 Clouds -1 1021 86 16093 1.51 42 07:45 29.01.2020
3519 Clouds -1 1020 73 16093 1.5 350 07:26 29.01.2020
3520 Clouds -1 1020 86 16093 1.51 42 06:56 29.01.2020
3521 Clouds -1 1020 86 16093 1.51 42 06:56 29.01.2020
3522 Clouds -1 1020 86 16093 1.51 42 06:37 29.01.2020
3523 Clouds -1 1020 74 16093 2.6 20 06:19 29.01.2020
3524 Clouds -1 1020 73 16093 1.51 42 05:50 29.01.2020
3525 Clouds -1 1020 73 16093 3.1 10 05:31 29.01.2020
3526 Clouds -1 1020 74 16093 3.49 353 04:38 29.01.2020
3527 Clouds -1 1020 80 16093 3.49 353 03:59 29.01.2020
3528 Clouds -1 1020 74 16093 1.5 20 02:34 29.01.2020
3529 Clouds -1 1019 87 16093 2.6 300 01:18 29.01.2020
3530 Clouds -1 1019 87 16093 1.5 290 00:38 29.01.2020
3531 Clouds -1 1019 87 16093 1.5 290 00:20 29.01.2020
3532 Clouds -1 1019 87 16093 1.76 343 23:39 28.01.2020
3533 Clouds -1 1019 81 16093 2.1 270 23:19 28.01.2020
3534 Clouds -1 1019 81 16093 1.06 337 22:49 28.01.2020
3535 Clouds -1 1019 81 16093 1.5 300 22:27 28.01.2020
3536 Clouds 0 1019 81 16093 1.06 337 21:57 28.01.2020
3537 Clouds 0 1019 81 16093 1.06 337 21:38 28.01.2020
3538 Clouds 0 1018 81 16093 1.06 337 21:19 28.01.2020
3539 Clouds 0 1018 81 16093 1.06 337 21:19 28.01.2020
3540 Clouds 0 1018 81 16093 1.06 337 20:45 28.01.2020
3541 Clouds 0 1018 81 16093 2.1 250 20:26 28.01.2020
3542 Clouds 0 1019 84 16093 2.18 319 19:55 28.01.2020
3543 Clouds 0 1019 84 16093 2.1 270 19:37 28.01.2020
3544 Clouds 0 1019 84 16093 2.1 270 19:19 28.01.2020
3545 Clouds 0 1019 84 16093 2.18 319 18:42 28.01.2020
3546 Clouds 0 1020 84 16093 3.1 270 18:23 28.01.2020
3547 -273 0 0 0 0 0 17:59 28.01.2020
3548 Clouds -1 1020 84 16093 2.18 319 17:40 28.01.2020
3549 Clouds -1 1020 84 16093 3.1 260 17:21 28.01.2020
3550 Clouds -1 1020 84 11265 3.69 312 16:59 28.01.2020
3551 Clouds -1 1020 84 11265 3.69 312 16:40 28.01.2020
3552 Clouds -1 1019 84 16093 3.1 310 16:22 28.01.2020
3553 Mist -1 1019 84 6437 3.69 312 15:55 28.01.2020
3554 Clouds -1 1019 84 16093 2.6 310 15:37 28.01.2020
3555 Clouds -1 1019 84 16093 2.6 310 15:18 28.01.2020
3556 Mist -1 1019 84 8047 3.69 312 14:43 28.01.2020
3557 Clouds -1 1019 84 16093 3.6 310 14:19 28.01.2020
3558 Mist -1 1019 84 6437 3.84 292 13:42 28.01.2020
3559 Clouds -1 1018 84 16093 2.6 290 13:24 28.01.2020
3560 Mist -1 1018 84 6437 3.32 298 12:45 28.01.2020
3561 Clouds -1 1018 84 12874 3.1 300 12:25 28.01.2020
3562 Mist -1 1018 84 6437 3.32 298 11:59 28.01.2020
3563 Clouds -1 1018 84 16093 2.6 320 11:41 28.01.2020
3564 Clouds -1 1018 84 16093 2.6 320 11:21 28.01.2020
3565 Mist -1 1018 84 6437 4.38 311 10:44 28.01.2020
3566 Clouds -1 1018 84 14484 3.1 280 10:26 28.01.2020
3567 Mist 0 1018 84 6437 4.38 311 09:59 28.01.2020
3568 Mist 0 1018 84 6437 4.38 311 09:41 28.01.2020
3569 Clouds 0 1018 80 12874 2.6 330 09:20 28.01.2020
3570 Clouds 0 1018 80 12874 2.6 330 09:20 28.01.2020
3571 Mist 0 1018 84 8047 4.38 311 08:45 28.01.2020
3572 Snow 0 1018 80 14484 2.1 290 08:25 28.01.2020
3573 Clouds 0 1018 92 11265 1.5 310 07:53 28.01.2020
3574 Clouds 0 1018 80 14484 3.1 320 07:31 28.01.2020
3575 Mist 0 1018 92 6437 4.46 297 06:47 28.01.2020
3576 Clouds 0 1018 80 16093 1.5 300 06:24 28.01.2020
3577 Mist 0 1018 92 6437 4.46 297 05:38 28.01.2020
3578 Clouds 0 1018 80 14484 2.6 310 05:20 28.01.2020
3579 Mist 0 1018 93 4828 3.83 312 03:47 28.01.2020
3580 Mist 0 1018 93 6437 3.83 312 02:46 28.01.2020
3581 Clouds 0 1017 80 16093 2.6 310 02:25 28.01.2020
3582 Mist 0 1017 93 6437 3.89 317 01:53 28.01.2020
3583 Clouds 0 1016 80 16093 2.6 320 01:20 28.01.2020
3584 Drizzle 1 1017 84 6437 4.17 331 00:43 28.01.2020
3585 Clouds 1 1016 74 14484 2.1 320 00:19 28.01.2020
3586 Clouds 1 1016 74 14484 2.1 330 23:43 27.01.2020
3587 Clouds 1 1016 74 14484 2.1 330 23:19 27.01.2020
3588 Rain 1 1016 74 14484 2.1 310 22:45 27.01.2020
3589 Rain 1 1016 74 14484 3.1 320 22:20 27.01.2020
3590 Rain 1 1016 74 14484 3.1 320 22:20 27.01.2020
3591 Rain 1 1016 74 14484 3.1 320 22:20 27.01.2020
3592 Clouds 1 1015 80 16093 2.1 340 21:57 27.01.2020
3593 Clouds 1 1015 80 16093 2.1 340 21:57 27.01.2020
3594 Clouds 1 1016 86 11265 4.32 343 21:39 27.01.2020
3595 Clouds 1 1015 74 12874 3.1 320 21:19 27.01.2020
3596 Clouds 1 1015 74 16093 2.1 330 20:56 27.01.2020
3597 Snow 1 1015 86 11265 4.32 343 20:37 27.01.2020
3598 Clouds 1 1015 80 11265 3.1 310 20:19 27.01.2020
3599 Snow 1 1016 86 3219 4.6 280 19:55 27.01.2020
3600 Snow 1 1016 86 3219 4.6 280 19:37 27.01.2020
3601 Snow 1 1016 86 3219 4.6 280 19:19 27.01.2020
3602 Clouds 0 1016 74 11265 3.1 300 18:39 27.01.2020
3603 Clouds 0 1016 74 11265 3.1 300 18:21 27.01.2020
3604 Clouds 0 1016 89 11265 4.2 324 17:57 27.01.2020
3605 Clouds 0 1016 89 11265 4.2 324 17:57 27.01.2020
3606 Clouds 0 1016 89 11265 4.2 324 17:37 27.01.2020
3607 Clouds 0 1015 92 11265 1.5 320 17:18 27.01.2020
3608 Mist -1 1015 92 4828 4.24 295 16:42 27.01.2020
3609 Clouds -1 1015 86 11265 3.1 290 16:24 27.01.2020
3610 Clouds -1 1015 86 11265 3.1 290 16:24 27.01.2020
3611 Mist -1 1015 92 4828 4.24 295 15:59 27.01.2020
3612 Mist -1 1015 92 4828 4.24 295 15:40 27.01.2020
3613 Clouds -1 1014 86 11265 2.6 310 15:19 27.01.2020
3614 Clouds -2 1014 92 11265 2.6 320 14:56 27.01.2020
3615 Clouds -2 1014 92 12874 2.6 330 14:37 27.01.2020
3616 Clouds -2 1014 92 12874 2.6 330 14:37 27.01.2020
3617 Clouds -2 1014 92 12874 2.6 330 14:19 27.01.2020
3618 Mist -2 1014 86 8047 3.98 319 13:42 27.01.2020
3619 Clouds -2 1013 92 12874 3.1 340 13:22 27.01.2020
3620 Clouds -2 1013 86 11265 3.6 320 12:57 27.01.2020
3621 Clouds -2 1013 86 11265 2.1 320 12:38 27.01.2020
3622 Clouds -2 1013 86 11265 2.1 320 12:20 27.01.2020
3623 Clouds -2 1013 92 11265 3.1 290 11:42 27.01.2020
3624 Clouds -2 1013 92 11265 3.1 290 11:21 27.01.2020
3625 Mist -2 1012 92 4828 3.1 290 10:55 27.01.2020
3626 Clouds -2 1013 86 11265 2.6 290 10:36 27.01.2020
3627 Clouds -2 1013 86 11265 3.1 300 10:18 27.01.2020
3628 Clouds -2 1013 86 12874 3.1 290 09:39 27.01.2020
3629 Clouds -2 1013 86 11265 2.6 270 09:39 27.01.2020
3630 Clouds -2 1013 86 12874 3.1 290 09:19 27.01.2020
3631 Clouds -2 1013 86 12874 3.1 290 08:48 27.01.2020
3632 Clouds -2 1013 86 12874 2.6 300 08:23 27.01.2020
3633 Clouds -2 1013 92 16093 2.6 300 07:55 27.01.2020
3634 Clouds -2 1013 92 16093 2.6 300 07:37 27.01.2020
3635 Clouds -2 1013 86 12874 4.6 290 07:19 27.01.2020
3636 Clouds -2 1013 92 11265 3.6 290 06:33 27.01.2020
3637 Clouds -2 1013 86 16093 2.1 300 05:38 27.01.2020
3638 Rain -2 1013 86 12874 3.6 290 04:21 27.01.2020
3639 Clouds -2 1013 86 16093 4.78 266 03:35 27.01.2020
3640 Clouds -2 1013 92 11265 4.1 250 01:47 27.01.2020
3641 Clouds -2 1013 92 12874 4.6 240 01:22 27.01.2020
3642 Clouds -2 1013 92 11265 4.1 260 00:40 27.01.2020
3643 Clouds -2 1013 86 12874 5.1 240 00:21 27.01.2020
3644 Mist -2 1013 92 8047 4.6 230 23:43 26.01.2020
3645 Clouds -1 1012 86 14484 5.1 240 23:21 26.01.2020
3646 Rain -1 1012 100 11265 5.57 263 22:57 26.01.2020
3647 Rain -1 1012 100 11265 5.57 263 22:38 26.01.2020
3648 Rain -1 1012 89 16093 4.6 270 22:20 26.01.2020
3649 Clouds -1 1012 86 16093 4.6 250 21:57 26.01.2020
3650 Clouds -1 1013 89 16093 2.6 250 21:38 26.01.2020
3651 Clouds 0 1012 80 16093 5.1 270 21:20 26.01.2020
3652 Snow 0 1013 86 11265 2.1 260 20:57 26.01.2020
3653 Snow 0 1013 86 11265 2.1 260 20:38 26.01.2020
3654 Clouds 0 1013 80 16093 5.7 240 20:18 26.01.2020
3655 Clouds 0 1013 86 16093 5.7 250 19:57 26.01.2020
3656 Clouds 0 1013 86 16093 5.7 250 19:37 26.01.2020
3657 Clouds 0 1013 80 16093 5.7 240 19:18 26.01.2020
3658 Clouds 0 1014 86 16093 5.1 250 18:54 26.01.2020
3659 Clouds 0 1014 86 16093 5.1 250 18:36 26.01.2020
3660 Clouds 0 1014 90 16093 5.1 250 18:18 26.01.2020
3661 Clouds 0 1013 86 16093 5.7 260 17:40 26.01.2020
3662 Clouds 0 1014 92 16093 6.2 250 17:20 26.01.2020
3663 Clouds 0 1014 92 16093 6.2 250 17:20 26.01.2020
3664 Clouds -1 1014 92 16093 6.2 260 16:59 26.01.2020
3665 Rain -1 1014 92 16093 6.2 260 16:40 26.01.2020
3666 Rain -1 1014 92 12874 5.1 250 16:22 26.01.2020
3667 -273 0 0 0 0 0 16:22 26.01.2020
3668 Rain -1 1013 92 16093 3.6 260 15:58 26.01.2020
3669 Rain -1 1013 92 16093 3.6 260 15:58 26.01.2020
3670 Rain -1 1013 92 16093 3.6 260 15:58 26.01.2020
3671 Rain -1 1013 92 16093 3.6 260 15:40 26.01.2020
3672 Clouds -1 1014 92 16093 3.6 260 15:19 26.01.2020
3673 Clouds -1 1013 92 16093 2.1 260 14:41 26.01.2020
3674 Clouds -1 1013 92 16093 2.1 260 14:23 26.01.2020
3675 Clouds -1 1013 93 16093 2.1 260 14:23 26.01.2020
3676 Clouds -1 1013 93 16093 3.1 260 13:57 26.01.2020
3677 Snow -1 1013 74 0 0.45 165 13:38 26.01.2020
3678 Snow -1 1013 74 0 5.92 269 13:18 26.01.2020
3679 Rain -1 1014 86 16093 6.2 260 12:42 26.01.2020
3680 Rain 0 1014 93 16093 5.1 260 12:24 26.01.2020
3681 Rain 0 1014 93 16093 5.1 260 11:58 26.01.2020
3682 Snow 0 1013 74 0 6.09 272 11:40 26.01.2020
3683 Clouds 0 1013 86 12874 5.7 260 11:19 26.01.2020
3684 Clouds 0 1013 86 12874 5.7 260 10:59 26.01.2020
3685 Clouds 0 1013 86 12874 5.7 260 10:39 26.01.2020
3686 Clouds 0 1013 86 12874 5.7 260 10:21 26.01.2020
3687 Clouds 0 1013 91 16093 3.6 250 09:58 26.01.2020
3688 Clouds 0 1013 91 16093 3.6 250 09:40 26.01.2020
3689 Clouds 0 1013 91 16093 3.6 250 09:40 26.01.2020
3690 Clouds 0 1013 86 14484 4.6 270 09:21 26.01.2020
3691 Clouds 0 1013 91 11265 3.6 260 08:45 26.01.2020
3692 Mist 0 1013 86 9656 5.7 270 08:23 26.01.2020
3693 Rain 0 1013 97 11265 4.6 250 07:58 26.01.2020
3694 Rain 0 1013 97 11265 4.6 250 07:40 26.01.2020
3695 Rain 0 1013 86 9656 6.2 270 07:21 26.01.2020
3696 Mist 0 1013 86 8047 6.2 260 06:31 26.01.2020
3697 Rain 0 1013 86 9656 5.1 270 05:32 26.01.2020
3698 Rain 0 1012 86 9656 3.6 270 04:45 26.01.2020
3699 Snow 0 1012 86 11265 3.6 270 02:59 26.01.2020
3700 Snow 0 1012 91 4828 6.11 267 01:57 26.01.2020
3701 Rain 0 1012 91 4828 6.11 267 01:37 26.01.2020
3702 Rain 0 1011 86 12874 4.6 260 01:18 26.01.2020
3703 Rain 0 1012 91 8047 4.6 260 00:38 26.01.2020
3704 Snow 0 1011 86 4828 3.6 250 00:20 26.01.2020
3705 Rain 0 1011 77 0 6.36 264 23:37 25.01.2020
3706 Rain 0 1011 77 0 6.75 271 23:18 25.01.2020
3707 Rain 0 1011 77 0 6.75 271 23:18 25.01.2020
3708 Rain 0 1014 93 0 6.75 271 22:41 25.01.2020
3709 Rain 1 1010 77 0 6.75 271 22:20 25.01.2020
3710 Rain 1 1009 92 0 0.89 273 21:57 25.01.2020
3711 Snow 1 1010 78 0 6.75 271 21:39 25.01.2020
3712 Snow 0 1010 98 0 6.75 271 21:20 25.01.2020
3713 Snow 1 1014 92 0 6.75 271 20:45 25.01.2020
3714 Snow 1 1014 93 0 6.75 271 20:26 25.01.2020
3715 Rain 1 1014 93 0 5.61 258 19:56 25.01.2020
3716 Snow 0 1011 98 0 5.78 260 19:56 25.01.2020
3717 Rain 1 1010 78 0 5.78 260 19:37 25.01.2020
3718 Rain 1 1014 93 0 5.61 258 19:19 25.01.2020
3719 Rain 1 1014 93 0 5.78 260 18:55 25.01.2020
3720 Rain 1 1010 79 0 5.78 260 18:37 25.01.2020
3721 Rain 1 1010 79 0 5.78 260 18:18 25.01.2020
3722 Rain 1 1014 94 0 5.78 260 17:39 25.01.2020
3723 Rain 1 1009 97 4828 2.1 270 17:19 25.01.2020
3724 Rain 1 1014 94 0 5.21 265 16:56 25.01.2020
3725 Rain 1 1009 97 4828 2.1 270 16:37 25.01.2020
3726 Rain 1 1009 97 4828 2.1 270 16:18 25.01.2020
3727 Snow 0 1008 86 1609 1.5 0 15:42 25.01.2020
3728 Snow 0 1010 79 0 5.03 268 15:23 25.01.2020
3729 Rain 0 1009 100 11265 2.1 240 14:46 25.01.2020
3730 Rain 0 1009 100 11265 2.1 240 14:19 25.01.2020
3731 Snow 0 1008 93 0 0.89 196 13:57 25.01.2020
3732 Snow 0 1009 79 0 4.89 269 13:39 25.01.2020
3733 Rain 0 1009 79 0 4.89 269 13:18 25.01.2020
3734 Rain 0 1009 79 0 4.89 269 13:18 25.01.2020
3735 Rain 0 1008 98 6437 4.41 257 12:42 25.01.2020
3736 Rain 0 1008 98 6437 4.41 257 12:21 25.01.2020
3737 Rain 0 1008 98 6437 4.41 257 11:43 25.01.2020
3738 Snow 0 1008 98 6437 3.6 240 11:21 25.01.2020
3739 Snow 0 1008 98 6437 3.6 240 11:21 25.01.2020
3740 Rain 0 1009 100 6437 2.1 200 10:56 25.01.2020
3741 Rain 0 1009 100 6437 2.1 200 10:38 25.01.2020
3742 Rain 0 1008 98 4023 3.1 240 10:19 25.01.2020
3743 Rain 0 1009 98 4828 4.63 248 09:40 25.01.2020
3744 Rain 0 1008 98 4023 3.6 220 09:20 25.01.2020
3745 Rain 0 1008 86 4023 4.63 248 08:43 25.01.2020
3746 Rain 0 1008 98 4023 4.01 220 08:20 25.01.2020
3747 Rain 0 1008 100 4023 2.6 220 07:41 25.01.2020
3748 Rain 1 1009 100 4023 3.1 220 06:44 25.01.2020
3749 Rain 1 1009 100 2816 4.1 230 06:24 25.01.2020
3750 Rain 1 1009 100 2012 4.01 220 05:44 25.01.2020
3751 Rain 1 1008 100 16093 2.6 230 04:25 25.01.2020
3752 Rain 1 1009 100 11265 3.15 238 03:50 25.01.2020
3753 Rain 2 1009 100 8047 3.15 238 02:40 25.01.2020
3754 Rain 2 1009 93 4828 2.6 230 01:58 25.01.2020
3755 Rain 2 1009 100 805 2.63 269 01:34 25.01.2020
3756 Rain 2 1008 100 4828 1.86 318 00:41 25.01.2020
3757 Rain 2 1008 100 1609 1.86 318 00:23 25.01.2020
3758 Rain 3 1009 100 402 1.86 318 23:42 24.01.2020
3759 Rain 3 1008 100 402 1.72 55 23:24 24.01.2020
3760 Rain 3 1009 100 1207 1.72 55 22:56 24.01.2020
3761 Rain 3 1009 100 1207 1.72 55 22:37 24.01.2020
3762 Rain 3 1008 93 402 1.72 55 22:19 24.01.2020
3763 Rain 3 1009 100 201 1.72 55 21:41 24.01.2020
3764 Fog 3 1009 93 402 1.72 55 21:19 24.01.2020
3765 Drizzle 3 1009 100 805 1.72 55 20:44 24.01.2020
3766 Fog 3 1009 100 805 1.5 150 20:23 24.01.2020
3767 Fog 3 1010 100 805 4.1 104 19:59 24.01.2020
3768 Fog 3 1010 100 805 4.1 104 19:41 24.01.2020
3769 Fog 3 1010 100 805 1.5 90 19:22 24.01.2020
3770 Mist 3 1011 93 1207 2.1 120 18:58 24.01.2020
3771 Drizzle 3 1010 100 402 2.1 110 18:40 24.01.2020
3772 Rain 3 1011 100 805 2.1 90 18:21 24.01.2020
3773 Rain 3 1011 100 1207 4.1 104 17:44 24.01.2020
3774 Rain 2 1011 100 402 1.5 90 17:21 24.01.2020
3775 Fog 2 1011 100 402 1.5 100 16:57 24.01.2020
3776 Fog 2 1011 100 402 1.5 100 16:57 24.01.2020
3777 Rain 2 1012 93 2012 2.1 100 16:38 24.01.2020
3778 Drizzle 2 1011 100 1207 2.1 80 16:18 24.01.2020
3779 Rain 2 1011 100 1207 2.6 100 15:41 24.01.2020
3780 Rain 2 1011 100 2414 3.1 100 15:21 24.01.2020
3781 Drizzle 2 1011 93 2012 3.6 80 14:42 24.01.2020
3782 Drizzle 2 1011 93 2414 3.1 70 14:24 24.01.2020
3783 Rain 2 1012 100 6437 6.72 119 13:58 24.01.2020
3784 Rain 1 1012 100 6437 6.72 119 13:40 24.01.2020
3785 Rain 1 1012 93 3219 2.6 90 13:21 24.01.2020
3786 Rain 1 1012 93 4023 2.1 80 12:42 24.01.2020
3787 Drizzle 1 1012 93 2414 4.1 90 12:20 24.01.2020
3788 Rain 1 1012 100 3219 6.63 119 11:44 24.01.2020
3789 Drizzle 1 1012 93 2816 4.1 70 11:19 24.01.2020
3790 Drizzle 1 1012 93 3219 4.6 80 10:43 24.01.2020
3791 Drizzle 1 1013 93 4828 5.1 70 10:23 24.01.2020
3792 Rain 1 1013 100 4023 7.59 114 09:57 24.01.2020
3793 Rain 1 1013 100 4023 7.59 114 09:39 24.01.2020
3794 Rain 1 1013 100 4023 3.1 40 09:21 24.01.2020
3795 Rain 1 1014 100 6437 3.1 60 08:41 24.01.2020
3796 Rain 1 1015 80 4023 2.1 70 08:20 24.01.2020
3797 Rain 1 1014 100 8047 7.4 131 07:52 24.01.2020
3798 Rain 1 1015 93 6437 2.6 80 07:34 24.01.2020
3799 Rain 1 1015 93 8047 2.6 90 06:48 24.01.2020
3800 Rain 1 1016 80 8047 2.6 100 06:29 24.01.2020
3801 Rain 1 1016 80 6437 3.6 100 05:58 24.01.2020
3802 Clouds 1 1016 87 11265 2.1 60 04:57 24.01.2020
3803 Rain 1 1016 87 8047 1.5 90 02:53 24.01.2020
3804 Drizzle 1 1017 87 4828 2.1 0 02:25 24.01.2020
3805 Rain 1 1017 94 3219 2.6 120 01:45 24.01.2020
3806 Rain 1 1017 86 3219 2.1 110 01:26 24.01.2020
3807 Rain 1 1017 98 4828 3.6 140 00:23 24.01.2020
3808 Rain 1 1017 98 4828 2.6 140 23:49 23.01.2020
3809 Rain 1 1017 86 4828 3.1 160 23:31 23.01.2020
3810 Rain 1 1017 100 8047 5.99 160 22:59 23.01.2020
3811 Rain 1 1017 100 8047 5.99 160 22:38 23.01.2020
3812 Rain 1 1017 100 8047 5.99 160 22:38 23.01.2020
3813 Rain 1 1017 80 8047 4.1 180 22:19 23.01.2020
3814 Rain 1 1017 86 1609 3.1 160 21:57 23.01.2020
3815 Rain 1 1017 86 3219 3.6 170 21:39 23.01.2020
3816 Rain 1 1017 86 3219 3.6 170 21:20 23.01.2020
3817 Rain 1 1017 86 4023 3.1 160 20:58 23.01.2020
3818 Rain 1 1017 86 4023 3.6 160 20:38 23.01.2020
3819 Rain 1 1017 86 4023 3.6 160 20:19 23.01.2020
3820 Rain 1 1018 97 8047 4.1 160 19:54 23.01.2020
3821 Rain 1 1018 97 8047 4.1 160 19:36 23.01.2020
3822 Rain 1 1017 97 2414 3.6 160 19:18 23.01.2020
3823 Rain 1 1018 97 2414 4.1 160 18:42 23.01.2020
3824 Rain 0 1018 80 4023 3.6 170 18:20 23.01.2020
3825 Rain 0 1018 80 4023 3.6 170 18:20 23.01.2020
3826 Rain 0 1019 86 2012 4.1 170 17:58 23.01.2020
3827 Rain 0 1019 97 16093 6.3 183 17:40 23.01.2020
3828 Rain 0 1019 97 2414 5.1 180 17:19 23.01.2020
3829 Rain 0 1019 97 6437 2.1 170 16:55 23.01.2020
3830 Rain 0 1019 97 6437 2.1 170 16:36 23.01.2020
3831 Rain 0 1018 92 2414 3.6 160 16:18 23.01.2020
3832 Rain -1 1019 97 1609 4.1 160 15:54 23.01.2020
3833 Rain -1 1018 92 2414 3.6 160 15:36 23.01.2020
3834 Rain -1 1018 92 2414 3.6 160 15:18 23.01.2020
3835 Snow -1 1019 92 2816 4.1 170 14:54 23.01.2020
3836 Rain -1 1019 100 11265 5.85 183 14:36 23.01.2020
3837 Rain -1 1018 92 9656 3.1 170 14:18 23.01.2020
3838 Rain -1 1019 92 8047 6.29 187 13:38 23.01.2020
3839 Rain -1 1018 92 4023 3.1 170 13:19 23.01.2020
3840 Rain -1 1018 92 4023 4.1 180 12:47 23.01.2020
3841 Rain -1 1018 92 4828 3.1 160 12:25 23.01.2020
3842 Rain -1 1018 92 4828 3.1 160 12:25 23.01.2020
3843 Rain -1 1019 86 3219 4.6 180 11:58 23.01.2020
3844 Rain -1 1019 92 8047 4.6 180 11:38 23.01.2020
3845 Rain -1 1019 86 2816 5.1 180 11:19 23.01.2020
3846 Clouds -1 1020 86 11265 3.6 190 10:44 23.01.2020
3847 Snow -1 1019 86 4023 4.1 180 10:22 23.01.2020
3848 Snow -1 1020 93 4828 2.6 170 09:59 23.01.2020
3849 Snow -1 1020 93 4828 2.6 170 09:37 23.01.2020
3850 Snow -1 1019 80 4828 4.6 190 09:19 23.01.2020
3851 Snow -1 1020 93 4828 3.6 180 08:41 23.01.2020
3852 Clouds 0 1019 68 16093 4.1 180 08:22 23.01.2020
3853 Clouds 0 1020 68 16093 4.6 180 07:45 23.01.2020
3854 Clouds 0 1020 68 16093 4.6 180 07:26 23.01.2020
3855 Clouds 0 1020 55 16093 4.1 190 06:53 23.01.2020
3856 Clouds 0 1019 68 16093 4.1 190 06:23 23.01.2020
3857 Clouds 0 1021 68 16093 5.1 180 05:57 23.01.2020
3858 Clouds 0 1020 65 16093 5.1 180 04:24 23.01.2020
3859 Clouds 0 1020 65 16093 5.1 170 02:34 23.01.2020
3860 Clear 0 1022 63 16093 4.6 170 01:41 23.01.2020
3861 Clouds 0 1021 59 16093 5.7 180 00:28 23.01.2020
3862 Clear 1 1022 64 16093 4.6 180 23:48 22.01.2020
3863 Clouds 1 1020 59 16093 5.1 180 23:30 22.01.2020
3864 Clear 1 1022 64 16093 5.1 170 22:59 22.01.2020
3865 Clear 1 1022 64 16093 5.1 170 22:41 22.01.2020
3866 Clouds 1 1021 55 16093 4.6 190 22:23 22.01.2020
3867 Clear 1 1022 64 16093 6.2 200 21:41 22.01.2020
3868 Clouds 1 1021 59 16093 6.2 180 21:22 22.01.2020
3869 Clear 1 1022 64 16093 5.7 180 20:58 22.01.2020
3870 Clouds 1 1022 59 16093 6.2 190 20:39 22.01.2020
3871 Clouds 0 1022 59 16093 6.2 190 20:21 22.01.2020
3872 Clear 0 1023 64 16093 5.7 190 19:57 22.01.2020
3873 Clear 0 1023 64 16093 5.7 190 19:39 22.01.2020
3874 Clouds -1 1023 63 16093 5.7 210 19:19 22.01.2020
3875 Clear -1 1024 68 16093 6.2 190 18:57 22.01.2020
3876 Clear -1 1024 68 16093 6.2 190 18:38 22.01.2020
3877 Clear -1 1024 68 16093 6.2 190 18:38 22.01.2020
3878 Clouds -2 1024 68 16093 6.2 190 18:19 22.01.2020
3879 Clear -2 1025 74 16093 7.2 200 17:55 22.01.2020
3880 Clouds -2 1024 73 16093 5.7 200 17:37 22.01.2020
3881 Clouds -3 1024 73 16093 5.7 200 17:18 22.01.2020
3882 Clear -3 1025 79 16093 6.7 200 16:43 22.01.2020
3883 Clouds -4 1024 68 16093 6.2 200 16:23 22.01.2020
3884 Clear -4 1025 79 16093 7.2 200 15:59 22.01.2020
3885 Clear -4 1025 79 16093 7.2 200 15:40 22.01.2020
3886 Clear -4 1025 79 16093 7.2 200 15:40 22.01.2020
3887 Clouds -4 1025 73 16093 4.1 210 15:22 22.01.2020
3888 Clear -5 1025 79 16093 6.2 200 14:56 22.01.2020
3889 Clouds -5 1025 73 16093 4.1 210 14:36 22.01.2020
3890 Clouds -5 1025 73 16093 4.1 210 14:18 22.01.2020
3891 Clear -5 1025 79 16093 5.7 210 13:54 22.01.2020
3892 Clouds -5 1025 73 16093 5.1 210 13:36 22.01.2020
3893 Clouds -5 1025 73 16093 5.1 210 13:18 22.01.2020
3894 Clear -5 1025 79 16093 5.7 190 12:54 22.01.2020
3895 Clouds -5 1025 73 16093 6.2 200 12:36 22.01.2020
3896 Clouds -4 1025 73 16093 6.2 200 12:18 22.01.2020
3897 Clear -4 1026 85 16093 2.1 190 11:55 22.01.2020
3898 Clouds -4 1026 73 16093 5.1 200 11:36 22.01.2020
3899 Clouds -4 1026 73 16093 5.1 200 11:18 22.01.2020
3900 Clear -5 1027 85 16093 3.1 200 10:42 22.01.2020
3901 Clouds -5 1027 73 14484 4.1 210 10:19 22.01.2020
3902 Clear -5 1027 85 16093 8.95 209 09:43 22.01.2020
3903 Clouds -5 1027 79 14484 4.6 210 09:24 22.01.2020
3904 Clear -5 1027 85 16093 3.6 200 08:57 22.01.2020
3905 Clear -5 1027 85 16093 3.6 200 08:57 22.01.2020
3906 Clear -5 1027 85 16093 3.6 200 08:39 22.01.2020
3907 Clouds -5 1027 79 14484 5.7 210 08:20 22.01.2020
3908 Clear -5 1028 85 16093 5.1 190 07:47 22.01.2020
3909 Clouds -5 1028 79 16093 5.7 210 07:29 22.01.2020
3910 Clear -4 1029 85 16093 4.6 200 06:46 22.01.2020
3911 Clouds -4 1028 73 16093 4.6 200 06:26 22.01.2020
3912 Clouds -4 1029 73 16093 5.7 210 05:26 22.01.2020
3913 Clear -4 1030 79 16093 3.6 200 04:18 22.01.2020
3914 Clouds -4 1030 73 16093 4.6 210 03:21 22.01.2020
3915 Clear -3 1029 73 16093 3.1 190 01:43 22.01.2020
3916 Clear -3 1032 79 16093 8.15 207 00:44 22.01.2020
3917 Clouds -2 1032 63 16093 6.2 230 00:26 22.01.2020
3918 Clouds -2 1033 74 16093 8.15 207 23:38 21.01.2020
3919 Clouds -2 1033 58 16093 5.1 240 23:20 21.01.2020
3920 Clouds -2 1033 63 16093 6.86 238 22:56 21.01.2020
3921 Clouds -2 1033 63 16093 6.86 238 22:56 21.01.2020
3922 Clouds -2 1033 58 16093 5.1 230 22:37 21.01.2020
3923 Clouds -2 1033 58 16093 5.1 230 22:37 21.01.2020
3924 Clouds -2 1033 58 16093 5.1 230 22:19 21.01.2020
3925 Clouds -1 1034 63 16093 6.86 238 21:55 21.01.2020
3926 Clouds -1 1034 63 16093 6.86 238 21:37 21.01.2020
3927 Clouds -1 1034 58 16093 6.2 250 21:18 21.01.2020
3928 Clear -1 1034 69 16093 4.1 220 20:55 21.01.2020
3929 Clouds -2 1034 63 16093 5.1 230 20:36 21.01.2020
3930 Clear -2 1034 72 16093 3.6 220 20:18 21.01.2020
3931 Clear -2 1035 63 16093 5.28 236 19:55 21.01.2020
3932 Clouds -2 1035 63 16093 4.6 210 19:36 21.01.2020
3933 Clear -3 1036 63 16093 5.28 236 19:18 21.01.2020
3934 Clear -3 1036 63 16093 5.28 236 18:54 21.01.2020
3935 Clouds -3 1037 63 16093 4.6 260 18:36 21.01.2020
3936 Clouds -3 1037 63 16093 4.6 260 18:18 21.01.2020
3937 Clouds -4 1037 68 16093 4.1 260 17:42 21.01.2020
3938 Clouds -5 1037 68 16093 4.1 260 17:19 21.01.2020
3939 Clear -6 1037 85 16093 5.58 248 16:55 21.01.2020
3940 Clear -6 1037 79 16093 2.1 270 16:36 21.01.2020
3941 Clear -7 1037 79 16093 2.1 270 16:18 21.01.2020
3942 Clear -9 1037 92 16093 5.58 248 15:39 21.01.2020
3943 Clear -10 1037 92 16093 2.1 210 15:20 21.01.2020
3944 Clear -11 1037 85 16093 5.58 248 14:40 21.01.2020
3945 Clouds -11 1037 78 16093 2.1 220 14:22 21.01.2020
3946 Clear -11 1038 92 11265 4.96 292 13:58 21.01.2020
3947 Clear -11 1038 92 11265 4.96 292 13:38 21.01.2020
3948 Clear -11 1037 78 16093 1.5 290 13:18 21.01.2020
3949 Clear -11 1037 78 16093 1.5 270 12:42 21.01.2020
3950 Clear -11 1037 78 16093 1.5 270 12:24 21.01.2020
3951 Clear -10 1037 92 16093 4.63 283 11:56 21.01.2020
3952 Clear -10 1037 85 16093 3.1 260 11:38 21.01.2020
3953 Clear -10 1037 92 16093 4.63 283 11:38 21.01.2020
3954 Clear -10 1037 78 16093 2.1 290 11:19 21.01.2020
3955 Clear -10 1037 85 16093 2.6 260 10:43 21.01.2020
3956 Clear -10 1037 73 16093 2.1 310 10:23 21.01.2020
3957 Clear -10 1037 79 16093 2.1 260 09:56 21.01.2020
3958 Clear -10 1037 79 16093 2.1 260 09:56 21.01.2020
3959 Clear -10 1037 79 16093 1.5 300 09:38 21.01.2020
3960 Clear -10 1037 79 16093 1.5 300 09:20 21.01.2020
3961 Clear -10 1037 79 16093 2.6 260 08:44 21.01.2020
3962 Clear -10 1037 79 16093 2.1 290 08:26 21.01.2020
3963 Clear -9 1037 79 16093 3.1 280 07:44 21.01.2020
3964 Clear -9 1037 73 16093 2.6 320 07:25 21.01.2020
3965 Clear -9 1037 79 16093 2.6 280 06:58 21.01.2020
3966 Clear -9 1037 79 16093 2.6 280 06:38 21.01.2020
3967 Clear -9 1036 73 16093 2.1 320 06:20 21.01.2020
3968 Clouds -8 1037 79 16093 3.1 270 05:40 21.01.2020
3969 Clear -7 1037 85 16093 6.27 326 04:38 21.01.2020
3970 Clouds -5 1037 68 16093 2.6 360 02:29 21.01.2020
3971 Clear -5 1036 68 16093 2.6 330 01:36 21.01.2020
3972 Clouds -3 1036 74 16093 5.74 326 00:52 21.01.2020
3973 Clouds -3 1036 63 16093 4.1 50 00:29 21.01.2020
3974 Snow -3 1036 86 11265 5.74 326 23:56 20.01.2020
3975 Clouds -2 1035 58 16093 2.6 60 23:36 20.01.2020
3976 Clouds -2 1035 58 16093 2.6 60 23:18 20.01.2020
3977 Clouds -2 1036 74 16093 6.02 346 22:54 20.01.2020
3978 Clouds -2 1035 54 16093 2.6 10 22:36 20.01.2020
3979 Clouds -2 1035 54 16093 2.6 10 22:18 20.01.2020
3980 Clouds -2 1035 79 16093 6.02 346 21:54 20.01.2020
3981 Clouds -2 1035 63 16093 3.1 10 21:36 20.01.2020
3982 Clouds -2 1035 63 16093 3.1 10 21:18 20.01.2020
3983 Clouds -2 1036 58 16093 3.1 340 20:42 20.01.2020
3984 Clouds -2 1036 58 16093 3.1 340 20:20 20.01.2020
3985 Snow -2 1036 85 4023 5.7 351 19:58 20.01.2020
3986 Snow -2 1036 63 14484 2.6 350 19:40 20.01.2020
3987 Snow -3 1036 63 14484 2.6 350 19:19 20.01.2020
3988 Snow -3 1037 85 4023 5.7 351 18:55 20.01.2020
3989 Snow -3 1036 68 14484 5.7 351 18:37 20.01.2020
3990 Snow -3 1036 68 14484 5.7 351 18:19 20.01.2020
3991 Snow -5 1037 85 6437 5.7 351 17:38 20.01.2020
3992 Snow -6 1036 68 16093 2.1 0 17:19 20.01.2020
3993 Snow -6 1036 92 4023 6.73 344 16:46 20.01.2020
3994 Clouds -7 1036 73 16093 2.1 260 16:26 20.01.2020
3995 Snow -7 1036 85 3219 6.73 344 15:59 20.01.2020
3996 Snow -8 1035 73 14484 3.6 290 15:40 20.01.2020
3997 Snow -8 1035 73 14484 3.6 290 15:22 20.01.2020
3998 Snow -8 1035 85 11265 6.73 344 14:58 20.01.2020
3999 Snow -8 1035 85 11265 6.73 344 14:39 20.01.2020
4000 Snow -8 1035 73 12874 2.1 280 14:20 20.01.2020
4001 Snow -9 1035 79 11265 7.72 348 13:44 20.01.2020
4002 Snow -8 1034 73 16093 3.1 310 13:24 20.01.2020
4003 Snow -9 1034 79 11265 6.98 341 12:58 20.01.2020
4004 Snow -9 1034 79 11265 6.98 341 12:40 20.01.2020
4005 Snow -9 1033 73 16093 2.6 280 12:21 20.01.2020
4006 Snow -9 1033 73 16093 2.6 270 11:55 20.01.2020
4007 Snow -9 1033 79 11265 6.98 341 11:36 20.01.2020
4008 Snow -9 1033 67 16093 2.1 280 11:18 20.01.2020
4009 Snow -9 1033 73 11265 8.31 340 10:41 20.01.2020
4010 Snow -9 1033 73 14484 2.6 310 10:20 20.01.2020
4011 Snow -9 1033 79 8047 3.1 240 09:41 20.01.2020
4012 Snow -9 1032 73 14484 3.1 290 09:23 20.01.2020
4013 Snow -9 1033 79 6437 8.31 340 08:55 20.01.2020
4014 Snow -9 1032 72 14484 2.6 300 08:31 20.01.2020
4015 Snow -9 1032 73 4828 1.5 190 07:55 20.01.2020
4016 Snow -9 1032 73 4828 1.5 190 07:37 20.01.2020
4017 Clouds -9 1032 67 16093 3.6 300 07:19 20.01.2020
4018 Snow -10 1032 78 16093 8.46 327 06:40 20.01.2020
4019 Snow -10 1032 72 16093 4.6 300 06:20 20.01.2020
4020 Snow -10 1031 73 16093 5.1 280 05:38 20.01.2020
4021 Clouds -9 1031 72 16093 4.1 290 05:19 20.01.2020
4022 Clear -9 1031 78 16093 9.82 331 03:55 20.01.2020
4023 Clear -9 1030 72 16093 4.1 290 01:58 20.01.2020
4024 Clear -9 1030 72 16093 4.1 290 01:39 20.01.2020
4025 Clouds -9 1030 72 16093 3.1 280 00:56 20.01.2020
4026 Clouds -9 1030 72 16093 3.1 280 00:37 20.01.2020
4027 Snow -9 1029 67 16093 6.7 300 00:19 20.01.2020
4028 Clouds -8 1029 72 16093 6.2 270 23:37 19.01.2020
4029 Clouds -8 1028 62 16093 5.7 290 23:18 19.01.2020
4030 Clouds -8 1028 62 16093 2.1 280 22:55 19.01.2020
4031 Clouds -8 1028 62 16093 5.1 290 22:37 19.01.2020
4032 Clouds -8 1028 62 16093 5.1 290 22:18 19.01.2020
4033 Clear -8 1027 67 16093 5.7 270 21:55 19.01.2020
4034 Clear -8 1027 67 16093 5.7 270 21:37 19.01.2020
4035 Clouds -8 1027 67 16093 6.2 290 21:19 19.01.2020
4036 Clouds -9 1027 66 16093 5.1 280 20:56 19.01.2020
4037 Clouds -9 1027 66 16093 5.1 280 20:37 19.01.2020
4038 Clouds -9 1026 61 16093 5.1 300 20:19 19.01.2020
4039 Clouds -10 1026 66 16093 2.6 290 19:55 19.01.2020
4040 Clouds -10 1026 72 16093 4.1 290 19:37 19.01.2020
4041 Clouds -10 1026 72 16093 4.1 290 19:19 19.01.2020
4042 Clouds -11 1026 66 16093 3.1 300 18:55 19.01.2020
4043 Clouds -11 1026 66 16093 3.1 300 18:37 19.01.2020
4044 Clouds -12 1026 66 16093 6.7 290 18:18 19.01.2020
4045 Clouds -12 1026 66 16093 6.7 290 18:18 19.01.2020
4046 Clouds -13 1025 71 16093 6.2 280 17:57 19.01.2020
4047 Clouds -13 1026 71 16093 8.2 270 17:38 19.01.2020
4048 Clouds -13 1026 71 16093 8.2 270 17:19 19.01.2020
4049 Clouds -14 1026 77 16093 7.2 260 16:57 19.01.2020
4050 Clouds -14 1026 77 16093 7.2 260 16:37 19.01.2020
4051 Clouds -14 1025 65 16093 5.1 280 16:37 19.01.2020
4052 Clouds -15 1025 65 16093 5.1 280 16:19 19.01.2020
4053 Clouds -15 1025 71 16093 5.1 280 15:55 19.01.2020
4054 Clouds -16 1025 71 16093 5.1 280 15:36 19.01.2020
4055 Clouds -16 1024 71 16093 5.1 280 15:18 19.01.2020
4056 Clouds -16 1024 71 16093 5.1 280 15:18 19.01.2020
4057 Clouds -16 1024 71 16093 5.1 280 15:18 19.01.2020
4058 Clouds -16 1024 77 16093 6.2 280 14:40 19.01.2020
4059 Clouds -16 1023 71 16093 6.7 290 14:21 19.01.2020
4060 Clouds -16 1023 71 16093 4.1 280 13:59 19.01.2020
4061 Clouds -16 1023 71 16093 4.1 280 13:40 19.01.2020
4062 Clouds -16 1022 65 16093 6.2 270 13:22 19.01.2020
4063 Clouds -17 1021 70 16093 7.2 270 12:59 19.01.2020
4064 Clouds -17 1022 71 16093 4.6 280 12:41 19.01.2020
4065 Clouds -17 1021 65 16093 7.7 280 12:21 19.01.2020
4066 Clouds -17 1021 71 16093 8.7 280 11:57 19.01.2020
4067 Clouds -17 1020 70 16093 6.2 270 11:38 19.01.2020
4068 Clouds -17 1020 70 16093 6.2 270 11:18 19.01.2020
4069 Clouds -16 1021 60 16093 8.7 270 10:41 19.01.2020
4070 Clouds -16 1019 60 16093 8.7 280 10:21 19.01.2020
4071 Clouds -16 1020 71 16093 8.7 270 09:57 19.01.2020
4072 Clouds -16 1020 71 16093 8.7 270 09:38 19.01.2020
4073 Clouds -16 1019 65 16093 9.8 270 09:20 19.01.2020
4074 Clouds -16 1019 71 16093 8.2 280 08:55 19.01.2020
4075 Snow -16 1018 65 14484 11.3 270 08:33 19.01.2020
4076 Clouds -15 1018 71 16093 10.3 270 07:58 19.01.2020
4077 Snow -15 1018 65 14484 11.3 280 07:29 19.01.2020
4078 Clouds -15 1018 65 16093 9.3 260 06:55 19.01.2020
4079 Snow -15 1017 65 11265 9.8 270 06:23 19.01.2020
4080 Snow -13 1016 61 14484 8.7 270 04:18 19.01.2020
4081 Snow -11 1014 66 14484 12.9 260 02:34 19.01.2020
4082 Snow -10 1015 72 16093 10.8 270 01:43 19.01.2020
4083 Snow -10 1013 67 14484 8.7 260 01:21 19.01.2020
4084 Snow -9 1014 72 16093 11.8 270 00:45 19.01.2020
4085 Clouds -9 1012 79 11265 10.3 260 00:24 19.01.2020
4086 Snow -8 1012 79 11265 12.3 260 23:55 18.01.2020
4087 Snow -8 1010 85 12874 10.3 260 23:36 18.01.2020
4088 Snow -7 1010 85 12874 10.3 260 23:18 18.01.2020
4089 Clouds -6 1010 85 11265 10.3 250 22:42 18.01.2020
4090 Rain -5 1008 79 12874 10.3 260 22:24 18.01.2020
4091 Clouds -5 1008 79 12874 10.3 260 22:24 18.01.2020
4092 Rain -4 1008 86 11265 11.8 250 21:58 18.01.2020
4093 Clouds -3 1008 84 11265 11.8 260 21:39 18.01.2020
4094 Clouds -2 1006 86 16093 9.8 250 21:21 18.01.2020
4095 Mist -1 1007 86 8047 12.9 260 20:59 18.01.2020
4096 Mist 0 1007 86 8047 12.9 260 20:41 18.01.2020
4097 Clouds 1 1006 74 16093 10.3 270 20:19 18.01.2020
4098 Clouds 1 1006 74 16093 10.3 270 20:19 18.01.2020
4099 Rain 1 1006 80 16093 9.3 270 19:43 18.01.2020
4100 Rain 1 1006 80 16093 9.3 270 19:25 18.01.2020
4101 Rain 1 1006 100 16093 6.7 260 18:55 18.01.2020
4102 Rain 1 1006 100 16093 6.7 260 18:37 18.01.2020
4103 Rain 1 1005 87 16093 8.2 270 18:19 18.01.2020
4104 Rain 1 1006 100 6437 9.3 260 17:41 18.01.2020
4105 Rain 1 1005 93 12874 8.7 250 17:21 18.01.2020
4106 Drizzle 1 1005 100 6437 6.2 230 16:57 18.01.2020
4107 Drizzle 1 1005 100 6437 6.2 230 16:38 18.01.2020
4108 Rain 2 1004 93 6437 5.7 220 16:19 18.01.2020
4109 Rain 1 1004 93 6437 5.7 220 16:19 18.01.2020
4110 Drizzle 1 1006 100 2414 5.7 210 15:47 18.01.2020
4111 Drizzle 1 1005 93 3219 5.1 210 15:26 18.01.2020
4112 Drizzle 1 1005 93 3219 5.1 210 15:26 18.01.2020
4113 Drizzle 1 1004 100 6437 3.1 180 15:00 18.01.2020
4114 Drizzle 1 1004 100 6437 3.1 180 14:41 18.01.2020
4115 Drizzle 1 1006 93 3219 4.1 200 14:19 18.01.2020
4116 Rain 1 1006 86 2816 3.1 180 13:57 18.01.2020
4117 Rain 1 1006 100 4828 6.2 170 13:36 18.01.2020
4118 Rain 1 1006 100 4828 6.2 170 13:36 18.01.2020
4119 Rain 0 1006 94 4023 3.6 170 13:18 18.01.2020
4120 Rain 0 1009 86 4828 3.6 160 12:41 18.01.2020
4121 Rain 0 1009 86 4828 3.6 160 12:22 18.01.2020
4122 Rain 0 1010 94 6437 11.33 169 11:57 18.01.2020
4123 Rain 0 1011 94 8047 2.6 160 11:38 18.01.2020
4124 Rain 0 1012 97 11265 11.59 163 11:19 18.01.2020
4125 Rain 0 1012 97 6437 11.59 163 10:43 18.01.2020
4126 Rain 0 1013 97 8047 4.1 130 10:21 18.01.2020
4127 Rain 0 1013 100 6437 4.1 140 09:55 18.01.2020
4128 Rain 0 1014 97 4828 3.6 160 09:37 18.01.2020
4129 Rain -1 1016 92 6437 5.1 150 08:59 18.01.2020
4130 Rain -1 1016 97 11265 6.2 150 08:41 18.01.2020
4131 Rain -1 1016 92 6437 5.1 150 08:41 18.01.2020
4132 Rain -1 1016 86 8047 9.3 140 08:20 18.01.2020
4133 Rain -1 1016 86 8047 9.3 140 08:20 18.01.2020
4134 Rain -1 1016 92 11265 6.2 140 07:56 18.01.2020
4135 Rain -2 1019 86 8047 7.7 140 07:34 18.01.2020
4136 Rain -2 1019 86 9656 7.7 130 06:48 18.01.2020
4137 Rain -2 1021 86 8047 6.7 150 06:22 18.01.2020
4138 Rain -3 1021 86 16093 5.7 140 05:45 18.01.2020
4139 Rain -3 1024 92 2414 7.2 120 04:19 18.01.2020
4140 Rain -3 1029 92 1609 7.2 120 02:21 18.01.2020
4141 Rain -4 1031 92 1609 11.04 135 01:36 18.01.2020
4142 Rain -4 1031 86 1207 4.6 100 00:39 18.01.2020
4143 Rain -4 1031 79 805 5.1 100 00:19 18.01.2020
4144 Rain -4 1032 85 1609 5.1 100 23:56 17.01.2020
4145 Rain -4 1033 79 2816 4.1 100 23:38 17.01.2020
4146 Rain -4 1033 79 1207 5.1 100 23:18 17.01.2020
4147 Snow -3 1034 58 4828 4.1 170 22:40 17.01.2020
4148 Clouds -3 1034 54 16093 5.7 120 22:19 17.01.2020
4149 Clouds -3 1034 58 16093 5.1 130 21:43 17.01.2020
4150 Clouds -3 1035 50 16093 5.1 140 21:24 17.01.2020
4151 Clouds -3 1035 63 16093 3.6 140 20:59 17.01.2020
4152 Clouds -3 1035 63 16093 3.6 140 20:41 17.01.2020
4153 Clouds -3 1036 53 16093 4.6 130 20:20 17.01.2020
4154 Clear -3 1037 58 16093 5.7 130 19:57 17.01.2020
4155 Clear -3 1037 58 16093 5.7 130 19:38 17.01.2020
4156 Clouds -3 1038 53 16093 4.6 130 19:20 17.01.2020
4157 Clear -3 1038 63 16093 4.6 120 18:57 17.01.2020
4158 Clouds -3 1039 58 16093 5.7 130 18:38 17.01.2020
4159 Clouds -4 1039 58 16093 5.7 130 18:20 17.01.2020
4160 Clear -4 1040 62 16093 5.7 120 17:40 17.01.2020
4161 Clouds -4 1040 68 16093 5.1 120 17:21 17.01.2020
4162 Clouds -4 1039 73 16093 7.2 120 16:57 17.01.2020
4163 Clear -5 1041 67 16093 4.1 120 16:38 17.01.2020
4164 Clouds -5 1041 68 16093 6.2 140 16:18 17.01.2020
4165 Clouds -6 1040 85 16093 8.15 134 15:44 17.01.2020
4166 Clouds -7 1041 68 16093 6.2 130 15:26 17.01.2020
4167 Clear -8 1042 73 16093 4.6 120 14:44 17.01.2020
4168 Clouds -8 1042 73 16093 2.1 190 14:26 17.01.2020
4169 Clouds -9 1041 78 16093 3.1 360 13:56 17.01.2020
4170 Clouds -9 1042 79 16093 6.16 100 13:37 17.01.2020
4171 Clouds -9 1042 67 16093 2.1 350 13:18 17.01.2020
4172 Clouds -9 1042 79 16093 3.1 130 12:42 17.01.2020
4173 Clouds -10 1042 66 16093 2.1 20 12:21 17.01.2020
4174 Clouds -10 1041 72 16093 5.73 97 11:38 17.01.2020
4175 Clouds -10 1042 62 16093 3.1 350 11:18 17.01.2020
4176 Clouds -10 1042 72 16093 1.5 360 10:43 17.01.2020
4177 Clouds -10 1043 61 16093 3.1 350 10:23 17.01.2020
4178 Clouds -10 1043 67 16093 3.36 33 09:58 17.01.2020
4179 Clouds -10 1043 67 16093 3.36 33 09:39 17.01.2020
4180 Clouds -10 1043 67 16093 3.36 33 09:39 17.01.2020
4181 Clouds -10 1043 61 16093 3.1 330 09:19 17.01.2020
4182 Clouds -10 1043 73 16093 3.36 33 08:43 17.01.2020
4183 Clouds -10 1043 61 16093 3.1 360 08:24 17.01.2020
4184 Clouds -10 1043 67 16093 4.12 348 07:54 17.01.2020
4185 Clouds -10 1043 61 16093 3.1 330 07:31 17.01.2020
4186 Clouds -10 1043 67 16093 4.12 348 06:58 17.01.2020
4187 Clouds -10 1043 67 16093 4.12 348 06:58 17.01.2020
4188 Clouds -10 1043 67 16093 4.12 348 06:40 17.01.2020
4189 Clouds -10 1042 67 16093 4.12 348 05:53 17.01.2020
4190 Clear -9 1042 56 16093 1.5 350 03:39 17.01.2020
4191 Clear -9 1042 51 16093 3.6 310 02:52 17.01.2020
4192 Clear -8 1041 57 16093 2.6 320 01:47 17.01.2020
4193 Clear -8 1041 57 16093 2.6 320 01:29 17.01.2020
4194 Clear -7 1041 55 0 8.78 331 00:49 17.01.2020
4195 Clouds -7 1039 38 16093 5.1 330 00:23 17.01.2020
4196 Rain -6 1039 38 16093 5.1 330 23:44 16.01.2020
4197 Rain -6 1039 38 16093 5.1 330 23:25 16.01.2020
4198 Rain -6 1039 45 16093 4.6 330 22:56 16.01.2020
4199 Clouds -5 1038 45 16093 4.1 300 22:38 16.01.2020
4200 Clouds -5 1038 45 16093 4.1 300 22:19 16.01.2020
4201 Clear -5 1038 45 16093 3.1 330 21:54 16.01.2020
4202 Clouds -5 1038 45 16093 4.6 310 21:36 16.01.2020
4203 Clouds -5 1038 45 16093 4.6 310 21:18 16.01.2020
4204 Clear -5 1037 49 16093 3.6 340 20:40 16.01.2020
4205 Clouds -6 1038 45 16093 6.2 290 20:21 16.01.2020
4206 Clear -6 1037 53 16093 4.1 330 19:58 16.01.2020
4207 Clear -6 1037 53 16093 4.1 330 19:40 16.01.2020
4208 Clouds -6 1037 53 16093 7.2 340 19:22 16.01.2020
4209 Clear -7 1038 57 16093 3.6 290 18:57 16.01.2020
4210 Clear -7 1038 57 16093 3.6 290 18:38 16.01.2020
4211 Clear -7 1038 57 16093 6.2 310 18:19 16.01.2020
4212 Clear -7 1038 62 16093 4.1 320 17:58 16.01.2020
4213 Clear -8 1037 62 16093 6.7 300 17:39 16.01.2020
4214 Clear -8 1037 62 16093 6.7 300 17:20 16.01.2020
4215 Clear -9 1037 67 16093 4.1 300 16:41 16.01.2020
4216 Clouds -9 1036 67 16093 6.2 310 16:23 16.01.2020
4217 Clouds -10 1036 78 16093 3.6 290 15:58 16.01.2020
4218 Clouds -10 1036 78 16093 3.6 290 15:39 16.01.2020
4219 Clouds -10 1036 78 16093 3.6 290 15:39 16.01.2020
4220 Clouds -10 1035 72 14484 6.7 290 15:20 16.01.2020
4221 Clouds -10 1035 79 16093 4.1 290 14:44 16.01.2020
4222 Clouds -9 1035 67 16093 8.2 300 14:24 16.01.2020
4223 Clouds -9 1035 67 16093 8.2 300 14:24 16.01.2020
4224 Clouds -8 1034 79 16093 5.7 280 13:56 16.01.2020
4225 Clouds -8 1034 79 16093 5.7 280 13:37 16.01.2020
4226 Clouds -8 1033 73 12874 6.7 290 13:19 16.01.2020
4227 Clouds -5 1033 73 16093 6.2 280 12:42 16.01.2020
4228 Clouds -5 1032 73 12874 6.2 300 12:22 16.01.2020
4229 Clouds -4 1031 73 16093 6.7 280 11:43 16.01.2020
4230 Clouds -4 1030 68 12874 8.2 310 11:24 16.01.2020
4231 Clouds -4 1030 79 16093 3.6 290 10:59 16.01.2020
4232 Clouds -4 1030 74 16093 4.6 290 10:38 16.01.2020
4233 Clouds -3 1029 68 16093 7.7 300 10:20 16.01.2020
4234 Clouds -2 1029 79 16093 4.6 280 09:56 16.01.2020
4235 Clouds -2 1028 68 16093 6.7 320 09:37 16.01.2020
4236 Clouds -2 1028 68 16093 6.7 320 09:18 16.01.2020
4237 Clouds -2 1028 80 16093 6.7 280 08:44 16.01.2020
4238 Clouds -2 1027 74 16093 7.7 290 08:23 16.01.2020
4239 Clouds -2 1027 74 16093 7.2 310 07:43 16.01.2020
4240 Clouds -2 1027 80 16093 7.7 290 07:25 16.01.2020
4241 Clouds -2 1026 78 16093 6.7 280 06:56 16.01.2020
4242 Clouds -1 1026 80 16093 3.6 300 06:37 16.01.2020
4243 Clouds -1 1025 86 16093 5.1 300 05:56 16.01.2020
4244 Clouds -1 1025 86 16093 5.1 300 05:56 16.01.2020
4245 Clouds 0 1024 80 12874 7.2 310 05:31 16.01.2020
4246 Mist 0 1024 100 8047 10.78 303 04:37 16.01.2020
4247 Mist 0 1024 100 8047 10.78 303 04:37 16.01.2020
4248 Mist 1 1022 93 6437 6.7 290 03:28 16.01.2020
4249 Mist 1 1021 93 8047 6.2 300 02:36 16.01.2020
4250 Mist 2 1020 100 8047 3.6 300 00:48 16.01.2020
4251 Clouds 2 1019 93 11265 5.1 300 00:24 16.01.2020
4252 Mist 2 1017 100 4828 3.6 290 23:48 15.01.2020
4253 Mist 2 1017 93 2816 3.6 300 23:23 15.01.2020
4254 Mist 2 1017 93 3219 3.6 300 22:57 15.01.2020
4255 Mist 2 1016 93 2012 4.1 300 22:39 15.01.2020
4256 Mist 2 1016 93 2012 4.1 300 22:19 15.01.2020
4257 Mist 2 1016 93 4023 2.6 330 21:57 15.01.2020
4258 Mist 2 1015 93 1609 2.1 340 21:37 15.01.2020
4259 Mist 2 1015 93 1609 2.1 340 21:19 15.01.2020
4260 Rain 2 1016 93 3219 2.6 340 20:57 15.01.2020
4261 Drizzle 2 1015 93 1609 1.5 320 20:39 15.01.2020
4262 Drizzle 2 1015 93 1609 1.5 320 20:39 15.01.2020
4263 Drizzle 2 1015 93 1207 1.91 88 20:20 15.01.2020
4264 Drizzle 2 1016 100 1207 2.02 108 19:55 15.01.2020
4265 Drizzle 2 1016 100 1609 2.02 108 19:37 15.01.2020
4266 Drizzle 2 1016 93 1207 1.5 100 19:18 15.01.2020
4267 Mist 1 1016 100 1207 1.5 60 18:56 15.01.2020
4268 Mist 1 1017 100 3219 2.02 108 18:37 15.01.2020
4269 Mist 1 1017 93 4023 3.6 70 18:19 15.01.2020
4270 Mist 1 1017 93 4023 3.6 70 18:19 15.01.2020
4271 Mist 1 1017 93 4023 3.6 70 18:19 15.01.2020
4272 Drizzle 1 1016 100 2816 3.1 70 17:55 15.01.2020
4273 Drizzle 1 1017 100 2414 2.02 108 17:37 15.01.2020
4274 Rain 1 1017 93 2816 3.6 60 17:18 15.01.2020
4275 Mist 1 1017 84 2012 5.45 110 16:40 15.01.2020
4276 Mist 1 1018 84 2816 4.6 80 16:21 15.01.2020
4277 Mist 1 1018 86 6437 3.1 70 15:57 15.01.2020
4278 Fog 0 1018 84 402 5.45 110 15:39 15.01.2020
4279 Mist 0 1018 86 2816 4.6 100 15:18 15.01.2020
4280 Mist 0 1019 86 4828 5.1 90 14:43 15.01.2020
4281 Mist 0 1019 86 4828 5.1 90 14:20 15.01.2020
4282 Fog 0 1019 83 805 4.88 114 13:46 15.01.2020
4283 Mist -1 1020 86 4828 3.6 90 13:27 15.01.2020
4284 Snow -1 1020 83 805 5.06 113 12:59 15.01.2020
4285 Snow -1 1020 83 805 5.06 113 12:40 15.01.2020
4286 Mist -1 1020 86 8047 3.6 80 12:20 15.01.2020
4287 Mist -2 1020 92 8047 5.06 113 11:57 15.01.2020
4288 Snow -2 1020 100 805 5.06 113 11:37 15.01.2020
4289 Mist -2 1020 92 8047 1.5 150 11:19 15.01.2020
4290 Mist -3 1020 86 9656 1.5 110 10:43 15.01.2020
4291 Clear -3 1021 86 11265 2.1 140 10:25 15.01.2020
4292 Mist -3 1021 100 4828 3.77 65 09:45 15.01.2020
4293 Clear -3 1021 92 12874 2.1 150 09:26 15.01.2020
4294 Mist -3 1022 100 3219 3.77 65 08:58 15.01.2020
4295 Mist -3 1022 100 3219 3.77 65 08:39 15.01.2020
4296 Clear -3 1020 92 12874 3.1 30 08:21 15.01.2020
4297 Mist -3 1021 100 6437 3.8 352 07:51 15.01.2020
4298 Clear -3 1021 86 12874 2.6 40 07:31 15.01.2020
4299 Mist -2 1022 100 4828 1.5 360 06:46 15.01.2020
4300 Clear -2 1022 92 14484 2.1 330 06:20 15.01.2020
4301 Mist -2 1022 100 8047 3 285 04:42 15.01.2020
4302 Clouds 0 1022 80 14484 2.6 290 02:38 15.01.2020
4303 Clouds 1 1021 86 16093 3.1 270 01:28 15.01.2020
4304 Clouds 2 1021 80 16093 3.1 250 00:46 15.01.2020
4305 Clouds 2 1021 84 16093 4.1 250 00:27 15.01.2020
4306 Clear 3 1021 75 16093 5.51 284 23:56 14.01.2020
4307 Clear 3 1021 75 16093 5.51 284 23:38 14.01.2020
4308 Clouds 3 1020 83 16093 6.2 260 23:19 14.01.2020
4309 Clouds 4 1020 74 16093 6.7 260 22:41 14.01.2020
4310 Clouds 4 1019 70 16093 6.2 250 22:19 14.01.2020
4311 Clouds 4 1019 75 16093 7.2 240 21:58 14.01.2020
4312 Clouds 4 1019 70 16093 6.2 250 21:40 14.01.2020
4313 Clouds 4 1019 70 16093 6.2 250 21:21 14.01.2020
4314 Clouds 4 1019 80 16093 5.7 240 20:59 14.01.2020
4315 Clouds 4 1019 80 16093 5.7 240 20:40 14.01.2020
4316 Clouds 4 1019 86 14484 7.7 240 20:20 14.01.2020
4317 Clouds 4 1019 86 14484 7.7 240 19:56 14.01.2020
4318 Clouds 4 1019 86 14484 7.2 250 19:37 14.01.2020
4319 Clouds 4 1019 86 14484 7.2 250 19:18 14.01.2020
4320 Clouds 3 1019 86 14484 6.2 240 18:55 14.01.2020
4321 Clouds 3 1020 86 16093 6.2 250 18:37 14.01.2020
4322 Mist 3 1020 93 8047 5.1 220 18:18 14.01.2020
4323 Mist 3 1020 93 8047 5.1 220 17:38 14.01.2020
4324 Mist 2 1019 93 8047 4.1 230 17:19 14.01.2020
4325 Mist 2 1019 86 6437 4.1 230 16:55 14.01.2020
4326 Mist 2 1020 93 6437 7.68 243 16:37 14.01.2020
4327 Mist 2 1018 93 4828 4.1 210 16:19 14.01.2020
4328 Mist 2 1019 100 4023 7.68 243 15:42 14.01.2020
4329 Mist 1 1018 93 4023 3.6 220 15:19 14.01.2020
4330 Rain 1 1018 93 4023 3.1 230 14:47 14.01.2020
4331 Rain 1 1018 92 8047 3.6 230 14:23 14.01.2020
4332 Mist 1 1018 100 8047 5.03 219 13:59 14.01.2020
4333 Mist 1 1018 100 8047 5.03 219 13:40 14.01.2020
4334 Mist 1 1017 89 8047 3.1 210 13:19 14.01.2020
4335 Clouds 1 1018 89 11265 5.49 216 12:42 14.01.2020
4336 Mist 1 1017 89 9656 2.6 190 12:23 14.01.2020
4337 Rain 1 1018 89 11265 2.1 200 11:57 14.01.2020
4338 Rain 1 1018 89 11265 2.1 200 11:39 14.01.2020
4339 Clouds 1 1019 87 16093 2.6 150 11:20 14.01.2020
4340 Rain 1 1019 87 16093 2.1 160 10:56 14.01.2020
4341 Rain 1 1019 87 16093 2.1 160 10:37 14.01.2020
4342 Rain 1 1018 80 12874 5.1 150 10:19 14.01.2020
4343 Rain 1 1020 87 16093 2.1 140 09:42 14.01.2020
4344 Clouds 1 1019 86 12874 5.1 150 09:23 14.01.2020
4345 Clouds 1 1020 87 16093 7.04 178 08:58 14.01.2020
4346 Clouds 1 1020 87 16093 7.04 178 08:39 14.01.2020
4347 Clouds 1 1020 86 14484 3.1 140 08:20 14.01.2020
4348 Rain 1 1021 84 16093 7.84 160 07:40 14.01.2020
4349 Rain 1 1020 86 16093 3.1 130 07:18 14.01.2020
4350 Clouds 1 1021 84 16093 7.84 160 06:42 14.01.2020
4351 Clouds 1 1023 86 16093 7.84 160 05:56 14.01.2020
4352 Clouds 1 1025 80 14484 2.6 0 04:24 14.01.2020
4353 Clouds 0 1025 80 14484 4.1 170 03:45 14.01.2020
4354 Clouds 0 1026 74 16093 3.1 0 02:32 14.01.2020
4355 Clouds 0 1026 86 16093 4.18 154 01:19 14.01.2020
4356 Clouds 0 1027 86 16093 4.18 154 00:47 14.01.2020
4357 Clouds 0 1027 74 16093 3.1 200 00:21 14.01.2020
4358 Clouds 0 1027 86 16093 4.18 154 23:42 13.01.2020
4359 Clouds 0 1026 74 16093 4.1 180 23:18 13.01.2020
4360 Clouds 0 1027 73 16093 3.39 203 22:56 13.01.2020
4361 Clouds 0 1026 73 16093 2.1 200 22:37 13.01.2020
4362 Clouds 0 1027 74 16093 2.1 200 22:19 13.01.2020
4363 Clouds 0 1027 73 16093 3.39 203 21:54 13.01.2020
4364 Clouds 0 1027 73 16093 3.39 203 21:36 13.01.2020
4365 Clouds 0 1026 69 16093 3.1 230 21:18 13.01.2020
4366 Clouds 0 1027 73 16093 3.39 203 20:42 13.01.2020
4367 Rain 0 1027 75 16093 3.1 210 20:23 13.01.2020
4368 Rain 0 1027 79 16093 3.43 229 19:59 13.01.2020
4369 Rain 0 1027 79 16093 3.43 229 19:41 13.01.2020
4370 Clouds 0 1027 69 16093 2.6 260 19:20 13.01.2020
4371 Clouds 0 1028 79 16093 3.43 229 18:58 13.01.2020
4372 Clouds 0 1028 79 16093 3.43 229 18:38 13.01.2020
4373 Clouds 0 1027 79 16093 3.6 280 18:19 13.01.2020
4374 Clouds 0 1028 79 16093 3.43 229 17:57 13.01.2020
4375 Clouds 0 1028 79 16093 3.43 229 17:38 13.01.2020
4376 Clouds 0 1027 83 16093 4.1 270 17:20 13.01.2020
4377 Clouds -1 1027 83 16093 4.6 260 16:41 13.01.2020
4378 Clouds -1 1026 80 16093 2.6 270 16:22 13.01.2020
4379 Clouds -1 1027 68 0 5.22 264 15:58 13.01.2020
4380 Clouds -1 1027 69 0 5.22 264 15:40 13.01.2020
4381 Clouds -1 1026 87 0 1.79 271 15:20 13.01.2020
4382 Clouds -1 1026 70 0 5.22 264 14:43 13.01.2020
4383 Clouds -1 1025 70 0 5.22 264 14:24 13.01.2020
4384 Clouds -1 1025 71 0 7.49 249 13:59 13.01.2020
4385 Clouds -1 1025 72 0 7.49 249 13:40 13.01.2020
4386 Clouds -1 1024 73 0 6.73 237 13:21 13.01.2020
4387 Clouds -1 1023 86 16093 6.2 240 12:56 13.01.2020
4388 Clouds 0 1023 86 16093 6.2 240 12:38 13.01.2020
4389 Clouds 0 1023 86 16093 6.2 240 12:19 13.01.2020
4390 Clouds 0 1023 86 16093 6.2 240 12:19 13.01.2020
4391 Clouds 0 1023 86 16093 6.2 240 12:19 13.01.2020
4392 Clouds 0 1023 86 16093 6.2 240 11:39 13.01.2020
4393 Clouds 0 1022 86 12874 4.6 230 11:20 13.01.2020
4394 Clouds 0 1022 82 16093 7.8 221 10:57 13.01.2020
4395 Clouds 0 1022 82 16093 7.8 221 10:39 13.01.2020
4396 Mist 0 1021 92 6437 4.1 220 10:20 13.01.2020
4397 Snow 0 1022 82 6437 4.6 220 09:58 13.01.2020
4398 Clouds 0 1021 82 8047 3.1 230 09:38 13.01.2020
4399 Snow 0 1022 86 3219 3.6 200 09:19 13.01.2020
4400 Snow 0 1022 86 3219 2.6 190 08:39 13.01.2020
4401 Snow 0 1022 80 4828 2.1 180 08:20 13.01.2020
4402 Snow 0 1021 88 6437 2.6 190 07:47 13.01.2020
4403 Clouds 0 1021 92 12874 2.6 180 07:27 13.01.2020
4404 Clouds 0 1021 92 12874 2.6 180 07:27 13.01.2020
4405 Mist -1 1022 88 9656 2.1 180 06:43 13.01.2020
4406 Mist -1 1022 92 8047 2.6 170 06:21 13.01.2020
4407 Mist -1 1022 95 8047 4.1 160 05:23 13.01.2020
4408 Clouds -1 1023 95 14484 5.1 160 03:55 13.01.2020
4409 Mist -1 1024 92 8047 3.1 170 03:24 13.01.2020
4410 Clouds -1 1024 95 12874 3.1 160 02:45 13.01.2020
4411 Clouds -1 1024 95 14484 5.7 140 02:26 13.01.2020
4412 Clouds -1 1023 86 14484 4.6 130 01:20 13.01.2020
4413 Clouds -1 1024 86 16093 2.6 110 00:41 13.01.2020
4414 Clouds -1 1025 80 16093 2.1 150 00:22 13.01.2020
4415 Clouds -1 1025 86 11265 2.1 100 23:42 12.01.2020
4416 Clouds -1 1025 86 16093 2.1 110 23:24 12.01.2020
4417 Clouds -1 1025 80 16093 1.78 96 22:58 12.01.2020
4418 Clouds -1 1025 80 16093 1.78 96 22:39 12.01.2020
4419 Clouds -1 1025 86 16093 2.6 80 22:21 12.01.2020
4420 Clouds -1 1025 80 16093 1.78 96 21:56 12.01.2020
4421 -273 0 0 0 0 0 21:38 12.01.2020
4422 Clouds -1 1025 80 16093 1.78 96 21:38 12.01.2020
4423 Clouds -1 1026 74 16093 1.5 110 21:19 12.01.2020
4424 Clouds -1 1026 80 16093 1.78 96 20:56 12.01.2020
4425 Clouds -1 1026 80 16093 1.78 96 20:38 12.01.2020
4426 Clouds -2 1026 80 12874 2.6 120 20:20 12.01.2020
4427 Clouds -2 1026 92 16093 2.01 332 19:56 12.01.2020
4428 Clouds -2 1026 92 16093 2.01 332 19:37 12.01.2020
4429 Clouds -2 1026 79 16093 2.1 100 19:18 12.01.2020
4430 Clouds -2 1026 79 16093 1.5 110 18:57 12.01.2020
4431 Clouds -2 1027 80 16093 2.01 332 18:39 12.01.2020
4432 Clouds -3 1027 74 16093 2.01 332 18:21 12.01.2020
4433 Clouds -3 1027 79 16093 2.01 332 17:43 12.01.2020
4434 Clouds -3 1027 79 16093 2.01 332 17:23 12.01.2020
4435 Clouds -3 1027 79 16093 4.2 336 17:23 12.01.2020
4436 Clouds -3 1027 86 16093 4.2 336 16:59 12.01.2020
4437 Clouds -4 1027 86 16093 4.2 336 16:39 12.01.2020
4438 Clouds -4 1026 79 16093 4.2 336 16:21 12.01.2020
4439 Clouds -4 1026 79 16093 4.2 336 15:58 12.01.2020
4440 Clouds -4 1026 73 16093 4.2 336 15:39 12.01.2020
4441 Clouds -4 1026 73 16093 2.1 300 15:21 12.01.2020
4442 Clouds -4 1026 86 16093 4.2 336 14:43 12.01.2020
4443 Clouds -4 1026 86 16093 4.2 336 14:43 12.01.2020
4444 Clouds -4 1025 73 16093 2.1 320 14:24 12.01.2020
4445 Clouds -4 1025 86 16093 5.98 327 13:57 12.01.2020
4446 Clouds -4 1025 86 16093 5.98 327 13:57 12.01.2020
4447 Clouds -4 1025 86 16093 5.98 327 13:39 12.01.2020
4448 Clouds -4 1024 79 16093 2.6 310 13:20 12.01.2020
4449 Clouds -4 1024 79 16093 2.6 310 13:20 12.01.2020
4450 Clouds -4 1024 92 16093 5.66 314 12:57 12.01.2020
4451 Clouds -4 1023 73 16093 4.1 330 12:37 12.01.2020
4452 Clouds -4 1023 73 16093 4.1 330 12:19 12.01.2020
4453 Clouds -4 1022 86 16093 5.66 314 11:42 12.01.2020
4454 -273 0 0 0 0 0 11:22 12.01.2020
4455 Clouds -5 1021 86 16093 2.1 330 10:57 12.01.2020
4456 Clouds -5 1021 86 16093 2.1 330 10:39 12.01.2020
4457 Clouds -5 1021 86 16093 2.1 330 10:39 12.01.2020
4458 Clouds -5 1021 79 16093 5.1 320 10:20 12.01.2020
4459 Clouds -5 1019 79 16093 4.1 340 09:42 12.01.2020
4460 Clouds -5 1019 79 16093 4.1 340 09:23 12.01.2020
4461 Clouds -5 1019 92 16093 4.1 310 08:48 12.01.2020
4462 Clouds -4 1018 79 16093 4.6 320 08:24 12.01.2020
4463 Snow -4 1017 92 2816 8.07 2 07:56 12.01.2020
4464 Snow -4 1016 92 8047 6.2 320 07:37 12.01.2020
4465 Snow -4 1016 92 8047 6.2 320 07:19 12.01.2020
4466 Snow -4 1016 86 1609 6.2 320 06:40 12.01.2020
4467 Rain -4 1015 85 16093 6.2 340 05:58 12.01.2020
4468 Snow -3 1015 79 3219 6.2 330 05:18 12.01.2020
4469 Rain -2 1012 86 4023 9.3 360 03:44 12.01.2020
4470 Rain -2 1011 92 4023 9.3 20 02:52 12.01.2020
4471 Rain -2 1011 92 1207 11.8 10 02:27 12.01.2020
4472 Rain -2 1012 92 3219 6.2 20 01:35 12.01.2020
4473 Rain -1 1013 86 2012 7.2 10 00:49 12.01.2020
4474 Rain -1 1011 94 1609 7.2 10 00:22 12.01.2020
4475 Rain -1 1011 94 1609 7.2 10 00:22 12.01.2020
4476 Rain -1 1013 86 2414 4.6 360 23:59 11.01.2020
4477 Rain -1 1013 86 2414 4.6 360 23:41 11.01.2020
4478 Rain -1 1009 92 2012 8.7 30 23:18 11.01.2020
4479 Rain -1 1010 92 1609 12.9 20 22:56 11.01.2020
4480 Rain 0 1008 100 16093 9.8 40 22:38 11.01.2020
4481 Rain 0 1009 92 3219 9.8 30 22:19 11.01.2020
4482 Rain 0 1009 92 4023 9.3 30 21:44 11.01.2020
4483 Rain 0 1010 92 4828 10.8 40 21:19 11.01.2020
4484 Rain 0 1010 92 4828 7.7 30 20:57 11.01.2020
4485 Rain 0 1010 92 4828 7.7 30 20:39 11.01.2020
4486 Rain 0 1010 89 3219 8.7 20 20:19 11.01.2020
4487 Rain 0 1011 100 1609 14.4 20 19:57 11.01.2020
4488 Rain 0 1010 100 1609 8.7 20 19:38 11.01.2020
4489 Rain 0 1010 100 1609 8.7 20 19:38 11.01.2020
4490 Rain 0 1009 100 2414 6.7 20 19:20 11.01.2020
4491 Rain 0 1011 89 1207 10.8 20 18:55 11.01.2020
4492 Rain 0 1009 100 2414 8.7 30 18:37 11.01.2020
4493 Rain 0 1012 89 4023 9.3 30 18:18 11.01.2020
4494 Rain 0 1012 89 4023 9.3 30 17:57 11.01.2020
4495 Rain 0 1012 89 4023 9.3 30 17:39 11.01.2020
4496 Rain 0 1013 80 14484 10.3 20 17:18 11.01.2020
4497 Rain 0 1012 80 1609 9.8 30 16:44 11.01.2020
4498 Rain 0 1011 86 2816 11.3 20 16:25 11.01.2020
4499 Rain 0 1011 86 4828 13.9 20 15:56 11.01.2020
4500 Rain 0 1011 86 4828 13.9 20 15:38 11.01.2020
4501 Rain 0 1011 86 2414 11.8 10 15:20 11.01.2020
4502 Rain 0 1011 91 4828 10.8 10 14:46 11.01.2020
4503 Rain 0 1011 91 6437 12.9 10 14:25 11.01.2020
4504 Rain 1 1012 80 8047 11.3 360 13:57 11.01.2020
4505 Drizzle 1 1009 100 8047 6.7 360 13:38 11.01.2020
4506 Drizzle 1 1009 90 6437 14.9 10 13:19 11.01.2020
4507 Rain 2 1008 100 16093 8.7 10 12:55 11.01.2020
4508 Rain 2 1008 93 11265 9.3 20 12:36 11.01.2020
4509 Rain 2 1008 93 11265 9.3 20 12:18 11.01.2020
4510 Rain 2 1008 100 4828 6.2 10 11:42 11.01.2020
4511 Rain 3 1009 93 8047 7.7 10 11:23 11.01.2020
4512 Rain 3 1010 100 4828 8.2 350 10:44 11.01.2020
4513 Rain 3 1010 93 6437 7.7 10 10:24 11.01.2020
4514 Rain 3 1010 93 6437 7.7 10 10:24 11.01.2020
4515 Rain 2 1010 100 4828 8.7 340 09:43 11.01.2020
4516 Rain 2 1011 86 8047 8.2 10 09:21 11.01.2020
4517 Rain 2 1009 100 3219 7.7 340 08:43 11.01.2020
4518 Rain 2 1010 93 4828 8.2 360 08:24 11.01.2020
4519 Rain 2 1010 100 4023 7.7 340 07:59 11.01.2020
4520 Rain 2 1010 100 4023 7.7 340 07:41 11.01.2020
4521 Rain 3 1010 93 4828 6.7 10 07:22 11.01.2020
4522 Rain 3 1010 100 2414 4.6 330 06:42 11.01.2020
4523 Rain 3 1013 93 4023 6.7 10 05:22 11.01.2020
4524 Rain 3 1012 100 2816 3.1 360 04:38 11.01.2020
4525 Rain 3 1013 93 3219 4.6 10 04:20 11.01.2020
4526 Drizzle 3 1014 93 2414 7.2 30 02:46 11.01.2020
4527 Drizzle 3 1016 93 4023 6.2 40 01:45 11.01.2020
4528 Rain 3 1017 93 1207 5.1 40 01:22 11.01.2020
4529 Drizzle 3 1017 100 2414 1.5 20 00:51 11.01.2020
4530 Mist 3 1017 93 1609 4.6 40 00:21 11.01.2020
4531 Rain 3 1017 100 1207 1.5 20 23:56 10.01.2020
4532 Rain 4 1017 100 1207 1.5 20 23:38 10.01.2020
4533 Drizzle 4 1018 86 2414 3.6 30 23:20 10.01.2020
4534 Rain 4 1017 100 402 2.6 30 22:41 10.01.2020
4535 Mist 4 1017 93 8047 3.6 30 22:21 10.01.2020
4536 Rain 4 1017 100 402 5.76 43 21:58 10.01.2020
4537 Rain 4 1017 100 402 5.76 43 21:39 10.01.2020
4538 Mist 4 1017 93 4828 5.1 50 21:20 10.01.2020
4539 Mist 5 1018 100 3219 5.1 30 20:55 10.01.2020
4540 Rain 5 1018 100 805 4.6 10 20:37 10.01.2020
4541 Rain 5 1019 93 1207 5.1 40 20:19 10.01.2020
4542 Drizzle 6 1019 93 2816 5.7 20 19:39 10.01.2020
4543 Rain 7 1020 86 3219 4.1 30 19:20 10.01.2020
4544 Drizzle 7 1019 100 805 4.6 20 18:54 10.01.2020
4545 Clouds 7 1019 100 16093 6.77 18 18:36 10.01.2020
4546 Rain 7 1020 93 805 1.5 10 18:18 10.01.2020
4547 Rain 7 1020 93 805 1.5 10 18:18 10.01.2020
4548 Rain 7 1020 100 16093 6.77 18 17:55 10.01.2020
4549 Rain 7 1020 100 2816 6.77 18 17:37 10.01.2020
4550 Rain 7 1020 100 2816 3.41 3 17:18 10.01.2020
4551 Mist 8 1020 87 3219 2.1 360 16:41 10.01.2020
4552 Mist 8 1020 87 3219 2.1 360 16:21 10.01.2020
4553 Rain 8 1019 93 3219 1.5 190 16:21 10.01.2020
4554 Drizzle 8 1018 93 1207 3.41 3 15:56 10.01.2020
4555 Rain 8 1019 100 11265 3.41 3 15:37 10.01.2020
4556 Rain 8 1019 100 3219 2.6 200 15:19 10.01.2020
4557 Rain 8 1019 100 3219 2.6 200 15:19 10.01.2020
4558 Mist 8 1018 93 4023 3.1 210 14:57 10.01.2020
4559 Rain 8 1019 100 6437 3.41 3 14:38 10.01.2020
4560 Drizzle 8 1018 93 2414 1.5 200 14:19 10.01.2020
4561 Rain 8 1018 100 16093 4.66 197 13:54 10.01.2020
4562 Rain 8 1018 100 16093 4.66 197 13:36 10.01.2020
4563 Rain 8 1018 100 4828 2.6 190 13:18 10.01.2020
4564 Drizzle 9 1017 100 3219 3.1 200 12:54 10.01.2020
4565 Rain 9 1018 100 16093 4.17 203 12:36 10.01.2020
4566 Mist 9 1017 100 9656 3.6 190 12:18 10.01.2020
4567 Clouds 9 1017 93 16093 4.6 200 11:42 10.01.2020
4568 Clouds 9 1017 93 16093 4.6 200 11:42 10.01.2020
4569 Drizzle 9 1016 93 4828 4.1 200 11:21 10.01.2020
4570 Clouds 9 1018 87 16093 4.1 190 10:59 10.01.2020
4571 Clouds 9 1018 87 16093 4.1 190 10:38 10.01.2020
4572 Drizzle 9 1017 93 8047 3.6 200 10:19 10.01.2020
4573 Drizzle 9 1017 87 9656 4.1 210 09:46 10.01.2020
4574 Clouds 9 1016 87 16093 5.7 210 09:26 10.01.2020
4575 Clouds 9 1017 76 16093 3.1 200 08:58 10.01.2020
4576 Clouds 10 1017 76 16093 3.1 200 08:38 10.01.2020
4577 Clouds 10 1016 87 16093 6.7 200 08:20 10.01.2020
4578 Clouds 10 1017 81 16093 4.6 200 07:41 10.01.2020
4579 Clouds 10 1017 81 16093 4.6 200 07:41 10.01.2020
4580 Clouds 10 1015 81 16093 7.2 210 07:22 10.01.2020
4581 Clouds 9 1017 76 16093 5.1 190 06:42 10.01.2020
4582 Clouds 9 1015 76 16093 9.8 210 06:24 10.01.2020
4583 Clouds 9 1015 76 16093 9.3 210 05:33 10.01.2020
4584 Clouds 9 1014 76 16093 10.8 200 03:32 10.01.2020
4585 Clouds 9 1014 76 16093 9.3 200 02:54 10.01.2020
4586 Clouds 9 1013 76 16093 7.2 200 02:33 10.01.2020
4587 Clouds 10 1014 66 16093 9.3 200 01:34 10.01.2020
4588 Clouds 10 1015 70 16093 10.3 200 00:56 10.01.2020
4589 Clouds 10 1015 70 16093 10.3 200 00:38 10.01.2020
4590 Clouds 10 1014 61 16093 10.3 190 23:57 09.01.2020
4591 Clouds 10 1014 61 16093 10.3 190 23:37 09.01.2020
4592 Clouds 10 1012 57 16093 10.3 200 23:19 09.01.2020
4593 Clouds 10 1012 57 16093 10.3 200 23:19 09.01.2020
4594 Clouds 10 1014 57 16093 10.8 190 22:56 09.01.2020
4595 Clouds 9 1012 53 16093 10.3 200 22:37 09.01.2020
4596 Clouds 9 1012 53 16093 10.3 200 22:18 09.01.2020
4597 Clouds 9 1014 57 16093 13.4 200 21:55 09.01.2020
4598 Clouds 9 1013 57 16093 9.3 200 21:37 09.01.2020
4599 Clouds 9 1013 57 16093 9.3 200 21:18 09.01.2020
4600 Rain 8 1014 61 16093 9.3 200 20:55 09.01.2020
4601 Rain 8 1014 61 16093 9.3 200 20:37 09.01.2020
4602 Rain 7 1015 61 16093 8.2 190 20:18 09.01.2020
4603 Rain 7 1014 65 16093 8.7 190 20:18 09.01.2020
4604 Rain 6 1016 72 16093 9.3 190 19:39 09.01.2020
4605 Rain 6 1016 72 16093 9.3 190 19:21 09.01.2020
4606 Rain 6 1015 72 9656 10.3 190 18:57 09.01.2020
4607 Rain 6 1016 49 16093 10.8 180 18:39 09.01.2020
4608 Rain 6 1016 49 16093 10.8 180 18:21 09.01.2020
4609 Rain 5 1018 56 16093 9.3 170 17:42 09.01.2020
4610 Clouds 5 1018 55 16093 6.7 170 17:20 09.01.2020
4611 Clouds 4 1018 55 16093 6.7 170 16:59 09.01.2020
4612 Clouds 4 1018 55 16093 6.7 170 16:59 09.01.2020
4613 Clouds 4 1019 55 16093 6.7 160 16:41 09.01.2020
4614 Clouds 3 1019 55 16093 6.7 160 16:21 09.01.2020
4615 Clouds 2 1018 55 16093 6.7 170 15:43 09.01.2020
4616 Clouds 1 1020 59 16093 6.7 160 15:23 09.01.2020
4617 Clouds 0 1021 63 16093 5.7 150 14:59 09.01.2020
4618 Clear 0 1021 63 16093 5.7 150 14:41 09.01.2020
4619 Clear 0 1021 63 16093 5.7 150 14:19 09.01.2020
4620 Clouds 0 1020 62 16093 6.2 160 13:55 09.01.2020
4621 Clear -1 1021 68 16093 6.7 150 13:37 09.01.2020
4622 Clear -1 1021 68 16093 6.7 150 13:19 09.01.2020
4623 Clouds -2 1021 58 16093 6.2 150 12:56 09.01.2020
4624 Clouds -2 1021 58 16093 6.2 150 12:56 09.01.2020
4625 Clear -2 1022 68 16093 5.1 160 12:38 09.01.2020
4626 Clear -2 1022 68 16093 5.1 160 12:18 09.01.2020
4627 Clouds -3 1023 63 16093 5.7 140 11:42 09.01.2020
4628 Clouds -3 1023 63 16093 5.7 140 11:24 09.01.2020
4629 Clouds -3 1023 63 16093 6.2 140 10:58 09.01.2020
4630 Clear -4 1024 68 16093 5.7 140 10:39 09.01.2020
4631 Clear -4 1024 68 16093 5.7 140 10:21 09.01.2020
4632 Clear -4 1025 68 16093 6.2 130 09:46 09.01.2020
4633 Clear -4 1025 68 16093 6.2 130 09:25 09.01.2020
4634 Clouds -4 1025 58 16093 6.2 120 08:58 09.01.2020
4635 Clear -5 1026 67 16093 5.1 120 08:39 09.01.2020
4636 Clear -5 1026 67 16093 5.1 120 08:20 09.01.2020
4637 Clear -5 1027 62 16093 4.1 120 07:48 09.01.2020
4638 Clear -5 1027 73 16093 4.6 120 07:30 09.01.2020
4639 Clear -5 1028 62 16093 3.6 110 06:40 09.01.2020
4640 Clear -6 1028 73 16093 3.1 120 06:22 09.01.2020
4641 Clear -6 1028 62 16093 3.6 120 05:51 09.01.2020
4642 Clouds -6 1028 62 16093 4.6 110 05:20 09.01.2020
4643 Clear -6 1029 73 16093 4.1 110 04:39 09.01.2020
4644 Clear -6 1030 67 16093 3.6 100 03:27 09.01.2020
4645 Clear -7 1031 67 16093 2.6 100 02:46 09.01.2020
4646 Clear -6 1029 57 16093 4.1 110 01:42 09.01.2020
4647 Clouds -6 1030 57 16093 4.6 100 00:59 09.01.2020
4648 Clear -6 1031 67 16093 2.6 80 00:37 09.01.2020
4649 Clear -6 1031 67 16093 2.6 80 00:19 09.01.2020
4650 Clouds -5 1031 57 16093 3.1 80 23:39 08.01.2020
4651 Clouds -5 1030 53 16093 4.6 80 23:20 08.01.2020
4652 Clouds -5 1030 57 16093 3.1 70 22:41 08.01.2020
4653 Clouds -5 1030 57 16093 3.1 70 22:23 08.01.2020
4654 Clouds -5 1030 45 16093 3.1 100 21:59 08.01.2020
4655 Clear -5 1030 53 16093 2.63 34 21:40 08.01.2020
4656 Clear -5 1030 53 16093 2.63 34 21:22 08.01.2020
4657 Clouds -5 1030 38 16093 2.63 34 20:59 08.01.2020
4658 Clear -5 1030 45 16093 1.5 40 20:41 08.01.2020
4659 Clear -5 1030 45 16093 1.5 40 20:21 08.01.2020
4660 Clouds -6 1030 35 16093 1.5 0 19:58 08.01.2020
4661 Clear -6 1030 41 16093 1.5 60 19:38 08.01.2020
4662 Clear -6 1030 41 16093 1.5 60 19:19 08.01.2020
4663 Clouds -6 1030 41 16093 2.1 340 18:58 08.01.2020
4664 Clear -7 1030 44 16093 2.6 330 18:39 08.01.2020
4665 Clouds -7 1030 44 16093 3.1 340 18:19 08.01.2020
4666 Clouds -7 1030 44 16093 3.1 340 17:57 08.01.2020
4667 Clear -7 1030 44 16093 2.6 330 17:38 08.01.2020
4668 Clear -8 1030 44 16093 2.6 330 17:19 08.01.2020
4669 Clear -8 1030 44 16093 2.6 330 17:19 08.01.2020
4670 Clouds -8 1030 44 16093 5.1 350 16:56 08.01.2020
4671 Clear -8 1030 48 16093 3.1 320 16:38 08.01.2020
4672 Clear -9 1030 48 16093 3.1 320 16:18 08.01.2020
4673 Clear -9 1029 48 16093 3.1 320 15:44 08.01.2020
4674 Clear -9 1029 48 16093 3.1 320 15:44 08.01.2020
4675 Clear -9 1029 52 16093 5.1 330 15:21 08.01.2020
4676 Clouds -9 1028 48 16093 5.1 340 14:58 08.01.2020
4677 Clear -9 1027 52 16093 3.6 330 14:40 08.01.2020
4678 Clear -9 1027 52 16093 3.6 330 14:40 08.01.2020
4679 Clear -9 1027 52 16093 3.6 330 14:21 08.01.2020
4680 Clouds -9 1025 53 16093 5.1 350 13:41 08.01.2020
4681 Clouds -8 1025 53 16093 5.1 350 13:22 08.01.2020
4682 Clouds -8 1024 48 16093 3.1 320 12:55 08.01.2020
4683 Clear -7 1024 53 16093 4.6 310 12:36 08.01.2020
4684 Clear -7 1024 53 16093 4.6 310 12:18 08.01.2020
4685 Clear -7 1023 49 16093 5.1 300 11:47 08.01.2020
4686 Clear -6 1022 45 16093 7.7 300 11:19 08.01.2020
4687 Clouds -6 1022 49 16093 8.7 300 11:19 08.01.2020
4688 Clouds -6 1022 49 16093 8.7 300 10:58 08.01.2020
4689 Clear -5 1021 35 16093 7.7 290 10:40 08.01.2020
4690 Clear -5 1021 49 16093 5.7 280 10:19 08.01.2020
4691 Clear -4 1020 58 16093 6.2 280 09:42 08.01.2020
4692 Clear -4 1019 50 16093 6.2 290 09:20 08.01.2020
4693 Clear -3 1019 50 16093 6.2 290 08:58 08.01.2020
4694 Clear -3 1019 58 16093 6.7 280 08:39 08.01.2020
4695 Clear -3 1019 58 16093 6.7 280 08:20 08.01.2020
4696 Clear -2 1018 58 16093 6.2 280 07:51 08.01.2020
4697 Clear -2 1018 63 16093 4.6 270 07:33 08.01.2020
4698 Clear -2 1018 58 16093 5.7 280 06:58 08.01.2020
4699 Clear -2 1018 63 16093 6.2 270 06:40 08.01.2020
4700 Clear -1 1018 60 16093 5.1 270 05:54 08.01.2020
4701 Clear -1 1018 74 16093 4.1 280 05:25 08.01.2020
4702 Clouds 0 1018 74 16093 5.7 270 04:35 08.01.2020
4703 Clouds 1 1018 59 16093 6.2 260 02:46 08.01.2020
4704 Clouds 1 1017 64 16093 7.2 270 02:28 08.01.2020
4705 Clouds 1 1017 69 16093 6.2 270 01:52 08.01.2020
4706 Clouds 1 1017 69 16093 5.1 260 01:26 08.01.2020
4707 Clouds 2 1017 69 16093 3.6 260 00:42 08.01.2020
4708 Clouds 2 1017 69 16093 3.6 260 00:21 08.01.2020
4709 Clouds 2 1017 55 16093 5.1 270 23:44 07.01.2020
4710 Clouds 3 1017 59 16093 3.6 260 23:20 07.01.2020
4711 Clouds 3 1016 60 16093 7.7 270 22:41 07.01.2020
4712 Clouds 3 1016 60 16093 7.7 270 22:21 07.01.2020
4713 Clouds 4 1016 55 16093 6.7 260 21:58 07.01.2020
4714 Clear 4 1016 56 16093 8.2 280 21:40 07.01.2020
4715 Clouds 4 1015 60 16093 6.7 260 21:21 07.01.2020
4716 Clear 4 1015 80 16093 4.1 270 20:57 07.01.2020
4717 Clear 4 1015 56 16093 8.7 270 20:38 07.01.2020
4718 Clear 4 1015 56 16093 8.7 270 20:20 07.01.2020
4719 Clear 4 1015 56 16093 6.7 260 19:55 07.01.2020
4720 Clear 4 1015 56 16093 6.7 280 19:36 07.01.2020
4721 Clear 4 1015 56 16093 6.7 280 19:18 07.01.2020
4722 Clouds 4 1015 60 16093 7.2 270 19:18 07.01.2020
4723 Clouds 4 1015 60 16093 5.7 260 18:55 07.01.2020
4724 Clouds 4 1016 56 16093 5.7 260 18:36 07.01.2020
4725 Clouds 3 1016 56 16093 5.7 260 18:18 07.01.2020
4726 Clouds 2 1016 64 16093 4.1 260 17:40 07.01.2020
4727 Clouds 2 1016 64 16093 4.1 260 17:22 07.01.2020
4728 Clouds 1 1016 59 16093 3.6 260 16:57 07.01.2020
4729 Clouds 1 1016 58 16093 3.1 280 16:38 07.01.2020
4730 Snow 0 1016 59 16093 4.1 250 16:19 07.01.2020
4731 Snow 0 1016 59 16093 4.1 250 15:58 07.01.2020
4732 Clouds -1 1016 86 16093 1.5 210 15:40 07.01.2020
4733 Clouds -1 1016 86 16093 1.5 210 15:22 07.01.2020
4734 Clouds -1 1016 86 16093 1.5 210 15:22 07.01.2020
4735 Clouds -1 1015 58 16093 4.1 220 14:55 07.01.2020
4736 Clouds -1 1015 86 16093 2.6 230 14:37 07.01.2020
4737 Clouds -1 1015 86 16093 2.6 230 14:18 07.01.2020
4738 Clouds -2 1015 85 16093 1.5 190 13:39 07.01.2020
4739 Clouds -2 1015 85 16093 1.5 190 13:19 07.01.2020
4740 Clouds -2 1015 79 16093 6.46 242 12:41 07.01.2020
4741 Clouds -2 1015 79 16093 6.46 242 12:20 07.01.2020
4742 Clouds -2 1015 63 16093 3.1 220 11:57 07.01.2020
4743 Clear -2 1016 74 16093 6.46 242 11:38 07.01.2020
4744 Clear -3 1016 85 16093 1.5 210 11:20 07.01.2020
4745 Clouds -3 1016 74 16093 4.83 225 10:42 07.01.2020
4746 Clouds -3 1016 79 16093 2.1 210 10:24 07.01.2020
4747 Clouds -3 1016 68 16093 2.1 230 09:58 07.01.2020
4748 Clear -3 1016 68 16093 4.83 225 09:38 07.01.2020
4749 Clouds -2 1016 79 16093 1.5 190 09:20 07.01.2020
4750 Clear -2 1017 52 16093 4.83 225 08:43 07.01.2020
4751 Clear -2 1017 79 16093 1.5 190 08:25 07.01.2020
4752 Clear -2 1017 59 16093 1.5 210 07:54 07.01.2020
4753 Clear -2 1017 74 16093 1.5 190 07:28 07.01.2020
4754 Clear -2 1017 74 16093 1.5 190 07:28 07.01.2020
4755 Clouds -1 1017 59 16093 3.1 230 06:53 07.01.2020
4756 Clear -1 1018 74 16093 5.11 242 06:34 07.01.2020
4757 Clouds -1 1018 59 16093 5.11 242 05:55 07.01.2020
4758 Clear 0 1019 74 16093 2.1 230 04:39 07.01.2020
4759 Clouds 1 1020 59 16093 2.1 240 03:27 07.01.2020
4760 Clouds 1 1020 64 16093 2.1 240 02:22 07.01.2020
4761 Clouds 1 1020 47 16093 3.6 240 01:52 07.01.2020
4762 Clouds 2 1020 64 16093 2.6 230 01:30 07.01.2020
4763 Clouds 2 1021 59 16093 3.1 230 00:37 07.01.2020
4764 Clouds 2 1021 59 16093 3.1 230 00:37 07.01.2020
4765 Clouds 2 1021 59 16093 3.1 230 00:18 07.01.2020
4766 Clouds 3 1020 51 16093 2.1 230 23:40 06.01.2020
4767 Clouds 3 1020 51 16093 2.1 230 23:21 06.01.2020
4768 Clouds 4 1020 44 16093 4.6 210 22:58 06.01.2020
4769 Clear 4 1020 55 16093 3.6 220 22:39 06.01.2020
4770 Clear 4 1020 55 16093 3.6 220 22:21 06.01.2020
4771 Clouds 5 1020 41 16093 5.1 230 21:56 06.01.2020
4772 Clear 5 1020 41 16093 4.6 260 21:38 06.01.2020
4773 Clear 5 1020 41 16093 4.6 260 21:19 06.01.2020
4774 Clouds 5 1020 41 16093 5.7 250 20:56 06.01.2020
4775 Clear 5 1020 44 16093 4.6 240 20:37 06.01.2020
4776 Clear 5 1020 44 16093 4.6 240 20:19 06.01.2020
4777 Clouds 4 1020 41 16093 6.2 250 19:55 06.01.2020
4778 Clear 4 1021 48 16093 5.7 260 19:37 06.01.2020
4779 Clear 4 1021 48 16093 5.7 260 19:18 06.01.2020
4780 Clear 3 1020 55 16093 2.6 250 18:45 06.01.2020
4781 Clear 2 1022 59 16093 4.1 230 18:21 06.01.2020
4782 Clear 1 1023 64 16093 4.6 270 17:40 06.01.2020
4783 Clear 1 1023 64 16093 4.6 270 17:40 06.01.2020
4784 Clear 0 1023 64 16093 4.6 270 17:20 06.01.2020
4785 Clouds -1 1022 68 16093 4.6 240 16:59 06.01.2020
4786 Clear -1 1023 74 16093 3.6 260 16:41 06.01.2020
4787 Clear -1 1023 74 16093 3.6 260 16:23 06.01.2020
4788 Clouds -2 1022 68 16093 4.1 250 15:59 06.01.2020
4789 Clear -3 1022 86 16093 3.1 250 15:37 06.01.2020
4790 Clear -3 1022 86 16093 3.1 250 15:18 06.01.2020
4791 Clouds -3 1021 73 16093 3.1 230 15:18 06.01.2020
4792 Clear -3 1021 85 16093 2.6 250 14:42 06.01.2020
4793 Clear -3 1021 85 16093 2.6 250 14:22 06.01.2020
4794 Clear -3 1021 85 16093 2.6 250 14:22 06.01.2020
4795 Clouds -3 1020 73 16093 2.6 270 13:59 06.01.2020
4796 Clear -3 1021 86 16093 3.1 280 13:39 06.01.2020
4797 Clear -3 1021 86 16093 3.1 280 13:21 06.01.2020
4798 Clear -3 1021 86 16093 2.1 260 12:56 06.01.2020
4799 Clear -3 1021 79 16093 2.1 250 12:37 06.01.2020
4800 Clear -3 1021 79 16093 2.1 250 12:19 06.01.2020
4801 Clear -3 1021 79 16093 2.1 250 12:19 06.01.2020
4802 Clear -2 1020 79 16093 1.5 270 11:43 06.01.2020
4803 Clear -2 1020 79 16093 1.5 270 11:43 06.01.2020
4804 Clear -2 1021 86 16093 3.6 260 11:24 06.01.2020
4805 Clouds -2 1020 74 16093 3.1 270 10:59 06.01.2020
4806 Clear -2 1020 79 16093 3.6 260 10:41 06.01.2020
4807 Clear -2 1020 79 16093 3.6 260 10:21 06.01.2020
4808 Clear -1 1020 70 16093 3.6 270 09:42 06.01.2020
4809 Clear -1 1020 74 16093 3.1 290 09:23 06.01.2020
4810 Clear -1 1019 70 16093 2.6 290 08:55 06.01.2020
4811 Clear -1 1019 70 16093 3.6 290 08:37 06.01.2020
4812 Clear -1 1018 70 16093 5.1 290 07:57 06.01.2020
4813 Clear -1 1018 70 16093 4.1 290 07:38 06.01.2020
4814 Clear 0 1017 64 16093 5.7 280 06:51 06.01.2020
4815 Clear 0 1017 69 16093 3.1 300 06:32 06.01.2020
4816 Clear 0 1016 70 16093 4.1 280 05:48 06.01.2020
4817 Clouds 1 1016 64 16093 5.7 290 04:58 06.01.2020
4818 Clear 1 1016 74 16093 5.7 280 04:22 06.01.2020
4819 Clouds 2 1015 74 16093 6.7 280 03:26 06.01.2020
4820 Clouds 2 1015 69 16093 7.2 280 02:26 06.01.2020
4821 Clouds 3 1013 64 16093 7.2 270 01:49 06.01.2020
4822 Clouds 4 1014 75 16093 10.8 270 01:29 06.01.2020
4823 Clouds 4 1013 75 16093 7.7 280 00:45 06.01.2020
4824 Clouds 5 1013 75 16093 7.7 280 00:26 06.01.2020
4825 Clouds 5 1013 60 16093 8.7 280 23:57 05.01.2020
4826 Clouds 5 1012 75 16093 8.2 270 23:37 05.01.2020
4827 Clouds 5 1012 75 16093 8.2 270 23:19 05.01.2020
4828 Clouds 5 1011 80 16093 7.7 270 22:40 05.01.2020
4829 Clouds 5 1011 80 16093 7.7 270 22:20 05.01.2020
4830 Clouds 5 1010 65 16093 7.2 270 21:57 05.01.2020
4831 Clouds 5 1010 65 16093 9.3 240 21:38 05.01.2020
4832 Clouds 5 1009 60 16093 7.7 260 21:20 05.01.2020
4833 Clouds 5 1009 60 16093 8.7 250 20:56 05.01.2020
4834 Clouds 5 1010 65 16093 11.3 230 20:38 05.01.2020
4835 Clouds 4 1010 65 16093 11.3 230 20:19 05.01.2020
4836 Clouds 4 1010 65 16093 11.3 230 20:19 05.01.2020
4837 Clear 4 1011 65 16093 8.7 230 19:58 05.01.2020
4838 Clouds 4 1011 69 16093 9.3 210 19:38 05.01.2020
4839 Clouds 3 1011 69 16093 9.3 210 19:19 05.01.2020
4840 Clouds 3 1010 60 16093 8.2 220 18:55 05.01.2020
4841 Clouds 3 1013 74 16093 8.7 200 18:37 05.01.2020
4842 Clouds 3 1013 74 16093 8.7 200 18:37 05.01.2020
4843 Clouds 2 1012 64 16093 6.2 200 18:19 05.01.2020
4844 Clouds 2 1012 64 16093 6.2 200 17:57 05.01.2020
4845 Clear 1 1015 70 16093 7.7 180 17:38 05.01.2020
4846 Clear 1 1015 70 16093 7.7 180 17:38 05.01.2020
4847 Clear 1 1015 70 16093 7.7 180 17:19 05.01.2020
4848 Clouds 0 1016 70 16093 6.7 170 16:56 05.01.2020
4849 Clouds -1 1016 86 16093 6.2 160 16:38 05.01.2020
4850 Clouds -1 1016 86 16093 6.2 160 16:19 05.01.2020
4851 Clouds -1 1016 86 16093 6.2 160 16:19 05.01.2020
4852 Clouds -1 1016 86 16093 6.2 160 16:19 05.01.2020
4853 Clouds -2 1016 86 14484 7.2 170 15:38 05.01.2020
4854 Clouds -2 1017 86 16093 5.1 170 15:20 05.01.2020
4855 Clouds -3 1017 86 16093 6.7 170 14:55 05.01.2020
4856 Clouds -3 1018 92 16093 4.6 170 14:37 05.01.2020
4857 Clouds -3 1018 92 16093 4.6 170 14:19 05.01.2020
4858 Clouds -4 1018 86 14484 5.7 190 13:55 05.01.2020
4859 Clouds -4 1020 92 16093 5.1 180 13:37 05.01.2020
4860 Clouds -4 1020 92 16093 5.1 180 13:18 05.01.2020
4861 Clouds -4 1020 92 16093 5.1 180 13:18 05.01.2020
4862 Clouds -4 1020 92 16093 5.1 180 13:18 05.01.2020
4863 Clouds -4 1020 92 16093 5.1 180 13:18 05.01.2020
4864 Clouds -4 1019 79 16093 5.7 200 12:55 05.01.2020
4865 Clouds -4 1020 86 16093 4.1 210 12:36 05.01.2020
4866 Clouds -4 1020 86 16093 4.1 210 12:36 05.01.2020
4867 Clouds -4 1020 86 16093 4.1 210 12:18 05.01.2020
4868 Clouds -4 1021 79 11265 3.6 230 11:43 05.01.2020
4869 Clouds -4 1021 79 11265 3.6 230 11:43 05.01.2020
4870 Clouds -4 1021 79 11265 3.6 230 11:43 05.01.2020
4871 Clouds -4 1021 79 11265 3.6 230 11:43 05.01.2020
4872 Clouds -4 1021 92 16093 4.1 210 11:43 05.01.2020
4873 Clouds -4 1021 92 16093 4.1 210 11:19 05.01.2020
4874 Clouds -4 1020 85 16093 5.7 220 10:57 05.01.2020
4875 Clouds -4 1020 85 16093 5.7 220 10:57 05.01.2020
4876 Clouds -4 1020 85 16093 5.7 220 10:57 05.01.2020
4877 Clouds -4 1021 86 16093 5.38 232 10:39 05.01.2020
4878 Clouds -4 1021 86 16093 5.38 232 10:38 05.01.2020
4879 Clouds -4 1021 86 16093 5.38 232 10:38 05.01.2020
4880 Clouds -4 1021 86 16093 5.38 232 10:38 05.01.2020
4881 Clouds -4 1021 86 16093 5.38 232 10:38 05.01.2020
4882 Clouds -4 1021 86 16093 5.38 232 10:18 05.01.2020
4883 Clouds -4 1020 92 16093 2.6 230 09:41 05.01.2020
4884 Clouds -4 1022 86 16093 5.38 232 09:21 05.01.2020
4885 Clouds -4 1020 85 16093 4.6 220 08:49 05.01.2020
4886 Clouds -4 1021 86 16093 5.38 232 08:30 05.01.2020
4887 Clouds -4 1021 79 16093 4.1 230 07:56 05.01.2020
4888 Clouds -4 1021 79 16093 3.6 250 07:37 05.01.2020
4889 Clouds -3 1021 86 16093 4.93 256 07:18 05.01.2020
4890 Clouds -3 1021 74 16093 4.6 260 05:59 05.01.2020
4891 Clouds -3 1021 79 16093 3.1 270 05:32 05.01.2020
4892 Clouds -2 1020 79 16093 2.6 250 04:43 05.01.2020
4893 Clouds -2 1021 68 16093 3.6 280 04:18 05.01.2020
4894 Clouds -2 1020 68 16093 5.1 280 02:46 05.01.2020
4895 Clouds -2 1020 68 16093 4.6 310 02:24 05.01.2020
4896 Clouds -2 1019 74 16093 2.6 300 01:48 05.01.2020
4897 Clouds -1 1019 74 16093 2.6 300 01:18 05.01.2020
4898 Clouds -1 1019 58 16093 4.1 300 00:41 05.01.2020
4899 Clouds -1 1019 72 16093 4.6 300 00:23 05.01.2020
4900 Clouds -1 1018 68 16093 4.6 300 23:59 04.01.2020
4901 Clouds -1 1018 68 16093 4.6 300 23:59 04.01.2020
4902 Clouds -1 1018 72 16093 3.1 310 23:39 04.01.2020
4903 Clouds -1 1018 72 16093 3.6 290 23:19 04.01.2020
4904 Clouds -1 1017 72 16093 3.6 330 22:40 04.01.2020
4905 Clouds -1 1017 72 16093 3.6 330 22:40 04.01.2020
4906 Clouds -1 1017 72 16093 3.6 330 22:21 04.01.2020
4907 Clouds -1 1016 72 16093 3.6 290 21:57 04.01.2020
4908 Clouds 0 1016 72 16093 3.1 290 21:57 04.01.2020
4909 Clouds 0 1016 72 16093 3.6 300 21:39 04.01.2020
4910 Clouds 0 1016 72 16093 3.6 300 21:20 04.01.2020
4911 Clouds 0 1016 64 16093 5.7 320 20:58 04.01.2020
4912 Clouds 0 1016 72 16093 4.1 310 20:39 04.01.2020
4913 Clouds 0 1016 72 16093 4.1 310 20:39 04.01.2020
4914 Clouds 0 1016 69 16093 4.6 310 20:21 04.01.2020
4915 Clouds 0 1016 74 16093 4.6 310 19:56 04.01.2020
4916 Clouds 0 1016 74 16093 4.1 310 19:37 04.01.2020
4917 Clouds 0 1016 74 16093 4.1 310 19:18 04.01.2020
4918 Rain 0 1015 74 16093 3.6 330 18:54 04.01.2020
4919 Rain 0 1015 73 16093 4.1 340 18:36 04.01.2020
4920 Rain 0 1015 73 16093 4.1 340 18:18 04.01.2020
4921 Clouds 0 1015 73 16093 4.6 340 17:40 04.01.2020
4922 Clouds 0 1016 78 16093 4.1 330 17:22 04.01.2020
4923 Snow 0 1015 78 4023 3.1 340 16:55 04.01.2020
4924 Clouds 0 1015 78 16093 4.1 330 16:36 04.01.2020
4925 Snow 0 1015 92 1609 3.1 330 16:18 04.01.2020
4926 Clouds -1 1014 78 11265 4.6 340 15:42 04.01.2020
4927 Snow -1 1014 100 6437 2.6 310 15:20 04.01.2020
4928 Snow -1 1014 78 11265 4.6 330 14:59 04.01.2020
4929 Snow -1 1014 78 11265 4.6 330 14:59 04.01.2020
4930 Snow -1 1014 78 11265 4.6 330 14:59 04.01.2020
4931 Snow -1 1014 78 11265 4.6 330 14:59 04.01.2020
4932 Snow -1 1014 78 6437 3.6 310 14:40 04.01.2020
4933 Rain -1 1014 100 8047 2.1 310 14:20 04.01.2020
4934 Rain -1 1013 92 4023 2.6 310 13:58 04.01.2020
4935 Snow -1 1013 92 2816 3.1 340 13:37 04.01.2020
4936 Snow -1 1013 92 2816 3.1 340 13:37 04.01.2020
4937 Snow -1 1013 100 4023 2.1 310 13:19 04.01.2020
4938 Snow -1 1013 92 4828 3.6 320 12:56 04.01.2020
4939 Clouds -1 1013 86 12874 3.1 330 12:38 04.01.2020
4940 Rain -1 1013 92 4023 2.6 350 12:18 04.01.2020
4941 Rain -1 1013 84 2816 1.5 300 11:55 04.01.2020
4942 Snow -1 1013 84 2414 7.12 323 11:36 04.01.2020
4943 Snow -1 1012 90 4828 3.1 330 11:18 04.01.2020
4944 Mist -1 1013 86 6437 2.1 340 10:40 04.01.2020
4945 Snow 0 1012 80 8047 2.6 330 10:21 04.01.2020
4946 Clouds 0 1012 92 2414 2.1 330 09:44 04.01.2020
4947 Clouds 0 1012 80 16093 1.5 340 09:25 04.01.2020
4948 Clouds 0 1012 80 16093 1.5 360 08:49 04.01.2020
4949 Clouds 0 1012 80 16093 1.5 350 08:29 04.01.2020
4950 Clouds 1 1012 80 16093 1.5 10 07:56 04.01.2020
4951 Clouds 1 1012 80 16093 2.1 340 07:38 04.01.2020
4952 Clouds 1 1012 74 16093 5.21 333 06:44 04.01.2020
4953 Clouds 1 1012 69 16093 3.6 20 05:59 04.01.2020
4954 Clouds 1 1012 86 16093 1.5 20 04:51 04.01.2020
4955 Clouds 1 1012 86 16093 3.95 21 04:30 04.01.2020
4956 Clouds 1 1012 86 16093 1.5 350 03:29 04.01.2020
4957 Clouds 1 1012 86 16093 2.1 10 02:49 04.01.2020
4958 Clouds 1 1012 86 16093 2.1 360 02:18 04.01.2020
4959 Clouds 1 1011 74 16093 2.1 360 01:41 04.01.2020
4960 Clouds 1 1011 74 16093 2.1 360 01:23 04.01.2020
4961 Clouds 1 1011 75 16093 2.6 30 00:29 04.01.2020
4962 Clouds 1 1010 69 12874 3.6 20 23:57 03.01.2020
4963 Clouds 2 1010 75 16093 1.5 10 23:30 03.01.2020
4964 Clouds 2 1010 80 16093 2.6 340 22:59 03.01.2020
4965 Clouds 2 1010 80 16093 2.1 60 22:40 03.01.2020
4966 Clouds 2 1010 80 16093 2.1 60 22:19 03.01.2020
4967 Clouds 2 1009 64 16093 2.1 290 21:57 03.01.2020
4968 Clouds 2 1009 80 16093 2.6 40 21:38 03.01.2020
4969 Clouds 3 1009 80 16093 2.6 40 21:19 03.01.2020
4970 Clouds 3 1008 80 16093 1.5 10 20:55 03.01.2020
4971 Clouds 3 1009 80 16093 3.63 352 20:36 03.01.2020
4972 Clouds 3 1009 85 16093 4.54 347 20:18 03.01.2020
4973 Clouds 3 1009 85 16093 2.6 40 19:44 03.01.2020
4974 Clouds 3 1009 85 16093 2.6 40 19:23 03.01.2020
4975 Clouds 3 1010 74 16093 1.5 0 18:57 03.01.2020
4976 Clouds 3 1010 85 16093 2.6 10 18:38 03.01.2020
4977 Clouds 3 1010 85 16093 2.6 10 18:20 03.01.2020
4978 Clouds 2 1011 80 16093 4.54 347 17:42 03.01.2020
4979 Clouds 2 1011 86 16093 3.1 30 17:21 03.01.2020
4980 Clouds 2 1010 69 16093 4.1 350 16:58 03.01.2020
4981 Clouds 2 1011 86 16093 3.6 20 16:39 03.01.2020
4982 Clouds 2 1011 86 16093 3.6 20 16:20 03.01.2020
4983 Clouds 2 1010 80 16093 3.1 10 15:41 03.01.2020
4984 Clouds 2 1009 74 16093 3.1 340 15:19 03.01.2020
4985 Clouds 2 1009 100 11265 5 8 14:40 03.01.2020
4986 Clouds 2 1009 100 11265 5 8 14:40 03.01.2020
4987 Clouds 2 1009 100 11265 7.17 335 14:20 03.01.2020
4988 Clouds 2 1009 100 11265 1.5 10 13:59 03.01.2020
4989 Clouds 2 1009 100 11265 1.5 320 13:40 03.01.2020
4990 Clouds 2 1009 100 11265 1.5 320 13:21 03.01.2020
4991 Clouds 2 1008 85 16093 2.6 330 12:41 03.01.2020
4992 Clouds 2 1008 100 16093 1.5 320 12:22 03.01.2020
4993 Clouds 2 1007 86 16093 2.1 320 11:54 03.01.2020
4994 Clouds 2 1007 86 16093 2.1 320 11:35 03.01.2020
4995 Clouds 2 1007 86 16093 2.6 10 10:58 03.01.2020
4996 Clouds 2 1006 93 16093 2.1 330 10:39 03.01.2020
4997 Mist 2 1006 100 6437 2.6 320 10:21 03.01.2020
4998 Mist 2 1006 93 2816 3.7 335 09:55 03.01.2020
4999 Mist 2 1006 100 6437 3.7 335 09:37 03.01.2020
5000 Mist 3 1006 100 6437 3.7 335 09:19 03.01.2020
5001 Mist 3 1005 100 6437 3.7 335 08:45 03.01.2020
5002 Mist 3 1005 100 6437 3.7 335 08:23 03.01.2020
5003 Clear 4 1006 93 11265 3.67 318 07:56 03.01.2020
5004 Mist 4 1005 100 6437 3.67 318 07:37 03.01.2020
5005 Clouds 4 1005 86 16093 2.1 260 07:18 03.01.2020
5006 Clear 4 1006 87 16093 3.67 318 06:42 03.01.2020
5007 Clear 5 1005 100 16093 3.67 318 06:22 03.01.2020
5008 Clear 5 1005 100 16093 2.6 220 04:59 03.01.2020
5009 Clear 6 1005 93 16093 3.1 210 03:42 03.01.2020
5010 Clouds 6 1003 75 16093 2.6 230 02:53 03.01.2020
5011 Clear 6 1004 86 16093 4.83 227 01:51 03.01.2020
5012 Clear 6 1004 93 16093 3.1 190 01:33 03.01.2020
5013 Clear 7 1003 81 16093 3.1 220 00:43 03.01.2020
5014 Clear 7 1003 81 16093 3.1 220 00:24 03.01.2020
5015 Clouds 8 1004 75 16093 3.6 210 23:39 02.01.2020
5016 Clouds 8 1004 75 16093 3.6 210 23:21 02.01.2020
5017 Clouds 8 1002 66 16093 4.6 220 22:59 02.01.2020
5018 Clouds 8 1003 75 16093 5.7 230 22:41 02.01.2020
5019 Clouds 8 1003 75 16093 5.7 230 22:20 02.01.2020
5020 Clouds 8 1002 66 16093 5.1 230 21:57 02.01.2020
5021 Clear 8 1002 70 16093 5.1 230 21:38 02.01.2020
5022 Clear 8 1002 70 16093 5.1 230 21:19 02.01.2020
5023 Clouds 9 1001 61 16093 5.7 220 20:56 02.01.2020
5024 Clouds 9 1001 70 16093 6.7 210 20:37 02.01.2020
5025 Clouds 9 1001 70 16093 6.7 210 20:19 02.01.2020
5026 Clouds 8 1001 61 16093 6.7 240 19:54 02.01.2020
5027 Clouds 8 1001 61 16093 6.7 240 19:54 02.01.2020
5028 Clear 8 1002 66 16093 6.7 230 19:36 02.01.2020
5029 Clear 8 1002 66 16093 6.7 230 19:18 02.01.2020
5030 Clear 8 1001 65 16093 6.2 230 18:43 02.01.2020
5031 Clear 7 1003 65 16093 8.7 230 18:25 02.01.2020
5032 Clouds 7 1002 61 16093 8.7 220 17:58 02.01.2020
5033 Clear 6 1004 70 16093 7.2 220 17:39 02.01.2020
5034 Clear 6 1004 70 16093 7.2 220 17:20 02.01.2020
5035 Clouds 5 1003 78 16093 8.7 230 16:58 02.01.2020
5036 Clouds 5 1003 78 16093 8.7 230 16:58 02.01.2020
5037 Clear 5 1003 78 16093 5.7 210 16:40 02.01.2020
5038 Clear 4 1003 78 16093 5.7 210 16:20 02.01.2020
5039 Clouds 4 1002 69 16093 6.7 210 15:58 02.01.2020
5040 Clouds 4 1002 69 16093 6.7 210 15:58 02.01.2020
5041 Clear 3 1002 80 16093 7.2 210 15:40 02.01.2020
5042 Clear 3 1002 80 16093 7.2 210 15:21 02.01.2020
5043 Clear 2 1002 80 16093 5.7 210 14:57 02.01.2020
5044 Clear 2 1002 80 16093 5.1 210 14:36 02.01.2020
5045 Clear 2 1002 80 16093 5.1 210 14:36 02.01.2020
5046 Clear 2 1000 80 16093 5.1 200 14:18 02.01.2020
5047 Clear 3 1002 80 16093 6.2 210 13:49 02.01.2020
5048 Clear 3 1002 74 16093 6.2 210 13:31 02.01.2020
5049 Clouds 3 1000 69 16093 4.1 200 12:46 02.01.2020
5050 Clear 3 1002 74 16093 5.1 200 12:26 02.01.2020
5051 Clear 3 1002 74 16093 7.2 200 11:59 02.01.2020
5052 Clear 3 1002 74 16093 7.2 200 11:40 02.01.2020
5053 Clear 3 1002 74 16093 7.2 200 11:20 02.01.2020
5054 Clear 3 1002 69 16093 7.7 200 10:44 02.01.2020
5055 Clear 3 1002 69 16093 7.7 200 10:26 02.01.2020
5056 Clear 3 1002 69 16093 8.7 200 09:51 02.01.2020
5057 Clear 3 1002 69 16093 6.7 200 09:33 02.01.2020
5058 Clear 4 1002 52 16093 5.1 190 08:47 02.01.2020
5059 Clear 4 1002 69 16093 7.7 200 08:27 02.01.2020
5060 Clouds 4 1001 60 16093 8.2 200 07:54 02.01.2020
5061 Clear 4 1002 69 16093 7.7 200 07:30 02.01.2020
5062 Clear 4 1003 64 16093 8.2 190 06:55 02.01.2020
5063 Clear 4 1003 64 16093 7.7 200 06:36 02.01.2020
5064 Clear 5 1003 64 16093 8.7 200 05:35 02.01.2020
5065 Clear 5 1003 69 16093 7.7 190 04:33 02.01.2020
5066 Clouds 5 1002 60 16093 5.7 200 02:54 02.01.2020
5067 Clouds 4 1002 69 16093 7.2 190 01:59 02.01.2020
5068 Clear 4 1004 69 16093 8.7 190 01:39 02.01.2020
5069 Clouds 4 1003 65 16093 6.7 190 00:59 02.01.2020
5070 Clear 4 1004 70 16093 7.2 190 00:34 02.01.2020
5071 Clouds 4 1003 65 16093 5.7 190 23:56 01.01.2020
5072 Clear 4 1004 70 16093 6.7 190 23:37 01.01.2020
5073 Clear 5 1004 65 16093 6.7 190 23:18 01.01.2020
5074 Rain 5 1005 65 16093 7.2 190 22:38 01.01.2020
5075 Rain 5 1005 65 16093 7.2 190 22:19 01.01.2020
5076 Rain 5 1004 56 16093 6.2 200 21:56 01.01.2020
5077 Clear 5 1005 69 16093 6.2 180 21:38 01.01.2020
5078 Clouds 5 1005 60 16093 7.2 200 21:19 01.01.2020
5079 Clear 5 1005 69 16093 6.2 180 21:19 01.01.2020
5080 Clouds 4 1005 60 16093 7.2 200 20:55 01.01.2020
5081 Clear 4 1007 74 16093 6.2 210 20:37 01.01.2020
5082 Clear 4 1007 74 16093 6.2 210 20:19 01.01.2020
5083 Clouds 4 1006 59 16093 7.2 210 20:19 01.01.2020
5084 Clouds 3 1006 59 16093 7.2 210 19:55 01.01.2020
5085 Clear 3 1008 69 16093 6.7 210 19:37 01.01.2020
5086 Rain 2 1008 69 16093 6.7 210 19:19 01.01.2020
5087 Rain 2 1007 59 16093 6.2 210 18:55 01.01.2020
5088 Rain 1 1009 74 16093 6.2 210 18:36 01.01.2020
5089 Rain 1 1008 64 16093 4.6 210 18:18 01.01.2020
5090 Rain 0 1008 64 16093 4.6 210 17:56 01.01.2020
5091 Rain 0 1008 64 16093 4.6 210 17:56 01.01.2020
5092 Rain 0 1010 86 16093 5.1 210 17:37 01.01.2020
5093 Clear -1 1010 86 16093 5.1 210 17:18 01.01.2020
5094 Clear -3 1011 92 16093 3.1 200 16:40 01.01.2020
5095 Clear -2 1011 92 16093 3.1 200 16:40 01.01.2020
5096 Clear -4 1010 79 16093 5.7 210 16:21 01.01.2020
5097 Clear -5 1011 92 16093 3.1 210 15:57 01.01.2020
5098 Clear -5 1011 92 11265 2.6 340 15:39 01.01.2020
5099 Clear -6 1011 92 11265 2.6 340 15:20 01.01.2020
5100 Mist -6 1010 100 8047 2.6 190 14:58 01.01.2020
5101 Mist -6 1010 100 8047 2.6 190 14:58 01.01.2020
5102 Clear -6 1010 92 11265 1.5 210 14:40 01.01.2020
5103 Clear -7 1010 92 11265 1.5 210 14:21 01.01.2020
5104 Clear -7 1010 100 11265 2.1 220 13:56 01.01.2020
5105 Clear -7 1010 100 11265 2.6 220 13:37 01.01.2020
5106 Clear -7 1010 100 11265 2.6 220 13:37 01.01.2020
5107 Clear -7 1009 85 16093 3.6 230 13:18 01.01.2020
5108 Clear -6 1010 100 16093 2.1 230 12:55 01.01.2020
5109 Clear -6 1010 100 16093 2.1 240 12:37 01.01.2020
5110 Clear -6 1010 100 16093 2.1 240 12:18 01.01.2020
5111 Clear -6 1009 92 16093 1.5 240 11:43 01.01.2020
5112 Clouds -6 1010 92 16093 2.1 230 11:22 01.01.2020
5113 Clouds -6 1010 79 16093 3.1 250 10:58 01.01.2020
5114 Clouds -6 1011 86 16093 1.5 220 10:40 01.01.2020
5115 Clouds -6 1011 92 16093 3.6 250 10:20 01.01.2020
5116 Clouds -6 1010 79 16093 3.6 250 09:55 01.01.2020
5117 Clouds -5 1011 92 16093 2.6 240 09:36 01.01.2020
5118 Clouds -5 1011 92 16093 2.6 240 09:18 01.01.2020
5119 Clouds -5 1009 79 16093 3.6 270 08:54 01.01.2020
5120 Clouds -5 1010 92 16093 2.6 250 08:36 01.01.2020
5121 Clouds -5 1009 79 14484 4.1 260 08:18 01.01.2020
5122 Clear -4 1009 92 16093 2.1 270 07:45 01.01.2020
5123 Clouds -4 1010 79 16093 3.6 260 07:26 01.01.2020
5124 Clear -4 1009 85 16093 3.1 270 06:44 01.01.2020
5125 Clouds -4 1011 86 16093 3.6 260 06:19 01.01.2020
5126 Clouds -3 1011 74 16093 4.1 270 04:38 01.01.2020
5127 Clouds -3 1009 79 16093 3.1 260 03:41 01.01.2020
5128 Clouds -2 1010 74 16093 5.7 280 03:22 01.01.2020
5129 Clouds -2 1010 74 16093 5.7 270 02:55 01.01.2020
5130 Clouds -2 1010 79 16093 5.7 270 02:32 01.01.2020
5131 Clouds -2 1010 79 16093 5.1 270 01:45 01.01.2020
5132 Clouds -2 1010 79 16093 5.1 280 01:23 01.01.2020
5133 Clouds -3 1009 92 16093 5.1 260 00:54 01.01.2020
5134 Clouds -3 1010 74 16093 6.7 270 00:36 01.01.2020
5135 Clouds -3 1010 74 16093 6.7 270 00:18 01.01.2020
5136 Clouds -3 1009 73 16093 7.2 260 23:38 31.12.2019
5137 Clouds -3 1009 73 16093 7.2 260 23:19 31.12.2019
5138 Clouds -3 1009 68 16093 5.1 260 22:56 31.12.2019
5139 Clouds -3 1009 73 16093 6.2 260 22:37 31.12.2019
5140 Clouds -3 1009 73 16093 6.2 260 22:18 31.12.2019
5141 Clouds -3 1008 73 16093 6.7 260 21:54 31.12.2019
5142 Clouds -3 1008 73 16093 8.2 270 21:36 31.12.2019
5143 Clouds -3 1008 73 16093 8.2 270 21:18 31.12.2019
5144 Clouds -3 1008 73 16093 8.2 270 21:18 31.12.2019
5145 Clouds -3 1008 73 16093 6.2 280 20:40 31.12.2019
5146 Clouds -3 1008 73 16093 6.2 280 20:21 31.12.2019
5147 Clouds -3 1008 68 16093 6.2 280 19:58 31.12.2019
5148 Clouds -3 1008 73 16093 6.7 280 19:40 31.12.2019
5149 Clouds -3 1008 73 16093 6.7 280 19:22 31.12.2019
5150 Clouds -3 1008 68 16093 7.2 270 18:57 31.12.2019
5151 Clouds -3 1008 68 16093 7.2 270 18:57 31.12.2019
5152 Clouds -3 1008 73 16093 6.7 280 18:39 31.12.2019
5153 Clouds -3 1008 68 16093 8.7 270 18:19 31.12.2019
5154 Clouds -4 1008 68 16093 8.7 270 17:56 31.12.2019
5155 Clouds -4 1008 73 16093 6.2 280 17:37 31.12.2019
5156 Clouds -4 1008 73 16093 6.2 280 17:18 31.12.2019
5157 Clouds -4 1007 68 16093 7.7 290 16:56 31.12.2019
5158 Clouds -4 1007 73 16093 7.2 280 16:37 31.12.2019
5159 Clouds -4 1006 68 16093 9.3 280 16:19 31.12.2019
5160 Clouds -4 1006 68 16093 9.3 280 15:56 31.12.2019
5161 Clouds -4 1006 73 16093 6.7 280 15:38 31.12.2019
5162 Snow -4 1005 68 16093 7.2 280 15:20 31.12.2019
5163 Snow -4 1005 68 16093 7.2 280 14:56 31.12.2019
5164 Clouds -4 1005 79 16093 6.7 270 14:37 31.12.2019
5165 Clouds -4 1005 79 16093 6.7 270 14:19 31.12.2019
5166 Rain -4 1004 68 12874 7.7 290 13:56 31.12.2019
5167 Rain -4 1004 79 16093 9.3 270 13:38 31.12.2019
5168 Rain -4 1004 79 16093 9.3 270 13:38 31.12.2019
5169 Rain -4 1003 73 8047 6.2 280 13:20 31.12.2019
5170 Rain -4 1003 73 8047 6.2 280 12:56 31.12.2019
5171 Rain -4 1002 79 6437 6.7 270 12:37 31.12.2019
5172 Rain -4 1002 73 4023 5.7 270 12:19 31.12.2019
5173 Rain -4 1002 79 4023 6.7 280 11:55 31.12.2019
5174 Snow -4 1002 73 6437 6.2 280 11:37 31.12.2019
5175 Rain -4 1001 85 3219 5.1 270 11:19 31.12.2019
5176 Rain -4 1002 79 4023 11.3 270 10:56 31.12.2019
5177 Rain -4 1001 73 2816 7.2 260 10:37 31.12.2019
5178 Rain -4 1002 79 2012 12.9 270 10:19 31.12.2019
5179 Rain -4 1002 79 2012 12.9 270 09:57 31.12.2019
5180 Rain -4 1002 79 2012 12.9 270 09:57 31.12.2019
5181 Rain -3 1000 79 1207 7.7 250 09:38 31.12.2019
5182 Rain -3 1002 86 4023 10.3 260 09:19 31.12.2019
5183 Rain -3 1000 79 1609 13.4 250 08:42 31.12.2019
5184 Rain -3 1001 92 8047 8.7 260 08:23 31.12.2019
5185 Snow -3 1000 79 4828 10.3 260 07:58 31.12.2019
5186 Snow -3 1000 74 4023 7.2 250 07:40 31.12.2019
5187 Clouds -3 1001 92 4828 12.3 250 07:19 31.12.2019
5188 Snow -3 1000 86 3219 9.8 240 06:41 31.12.2019
5189 Snow -2 1000 86 4023 9.8 250 05:28 31.12.2019
5190 Clouds -2 1001 80 16093 14.4 260 04:25 31.12.2019
5191 Clouds -2 1001 86 16093 11.3 270 03:24 31.12.2019
5192 Clouds -1 1002 76 16093 10.8 240 02:36 31.12.2019
5193 Rain -1 1001 80 14484 9.8 240 01:51 31.12.2019
5194 Rain -1 1002 86 11265 10.8 250 01:32 31.12.2019
5195 Rain -1 1001 86 4828 7.2 250 00:56 31.12.2019
5196 Rain -1 1000 92 4023 8.7 230 00:37 31.12.2019
5197 Clouds -1 1002 86 16093 9.3 240 00:18 31.12.2019
5198 Clouds -1 1002 86 16093 7.7 230 23:55 30.12.2019
5199 Clouds -1 1002 86 16093 8.2 240 23:36 30.12.2019
5200 Clouds -1 1002 86 16093 8.2 240 23:36 30.12.2019
5201 Clouds -1 1000 86 16093 5.7 240 23:18 30.12.2019
5202 Clouds -1 1002 86 11265 7.7 250 22:54 30.12.2019
5203 Clouds -1 1002 86 16093 9.3 230 22:36 30.12.2019
5204 Clouds -1 1002 86 16093 9.3 230 22:18 30.12.2019
5205 Snow -1 1001 80 14484 9.8 250 21:55 30.12.2019
5206 Snow -1 1001 80 14484 9.8 250 21:55 30.12.2019
5207 Clouds -1 1001 86 16093 7.2 240 21:37 30.12.2019
5208 Clouds -1 1001 86 16093 7.2 240 21:18 30.12.2019
5209 Clouds -1 1001 71 16093 9.8 240 20:42 30.12.2019
5210 Clouds -1 1001 71 16093 9.8 240 20:21 30.12.2019
5211 Clouds -1 1000 72 16093 8.7 250 19:59 30.12.2019
5212 Clouds -1 1000 72 16093 8.7 250 19:59 30.12.2019
5213 Clouds -1 1000 72 16093 11.3 240 19:40 30.12.2019
5214 Clouds -1 1000 72 16093 11.3 240 19:20 30.12.2019
5215 Clouds -1 1000 72 16093 11.3 240 19:20 30.12.2019
5216 Clouds -1 1000 72 16093 9.8 240 18:59 30.12.2019
5217 Clouds -1 1001 72 16093 8.7 230 18:41 30.12.2019
5218 Clouds 0 1001 72 16093 8.7 230 18:21 30.12.2019
5219 Snow 0 1000 74 16093 8.7 250 17:59 30.12.2019
5220 Clouds 0 999 72 16093 8.2 240 17:40 30.12.2019
5221 Rain 0 1001 73 16093 10.3 240 17:19 30.12.2019
5222 Rain 0 999 74 16093 9.3 250 16:59 30.12.2019
5223 Rain 0 998 80 16093 8.2 230 16:39 30.12.2019
5224 Clouds 0 1000 80 16093 6.2 250 16:20 30.12.2019
5225 Rain 0 999 74 16093 9.8 240 15:56 30.12.2019
5226 Rain 1 997 86 3219 4.1 240 15:38 30.12.2019
5227 Rain 1 999 73 1207 6.2 240 15:19 30.12.2019
5228 Rain 1 997 74 9656 5.1 250 14:43 30.12.2019
5229 Rain 1 997 74 9656 5.1 250 14:43 30.12.2019
5230 Rain 1 999 80 16093 5.1 230 14:21 30.12.2019
5231 Rain 1 998 74 11265 7.7 250 13:59 30.12.2019
5232 Rain 1 997 86 6437 5.1 230 13:40 30.12.2019
5233 Rain 1 999 80 16093 6.2 240 13:22 30.12.2019
5234 Rain 1 999 80 16093 6.2 240 13:22 30.12.2019
5235 Rain 1 998 80 8047 5.7 240 12:57 30.12.2019
5236 Clouds 2 997 89 16093 4.1 260 12:37 30.12.2019
5237 Clouds 2 998 89 16093 6.7 240 12:18 30.12.2019
5238 Rain 2 996 74 16093 5.7 250 11:45 30.12.2019
5239 Rain 2 997 86 16093 4.6 270 11:22 30.12.2019
5240 Rain 2 997 86 16093 8.2 260 10:59 30.12.2019
5241 Rain 2 997 100 16093 6.2 280 10:40 30.12.2019
5242 Rain 3 995 86 16093 5.7 270 10:19 30.12.2019
5243 Rain 3 996 86 16093 5.7 240 09:42 30.12.2019
5244 Rain 4 996 100 16093 6.2 270 09:21 30.12.2019
5245 Rain 4 996 87 16093 6.2 280 08:57 30.12.2019
5246 Rain 4 996 87 12874 7.7 270 08:38 30.12.2019
5247 Rain 5 996 87 6437 9.8 280 08:19 30.12.2019
5248 Rain 6 995 87 16093 3.1 0 07:44 30.12.2019
5249 Rain 7 996 100 16093 3.1 200 07:18 30.12.2019
5250 Rain 9 997 100 16093 2.1 210 06:29 30.12.2019
5251 Rain 10 1000 93 11265 5.7 200 04:29 30.12.2019
5252 Rain 11 998 93 16093 5.1 180 03:43 30.12.2019
5253 Clouds 11 1000 93 16093 4.6 170 02:41 30.12.2019
5254 Clouds 11 1001 100 16093 3.6 190 02:21 30.12.2019
5255 Clouds 11 1002 93 16093 4.1 180 01:27 30.12.2019
5256 Clouds 11 1001 93 16093 4.1 180 00:51 30.12.2019
5257 Clouds 11 1001 93 16093 4.1 180 00:28 30.12.2019
5258 Clouds 12 1003 93 16093 4.1 200 23:40 29.12.2019
5259 Clouds 12 1003 93 16093 4.1 200 23:22 29.12.2019
5260 Clouds 12 1002 82 16093 4.1 190 22:57 29.12.2019
5261 Clouds 12 1002 82 16093 4.6 210 22:38 29.12.2019
5262 Clouds 12 1003 93 16093 3.6 210 22:20 29.12.2019
5263 Clouds 13 1002 87 16093 4.6 200 21:55 29.12.2019
5264 Clouds 13 1002 87 16093 4.6 200 21:36 29.12.2019
5265 Clouds 13 1002 87 16093 4.6 200 21:18 29.12.2019
5266 Clouds 13 1002 82 16093 4.6 220 20:55 29.12.2019
5267 Clouds 13 1002 93 16093 4.1 200 20:36 29.12.2019
5268 Clouds 13 1002 93 16093 4.1 200 20:18 29.12.2019
5269 Clear 13 1003 87 16093 4.6 210 19:40 29.12.2019
5270 Clear 13 1003 87 16093 4.6 210 19:22 29.12.2019
5271 Clouds 13 1003 82 16093 6.2 230 18:59 29.12.2019
5272 Clear 13 1003 87 16093 3.6 210 18:40 29.12.2019
5273 Clouds 13 1003 82 16093 4.6 220 18:21 29.12.2019
5274 Clear 13 1004 93 16093 4.6 200 17:59 29.12.2019
5275 Clear 13 1004 93 16093 4.6 200 17:40 29.12.2019
5276 Clear 13 1004 93 16093 4.6 200 17:20 29.12.2019
5277 Clouds 13 1003 87 16093 5.1 210 16:58 29.12.2019
5278 Clear 13 1004 100 16093 4.6 200 16:40 29.12.2019
5279 Clear 13 1004 100 16093 4.6 200 16:40 29.12.2019
5280 Clouds 13 1003 93 16093 5.1 210 16:21 29.12.2019
5281 Clouds 13 1003 93 16093 5.1 210 15:59 29.12.2019
5282 Clouds 13 1002 100 16093 4.1 190 15:40 29.12.2019
5283 Clouds 13 1003 100 16093 4.1 190 15:20 29.12.2019
5284 Rain 13 1002 100 16093 5.1 190 14:59 29.12.2019
5285 Rain 13 1002 93 16093 1.5 200 14:41 29.12.2019
5286 Rain 13 1002 100 16093 4.6 180 14:19 29.12.2019
5287 Rain 13 1001 93 16093 3.6 180 13:59 29.12.2019
5288 Rain 13 1000 93 12874 7.2 110 13:40 29.12.2019
5289 Rain 13 1000 93 12874 7.2 110 13:22 29.12.2019
5290 Rain 13 1004 100 16093 6.7 160 12:56 29.12.2019
5291 Rain 13 1003 100 16093 6.7 150 12:38 29.12.2019
5292 Rain 13 1003 100 16093 6.7 150 12:20 29.12.2019
5293 Rain 13 1003 100 6437 6.2 150 11:41 29.12.2019
5294 Rain 13 1004 100 16093 7.7 150 11:21 29.12.2019
5295 Rain 12 1004 93 11265 7.7 140 10:56 29.12.2019
5296 Rain 12 1005 93 8047 6.7 140 10:37 29.12.2019
5297 Rain 12 1005 93 11265 8.7 150 10:18 29.12.2019
5298 Rain 12 1006 93 8047 6.7 130 09:44 29.12.2019
5299 Rain 11 1006 100 11265 6.7 140 09:26 29.12.2019
5300 Rain 11 1006 100 6437 6.2 140 08:52 29.12.2019
5301 Rain 11 1007 100 4828 5.7 140 08:29 29.12.2019
5302 Rain 10 1007 100 4023 5.7 150 07:59 29.12.2019
5303 Rain 10 1007 100 4023 4.6 140 07:32 29.12.2019
5304 Rain 10 1009 87 8047 5.1 140 06:59 29.12.2019
5305 Rain 9 1009 100 8047 5.7 140 06:27 29.12.2019
5306 Rain 9 1010 93 8047 4.1 140 05:55 29.12.2019
5307 Thunderstorm 8 1012 87 8047 4.6 140 04:47 29.12.2019
5308 Thunderstorm 8 1012 87 8047 4.6 140 04:28 29.12.2019
5309 Clouds 8 1013 87 11265 5.1 120 03:32 29.12.2019
5310 Clouds 8 1014 87 11265 5.1 130 02:27 29.12.2019
5311 Clouds 7 1015 81 11265 5.7 130 01:47 29.12.2019
5312 Clouds 7 1015 81 11265 5.7 130 01:28 29.12.2019
5313 Clouds 6 1015 75 11265 5.1 110 00:45 29.12.2019
5314 Clouds 6 1016 81 11265 3.6 120 00:24 29.12.2019
5315 Clouds 6 1016 81 11265 4.6 110 23:46 28.12.2019
5316 Haze 6 1016 75 9656 3.6 100 23:19 28.12.2019
5317 Haze 6 1016 75 9656 3.6 100 22:59 28.12.2019
5318 Clouds 5 1017 87 11265 3.1 120 22:37 28.12.2019
5319 Haze 5 1017 75 9656 3.6 100 22:18 28.12.2019
5320 Haze 5 1017 75 9656 3.6 100 21:55 28.12.2019
5321 Mist 5 1017 87 8047 4.1 110 21:37 28.12.2019
5322 Clouds 5 1018 75 11265 3.6 100 21:19 28.12.2019
5323 Mist 4 1019 86 8047 4.1 120 20:42 28.12.2019
5324 Mist 5 1019 86 8047 4.1 120 20:23 28.12.2019
5325 Clouds 4 1019 80 11265 3.6 110 19:59 28.12.2019
5326 Clouds 4 1019 79 11265 5.7 90 19:41 28.12.2019
5327 Mist 4 1020 86 8047 3.1 110 19:23 28.12.2019
5328 Clouds 4 1020 79 11265 4.6 90 18:59 28.12.2019
5329 Clouds 3 1021 79 11265 4.1 80 18:40 28.12.2019
5330 Clouds 3 1021 79 11265 3.6 80 18:20 28.12.2019
5331 Clouds 3 1021 79 11265 3.6 80 17:58 28.12.2019
5332 Mist 3 1023 86 8047 3.1 130 17:39 28.12.2019
5333 Mist 2 1023 86 8047 3.1 130 17:19 28.12.2019
5334 Mist 2 1023 76 8047 3.1 120 16:48 28.12.2019
5335 Mist 2 1023 76 8047 2.6 110 16:26 28.12.2019
5336 Clouds 1 1022 76 11265 5.7 100 15:57 28.12.2019
5337 Mist 1 1022 76 8047 2.6 90 15:39 28.12.2019
5338 Mist 1 1022 76 8047 2.6 90 15:20 28.12.2019
5339 Mist 1 1022 76 8047 2.6 90 14:45 28.12.2019
5340 Mist 1 1023 76 8047 2.6 100 14:24 28.12.2019
5341 Mist 1 1023 79 6437 3.6 110 13:58 28.12.2019
5342 Mist 0 1023 79 6437 2.1 80 13:38 28.12.2019
5343 Mist 0 1023 78 6437 2.1 80 13:19 28.12.2019
5344 Mist 0 1023 86 6437 3.6 100 12:44 28.12.2019
5345 Mist 0 1024 78 6437 1.5 80 12:25 28.12.2019
5346 Mist 0 1023 86 6437 3.1 110 11:59 28.12.2019
5347 Mist -1 1024 78 4828 2.6 100 11:39 28.12.2019
5348 Mist -1 1024 74 6437 1.5 90 11:20 28.12.2019
5349 Mist -1 1025 74 4828 1.5 100 10:46 28.12.2019
5350 Mist -1 1024 74 8047 3.12 115 10:23 28.12.2019
5351 Mist -2 1024 74 9656 2.1 170 09:58 28.12.2019
5352 Mist -2 1025 74 6437 2.6 160 09:40 28.12.2019
5353 Mist -2 1024 100 8047 2.6 90 09:20 28.12.2019
5354 Mist -2 1024 100 8047 2.6 90 09:20 28.12.2019
5355 Mist -2 1024 74 6437 1.5 110 08:45 28.12.2019
5356 Mist -2 1024 100 8047 4.27 116 08:27 28.12.2019
5357 Mist -3 1024 86 9656 1.52 121 07:57 28.12.2019
5358 Mist -3 1025 100 8047 1.5 90 07:39 28.12.2019
5359 Mist -3 1026 92 4828 1.52 121 06:42 28.12.2019
5360 Mist -3 1025 100 4828 1.52 121 05:31 28.12.2019
5361 Mist -2 1026 100 8047 0.63 154 03:47 28.12.2019
5362 Mist -1 1026 100 8047 2.1 190 02:49 28.12.2019
5363 Clouds -1 1025 80 12874 3.1 210 02:19 28.12.2019
5364 Clear -1 1025 92 11265 0.53 250 01:50 28.12.2019
5365 Clear -1 1025 92 11265 2.1 180 01:20 28.12.2019
5366 Clear 0 1025 78 16093 1.5 230 00:41 28.12.2019
5367 Clear 0 1025 78 16093 1.5 230 00:23 28.12.2019
5368 Clear 1 1024 80 16093 0.64 61 23:45 27.12.2019
5369 Clear 2 1025 80 16093 0.64 295 23:20 27.12.2019
5370 Clouds 2 1024 74 14484 2.6 240 22:58 27.12.2019
5371 Clouds 2 1024 80 16093 1.5 290 22:39 27.12.2019
5372 Clouds 3 1024 80 16093 1.5 290 22:20 27.12.2019
5373 Clouds 3 1024 80 16093 1.5 290 22:20 27.12.2019
5374 Clouds 3 1024 69 16093 2.1 230 21:59 27.12.2019
5375 Clouds 3 1024 80 16093 2.6 270 21:40 27.12.2019
5376 Clouds 3 1024 80 16093 2.6 270 21:22 27.12.2019
5377 Clouds 3 1023 80 16093 1.5 280 20:42 27.12.2019
5378 Clouds 2 1024 80 16093 2.6 260 20:23 27.12.2019
5379 Clouds 2 1024 74 12874 3.6 270 19:55 27.12.2019
5380 Clouds 1 1025 80 16093 3.6 280 19:36 27.12.2019
5381 Clouds 1 1025 80 16093 3.6 280 19:18 27.12.2019
5382 Clouds 1 1025 80 16093 3.6 280 19:18 27.12.2019
5383 Clouds 1 1024 86 16093 3.6 250 18:41 27.12.2019
5384 Clouds 1 1025 80 16093 4.1 240 18:23 27.12.2019
5385 Clouds 1 1026 80 16093 4.1 260 17:59 27.12.2019
5386 Clouds 1 1026 80 16093 4.1 250 17:41 27.12.2019
5387 Clouds 1 1026 80 16093 4.1 250 17:19 27.12.2019
5388 Clouds 1 1025 80 16093 4.6 260 16:59 27.12.2019
5389 Clouds 1 1025 81 16093 4.1 270 16:39 27.12.2019
5390 Clouds 1 1025 81 16093 4.1 270 16:20 27.12.2019
5391 Clouds 1 1024 81 16093 4.6 301 15:45 27.12.2019
5392 Clouds 1 1024 81 16093 3.6 270 15:24 27.12.2019
5393 Clouds 1 1024 80 12874 6.2 280 14:59 27.12.2019
5394 Clouds 1 1024 81 16093 6.2 270 14:40 27.12.2019
5395 Clouds 1 1024 83 16093 6.2 270 14:22 27.12.2019
5396 Clouds 1 1023 80 11265 7.2 270 13:58 27.12.2019
5397 Clouds 2 1023 83 16093 5.7 260 13:40 27.12.2019
5398 Clouds 2 1023 81 16093 5.7 260 13:21 27.12.2019
5399 Clouds 2 1022 81 16093 4.1 270 12:44 27.12.2019
5400 Clouds 2 1022 81 16093 6.2 270 12:26 27.12.2019
5401 Clouds 2 1022 81 16093 6.2 270 12:26 27.12.2019
5402 Clouds 2 1021 74 12874 4.1 280 11:55 27.12.2019
5403 Clouds 2 1021 81 16093 5.1 270 11:37 27.12.2019
5404 Clouds 2 1021 74 12874 6.2 280 11:18 27.12.2019
5405 Clouds 2 1021 80 16093 4.6 270 10:41 27.12.2019
5406 Clouds 2 1021 80 16093 4.6 270 10:23 27.12.2019
5407 Clouds 2 1020 80 16093 7.2 270 09:49 27.12.2019
5408 Clouds 2 1020 86 11265 5.7 280 09:22 27.12.2019
5409 Clouds 2 1020 80 11265 6.2 280 08:59 27.12.2019
5410 Clouds 2 1019 86 11265 3.6 270 08:41 27.12.2019
5411 Clouds 3 1019 86 11265 3.6 270 08:22 27.12.2019
5412 Clouds 3 1019 86 16093 2.6 250 07:38 27.12.2019
5413 Clouds 3 1019 86 16093 5.7 270 06:59 27.12.2019
5414 Clouds 3 1019 81 16093 5.1 270 06:23 27.12.2019
5415 Clouds 4 1017 86 12874 3.1 260 04:37 27.12.2019
5416 Clouds 6 1017 81 16093 3.1 290 02:28 27.12.2019
5417 Clouds 9 1016 87 16093 2.6 260 01:44 27.12.2019
5418 Clouds 10 1016 93 16093 5.42 224 01:21 27.12.2019
5419 Clouds 10 1016 82 16093 5.09 222 00:46 27.12.2019
5420 Clouds 11 1016 82 16093 5.09 222 00:25 27.12.2019
5421 Clouds 12 1015 67 16093 3.6 250 23:56 26.12.2019
5422 Clouds 13 1015 82 16093 5.09 222 23:37 26.12.2019
5423 Clouds 14 1015 82 16093 5.53 235 23:19 26.12.2019
5424 Clouds 15 1015 72 16093 5.1 210 22:40 26.12.2019
5425 Clouds 15 1015 72 16093 5.1 210 22:18 26.12.2019
5426 Clouds 16 1014 72 16093 5.1 230 21:40 26.12.2019
5427 Clouds 16 1014 72 16093 5.1 230 21:21 26.12.2019
5428 Clouds 16 1014 67 16093 6.2 220 20:58 26.12.2019
5429 Clouds 16 1014 67 16093 6.2 220 20:38 26.12.2019
5430 Clouds 16 1014 67 16093 6.2 220 20:20 26.12.2019
5431 Clouds 16 1014 72 16093 6.7 210 19:55 26.12.2019
5432 Clear 16 1014 72 16093 7.2 230 19:37 26.12.2019
5433 Clear 16 1014 72 16093 7.2 230 19:19 26.12.2019
5434 Clouds 16 1013 67 16093 6.2 230 19:19 26.12.2019
5435 Clouds 15 1013 67 16093 6.2 230 18:55 26.12.2019
5436 Clear 15 1015 82 16093 6.7 230 18:36 26.12.2019
5437 Clouds 15 1014 72 16093 5.7 230 18:18 26.12.2019
5438 Clear 14 1014 76 16093 4.6 220 17:41 26.12.2019
5439 Clouds 13 1015 87 16093 5.7 220 17:21 26.12.2019
5440 Clouds 13 1016 87 16093 5.7 220 17:21 26.12.2019
5441 Clouds 13 1015 93 16093 6.2 210 16:49 26.12.2019
5442 Clouds 12 1015 93 16093 5.1 210 16:26 26.12.2019
5443 Clouds 11 1014 87 16093 6.2 210 15:57 26.12.2019
5444 Clouds 11 1015 100 16093 4.1 210 15:38 26.12.2019
5445 Clouds 10 1015 100 16093 4.1 210 15:19 26.12.2019
5446 Clouds 10 1014 100 16093 5.1 220 14:41 26.12.2019
5447 Clouds 10 1014 100 16093 5.1 220 14:23 26.12.2019
5448 Clear 10 1014 100 16093 4.1 210 13:55 26.12.2019
5449 Clear 11 1014 93 16093 5.1 210 13:36 26.12.2019
5450 Clear 11 1014 93 16093 5.1 210 13:18 26.12.2019
5451 Clear 11 1012 87 16093 3.6 200 12:44 26.12.2019
5452 Clear 11 1014 93 16093 5.1 210 12:24 26.12.2019
5453 Clouds 11 1013 81 16093 4.6 210 11:59 26.12.2019
5454 Clear 11 1014 93 16093 4.1 210 11:40 26.12.2019
5455 Clear 11 1014 93 16093 4.1 210 11:21 26.12.2019
5456 Clear 11 1014 93 16093 6.2 210 10:50 26.12.2019
5457 Clear 11 1014 93 16093 6.2 210 10:25 26.12.2019
5458 Clouds 11 1013 81 16093 5.1 210 09:55 26.12.2019
5459 Clear 11 1014 87 16093 4.6 210 09:33 26.12.2019
5460 Clouds 12 1012 76 16093 4.6 210 08:59 26.12.2019
5461 Clear 12 1013 81 16093 5.1 210 08:39 26.12.2019
5462 -273 0 0 0 0 0 08:20 26.12.2019
5463 Clouds 12 1013 71 16093 3.6 200 07:38 26.12.2019
5464 Clouds 12 1013 76 16093 6.2 210 07:19 26.12.2019
5465 Clouds 12 1012 76 16093 5.7 210 06:37 26.12.2019
5466 Clouds 12 1012 76 16093 5.7 210 06:19 26.12.2019
5467 Clear 12 1013 67 16093 5.1 200 05:40 26.12.2019
5468 Clear 12 1013 76 16093 4.1 200 04:33 26.12.2019
5469 Clear 12 1012 76 16093 4.6 200 03:31 26.12.2019
5470 Clear 12 1012 81 16093 4.1 190 02:46 26.12.2019
5471 Clear 12 1012 87 16093 4.1 180 02:25 26.12.2019
5472 Clear 12 1012 87 16093 4.1 180 02:25 26.12.2019
5473 Clear 12 1011 81 16093 3.1 180 01:44 26.12.2019
5474 Clear 12 1012 87 16093 5.47 187 01:44 26.12.2019
5475 Clear 12 1012 87 16093 5.35 186 01:24 26.12.2019
5476 Clear 11 1012 76 16093 3.6 190 00:43 26.12.2019
5477 Clear 11 1012 76 16093 3.6 190 00:23 26.12.2019
5478 Clear 13 1012 76 16093 4.1 200 23:57 25.12.2019
5479 Clear 13 1012 71 16093 4.6 200 23:36 25.12.2019
5480 Clear 13 1012 71 16093 4.6 200 23:18 25.12.2019
5481 Clouds 14 1011 62 16093 4.6 210 22:55 25.12.2019
5482 Clear 14 1011 67 16093 5.7 190 22:37 25.12.2019
5483 Clouds 15 1011 55 16093 3.6 200 22:18 25.12.2019
5484 Clear 15 1011 59 16093 5.7 210 21:41 25.12.2019
5485 Clear 15 1011 59 16093 5.7 210 21:23 25.12.2019
5486 Clear 14 1012 62 16093 5.1 210 20:59 25.12.2019
5487 Clear 14 1012 62 16093 5.7 210 20:40 25.12.2019
5488 Clear 14 1012 62 16093 5.7 210 20:20 25.12.2019
5489 Clouds 13 1011 58 16093 6.7 210 19:57 25.12.2019
5490 Clear 13 1013 62 16093 4.6 210 19:39 25.12.2019
5491 Clear 13 1013 62 16093 4.6 210 19:21 25.12.2019
5492 Clear 12 1013 66 16093 6.2 220 18:39 25.12.2019
5493 Clear 12 1013 66 16093 6.2 220 18:20 25.12.2019
5494 Clear 10 1014 66 16093 5.1 220 17:57 25.12.2019
5495 Clear 10 1014 66 16093 4.6 210 17:36 25.12.2019
5496 Clear 9 1014 66 16093 4.6 210 17:18 25.12.2019
5497 Clear 7 1014 75 16093 3.6 200 16:39 25.12.2019
5498 Clouds 6 1013 70 16093 3.6 200 16:19 25.12.2019
5499 Clouds 6 1013 70 16093 3.6 200 15:58 25.12.2019
5500 Clear 5 1014 80 16093 3.1 200 15:39 25.12.2019
5501 Clouds 4 1013 75 16093 3.1 200 15:21 25.12.2019
5502 Clouds 4 1013 75 16093 3.1 200 14:58 25.12.2019
5503 Clear 4 1014 80 16093 4.1 200 14:40 25.12.2019
5504 Clouds 4 1013 75 16093 3.1 180 14:21 25.12.2019
5505 Clear 4 1014 80 16093 4.1 200 14:21 25.12.2019
5506 Clear 4 1014 80 16093 4.1 200 14:21 25.12.2019
5507 Clear 4 1014 80 16093 4.1 200 14:21 25.12.2019
5508 Clear 4 1014 80 16093 4.1 200 14:21 25.12.2019
5509 Clear 4 1014 80 16093 3.1 190 13:57 25.12.2019
5510 Clear 4 1014 86 16093 2.6 180 13:38 25.12.2019
5511 Clear 4 1014 86 16093 2.6 180 13:19 25.12.2019
5512 Clear 3 1014 80 16093 3.6 180 12:40 25.12.2019
5513 Clear 3 1014 80 16093 3.6 180 12:20 25.12.2019
5514 Clouds 4 1013 86 16093 2.1 210 11:56 25.12.2019
5515 Clear 4 1014 86 16093 2.1 190 11:38 25.12.2019
5516 Clear 4 1014 86 16093 2.1 190 11:18 25.12.2019
5517 Clear 4 1014 75 16093 2.1 170 10:38 25.12.2019
5518 Clear 4 1014 93 16093 3.1 200 10:20 25.12.2019
5519 Clear 4 1014 81 16093 2.1 180 09:51 25.12.2019
5520 Clear 5 1014 93 16093 2.1 200 09:32 25.12.2019
5521 Clear 5 1014 75 16093 2.1 180 08:51 25.12.2019
5522 Clear 5 1014 100 16093 1.5 200 08:31 25.12.2019
5523 Clear 6 1014 93 16093 1.5 170 07:50 25.12.2019
5524 Clear 6 1014 93 16093 2.6 190 07:32 25.12.2019
5525 Clear 6 1014 75 16093 3.1 180 06:51 25.12.2019
5526 Clear 6 1014 93 16093 2.6 180 06:23 25.12.2019
5527 Clear 7 1015 86 16093 2.1 180 05:18 25.12.2019
5528 Clear 8 1014 87 16093 3.6 180 04:39 25.12.2019
5529 Clear 8 1014 87 16093 3.6 180 04:20 25.12.2019
5530 Clear 8 1015 87 16093 4.1 180 03:41 25.12.2019
5531 Clear 8 1015 87 16093 5.7 180 02:53 25.12.2019
5532 Clouds 9 1014 76 16093 5.7 190 02:20 25.12.2019
5533 Clear 9 1015 81 16093 5.7 180 01:25 25.12.2019
5534 Clouds 10 1014 71 16093 5.1 170 00:53 25.12.2019
5535 Clear 10 1016 76 16093 4.1 180 00:30 25.12.2019
5536 Clouds 10 1015 71 16093 4.6 180 23:57 24.12.2019
5537 Clear 10 1016 70 16093 3.6 180 23:38 24.12.2019
5538 Clear 11 1016 70 16093 3.6 180 23:20 24.12.2019
5539 Clear 12 1015 54 16093 5.7 180 22:41 24.12.2019
5540 Clear 12 1015 54 16093 5.7 180 22:21 24.12.2019
5541 Clear 12 1014 58 16093 4.1 190 21:44 24.12.2019
5542 Clear 12 1016 54 16093 6.2 180 21:23 24.12.2019
5543 Clouds 12 1015 54 16093 4.6 190 20:57 24.12.2019
5544 Clear 12 1017 66 16093 4.6 170 20:39 24.12.2019
5545 Clear 11 1017 66 16093 4.6 170 20:18 24.12.2019
5546 Clear 10 1015 62 16093 4.1 180 19:44 24.12.2019
5547 Clear 10 1018 66 16093 4.1 190 19:20 24.12.2019
5548 Clear 9 1019 75 16093 3.1 160 18:44 24.12.2019
5549 Clear 8 1019 100 16093 3.1 170 18:24 24.12.2019
5550 Clouds 6 1018 86 16093 4.1 180 17:59 24.12.2019
5551 Haze 5 1019 81 9656 3.1 190 17:38 24.12.2019
5552 Mist 4 1020 100 4023 2.6 200 17:20 24.12.2019
5553 Mist 3 1019 100 3219 2.1 170 16:55 24.12.2019
5554 Mist 2 1019 100 3219 2.1 170 16:37 24.12.2019
5555 Fog 1 1020 85 402 1.5 300 16:19 24.12.2019
5556 Mist 1 1019 85 8047 1.5 220 15:55 24.12.2019
5557 Mist 0 1019 100 1609 4.94 187 15:36 24.12.2019
5558 Fog 0 1019 100 0 4.94 187 15:18 24.12.2019
5559 Fog 0 1019 100 0 4.94 187 14:55 24.12.2019
5560 Fog 0 1019 100 201 1.5 120 14:37 24.12.2019
5561 Fog 0 1019 100 0 4.13 152 14:19 24.12.2019
5562 Fog 0 1019 92 402 4.13 152 13:55 24.12.2019
5563 Fog 1 1019 100 402 4.51 156 13:37 24.12.2019
5564 Fog 1 1019 100 402 4.51 156 13:37 24.12.2019
5565 Fog 1 1019 100 402 4.51 156 13:19 24.12.2019
5566 Fog 1 1019 100 402 4.51 156 12:55 24.12.2019
5567 Snow 1 1019 100 402 2.6 60 12:36 24.12.2019
5568 Fog 1 1019 100 402 4.51 156 12:18 24.12.2019
5569 Fog 1 1019 100 402 4.51 156 11:55 24.12.2019
5570 Fog 1 1019 100 402 4.51 156 11:36 24.12.2019
5571 Mist 1 1019 85 3219 3.02 108 11:18 24.12.2019
5572 Mist 1 1019 85 3219 3.02 108 10:55 24.12.2019
5573 Mist 1 1019 93 2414 3.02 108 10:36 24.12.2019
5574 Fog 1 1019 100 805 2.1 60 10:18 24.12.2019
5575 Mist 1 1019 85 6437 3.02 108 09:54 24.12.2019
5576 Fog 1 1019 100 402 2.1 10 09:36 24.12.2019
5577 Mist 1 1019 93 8047 3.02 108 09:18 24.12.2019
5578 Mist 1 1019 85 4828 1.5 10 08:43 24.12.2019
5579 Clouds 1 1019 93 11265 2.3 92 08:20 24.12.2019
5580 Mist 1 1019 85 1609 2.66 101 07:45 24.12.2019
5581 Mist 1 1020 85 8047 2.66 101 07:25 24.12.2019
5582 Mist 1 1020 85 3219 1.5 30 06:57 24.12.2019
5583 Clear 1 1019 85 11265 2.66 101 06:38 24.12.2019
5584 Clouds 1 1019 93 11265 3.1 10 06:18 24.12.2019
5585 Clouds 2 1019 93 12874 3.6 30 05:20 24.12.2019
5586 Clear 2 1019 85 16093 4.07 64 04:36 24.12.2019
5587 Clear 3 1020 85 16093 1.5 50 03:50 24.12.2019
5588 Clouds 3 1019 75 16093 2.6 50 02:59 24.12.2019
5589 Clear 3 1019 79 16093 1.5 30 02:19 24.12.2019
5590 Clear 4 1019 75 16093 2.29 21 01:42 24.12.2019
5591 Clear 4 1019 75 16093 2.1 0 01:20 24.12.2019
5592 Clear 5 1019 78 16093 1.5 220 00:43 24.12.2019
5593 Clear 5 1019 78 16093 1.5 220 00:23 24.12.2019
5594 Clouds 6 1018 57 16093 2.1 0 23:55 23.12.2019
5595 Clear 7 1019 53 16093 1.5 310 23:37 23.12.2019
5596 Clear 7 1019 53 16093 1.5 310 23:37 23.12.2019
5597 Clear 8 1019 53 16093 1.5 310 23:19 23.12.2019
5598 Clouds 9 1018 50 16093 2.1 260 22:54 23.12.2019
5599 Clear 9 1017 70 16093 2.1 270 22:36 23.12.2019
5600 Clouds 10 1017 46 16093 3.1 270 22:18 23.12.2019
5601 Clouds 10 1017 46 16093 3.1 270 22:18 23.12.2019
5602 Clouds 10 1017 46 16093 3.1 270 21:54 23.12.2019
5603 Clear 10 1017 46 16093 3.6 250 21:36 23.12.2019
5604 Clear 10 1017 46 16093 3.6 250 21:18 23.12.2019
5605 Clear 10 1017 46 16093 3.6 250 21:18 23.12.2019
5606 Clouds 10 1017 46 16093 2.6 270 20:55 23.12.2019
5607 Clear 10 1017 46 16093 3.6 250 20:37 23.12.2019
5608 Clouds 10 1017 53 16093 4.1 260 20:18 23.12.2019
5609 Clouds 10 1017 53 16093 4.1 260 20:18 23.12.2019
5610 Clouds 9 1017 53 16093 4.1 260 19:54 23.12.2019
5611 Clear 9 1018 66 16093 3.6 270 19:36 23.12.2019
5612 Clear 9 1018 66 16093 3.6 270 19:18 23.12.2019
5613 Clouds 9 1018 53 16093 5.7 260 18:54 23.12.2019
5614 Clear 9 1018 61 16093 2.6 260 18:36 23.12.2019
5615 Clear 8 1018 61 16093 2.6 260 18:18 23.12.2019
5616 Clear 8 1020 61 16093 4.1 240 17:55 23.12.2019
5617 Clear 7 1020 61 16093 4.1 250 17:37 23.12.2019
5618 Clouds 6 1019 61 16093 6.7 240 17:18 23.12.2019
5619 Clear 5 1018 70 16093 4.1 240 16:42 23.12.2019
5620 Clouds 4 1019 70 16093 4.1 250 16:19 23.12.2019
5621 Clouds 3 1019 70 16093 4.1 250 15:58 23.12.2019
5622 Mist 3 1019 93 8047 3.1 190 15:37 23.12.2019
5623 Mist 2 1019 93 8047 3.1 190 15:19 23.12.2019
5624 Clouds 2 1018 74 16093 3.6 230 14:57 23.12.2019
5625 Clear 2 1019 77 11265 3.1 210 14:39 23.12.2019
5626 Clouds 1 1019 80 16093 3.6 230 14:20 23.12.2019
5627 Clouds 1 1019 80 16093 3.6 230 13:57 23.12.2019
5628 Clear 1 1019 77 11265 2.1 230 13:39 23.12.2019
5629 Clear 1 1019 79 11265 2.1 230 13:21 23.12.2019
5630 Clouds 1 1019 80 16093 4.1 200 12:55 23.12.2019
5631 Mist 1 1019 79 8047 3.6 220 12:37 23.12.2019
5632 Mist 2 1019 79 8047 3.6 220 12:18 23.12.2019
5633 Clear 1 1019 80 16093 3.1 200 11:43 23.12.2019
5634 Clear 2 1019 76 11265 2.6 210 11:25 23.12.2019
5635 Clouds 2 1018 74 16093 4.1 210 10:56 23.12.2019
5636 Mist 2 1019 76 8047 2.1 210 10:38 23.12.2019
5637 Mist 2 1019 76 8047 2.1 210 10:20 23.12.2019
5638 Clouds 2 1019 69 16093 3.1 220 09:58 23.12.2019
5639 Clear 2 1020 76 11265 2.6 190 09:39 23.12.2019
5640 Clear 2 1020 76 11265 2.6 190 09:20 23.12.2019
5641 Clouds 2 1019 74 16093 3.6 220 08:55 23.12.2019
5642 Clear 2 1019 76 16093 4.6 220 08:37 23.12.2019
5643 Clear 2 1019 77 16093 4.6 220 08:18 23.12.2019
5644 Clear 2 1020 69 16093 3.1 220 07:43 23.12.2019
5645 Clear 3 1020 75 16093 3.1 240 07:19 23.12.2019
5646 Clear 3 1020 80 16093 3.6 220 06:45 23.12.2019
5647 Clear 3 1020 80 16093 3.6 220 06:23 23.12.2019
5648 Clear 3 1021 65 16093 3.1 200 05:47 23.12.2019
5649 Clouds 4 1020 69 16093 3.6 210 05:18 23.12.2019
5650 Clouds 4 1020 75 16093 4.6 200 04:19 23.12.2019
5651 Clear 5 1021 75 16093 4.6 210 02:49 23.12.2019
5652 Clear 5 1021 80 16093 4.6 210 02:23 23.12.2019
5653 Clouds 6 1021 70 16093 4.6 210 01:53 23.12.2019
5654 Clear 6 1021 75 16093 4.1 200 01:32 23.12.2019
5655 Clouds 7 1020 61 16093 4.6 190 00:55 23.12.2019
5656 Clear 7 1021 70 16093 4.6 200 00:35 23.12.2019
5657 Clouds 8 1021 57 16093 4.6 200 23:57 22.12.2019
5658 Clear 9 1021 61 16093 3.6 190 23:39 22.12.2019
5659 Clear 9 1021 61 16093 3.6 190 23:20 22.12.2019
5660 Clouds 10 1021 50 16093 4.1 210 22:57 22.12.2019
5661 Clear 10 1022 53 16093 4.6 210 22:38 22.12.2019
5662 Clear 11 1022 53 16093 4.6 210 22:19 22.12.2019
5663 Clear 11 1022 50 16093 4.6 210 21:56 22.12.2019
5664 Clear 11 1022 50 16093 2.6 220 21:38 22.12.2019
5665 Clear 11 1022 50 16093 2.6 220 21:38 22.12.2019
5666 Clear 11 1022 50 16093 2.6 220 21:20 22.12.2019
5667 Clouds 11 1021 46 16093 5.7 220 20:55 22.12.2019
5668 Clear 11 1023 70 16093 3.6 220 20:37 22.12.2019
5669 Clear 11 1023 70 16093 3.6 220 20:37 22.12.2019
5670 Clear 10 1023 71 16093 3.6 220 20:18 22.12.2019
5671 Clear 10 1024 71 16093 1.5 190 19:40 22.12.2019
5672 Clear 9 1024 71 16093 1.5 190 19:21 22.12.2019
5673 Clouds 9 1023 49 16093 5.1 230 18:58 22.12.2019
5674 Clear 8 1025 71 16093 1.5 340 18:38 22.12.2019
5675 Clouds 7 1024 56 16093 5.1 210 18:19 22.12.2019
5676 Clear 6 1025 71 16093 6.02 212 17:55 22.12.2019
5677 Clear 5 1025 71 16093 6.02 212 17:37 22.12.2019
5678 Clear 5 1025 74 16093 6.95 222 17:18 22.12.2019
5679 Clear 3 1024 69 16093 3.1 230 16:43 22.12.2019
5680 Clear 3 1024 69 16093 3.1 230 16:43 22.12.2019
5681 Clear 3 1025 80 16093 6.95 222 16:23 22.12.2019
5682 Clouds 1 1025 74 16093 3.1 200 15:59 22.12.2019
5683 Clear 1 1025 74 16093 6.95 222 15:39 22.12.2019
5684 Clear 0 1025 74 16093 6.95 222 15:21 22.12.2019
5685 Clear 0 1025 74 16093 6.95 222 15:21 22.12.2019
5686 Clouds 0 1024 74 16093 3.1 200 14:59 22.12.2019
5687 Clear 0 1025 86 16093 6.95 222 14:39 22.12.2019
5688 Clear 0 1025 86 16093 6.57 227 14:19 22.12.2019
5689 Clouds 0 1025 77 16093 3.1 210 13:56 22.12.2019
5690 Clear 0 1025 80 16093 6.57 227 13:38 22.12.2019
5691 Clear 0 1025 80 16093 6.7 232 13:19 22.12.2019
5692 Clouds 0 1025 74 16093 3.1 210 12:57 22.12.2019
5693 Clear 0 1026 80 16093 6.7 232 12:39 22.12.2019
5694 Clear 0 1026 80 16093 6.7 232 12:19 22.12.2019
5695 Clouds 0 1025 74 16093 3.1 210 11:59 22.12.2019
5696 Clear 0 1026 86 16093 6.7 232 11:39 22.12.2019
5697 Clear 0 1026 86 16093 7.46 235 11:20 22.12.2019
5698 Clear 0 1026 59 16093 1.5 190 10:57 22.12.2019
5699 Clear 0 1026 59 16093 1.5 190 10:39 22.12.2019
5700 Clear 0 1026 86 16093 7.46 235 10:19 22.12.2019
5701 Clouds 1 1025 74 16093 3.1 210 09:58 22.12.2019
5702 Clear 1 1026 86 16093 7.46 235 09:39 22.12.2019
5703 Clear 1 1026 86 16093 7.46 235 09:21 22.12.2019
5704 Clear 1 1026 69 16093 2.1 210 08:45 22.12.2019
5705 Clear 1 1026 85 16093 7.86 228 08:23 22.12.2019
5706 Clear 1 1026 64 16093 1.5 200 07:50 22.12.2019
5707 Clear 1 1026 86 16093 8.38 229 07:22 22.12.2019
5708 Clouds 1 1026 74 16093 3.6 210 06:57 22.12.2019
5709 Clear 1 1027 87 16093 8.38 229 06:27 22.12.2019
5710 Clear 2 1027 69 16093 2.6 190 05:43 22.12.2019
5711 Clear 2 1026 85 16093 3.6 190 05:21 22.12.2019
5712 Clear 2 1027 85 16093 2.6 200 04:27 22.12.2019
5713 Clear 2 1027 86 16093 3.6 210 03:28 22.12.2019
5714 Clear 3 1027 85 16093 2.6 200 02:35 22.12.2019
5715 Clear 3 1026 83 16093 3.6 200 01:33 22.12.2019
5716 Clear 3 1026 60 16093 3.1 210 00:59 22.12.2019
5717 Clear 4 1026 86 16093 2.6 200 00:41 22.12.2019
5718 Clear 4 1026 86 16093 2.6 200 00:21 22.12.2019
5719 Clear 7 1026 83 16093 3.1 200 23:42 21.12.2019
5720 Clear 6 1026 77 16093 3.1 200 23:24 21.12.2019
5721 Clear 7 1026 65 16093 3.6 200 22:58 21.12.2019
5722 Clear 7 1026 61 16093 5.1 210 22:39 21.12.2019
5723 Clear 8 1026 61 16093 5.1 210 22:19 21.12.2019
5724 Clouds 8 1025 49 16093 4.6 210 21:56 21.12.2019
5725 Clear 8 1026 77 16093 4.1 200 21:37 21.12.2019
5726 Clear 8 1026 77 16093 4.1 200 21:18 21.12.2019
5727 Clouds 8 1025 49 16093 5.7 210 20:57 21.12.2019
5728 Clouds 8 1025 49 16093 5.7 210 20:57 21.12.2019
5729 Clear 8 1026 77 16093 5.1 200 20:37 21.12.2019
5730 Clear 8 1026 77 16093 5.1 200 20:37 21.12.2019
5731 Clear 7 1026 74 16093 5.1 200 20:19 21.12.2019
5732 Clear 7 1026 52 16093 4.1 210 19:56 21.12.2019
5733 Clear 7 1027 74 16093 3.6 220 19:36 21.12.2019
5734 Clear 6 1027 74 16093 3.6 220 19:18 21.12.2019
5735 Clear 6 1027 60 16093 3.6 220 18:42 21.12.2019
5736 Clear 6 1026 60 16093 2.6 210 18:42 21.12.2019
5737 Clear 6 1027 60 16093 3.6 220 18:23 21.12.2019
5738 Clear 5 1027 56 16093 4.1 220 17:57 21.12.2019
5739 Clear 4 1029 64 16093 4.1 230 17:39 21.12.2019
5740 Clear 3 1029 64 16093 4.1 230 17:20 21.12.2019
5741 Clear 2 1029 69 16093 2.6 230 16:57 21.12.2019
5742 Clear 2 1029 74 16093 2.1 230 16:39 21.12.2019
5743 Clouds 1 1028 74 16093 4.1 210 16:18 21.12.2019
5744 Clouds 1 1028 74 16093 4.1 210 15:56 21.12.2019
5745 Clear 0 1028 86 11265 1.5 190 15:37 21.12.2019
5746 Clear -1 1028 86 11265 1.5 190 15:18 21.12.2019
5747 Clear -1 1027 86 11265 2.1 220 14:43 21.12.2019
5748 Clear -1 1028 92 11265 5.27 232 14:24 21.12.2019
5749 Clouds -1 1028 72 16093 3.6 210 13:58 21.12.2019
5750 Clouds -1 1028 86 16093 2.6 200 13:40 21.12.2019
5751 Clouds -1 1028 86 16093 2.6 200 13:20 21.12.2019
5752 Clouds -1 1028 86 16093 2.6 200 13:20 21.12.2019
5753 Clear 0 1028 74 16093 4.6 210 12:57 21.12.2019
5754 Clouds 0 1028 80 16093 2.1 210 12:39 21.12.2019
5755 Clouds 0 1028 80 16093 2.1 210 12:20 21.12.2019
5756 Clouds 0 1028 69 16093 2.6 210 11:57 21.12.2019
5757 Clouds 0 1028 80 16093 2.1 190 11:39 21.12.2019
5758 Clouds 0 1028 80 16093 2.1 190 11:21 21.12.2019
5759 Clouds 1 1029 75 16093 1.5 220 10:41 21.12.2019
5760 Clouds 1 1029 75 16093 1.5 220 10:23 21.12.2019
5761 Clouds 1 1029 75 16093 1.5 220 10:23 21.12.2019
5762 Clouds 1 1028 69 16093 3.1 210 09:58 21.12.2019
5763 Clouds 1 1029 74 16093 3.1 200 09:40 21.12.2019
5764 Clouds 1 1029 74 16093 3.1 200 09:20 21.12.2019
5765 Clouds 1 1028 80 16093 3.1 180 08:53 21.12.2019
5766 Clouds 1 1028 80 16093 2.6 190 08:27 21.12.2019
5767 Clouds 1 1028 69 16093 3.1 180 07:59 21.12.2019
5768 Clouds 1 1029 74 16093 2.1 200 07:41 21.12.2019
5769 Clouds 1 1029 74 16093 2.1 200 07:21 21.12.2019
5770 Clouds 1 1029 74 16093 2.6 190 06:42 21.12.2019
5771 Clouds 1 1029 74 16093 2.6 190 06:24 21.12.2019
5772 Clouds 1 1028 80 16093 2.1 200 05:43 21.12.2019
5773 Clear 1 1030 88 16093 2.6 160 04:55 21.12.2019
5774 Clouds 1 1029 74 14484 3.1 200 03:56 21.12.2019
5775 Clear 1 1030 88 16093 2.6 170 02:26 21.12.2019
5776 Clouds 1 1029 74 14484 3.1 180 01:53 21.12.2019
5777 Clear 1 1030 86 16093 3.1 170 01:26 21.12.2019
5778 Clear 2 1028 80 16093 2.1 170 00:49 21.12.2019
5779 Clouds 2 1029 69 14484 2.1 190 00:28 21.12.2019
5780 Clear 3 1030 80 16093 2.1 160 23:40 20.12.2019
5781 Clear 3 1030 80 16093 2.1 160 23:40 20.12.2019
5782 Clouds 3 1029 64 14484 3.1 180 23:21 20.12.2019
5783 Clouds 3 1029 64 14484 3.1 180 22:59 20.12.2019
5784 Clear 4 1029 69 16093 4.1 170 22:39 20.12.2019
5785 Clouds 4 1028 60 16093 3.1 180 22:19 20.12.2019
5786 Clouds 4 1028 60 16093 3.1 180 21:56 20.12.2019
5787 Clear 4 1029 69 16093 3.1 170 21:38 20.12.2019
5788 Clear 4 1029 69 16093 3.1 170 21:18 20.12.2019
5789 Clear 4 1030 74 16093 4.1 160 20:39 20.12.2019
5790 Clouds 4 1029 64 11265 3.6 190 20:19 20.12.2019
5791 Clouds 4 1029 64 11265 3.6 190 19:57 20.12.2019
5792 Clear 3 1031 74 16093 4.1 220 19:39 20.12.2019
5793 Clear 3 1031 74 16093 4.1 220 19:19 20.12.2019
5794 Clear 2 1029 74 16093 2.6 190 18:42 20.12.2019
5795 Clear 2 1031 74 16093 2.6 160 18:23 20.12.2019
5796 Clear 1 1031 80 11265 3.6 160 17:58 20.12.2019
5797 Mist 0 1031 80 8047 2.1 160 17:40 20.12.2019
5798 Mist 0 1031 80 8047 2.1 160 17:20 20.12.2019
5799 Clear -1 1031 86 11265 2.1 160 16:57 20.12.2019
5800 Clear -2 1031 86 11265 2.1 160 16:38 20.12.2019
5801 Mist -3 1031 79 8047 2.6 150 16:19 20.12.2019
5802 Mist -3 1031 92 8047 6.13 170 15:55 20.12.2019
5803 Mist -4 1030 79 6437 2.1 0 15:37 20.12.2019
5804 Mist -5 1030 79 6437 2.1 0 15:19 20.12.2019
5805 Mist -6 1030 92 6437 1.5 110 14:43 20.12.2019
5806 Mist -5 1030 79 8047 2.1 150 14:24 20.12.2019
5807 Mist -5 1031 92 8047 4.95 157 13:59 20.12.2019
5808 Mist -5 1031 92 8047 4.95 157 13:59 20.12.2019
5809 Mist -5 1031 92 8047 4.95 157 13:40 20.12.2019
5810 Mist -5 1030 85 8047 1.5 160 13:19 20.12.2019
5811 Mist -5 1030 92 8047 4.08 170 12:57 20.12.2019
5812 Mist -5 1030 79 9656 1.5 170 12:37 20.12.2019
5813 Mist -5 1030 79 9656 1.5 170 12:18 20.12.2019
5814 Mist -5 1030 100 8047 4.08 170 11:57 20.12.2019
5815 Mist -5 1030 100 8047 4.08 170 11:39 20.12.2019
5816 Mist -5 1030 85 9656 2.86 220 11:18 20.12.2019
5817 Mist -5 1030 92 8047 1.5 130 10:56 20.12.2019
5818 Mist -5 1030 92 8047 1.5 130 10:38 20.12.2019
5819 Mist -5 1029 79 9656 2.86 220 10:20 20.12.2019
5820 Mist -5 1030 92 6437 2.86 220 09:43 20.12.2019
5821 Mist -5 1029 79 9656 2.86 220 09:21 20.12.2019
5822 Mist -5 1029 92 4828 2.86 220 08:58 20.12.2019
5823 Mist -5 1029 92 4828 2.86 220 08:40 20.12.2019
5824 Mist -5 1028 92 2414 2.94 232 08:21 20.12.2019
5825 Mist -5 1029 92 4828 2.94 232 07:57 20.12.2019
5826 Mist -5 1029 92 4828 2.94 232 07:38 20.12.2019
5827 Clouds -4 1028 79 11265 2.94 232 07:18 20.12.2019
5828 Clear -4 1028 92 11265 1.5 110 06:48 20.12.2019
5829 Clouds -4 1027 86 11265 1.5 120 06:29 20.12.2019
5830 Mist -4 1028 85 8047 2.94 232 05:49 20.12.2019
5831 Clouds -4 1027 92 12874 1.5 130 05:20 20.12.2019
5832 Clear -3 1027 86 11265 1.5 210 03:50 20.12.2019
5833 Clouds -2 1026 80 11265 2.1 190 03:21 20.12.2019
5834 Clouds -2 1026 80 12874 3.1 200 02:30 20.12.2019
5835 Clear -1 1025 86 16093 4.74 237 01:36 20.12.2019
5836 Clear -1 1024 78 16093 1.5 210 00:58 20.12.2019
5837 Clouds -1 1025 69 14484 2.6 200 00:36 20.12.2019
5838 Clear 0 1025 78 16093 3.6 220 23:58 19.12.2019
5839 Clear 0 1025 78 16093 3.6 220 23:40 19.12.2019
5840 Clouds 1 1024 59 16093 3.6 240 23:21 19.12.2019
5841 Clear 2 1024 69 16093 5.1 230 22:40 19.12.2019
5842 Clouds 2 1024 55 16093 6.7 230 22:22 19.12.2019
5843 Clear 2 1024 64 16093 6.2 220 21:59 19.12.2019
5844 Clear 2 1024 64 16093 6.2 220 21:59 19.12.2019
5845 Clear 2 1024 64 16093 6.2 220 21:41 19.12.2019
5846 Clouds 2 1023 51 16093 4.6 230 21:19 19.12.2019
5847 Clear 2 1024 64 16093 7.2 220 20:58 19.12.2019
5848 Clear 2 1024 64 16093 7.2 220 20:38 19.12.2019
5849 Clouds 2 1023 55 16093 5.1 240 20:20 19.12.2019
5850 Clear 1 1024 59 16093 7.2 230 19:58 19.12.2019
5851 Clear 1 1022 64 16093 3.6 210 19:40 19.12.2019
5852 Clear 1 1024 59 16093 7.2 230 19:40 19.12.2019
5853 Clouds 1 1023 51 16093 6.7 250 19:20 19.12.2019
5854 Clouds 1 1023 51 16093 6.7 250 19:20 19.12.2019
5855 Clouds 1 1023 51 16093 6.7 250 19:20 19.12.2019
5856 Clear 0 1024 73 16093 6.2 220 18:59 19.12.2019
5857 Clear 0 1024 73 16093 6.2 220 18:40 19.12.2019
5858 Clouds -1 1024 73 16093 7.7 230 18:20 19.12.2019
5859 Clear -1 1025 58 16093 7.2 210 17:56 19.12.2019
5860 Clouds -2 1025 58 16093 6.2 220 17:38 19.12.2019
5861 Clouds -2 1025 58 16093 6.2 220 17:18 19.12.2019
5862 Clear -3 1026 58 16093 6.2 210 16:56 19.12.2019
5863 Clear -3 1026 58 16093 6.2 210 16:56 19.12.2019
5864 Clear -4 1026 58 16093 6.2 210 16:38 19.12.2019
5865 Clouds -5 1025 57 16093 6.2 210 16:19 19.12.2019
5866 Clouds -5 1025 57 16093 6.2 210 16:19 19.12.2019
5867 Clear -6 1025 57 16093 5.7 210 15:58 19.12.2019
5868 Clear -6 1025 57 16093 5.7 210 15:38 19.12.2019
5869 Clouds -6 1025 57 16093 6.2 220 15:19 19.12.2019
5870 Clear -7 1025 57 16093 5.7 200 14:57 19.12.2019
5871 Clear -7 1025 57 16093 5.7 200 14:38 19.12.2019
5872 Clouds -7 1024 48 16093 6.7 200 14:18 19.12.2019
5873 Clear -8 1024 48 16093 5.7 200 13:39 19.12.2019
5874 Clear -8 1025 61 16093 4.6 180 13:39 19.12.2019
5875 Clear -8 1024 48 16093 5.7 200 13:20 19.12.2019
5876 Clear -8 1024 48 16093 5.7 200 13:20 19.12.2019
5877 Clear -8 1026 61 16093 4.6 180 12:58 19.12.2019
5878 Clear -8 1026 61 16093 4.6 180 12:40 19.12.2019
5879 Clear -9 1025 48 16093 5.7 180 12:19 19.12.2019
5880 Clear -9 1026 66 16093 4.1 180 11:59 19.12.2019
5881 Clear -9 1026 66 16093 4.1 180 11:41 19.12.2019
5882 Clear -9 1026 56 16093 4.6 200 11:18 19.12.2019
5883 Clear -9 1027 56 16093 3.1 170 10:59 19.12.2019
5884 Clear -9 1027 56 16093 3.1 170 10:38 19.12.2019
5885 Clear -9 1026 52 16093 3.1 190 10:20 19.12.2019
5886 Clear -9 1027 56 16093 3.1 170 09:56 19.12.2019
5887 Clear -9 1027 56 16093 3.1 170 09:37 19.12.2019
5888 Clear -9 1027 52 16093 4.1 190 09:19 19.12.2019
5889 Clear -9 1028 48 16093 3.6 180 08:55 19.12.2019
5890 Clear -9 1028 48 16093 3.6 180 08:37 19.12.2019
5891 Clear -9 1027 48 16093 3.6 190 08:18 19.12.2019
5892 Clear -9 1028 52 16093 2.1 180 07:42 19.12.2019
5893 Clear -9 1028 52 16093 2.1 180 07:42 19.12.2019
5894 Clouds -9 1028 48 16093 3.6 200 07:23 19.12.2019
5895 Clouds -9 1029 48 16093 3.1 190 06:59 19.12.2019
5896 Clouds -9 1029 48 16093 3.1 190 06:41 19.12.2019
5897 Clouds -9 1028 52 16093 3.6 210 06:21 19.12.2019
5898 Clouds -8 1029 41 16093 2.1 190 05:42 19.12.2019
5899 Clouds -8 1028 44 16093 3.1 220 05:19 19.12.2019
5900 Clouds -8 1029 66 16093 1.5 180 03:53 19.12.2019
5901 Clouds -9 1029 34 16093 2.6 250 02:28 19.12.2019
5902 Clouds -9 1028 34 16093 2.1 310 01:25 19.12.2019
5903 Clear -9 1028 47 16093 4.06 305 00:58 19.12.2019
5904 Clouds -9 1028 40 16093 4.06 305 00:39 19.12.2019
5905 Clouds -9 1028 37 16093 4.06 305 00:19 19.12.2019
5906 Clear -8 1028 37 16093 4.06 305 23:45 18.12.2019
5907 Clouds -8 1028 28 16093 2.6 0 23:19 18.12.2019
5908 Clear -8 1028 34 16093 1.5 310 22:58 18.12.2019
5909 Clear -8 1028 34 16093 1.5 310 22:40 18.12.2019
5910 Clear -8 1028 34 16093 1.5 310 22:40 18.12.2019
5911 Clouds -8 1028 31 16093 1.5 310 22:21 18.12.2019
5912 Clear -8 1027 34 16093 3.6 310 21:59 18.12.2019
5913 Clear -8 1027 34 16093 3.6 310 21:40 18.12.2019
5914 Clouds -8 1027 31 16093 3.6 320 21:20 18.12.2019
5915 Clear -8 1027 34 16093 1.5 310 20:57 18.12.2019
5916 Clouds -8 1026 34 16093 3.6 320 20:38 18.12.2019
5917 Clouds -8 1026 34 16093 3.6 320 20:20 18.12.2019
5918 Clear -8 1026 34 16093 2.6 10 19:57 18.12.2019
5919 Clear -9 1026 34 16093 2.6 10 19:39 18.12.2019
5920 Clouds -9 1027 31 16093 4.1 340 19:19 18.12.2019
5921 Clouds -9 1027 34 16093 5.7 310 18:55 18.12.2019
5922 Clouds -9 1027 34 16093 5.7 310 18:37 18.12.2019
5923 Clouds -9 1027 34 16093 5.7 310 18:18 18.12.2019
5924 Clear -10 1026 37 16093 4.6 10 17:55 18.12.2019
5925 Clouds -10 1026 36 16093 6.2 330 17:37 18.12.2019
5926 Clouds -10 1026 36 16093 6.2 330 17:18 18.12.2019
5927 Clear -11 1026 43 16093 4.1 320 16:42 18.12.2019
5928 Clear -11 1026 44 16093 4.6 310 16:23 18.12.2019
5929 Clear -11 1025 40 16093 3.1 340 15:57 18.12.2019
5930 Clear -12 1024 43 16093 4.1 350 15:39 18.12.2019
5931 Clouds -12 1024 47 16093 7.7 320 15:21 18.12.2019
5932 Clear -12 1024 52 16093 3.6 340 14:56 18.12.2019
5933 Clear -11 1023 56 16093 3.1 350 14:38 18.12.2019
5934 Clear -11 1023 56 16093 3.1 350 14:19 18.12.2019
5935 Clouds -10 1024 47 16093 6.2 330 13:55 18.12.2019
5936 Clear -10 1023 78 16093 5.7 340 13:36 18.12.2019
5937 Clouds -10 1022 67 16093 4.1 330 13:18 18.12.2019
5938 Clouds -10 1023 67 16093 7.7 350 13:18 18.12.2019
5939 Clouds -10 1023 67 16093 7.7 350 13:18 18.12.2019
5940 Clear -9 1021 79 16093 2.1 310 12:40 18.12.2019
5941 Clouds -8 1021 67 16093 7.7 340 12:21 18.12.2019
5942 Clouds -8 1021 67 16093 7.7 340 11:57 18.12.2019
5943 Clouds -7 1020 73 16093 6.7 330 11:39 18.12.2019
5944 Clouds -7 1020 73 16093 4.1 310 11:20 18.12.2019
5945 Clouds -6 1020 73 16093 4.1 310 10:58 18.12.2019
5946 Clear -6 1020 85 16093 2.6 280 10:39 18.12.2019
5947 Clear -6 1020 85 16093 2.6 280 10:20 18.12.2019
5948 Clouds -5 1020 73 16093 5.7 300 09:58 18.12.2019
5949 Clear -5 1020 85 16093 4.1 280 09:20 18.12.2019
5950 Clouds -4 1019 85 16093 2.1 300 08:43 18.12.2019
5951 Clouds -4 1019 86 16093 4.1 280 08:25 18.12.2019
5952 Clouds -4 1018 73 16093 5.7 300 07:57 18.12.2019
5953 Clouds -4 1018 79 16093 5.7 280 07:39 18.12.2019
5954 Clouds -3 1019 86 16093 5.7 270 07:20 18.12.2019
5955 Clouds -3 1019 86 11265 5.7 270 06:52 18.12.2019
5956 Clouds -3 1019 86 11265 6.2 270 06:25 18.12.2019
5957 Clouds -3 1019 86 16093 4.6 260 05:37 18.12.2019
5958 Clouds -3 1018 79 16093 5.1 260 04:33 18.12.2019
5959 Clouds -3 1019 85 11265 6.2 270 02:48 18.12.2019
5960 Clouds -3 1018 79 16093 5.1 260 02:29 18.12.2019
5961 Clouds -3 1019 85 11265 6.2 270 01:46 18.12.2019
5962 Clouds -3 1019 85 16093 5.7 270 01:27 18.12.2019
5963 Clouds -4 1019 85 16093 4.6 250 00:55 18.12.2019
5964 Clouds -4 1019 85 16093 6.2 260 00:37 18.12.2019
5965 Clouds -4 1019 85 16093 6.2 260 00:19 18.12.2019
5966 Clouds -4 1018 79 14484 6.7 260 23:43 17.12.2019
5967 Clouds -4 1018 79 14484 6.7 260 23:43 17.12.2019
5968 Clouds -4 1019 85 16093 5.1 240 23:24 17.12.2019
5969 Clouds -3 1018 68 16093 5.1 260 22:57 17.12.2019
5970 Clouds -3 1018 68 16093 5.1 260 22:39 17.12.2019
5971 Clear -3 1019 74 16093 5.1 240 22:20 17.12.2019
5972 Clouds -2 1018 73 16093 7.7 250 21:57 17.12.2019
5973 Clouds -2 1018 63 16093 5.1 250 21:39 17.12.2019
5974 Clouds -2 1018 63 16093 5.1 250 21:20 17.12.2019
5975 Clouds -2 1018 63 16093 6.7 240 20:59 17.12.2019
5976 Clouds -2 1019 63 16093 5.1 240 20:40 17.12.2019
5977 Clouds -2 1019 63 16093 5.1 240 20:19 17.12.2019
5978 Clear -2 1019 63 16093 4.1 250 19:59 17.12.2019
5979 Clear -2 1019 63 16093 4.1 250 19:41 17.12.2019
5980 Clear -3 1019 63 16093 4.1 250 19:20 17.12.2019
5981 Clouds -3 1019 58 16093 6.2 240 18:57 17.12.2019
5982 Clear -2 1020 68 16093 3.6 240 18:38 17.12.2019
5983 Clouds -3 1020 63 16093 5.1 240 18:20 17.12.2019
5984 Clear -3 1020 68 16093 3.6 240 17:55 17.12.2019
5985 Clear -3 1021 73 16093 3.1 260 17:37 17.12.2019
5986 Clear -4 1021 73 16093 3.1 260 17:18 17.12.2019
5987 Clouds -5 1020 73 16093 3.6 260 16:55 17.12.2019
5988 Clear -5 1020 79 16093 2.6 300 16:37 17.12.2019
5989 Clouds -6 1020 73 16093 3.1 300 16:18 17.12.2019
5990 Clouds -7 1020 85 16093 1.5 300 15:38 17.12.2019
5991 Clouds -7 1020 79 16093 3.1 320 15:20 17.12.2019
5992 Clouds -8 1020 85 16093 3.6 310 14:57 17.12.2019
5993 Clouds -8 1020 92 16093 2.1 310 14:39 17.12.2019
5994 Clouds -8 1020 92 16093 2.1 310 14:19 17.12.2019
5995 Clouds -8 1020 85 16093 4.1 330 13:59 17.12.2019
5996 Clouds -7 1020 85 16093 2.6 320 13:41 17.12.2019
5997 Clouds -7 1020 85 16093 2.6 320 13:19 17.12.2019
5998 Clouds -7 1020 79 16093 3.6 330 12:59 17.12.2019
5999 Clouds -7 1020 85 16093 4.1 350 12:38 17.12.2019
6000 Clouds -7 1020 79 16093 3.1 340 12:18 17.12.2019
6001 Clear -6 1019 79 16093 2.1 340 11:57 17.12.2019
6002 Clear -6 1019 79 16093 2.6 340 11:37 17.12.2019
6003 Clear -6 1019 79 16093 2.6 340 11:18 17.12.2019
6004 Clouds -6 1019 73 16093 5.7 340 10:57 17.12.2019
6005 Clear -6 1019 79 16093 2.6 350 10:39 17.12.2019
6006 Clear -6 1019 79 16093 2.6 350 10:39 17.12.2019
6007 Clear -5 1019 79 16093 2.6 350 10:19 17.12.2019
6008 Clouds -5 1020 73 16093 5.7 360 09:56 17.12.2019
6009 Clouds -5 1019 74 16093 3.1 340 09:38 17.12.2019
6010 Clouds -5 1019 74 16093 3.1 340 09:18 17.12.2019
6011 Clouds -4 1020 73 16093 4.6 340 08:54 17.12.2019
6012 Clouds -4 1020 79 16093 3.6 340 08:36 17.12.2019
6013 Clouds -4 1020 79 16093 3.6 340 08:18 17.12.2019
6014 Clouds -4 1020 80 16093 4.1 340 07:42 17.12.2019
6015 Clouds -3 1020 80 16093 4.1 340 07:22 17.12.2019
6016 Clouds -3 1020 79 16093 2.1 350 06:50 17.12.2019
6017 Clouds -3 1020 79 16093 2.1 340 06:32 17.12.2019
6018 Clear -3 1020 79 16093 2.6 350 05:42 17.12.2019
6019 Clouds -3 1020 68 16093 6.2 340 04:58 17.12.2019
6020 Clouds -2 1020 78 16093 2.6 350 03:55 17.12.2019
6021 Clouds -2 1020 78 16093 3.6 350 02:26 17.12.2019
6022 Clouds -1 1020 80 16093 4.1 10 01:22 17.12.2019
6023 Clouds -2 1020 81 16093 3.6 30 00:47 17.12.2019
6024 Clouds -1 1020 81 16093 3.6 20 00:22 17.12.2019
6025 Clouds -1 1020 81 16093 2.6 10 23:57 16.12.2019
6026 Clouds -1 1020 81 16093 3.1 10 23:38 16.12.2019
6027 Clouds -1 1020 85 16093 3.1 10 23:18 16.12.2019
6028 Clouds -1 1021 68 16093 3.1 340 22:54 16.12.2019
6029 Clouds -1 1021 68 16093 3.1 340 22:36 16.12.2019
6030 Clouds -1 1021 85 16093 3.1 10 22:18 16.12.2019
6031 Clouds -1 1021 80 14484 4.6 10 21:54 16.12.2019
6032 Mist -1 1020 85 8047 2.6 360 21:36 16.12.2019
6033 Mist -1 1020 85 8047 2.6 360 21:36 16.12.2019
6034 Mist -1 1020 85 8047 2.6 360 21:18 16.12.2019
6035 Clouds -1 1020 85 11265 5.78 23 20:54 16.12.2019
6036 Mist -2 1020 81 8047 3.88 24 20:36 16.12.2019
6037 Clouds -2 1021 80 12874 3.6 350 20:18 16.12.2019
6038 Clouds -2 1021 80 12874 3.6 350 19:54 16.12.2019
6039 Clouds -2 1022 68 16093 2.6 360 19:36 16.12.2019
6040 Clouds -2 1021 80 12874 3.6 360 19:18 16.12.2019
6041 Mist -2 1021 85 8047 4.5 7 19:18 16.12.2019
6042 Clouds -2 1022 63 16093 2.6 10 18:42 16.12.2019
6043 Mist -2 1022 85 8047 4.5 7 18:42 16.12.2019
6044 Clouds -2 1021 79 16093 2.6 350 18:20 16.12.2019
6045 Mist -2 1022 85 8047 4.5 7 18:20 16.12.2019
6046 Mist -2 1022 86 8047 4.5 7 17:59 16.12.2019
6047 Clouds -2 1022 86 11265 3.1 360 17:41 16.12.2019
6048 Mist -2 1022 86 8047 3.16 356 17:22 16.12.2019
6049 Clouds -3 1022 86 11265 3.1 360 16:58 16.12.2019
6050 Clouds -3 1022 79 12874 3.6 350 16:39 16.12.2019
6051 Clouds -3 1023 79 11265 2.6 350 16:20 16.12.2019
6052 Clouds -3 1023 79 11265 2.6 350 15:59 16.12.2019
6053 Mist -3 1023 92 8047 3.16 356 15:39 16.12.2019
6054 Mist -4 1023 92 8047 3.16 356 15:21 16.12.2019
6055 Clouds -4 1023 79 11265 3.1 330 14:57 16.12.2019
6056 Clouds -4 1024 73 16093 1.5 330 14:38 16.12.2019
6057 Snow -4 1022 79 9656 4.1 340 14:19 16.12.2019
6058 Clouds -4 1022 85 12874 3.1 350 13:57 16.12.2019
6059 Clouds -4 1022 85 12874 3.1 350 13:38 16.12.2019
6060 Clouds -4 1021 92 11265 2.82 29 13:20 16.12.2019
6061 Clouds -4 1021 92 11265 2.82 29 12:58 16.12.2019
6062 Clouds -4 1021 92 11265 3.34 42 12:39 16.12.2019
6063 Snow -4 1021 79 9656 2.1 350 12:19 16.12.2019
6064 Snow -4 1021 79 9656 2.1 350 11:59 16.12.2019
6065 Clouds -4 1021 86 11265 3.34 42 11:40 16.12.2019
6066 Clouds -4 1020 85 16093 1.5 350 11:20 16.12.2019
6067 Snow -4 1021 79 9656 2.6 350 10:58 16.12.2019
6068 Clouds -4 1021 92 16093 2.56 330 10:40 16.12.2019
6069 Clouds -4 1021 92 16093 2.56 330 10:20 16.12.2019
6070 Snow -4 1021 92 6437 3.52 355 09:45 16.12.2019
6071 Snow -4 1021 100 6437 3.52 355 09:27 16.12.2019
6072 Snow -4 1021 79 8047 1.5 340 08:57 16.12.2019
6073 Snow -4 1020 85 4023 2.1 340 08:38 16.12.2019
6074 Snow -4 1020 79 4828 2.1 350 08:18 16.12.2019
6075 Snow -4 1020 92 4023 2.29 256 07:47 16.12.2019
6076 Rain -4 1020 92 3219 2.29 256 07:28 16.12.2019
6077 Snow -4 1020 79 4828 2.1 340 06:45 16.12.2019
6078 Rain -4 1020 92 2816 2.29 256 06:26 16.12.2019
6079 Rain -4 1021 86 1609 2.29 256 05:52 16.12.2019
6080 Snow -4 1020 92 2012 2.29 256 05:33 16.12.2019
6081 Snow -4 1020 79 3219 2.39 190 04:22 16.12.2019
6082 Clouds -4 1020 73 16093 2.39 190 02:36 16.12.2019
6083 Clouds -4 1020 73 16093 2.61 118 01:45 16.12.2019
6084 Clouds -4 1020 63 16093 2.06 150 00:43 16.12.2019
6085 Clouds -4 1020 73 16093 2.06 150 00:25 16.12.2019
6086 Clouds -4 1020 63 16093 2.1 190 23:59 15.12.2019
6087 Clouds -4 1020 63 16093 2.1 190 23:59 15.12.2019
6088 Clouds -4 1020 73 16093 2.06 150 23:39 15.12.2019
6089 Clouds -4 1020 73 16093 0.66 161 23:20 15.12.2019
6090 Clouds -4 1020 63 16093 2.1 180 22:56 15.12.2019
6091 Clouds -4 1020 73 16093 0.66 161 22:56 15.12.2019
6092 Clouds -4 1020 63 16093 2.1 180 22:56 15.12.2019
6093 Clear -4 1020 73 16093 0.66 161 22:37 15.12.2019
6094 Clear -4 1020 73 16093 0.66 161 22:37 15.12.2019
6095 Clear -4 1020 73 16093 0.66 161 22:18 15.12.2019
6096 Clouds -3 1019 63 16093 2.6 160 21:56 15.12.2019
6097 Clear -3 1020 73 16093 0.66 161 21:37 15.12.2019
6098 Clear -3 1020 73 16093 0.66 161 21:19 15.12.2019
6099 Clouds -3 1020 63 16093 3.1 200 20:56 15.12.2019
6100 Clear -3 1020 68 16093 0.66 161 20:37 15.12.2019
6101 Clear -3 1020 68 16093 2.22 296 20:19 15.12.2019
6102 Clouds -3 1020 63 16093 2.6 240 19:57 15.12.2019
6103 Clear -4 1020 68 16093 2.22 296 19:57 15.12.2019
6104 Clear -4 1020 68 16093 2.36 310 19:38 15.12.2019
6105 Clouds -4 1020 68 16093 1.5 210 19:18 15.12.2019
6106 Clouds -4 1020 68 16093 1.5 210 18:56 15.12.2019
6107 Clouds -4 1020 68 16093 1.5 210 18:56 15.12.2019
6108 Clouds -4 1020 68 16093 2.22 296 18:38 15.12.2019
6109 Clear -5 1019 73 16093 1.5 310 18:18 15.12.2019
6110 Clouds -5 1021 73 16093 2.22 296 17:56 15.12.2019
6111 Clouds -5 1020 73 16093 3.1 280 17:37 15.12.2019
6112 Clouds -6 1020 73 16093 3.1 260 17:18 15.12.2019
6113 Clouds -6 1021 73 16093 4.15 297 16:55 15.12.2019
6114 Clouds -6 1021 73 16093 4.15 297 16:55 15.12.2019
6115 Clouds -6 1020 73 16093 4.15 297 16:37 15.12.2019
6116 Clouds -6 1020 73 16093 4.15 297 16:18 15.12.2019
6117 Clouds -7 1020 73 16093 4.1 260 15:54 15.12.2019
6118 Clouds -7 1019 79 16093 4.16 290 15:36 15.12.2019
6119 Clouds -7 1019 73 16093 3.6 270 15:18 15.12.2019
6120 Clouds -7 1019 73 16093 3.6 270 14:54 15.12.2019
6121 Clouds -7 1019 79 16093 2.6 270 14:36 15.12.2019
6122 Clouds -7 1018 73 16093 3.1 290 14:18 15.12.2019
6123 Clouds -7 1018 73 16093 3.1 290 14:18 15.12.2019
6124 Clouds -7 1018 73 16093 3.1 290 13:54 15.12.2019
6125 Clouds -7 1017 73 16093 2.6 280 13:36 15.12.2019
6126 Clouds -7 1017 67 16093 2.6 320 13:18 15.12.2019
6127 Clouds -7 1017 67 16093 2.6 320 12:55 15.12.2019
6128 Clouds -7 1017 67 16093 5.91 312 12:36 15.12.2019
6129 Clouds -6 1017 67 16093 5.1 330 12:18 15.12.2019
6130 Clouds -6 1016 67 16093 5.91 312 11:38 15.12.2019
6131 Clouds -6 1016 67 16093 5.91 312 11:38 15.12.2019
6132 Clouds -6 1016 67 16093 7.43 301 11:19 15.12.2019
6133 Clouds -6 1016 62 16093 3.6 290 10:56 15.12.2019
6134 Clouds -6 1016 68 16093 4.1 320 10:38 15.12.2019
6135 Clouds -6 1016 68 16093 4.1 320 10:38 15.12.2019
6136 Clouds -6 1016 68 16093 4.1 320 10:19 15.12.2019
6137 Clouds -5 1015 62 16093 6.2 300 09:57 15.12.2019
6138 Clouds -5 1015 68 16093 5.1 270 09:37 15.12.2019
6139 Clouds -5 1014 62 16093 6.2 300 09:19 15.12.2019
6140 Clouds -5 1013 68 16093 5.1 280 08:42 15.12.2019
6141 Clouds -5 1013 68 16093 5.1 280 08:42 15.12.2019
6142 Clouds -5 1013 68 16093 5.1 280 08:23 15.12.2019
6143 Clouds -4 1013 68 16093 5.7 290 07:59 15.12.2019
6144 Clouds -4 1013 68 16093 5.7 270 07:38 15.12.2019
6145 Clouds -4 1013 68 16093 5.7 270 07:19 15.12.2019
6146 Clouds -4 1012 68 16093 6.7 290 06:24 15.12.2019
6147 Clouds -4 1012 68 16093 2.6 280 05:42 15.12.2019
6148 Clouds -4 1012 68 16093 6.7 290 05:21 15.12.2019
6149 Clouds -3 1011 68 16093 5.1 300 04:20 15.12.2019
6150 Clouds -3 1010 68 16093 5.1 310 02:50 15.12.2019
6151 Clouds -3 1010 68 14484 6.2 290 02:31 15.12.2019
6152 Clouds -2 1009 73 11265 5.7 300 01:40 15.12.2019
6153 Clouds -2 1009 74 16093 3.1 290 01:18 15.12.2019
6154 Clouds -2 1009 63 16093 5.7 290 00:49 15.12.2019
6155 Clouds -2 1009 68 16093 3.1 320 00:31 15.12.2019
6156 Clouds -2 1008 68 11265 5.7 280 23:41 14.12.2019
6157 Clouds -2 1008 71 11265 5.7 280 23:22 14.12.2019
6158 Clouds -1 1008 71 14484 5.7 300 22:59 14.12.2019
6159 Clouds -1 1007 80 14484 5.7 290 22:41 14.12.2019
6160 Clouds -1 1007 71 11265 5.7 290 22:22 14.12.2019
6161 Clouds -1 1007 71 11265 5.7 290 21:58 14.12.2019
6162 Clouds -1 1006 86 11265 5.7 290 21:39 14.12.2019
6163 Mist -1 1006 86 6437 4.1 290 21:19 14.12.2019
6164 Clouds -1 1006 80 11265 6.2 290 20:59 14.12.2019
6165 Clouds 0 1006 86 11265 6.2 300 20:41 14.12.2019
6166 Haze 0 1006 80 8047 3.6 300 20:20 14.12.2019
6167 Haze 0 1006 80 8047 3.6 290 19:57 14.12.2019
6168 Haze 0 1006 80 8047 2.6 300 19:38 14.12.2019
6169 Clouds 0 1006 74 11265 4.6 290 19:20 14.12.2019
6170 Mist 0 1006 79 8047 3.6 290 18:56 14.12.2019
6171 Mist 0 1006 79 6437 6.2 300 18:38 14.12.2019
6172 Mist 0 1006 80 8047 3.1 290 18:19 14.12.2019
6173 Clouds 0 1006 80 11265 5.1 330 17:44 14.12.2019
6174 Mist 0 1006 90 8047 2.1 300 17:24 14.12.2019
6175 Clouds 0 1006 80 11265 4.1 320 16:58 14.12.2019
6176 Mist 0 1006 86 6437 3.6 320 16:40 14.12.2019
6177 Clouds 0 1006 100 11265 5.19 317 16:19 14.12.2019
6178 Clouds 0 1006 100 11265 5.19 317 16:19 14.12.2019
6179 Fog 0 1006 100 402 5.19 317 15:43 14.12.2019
6180 Fog 0 1006 100 402 5.19 317 15:24 14.12.2019
6181 Clouds -1 1006 86 12874 3.1 290 14:59 14.12.2019
6182 Mist -1 1006 92 6437 3.1 280 14:39 14.12.2019
6183 Fog -1 1006 90 402 6.09 336 14:20 14.12.2019
6184 Mist -2 1005 100 6437 6.09 336 13:57 14.12.2019
6185 Mist -2 1006 86 9656 1.5 290 13:39 14.12.2019
6186 Clouds -2 1006 100 16093 5.52 338 13:19 14.12.2019
6187 Clouds -2 1006 100 16093 5.52 338 13:19 14.12.2019
6188 Clouds -2 1006 100 11265 5.52 338 12:55 14.12.2019
6189 Clear -2 1006 100 16093 5.52 338 12:37 14.12.2019
6190 Clear -2 1006 100 16093 5.52 338 12:18 14.12.2019
6191 Clouds -2 1006 91 16093 5.52 338 11:55 14.12.2019
6192 Clouds -2 1006 86 11265 1.5 320 11:37 14.12.2019
6193 Clouds -2 1006 92 11265 2.1 320 11:18 14.12.2019
6194 Clouds -2 1006 84 11265 3.27 285 10:55 14.12.2019
6195 Clouds -2 1006 92 16093 3.27 285 10:37 14.12.2019
6196 Clouds -2 1006 92 16093 3.27 285 10:18 14.12.2019
6197 Clouds -1 1006 84 16093 3.27 298 09:40 14.12.2019
6198 Clouds -1 1006 84 16093 3.27 298 09:21 14.12.2019
6199 Clouds -1 1007 84 16093 3.27 298 08:45 14.12.2019
6200 Clouds 0 1007 79 16093 1.23 125 08:20 14.12.2019
6201 Clouds 0 1007 74 16093 1.23 125 07:57 14.12.2019
6202 Clouds 0 1008 100 16093 1.23 125 07:38 14.12.2019
6203 Clouds 0 1008 79 11265 1.23 125 07:19 14.12.2019
6204 Clouds 0 1008 79 16093 1.23 125 06:41 14.12.2019
6205 Clouds 0 1008 100 16093 1.23 125 06:22 14.12.2019
6206 Clear 0 1009 92 16093 1.86 291 05:22 14.12.2019
6207 Clear 1 1010 92 16093 1.86 291 02:49 14.12.2019
6208 Clear 1 1011 76 16093 2.59 216 02:22 14.12.2019
6209 Clear 1 1010 80 16093 2.59 216 01:43 14.12.2019
6210 Clear 2 1011 80 16093 1.58 219 00:55 14.12.2019
6211 Clear 3 1011 74 16093 1.58 219 00:37 14.12.2019
6212 Clear 3 1011 80 16093 1.58 219 00:18 14.12.2019
6213 Clear 4 1012 69 16093 1.58 219 23:39 13.12.2019
6214 Clouds 5 1011 56 16093 2.6 210 23:19 13.12.2019
6215 Clear 5 1011 69 16093 3.24 199 23:19 13.12.2019
6216 Clouds 6 1011 56 16093 2.6 210 22:55 13.12.2019
6217 Clear 7 1011 60 16093 3.24 199 22:37 13.12.2019
6218 Clear 7 1011 60 16093 3.24 199 22:18 13.12.2019
6219 Clouds 7 1012 60 16093 3.24 199 21:42 13.12.2019
6220 Clouds 7 1012 60 16093 3.24 199 21:21 13.12.2019
6221 Clouds 7 1011 56 16093 2.1 220 20:57 13.12.2019
6222 Clear 7 1011 74 16093 3.6 160 20:39 13.12.2019
6223 Clouds 6 1012 65 16093 3.48 209 20:19 13.12.2019
6224 Clouds 6 1013 65 16093 3.76 204 19:56 13.12.2019
6225 Clouds 6 1013 65 16093 3.76 204 19:38 13.12.2019
6226 Clouds 6 1013 60 16093 3.6 190 19:18 13.12.2019
6227 Clouds 5 1014 69 16093 3.76 204 18:42 13.12.2019
6228 Clouds 5 1014 64 16093 3.1 210 18:20 13.12.2019
6229 Clouds 4 1014 64 16093 3.1 210 18:20 13.12.2019
6230 Clouds 4 1015 69 16093 3.76 204 17:59 13.12.2019
6231 Clouds 4 1015 69 16093 3.76 204 17:39 13.12.2019
6232 Clouds 3 1014 64 16093 2.6 200 17:18 13.12.2019
6233 Clouds 3 1015 69 16093 3.36 218 16:56 13.12.2019
6234 Clouds 3 1015 69 16093 3.36 218 16:38 13.12.2019
6235 Clouds 2 1014 69 16093 3.1 200 16:19 13.12.2019
6236 Clouds 2 1015 74 16093 1.5 190 15:42 13.12.2019
6237 Clouds 1 1015 69 16093 3.1 190 15:21 13.12.2019
6238 Clouds 1 1015 74 16093 3.36 218 14:57 13.12.2019
6239 Clear 1 1014 80 16093 3.36 218 14:37 13.12.2019
6240 Clouds 1 1015 64 16093 1.5 210 14:18 13.12.2019
6241 Clouds 1 1015 74 16093 5.56 228 13:43 13.12.2019
6242 Clouds 2 1015 64 16093 2.6 200 13:24 13.12.2019
6243 Clouds 2 1015 74 16093 6.36 219 12:55 13.12.2019
6244 Clouds 2 1015 64 16093 2.6 210 12:37 13.12.2019
6245 Clouds 2 1015 64 16093 2.6 210 12:18 13.12.2019
6246 Clouds 2 1016 74 16093 6.36 219 11:43 13.12.2019
6247 Clouds 2 1015 64 16093 2.6 210 11:24 13.12.2019
6248 Clouds 2 1016 60 16093 2.6 180 10:56 13.12.2019
6249 Clouds 2 1015 74 16093 2.6 200 10:38 13.12.2019
6250 Clouds 2 1016 64 16093 2.6 200 10:19 13.12.2019
6251 Clouds 2 1017 69 16093 3.6 210 09:42 13.12.2019
6252 Clouds 2 1016 64 16093 3.1 200 09:21 13.12.2019
6253 Clouds 2 1016 64 16093 2.6 210 08:45 13.12.2019
6254 Clouds 2 1017 69 16093 3.6 210 08:45 13.12.2019
6255 Clouds 3 1016 64 16093 2.6 210 08:26 13.12.2019
6256 Clouds 3 1017 69 16093 4.6 210 07:50 13.12.2019
6257 Clouds 3 1017 60 16093 4.1 200 07:26 13.12.2019
6258 Clouds 3 1018 69 16093 5.1 190 06:57 13.12.2019
6259 Clouds 3 1018 60 16093 5.1 210 06:31 13.12.2019
6260 Clouds 4 1018 52 16093 4.1 180 05:51 13.12.2019
6261 Clouds 4 1018 60 16093 5.7 210 05:31 13.12.2019
6262 Clouds 4 1019 64 16093 6.7 190 04:53 13.12.2019
6263 Clouds 4 1019 60 16093 7.7 190 03:50 13.12.2019
6264 Clouds 5 1019 56 16093 5.7 210 02:35 13.12.2019
6265 Clouds 5 1019 60 16093 5.7 190 01:51 13.12.2019
6266 Clouds 5 1019 52 16093 8.7 210 01:25 13.12.2019
6267 Clouds 5 1018 56 16093 6.7 210 00:46 13.12.2019
6268 Clouds 6 1019 52 16093 6.7 200 00:24 13.12.2019
6269 Clouds 6 1018 60 16093 6.7 200 23:42 12.12.2019
6270 Clouds 6 1019 56 16093 6.7 200 23:24 12.12.2019
6271 Clouds 6 1020 56 16093 9.3 190 22:56 12.12.2019
6272 Clouds 6 1020 56 16093 9.3 190 22:38 12.12.2019
6273 Clouds 7 1018 56 16093 7.2 200 22:38 12.12.2019
6274 Clouds 7 1019 48 16093 9.3 200 22:19 12.12.2019
6275 Clear 7 1020 56 16093 10.8 190 21:55 12.12.2019
6276 Clouds 7 1020 48 16093 6.7 200 21:37 12.12.2019
6277 Clear 6 1021 56 16093 10.8 200 21:19 12.12.2019
6278 Clear 6 1021 56 16093 9.8 190 20:58 12.12.2019
6279 Clear 6 1021 56 16093 9.8 190 20:39 12.12.2019
6280 Clouds 6 1021 52 16093 7.2 200 20:21 12.12.2019
6281 Clear 5 1023 60 16093 9.8 200 19:55 12.12.2019
6282 Clouds 5 1022 52 16093 8.2 200 19:37 12.12.2019
6283 Clouds 5 1022 52 16093 8.2 200 19:18 12.12.2019
6284 Clouds 4 1024 64 16093 8.7 190 18:55 12.12.2019
6285 Clouds 4 1021 60 16093 7.2 200 18:37 12.12.2019
6286 Clouds 3 1024 59 16093 6.2 190 18:18 12.12.2019
6287 Clouds 3 1026 69 16093 6.2 180 17:55 12.12.2019
6288 Clouds 2 1023 74 16093 5.7 190 17:37 12.12.2019
6289 Clouds 1 1026 76 16093 6.7 180 17:19 12.12.2019
6290 Clouds 0 1026 76 16093 8.7 180 16:54 12.12.2019
6291 Clouds 0 1025 76 16093 7.2 180 16:36 12.12.2019
6292 Clouds -1 1027 74 16093 6.7 170 16:18 12.12.2019
6293 Clouds -2 1027 79 16093 5.7 170 15:42 12.12.2019
6294 Clouds -3 1027 79 16093 4.1 160 15:19 12.12.2019
6295 Clouds -3 1027 79 16093 4.1 160 15:19 12.12.2019
6296 Clouds -3 1027 68 14484 4.6 170 15:19 12.12.2019
6297 Clouds -3 1028 85 16093 4.1 160 14:57 12.12.2019
6298 Clouds -3 1028 85 16093 4.1 160 14:57 12.12.2019
6299 Clouds -4 1028 85 16093 4.1 160 14:37 12.12.2019
6300 Clouds -4 1028 73 12874 4.6 170 14:19 12.12.2019
6301 Clear -4 1029 85 16093 4.1 150 13:55 12.12.2019
6302 Clouds -5 1027 79 16093 2.6 150 13:36 12.12.2019
6303 Clouds -5 1028 73 12874 4.1 150 13:18 12.12.2019
6304 Clear -6 1030 85 16093 3.6 150 12:42 12.12.2019
6305 Clouds -6 1029 79 12874 4.1 150 12:23 12.12.2019
6306 Clear -6 1030 85 16093 3.6 140 11:59 12.12.2019
6307 Clear -6 1030 85 16093 3.6 140 11:40 12.12.2019
6308 Clouds -6 1030 79 12874 4.1 130 11:22 12.12.2019
6309 Clear -6 1031 73 16093 3.1 140 10:59 12.12.2019
6310 Clouds -6 1031 79 12874 4.6 150 10:40 12.12.2019
6311 Clouds -6 1031 79 12874 4.6 150 10:22 12.12.2019
6312 Clear -6 1032 73 16093 2.6 140 09:56 12.12.2019
6313 Clear -7 1032 73 16093 2.6 140 09:38 12.12.2019
6314 Clouds -7 1032 79 12874 3.6 160 09:20 12.12.2019
6315 Clear -7 1032 79 16093 2.6 140 08:48 12.12.2019
6316 Clouds -7 1031 73 14484 3.1 130 08:29 12.12.2019
6317 Clear -8 1032 79 16093 2.1 130 07:56 12.12.2019
6318 Clear -8 1032 79 16093 2.1 130 07:56 12.12.2019
6319 Clear -8 1032 79 16093 2.1 130 07:37 12.12.2019
6320 Clouds -8 1032 67 14484 2.1 160 07:19 12.12.2019
6321 Clear -8 1033 79 16093 1.5 140 06:41 12.12.2019
6322 Clouds -9 1033 67 16093 2.6 140 06:22 12.12.2019
6323 Clouds -9 1033 67 16093 6.97 164 05:32 12.12.2019
6324 Clear -9 1033 85 16093 2.17 155 04:48 12.12.2019
6325 Clear -8 1034 85 16093 1.5 170 02:44 12.12.2019
6326 Clear -8 1034 62 16093 2.6 190 02:25 12.12.2019
6327 Clear -8 1034 73 16093 2.06 268 01:59 12.12.2019
6328 Clear -8 1033 72 16093 2.06 268 01:36 12.12.2019
6329 Clear -7 1034 78 16093 2.14 265 00:50 12.12.2019
6330 Clouds -7 1033 57 16093 2.1 290 00:22 12.12.2019
6331 Clear -6 1033 62 16093 1.5 260 23:58 11.12.2019
6332 Clear -6 1032 49 16093 2.1 250 23:38 11.12.2019
6333 Clouds -5 1033 49 16093 2.6 240 23:18 11.12.2019
6334 Clouds -5 1033 57 16093 2.1 240 22:56 11.12.2019
6335 Clouds -5 1032 53 16093 3.1 250 22:38 11.12.2019
6336 Clouds -5 1032 53 16093 3.1 250 22:19 11.12.2019
6337 Clear -4 1032 58 16093 3.1 310 21:54 11.12.2019
6338 Clouds -4 1031 49 16093 2.6 290 21:36 11.12.2019
6339 Clouds -4 1031 49 16093 2.6 290 21:18 11.12.2019
6340 Clear -4 1031 62 16093 3.1 280 20:55 11.12.2019
6341 Clear -5 1030 53 16093 2.1 250 20:36 11.12.2019
6342 Clouds -5 1031 53 16093 5.1 240 20:18 11.12.2019
6343 Clear -5 1030 57 16093 1.5 300 19:42 11.12.2019
6344 Snow -5 1030 67 16093 4.6 280 19:23 11.12.2019
6345 Snow -5 1030 67 16093 4.6 280 19:23 11.12.2019
6346 Clouds -6 1031 73 16093 4.1 270 18:59 11.12.2019
6347 Clouds -6 1031 73 16093 4.1 270 18:40 11.12.2019
6348 Clouds -6 1030 67 16093 5.1 280 18:19 11.12.2019
6349 Clouds -6 1031 57 16093 6.2 290 17:56 11.12.2019
6350 Snow -7 1030 67 16093 4.1 290 17:38 11.12.2019
6351 Snow -7 1030 67 16093 4.1 290 17:18 11.12.2019
6352 Snow -7 1030 79 11265 4.6 270 16:55 11.12.2019
6353 Clouds -8 1029 78 8047 1.5 270 16:37 11.12.2019
6354 Snow -8 1029 73 16093 4.6 270 16:18 11.12.2019
6355 Snow -8 1029 85 8047 2.6 240 15:56 11.12.2019
6356 Snow -9 1029 85 8047 2.6 240 15:37 11.12.2019
6357 Snow -9 1028 72 8047 4.6 250 15:19 11.12.2019
6358 Snow -9 1028 78 4828 4.6 250 14:54 11.12.2019
6359 Clouds -9 1027 78 4023 1.5 260 14:36 11.12.2019
6360 Clouds -9 1027 78 4023 1.5 260 14:36 11.12.2019
6361 Snow -9 1027 78 4828 3.1 240 14:18 11.12.2019
6362 Snow -9 1027 78 3219 4.6 240 13:42 11.12.2019
6363 Snow -9 1027 78 3219 4.6 240 13:42 11.12.2019
6364 Clouds -9 1027 66 16093 5.1 250 13:22 11.12.2019
6365 Clouds -10 1027 72 16093 5.7 240 12:58 11.12.2019
6366 Clouds -10 1027 72 16093 5.7 240 12:39 11.12.2019
6367 Clouds -10 1027 66 16093 6.2 260 12:21 11.12.2019
6368 Clouds -10 1027 66 16093 4.6 260 11:58 11.12.2019
6369 Clouds -10 1027 66 16093 4.6 260 11:39 11.12.2019
6370 Clouds -10 1026 56 16093 6.2 250 11:19 11.12.2019
6371 Clouds -10 1026 56 16093 6.2 250 11:19 11.12.2019
6372 Clouds -10 1025 72 16093 3.1 250 10:59 11.12.2019
6373 Clouds -10 1025 72 16093 3.1 250 10:39 11.12.2019
6374 Clouds -10 1027 56 16093 5.7 260 10:20 11.12.2019
6375 Clouds -10 1027 72 16093 3.1 240 09:55 11.12.2019
6376 Snow -10 1026 67 14484 4.6 250 09:37 11.12.2019
6377 Snow -10 1026 67 14484 4.6 250 09:19 11.12.2019
6378 Clouds -9 1026 66 16093 7.2 250 08:55 11.12.2019
6379 Clouds -9 1027 62 16093 2.6 240 08:36 11.12.2019
6380 Snow -9 1026 67 16093 6.2 250 08:18 11.12.2019
6381 Clouds -9 1027 67 16093 2.6 250 07:42 11.12.2019
6382 Snow -9 1026 67 16093 7.2 260 07:22 11.12.2019
6383 Snow -9 1026 67 16093 5.7 260 06:45 11.12.2019
6384 Snow -9 1025 67 16093 6.7 270 06:24 11.12.2019
6385 Clouds -9 1026 61 16093 3.1 250 05:52 11.12.2019
6386 Clouds -9 1026 67 16093 5.1 270 05:27 11.12.2019
6387 Clear -9 1027 67 16093 5.7 270 04:47 11.12.2019
6388 Clear -8 1026 52 16093 6.7 270 03:18 11.12.2019
6389 Clear -8 1026 61 16093 2.1 260 01:56 11.12.2019
6390 Clear -8 1025 52 16093 7.2 260 01:21 11.12.2019
6391 Clear -7 1025 57 16093 2.1 250 00:37 11.12.2019
6392 Clouds -7 1025 44 16093 6.2 250 00:18 11.12.2019
6393 Clear -7 1024 48 16093 4.1 260 23:43 10.12.2019
6394 Clouds -7 1024 44 16093 5.7 260 23:22 10.12.2019
6395 Clouds -6 1022 49 16093 5.7 260 22:42 10.12.2019
6396 Clouds -6 1022 49 16093 5.7 260 22:24 10.12.2019
6397 Clouds -6 1022 49 16093 5.7 260 22:24 10.12.2019
6398 Clear -5 1023 49 16093 5.1 250 21:58 10.12.2019
6399 Clouds -5 1022 41 16093 6.2 280 21:39 10.12.2019
6400 Clouds -5 1022 41 16093 6.2 280 21:21 10.12.2019
6401 Clear -6 1022 49 16093 6.7 250 20:59 10.12.2019
6402 Clear -6 1022 49 16093 6.7 250 20:59 10.12.2019
6403 Clear -6 1022 49 16093 6.7 250 20:38 10.12.2019
6404 Clear -6 1021 49 16093 3.6 260 20:38 10.12.2019
6405 Clear -6 1021 49 16093 3.6 260 20:38 10.12.2019
6406 Clear -6 1022 49 16093 6.7 250 20:38 10.12.2019
6407 Clear -6 1021 49 16093 3.6 260 20:38 10.12.2019
6408 Clouds -6 1022 53 16093 6.2 280 20:19 10.12.2019
6409 Clouds -6 1022 53 16093 6.2 280 20:19 10.12.2019
6410 Clear -6 1022 49 16093 5.7 260 19:58 10.12.2019
6411 Clear -6 1022 49 16093 5.7 260 19:40 10.12.2019
6412 Clouds -7 1022 57 16093 5.7 270 19:22 10.12.2019
6413 Clear -7 1022 57 16093 5.1 280 18:56 10.12.2019
6414 Clear -7 1022 57 16093 5.1 280 18:38 10.12.2019
6415 Clouds -7 1021 62 16093 6.7 300 18:18 10.12.2019
6416 Clouds -8 1021 66 16093 6.2 290 17:54 10.12.2019
6417 Clouds -8 1021 61 16093 4.6 290 17:36 10.12.2019
6418 Clouds -8 1021 61 16093 4.6 290 17:18 10.12.2019
6419 Clear -9 1021 72 16093 5.7 270 16:41 10.12.2019
6420 Clouds -9 1020 66 16093 6.7 280 16:19 10.12.2019
6421 Clouds -10 1019 72 16093 5.7 280 15:40 10.12.2019
6422 Clouds -10 1019 72 16093 5.7 280 15:19 10.12.2019
6423 Clouds -10 1019 78 16093 6.7 260 14:57 10.12.2019
6424 Snow -9 1018 72 16093 6.7 250 14:38 10.12.2019
6425 Clouds -9 1018 72 16093 6.2 260 14:20 10.12.2019
6426 Clouds -9 1018 78 16093 6.7 260 13:58 10.12.2019
6427 Clouds -9 1018 78 16093 6.7 260 13:40 10.12.2019
6428 Snow -9 1016 67 16093 5.7 270 13:20 10.12.2019
6429 Clouds -8 1017 79 16093 6.2 270 12:49 10.12.2019
6430 Snow -8 1016 73 16093 7.2 280 12:28 10.12.2019
6431 Snow -8 1016 73 16093 8.2 270 11:59 10.12.2019
6432 Snow -7 1016 73 16093 8.2 270 11:40 10.12.2019
6433 Snow -7 1016 73 16093 8.2 270 11:40 10.12.2019
6434 Snow -7 1015 73 8047 7.7 270 11:21 10.12.2019
6435 Clouds -7 1015 67 16093 6.7 250 10:44 10.12.2019
6436 Snow -7 1014 73 16093 7.2 270 10:25 10.12.2019
6437 Clouds -6 1014 79 16093 8.2 270 09:58 10.12.2019
6438 Snow -6 1013 73 16093 7.2 260 09:40 10.12.2019
6439 Snow -6 1013 73 16093 7.2 260 09:22 10.12.2019
6440 Snow -6 1013 73 16093 7.2 260 09:22 10.12.2019
6441 Clouds -6 1013 79 16093 7.2 280 08:59 10.12.2019
6442 Snow -5 1012 68 16093 7.7 280 08:40 10.12.2019
6443 Snow -5 1012 68 16093 7.7 280 08:22 10.12.2019
6444 Clouds -5 1012 68 16093 7.7 280 07:54 10.12.2019
6445 Snow -5 1011 73 16093 6.7 270 07:36 10.12.2019
6446 Snow -5 1011 73 16093 6.7 270 07:18 10.12.2019
6447 Clouds -4 1011 73 16093 7.2 270 06:42 10.12.2019
6448 Snow -4 1010 68 16093 9.8 260 06:19 10.12.2019
6449 Clouds -4 1009 79 16093 6.2 270 05:51 10.12.2019
6450 Clouds -3 1006 80 16093 8.7 270 04:35 10.12.2019
6451 Clouds -2 1005 80 16093 9.3 270 03:31 10.12.2019
6452 Clouds -1 1003 80 14484 10.3 290 02:36 10.12.2019
6453 Clouds 1 1002 86 14484 8.7 280 01:42 10.12.2019
6454 Clouds 1 1002 86 14484 8.7 280 01:19 10.12.2019
6455 Rain 3 1001 87 16093 10.3 270 00:38 10.12.2019
6456 Rain 4 1000 81 16093 11.8 270 00:18 10.12.2019
6457 Clouds 7 999 87 16093 5.7 260 23:40 09.12.2019
6458 Clouds 7 998 87 12874 6.2 280 23:22 09.12.2019
6459 Rain 7 998 93 11265 5.1 250 22:57 09.12.2019
6460 Rain 7 998 93 11265 5.1 250 22:39 09.12.2019
6461 Drizzle 8 998 87 14484 7.2 260 22:18 09.12.2019
6462 Drizzle 8 997 93 6437 5.1 240 21:56 09.12.2019
6463 Rain 8 998 93 6437 5.7 250 21:38 09.12.2019
6464 Mist 8 997 93 6437 6.7 250 21:18 09.12.2019
6465 Mist 8 998 100 8047 5.7 240 20:56 09.12.2019
6466 Mist 8 997 93 9656 6.2 240 20:37 09.12.2019
6467 Mist 8 997 93 9656 6.2 240 20:19 09.12.2019
6468 Mist 8 998 100 4828 4.6 240 19:55 09.12.2019
6469 Drizzle 8 998 93 4828 5.7 230 19:37 09.12.2019
6470 Drizzle 8 998 93 4828 5.7 230 19:19 09.12.2019
6471 Drizzle 8 999 100 4023 5.1 230 18:55 09.12.2019
6472 Drizzle 8 999 100 4023 5.1 230 18:36 09.12.2019
6473 Drizzle 8 999 93 8047 4.1 230 18:18 09.12.2019
6474 Rain 8 1000 100 3219 4.1 230 17:56 09.12.2019
6475 Mist 8 1000 93 6437 4.6 240 17:37 09.12.2019
6476 Mist 8 1000 93 6437 4.6 240 17:19 09.12.2019
6477 Rain 8 1000 100 8047 4.1 240 16:55 09.12.2019
6478 Clouds 8 999 100 3219 2.6 240 16:36 09.12.2019
6479 Drizzle 7 1000 93 6437 4.6 240 16:18 09.12.2019
6480 Rain 7 1001 100 4023 4.6 230 15:55 09.12.2019
6481 Drizzle 7 1000 93 4828 4.6 230 15:36 09.12.2019
6482 Drizzle 7 1000 93 4828 4.6 230 15:18 09.12.2019
6483 Rain 7 1001 100 11265 4.1 230 14:42 09.12.2019
6484 Rain 7 1001 100 11265 4.1 230 14:42 09.12.2019
6485 Drizzle 7 1001 93 8047 4.6 240 14:19 09.12.2019
6486 Rain 7 1001 100 11265 4.6 230 13:57 09.12.2019
6487 Rain 7 1001 100 11265 4.6 230 13:38 09.12.2019
6488 Drizzle 8 1001 93 4828 4.1 220 13:19 09.12.2019
6489 Drizzle 8 1002 100 8047 5.7 220 12:56 09.12.2019
6490 Drizzle 8 1002 100 8047 5.7 220 12:56 09.12.2019
6491 Rain 8 1002 93 6437 4.1 210 12:37 09.12.2019
6492 Rain 8 1002 93 6437 4.1 210 12:19 09.12.2019
6493 Drizzle 8 1003 100 4023 5.1 210 11:56 09.12.2019
6494 Rain 8 1002 87 12874 1.5 160 11:37 09.12.2019
6495 Rain 8 1002 87 12874 1.5 160 11:18 09.12.2019
6496 Drizzle 8 1003 100 4828 4.6 190 10:41 09.12.2019
6497 Drizzle 8 1004 87 4828 2.6 180 10:20 09.12.2019
6498 Rain 8 1004 93 4023 4.1 190 09:59 09.12.2019
6499 Rain 8 1005 87 9656 4.1 180 09:40 09.12.2019
6500 Rain 8 1005 87 9656 4.1 180 09:21 09.12.2019
6501 Rain 8 1006 100 16093 3.6 190 08:44 09.12.2019
6502 Clouds 8 1006 81 12874 2.1 170 08:26 09.12.2019
6503 Clouds 8 1006 81 12874 2.1 170 08:26 09.12.2019
6504 Clouds 7 1007 87 16093 3.1 180 07:57 09.12.2019
6505 Clouds 7 1007 87 16093 3.1 180 07:38 09.12.2019
6506 Clouds 7 1007 81 16093 3.1 190 07:20 09.12.2019
6507 Clouds 7 1008 93 16093 4.1 190 06:43 09.12.2019
6508 Clouds 7 1008 81 16093 2.6 180 06:24 09.12.2019
6509 Clouds 7 1009 81 12874 2.6 150 05:27 09.12.2019
6510 Clouds 7 1009 93 16093 3.1 200 04:46 09.12.2019
6511 Clouds 7 1009 87 12874 2.6 210 03:20 09.12.2019
6512 Clouds 7 1010 87 12874 3.1 200 02:24 09.12.2019
6513 Clouds 8 1010 87 14484 2.1 200 01:42 09.12.2019
6514 Clouds 8 1011 87 16093 3.1 200 00:46 09.12.2019
6515 Clouds 8 1010 81 11265 3.6 200 00:26 09.12.2019
6516 Clouds 8 1011 87 16093 5.1 200 23:41 08.12.2019
6517 Clouds 8 1010 81 11265 4.1 210 23:23 08.12.2019
6518 Clouds 8 1011 81 16093 4.1 220 22:57 08.12.2019
6519 Clouds 8 1011 81 16093 4.1 220 22:57 08.12.2019
6520 Clouds 8 1011 81 16093 4.1 220 22:38 08.12.2019
6521 Clear 8 1011 81 16093 4.6 200 22:19 08.12.2019
6522 Clouds 8 1010 70 11265 5.7 220 21:58 08.12.2019
6523 Clear 8 1011 81 16093 6.2 210 21:40 08.12.2019
6524 Clouds 8 1010 75 12874 5.1 210 21:20 08.12.2019
6525 Clear 8 1011 76 16093 8.2 210 20:57 08.12.2019
6526 Clouds 8 1011 75 12874 6.2 200 20:38 08.12.2019
6527 Clouds 7 1011 75 12874 6.2 200 20:20 08.12.2019
6528 Clouds 7 1013 81 16093 5.7 220 19:58 08.12.2019
6529 Clouds 7 1013 81 16093 5.7 220 19:40 08.12.2019
6530 Clouds 7 1012 75 12874 6.2 210 19:22 08.12.2019
6531 Clouds 6 1013 81 16093 7.2 210 18:55 08.12.2019
6532 Clouds 6 1013 81 16093 7.2 210 18:55 08.12.2019
6533 Clouds 6 1013 75 12874 7.2 210 18:37 08.12.2019
6534 Clouds 6 1013 75 12874 7.2 210 18:19 08.12.2019
6535 Clouds 5 1014 81 16093 8.7 210 17:56 08.12.2019
6536 Clouds 5 1014 81 16093 8.7 210 17:38 08.12.2019
6537 Clouds 5 1014 80 12874 7.7 210 17:19 08.12.2019
6538 Clouds 4 1015 86 16093 6.2 210 16:56 08.12.2019
6539 Clouds 4 1015 86 16093 6.2 210 16:38 08.12.2019
6540 Clouds 3 1014 80 12874 6.2 200 16:20 08.12.2019
6541 Clouds 3 1014 86 12874 7.2 200 15:54 08.12.2019
6542 Clouds 3 1014 89 16093 6.2 200 15:36 08.12.2019
6543 Clouds 3 1014 89 16093 6.2 200 15:18 08.12.2019
6544 Clear 2 1015 93 16093 6.2 200 14:41 08.12.2019
6545 Clouds 2 1014 74 16093 7.2 200 14:22 08.12.2019
6546 Clouds 2 1016 86 16093 6.7 200 13:57 08.12.2019
6547 Clouds 2 1015 74 16093 6.2 200 13:39 08.12.2019
6548 Clouds 2 1015 74 16093 6.2 200 13:21 08.12.2019
6549 Clouds 2 1017 86 16093 6.2 200 12:55 08.12.2019
6550 Clouds 1 1016 69 16093 6.2 200 12:37 08.12.2019
6551 Clouds 1 1016 69 16093 6.2 200 12:18 08.12.2019
6552 Clouds 1 1016 69 0 7.2 200 11:55 08.12.2019
6553 Clouds 1 1017 86 16093 4.6 190 11:37 08.12.2019
6554 Clear 1 1018 59 16093 4.1 180 11:18 08.12.2019
6555 Clear 1 1018 59 16093 4.1 170 10:39 08.12.2019
6556 Clouds 1 1018 64 16093 5.1 190 10:20 08.12.2019
6557 Clear 1 1019 59 16093 4.6 170 09:58 08.12.2019
6558 Clouds 1 1019 59 16093 4.6 200 09:39 08.12.2019
6559 Clouds 1 1019 59 16093 4.6 200 09:20 08.12.2019
6560 Clouds 1 1019 59 16093 4.6 200 09:20 08.12.2019
6561 Clear 1 1020 59 16093 4.1 170 08:58 08.12.2019
6562 Clear 1 1020 59 16093 4.1 170 08:38 08.12.2019
6563 Clouds 1 1020 55 16093 4.1 200 08:19 08.12.2019
6564 Clear 1 1021 55 16093 2.6 170 07:44 08.12.2019
6565 Clouds 1 1020 64 16093 5.1 200 07:20 08.12.2019
6566 Clear 1 1021 55 16093 3.6 170 06:51 08.12.2019
6567 Clouds 1 1021 64 16093 4.6 190 06:22 08.12.2019
6568 Clear 1 1022 55 16093 4.6 160 05:51 08.12.2019
6569 Clouds 1 1021 59 16093 4.6 180 05:18 08.12.2019
6570 Clear 1 1023 61 16093 4.1 180 03:51 08.12.2019
6571 Clouds 1 1023 69 16093 3.6 190 03:26 08.12.2019
6572 Clear 1 1024 61 16093 3.6 170 02:39 08.12.2019
6573 Clear 1 1023 69 16093 4.1 180 01:56 08.12.2019
6574 Clouds 2 1024 59 16093 3.6 180 01:27 08.12.2019
6575 Clouds 2 1024 59 16093 3.6 180 01:27 08.12.2019
6576 Clouds 2 1024 59 16093 4.1 190 00:40 08.12.2019
6577 Clouds 2 1024 59 16093 4.1 190 00:21 08.12.2019
6578 Clear 2 1025 69 16093 3.1 190 23:42 07.12.2019
6579 Clouds 3 1025 55 16093 3.1 180 23:21 07.12.2019
6580 Clouds 3 1026 60 16093 5.1 190 22:58 07.12.2019
6581 Clouds 3 1026 60 16093 5.1 190 22:40 07.12.2019
6582 Clouds 3 1025 51 16093 4.6 180 22:22 07.12.2019
6583 Clouds 3 1026 60 16093 5.1 200 21:56 07.12.2019
6584 Clouds 3 1026 60 16093 5.1 200 21:38 07.12.2019
6585 Clouds 3 1026 59 16093 4.6 180 21:20 07.12.2019
6586 Clouds 3 1027 64 16093 4.6 210 20:59 07.12.2019
6587 Clouds 3 1025 69 16093 4.6 190 20:37 07.12.2019
6588 Clouds 2 1027 59 16093 5.1 210 20:19 07.12.2019
6589 Clouds 2 1028 69 16093 4.6 190 19:56 07.12.2019
6590 Clouds 2 1028 69 16093 4.6 190 19:38 07.12.2019
6591 Clouds 2 1028 64 16093 5.7 200 19:20 07.12.2019
6592 Clouds 1 1029 69 16093 5.1 210 18:44 07.12.2019
6593 Clouds 1 1029 69 16093 5.1 210 18:21 07.12.2019
6594 Clouds 1 1030 58 16093 4.1 180 17:59 07.12.2019
6595 Clouds 0 1030 58 16093 4.1 180 17:41 07.12.2019
6596 Clouds 0 1029 69 16093 4.1 190 17:23 07.12.2019
6597 Clouds 0 1030 86 16093 3.1 190 16:57 07.12.2019
6598 Clouds -1 1030 86 16093 3.1 190 16:38 07.12.2019
6599 Clouds -1 1029 74 16093 4.1 200 16:20 07.12.2019
6600 Clouds -1 1029 86 16093 3.1 170 15:57 07.12.2019
6601 Clouds -2 1029 86 16093 3.1 170 15:38 07.12.2019
6602 Clouds -2 1029 86 16093 3.1 170 15:38 07.12.2019
6603 Clouds -2 1028 79 16093 4.1 180 15:20 07.12.2019
6604 Clouds -3 1028 86 16093 3.1 200 14:42 07.12.2019
6605 Clouds -3 1028 79 16093 2.6 180 14:19 07.12.2019
6606 Clouds -3 1028 86 16093 2.1 200 13:55 07.12.2019
6607 Clouds -3 1028 86 16093 2.1 180 13:37 07.12.2019
6608 Clouds -3 1028 86 16093 2.1 180 13:18 07.12.2019
6609 Clouds -4 1028 92 16093 5.77 207 12:41 07.12.2019
6610 Clouds -4 1029 79 16093 5.77 207 12:22 07.12.2019
6611 Clear -5 1029 100 16093 5.77 207 11:58 07.12.2019
6612 Clear -5 1029 100 16093 5.77 207 11:40 07.12.2019
6613 Clear -5 1029 79 16093 5.43 216 11:21 07.12.2019
6614 Clear -4 1029 92 16093 5.43 216 10:38 07.12.2019
6615 Clouds -4 1029 86 16093 5.43 216 10:20 07.12.2019
6616 Clear -3 1029 86 16093 1.5 200 09:58 07.12.2019
6617 Clear -3 1029 86 16093 1.5 200 09:37 07.12.2019
6618 Clouds -3 1027 79 16093 6.2 200 09:18 07.12.2019
6619 Clear -3 1029 92 16093 5.43 216 08:41 07.12.2019
6620 Clouds -3 1028 79 16093 2.6 200 08:21 07.12.2019
6621 Clear -4 1029 92 16093 0.63 222 07:46 07.12.2019
6622 Clouds -4 1029 86 16093 2.6 210 07:26 07.12.2019
6623 Clear -4 1029 92 16093 0.63 222 06:51 07.12.2019
6624 Clouds -4 1029 79 16093 0.63 222 06:25 07.12.2019
6625 Clear -4 1029 92 16093 0.63 222 05:38 07.12.2019
6626 Clouds -3 1028 74 16093 1.66 352 04:19 07.12.2019
6627 Clear -3 1029 92 16093 1.66 352 03:44 07.12.2019
6628 Clouds -2 1028 61 16093 1.5 110 02:21 07.12.2019
6629 Clouds -1 1028 69 16093 2.6 50 01:35 07.12.2019
6630 Clear 0 1027 61 16093 1.5 40 00:55 07.12.2019
6631 Clouds 0 1027 64 16093 3.1 50 00:20 07.12.2019
6632 Clear 1 1027 74 16093 3.1 40 23:56 06.12.2019
6633 Clouds 1 1027 59 16093 5.1 60 23:38 06.12.2019
6634 Clouds 2 1027 59 16093 5.1 60 23:18 06.12.2019
6635 Clouds 3 1026 55 16093 4.1 60 22:38 06.12.2019
6636 Clouds 3 1026 55 16093 4.1 60 22:20 06.12.2019
6637 Clear 3 1026 64 16093 4.1 10 21:58 06.12.2019
6638 Clear 3 1026 64 16093 4.1 10 21:39 06.12.2019
6639 Clouds 3 1025 55 16093 2.6 60 21:19 06.12.2019
6640 Clouds 3 1026 64 16093 3.1 360 20:42 06.12.2019
6641 Clouds 3 1026 64 16093 3.1 360 20:42 06.12.2019
6642 Clouds 3 1026 64 16093 3.1 360 20:42 06.12.2019
6643 Clouds 3 1026 64 16093 3.1 360 20:42 06.12.2019
6644 Clouds 3 1025 55 16093 5.1 360 20:24 06.12.2019
6645 Clouds 3 1025 69 16093 6.7 350 19:59 06.12.2019
6646 Clouds 3 1025 69 16093 6.7 350 19:40 06.12.2019
6647 Clouds 3 1025 59 16093 6.2 30 19:22 06.12.2019
6648 Clouds 3 1025 59 16093 6.2 30 19:22 06.12.2019
6649 Clouds 3 1025 59 16093 6.2 30 19:22 06.12.2019
6650 Clouds 3 1025 59 16093 6.2 360 18:57 06.12.2019
6651 Clouds 2 1025 59 16093 1.5 360 18:39 06.12.2019
6652 Clouds 2 1025 64 16093 6.2 20 18:19 06.12.2019
6653 Clouds 2 1025 64 16093 6.2 20 18:19 06.12.2019
6654 Clouds 2 1025 69 16093 5.1 10 17:56 06.12.2019
6655 Clouds 2 1025 64 16093 4.1 340 17:37 06.12.2019
6656 Clouds 2 1025 64 16093 7.7 350 17:19 06.12.2019
6657 Clouds 1 1025 64 16093 6.7 340 16:43 06.12.2019
6658 Clouds 1 1025 64 16093 6.7 340 16:25 06.12.2019
6659 Clouds 1 1023 80 16093 6.2 360 15:59 06.12.2019
6660 Clouds 1 1023 80 16093 6.2 360 15:40 06.12.2019
6661 Clouds 1 1022 69 16093 7.7 360 15:19 06.12.2019
6662 Clouds 0 1021 80 16093 8.2 360 14:56 06.12.2019
6663 Clouds 1 1021 80 16093 8.2 360 14:38 06.12.2019
6664 Clouds 1 1021 69 16093 7.2 10 14:18 06.12.2019
6665 Clouds 1 1022 69 16093 4.1 360 13:43 06.12.2019
6666 Clouds 2 1019 69 16093 8.7 350 13:25 06.12.2019
6667 Clouds 2 1020 69 16093 6.7 350 12:43 06.12.2019
6668 Clouds 3 1018 80 14484 8.2 350 12:23 06.12.2019
6669 Clouds 3 1017 75 16093 8.2 350 11:58 06.12.2019
6670 Clouds 3 1017 75 16093 8.2 350 11:39 06.12.2019
6671 Clouds 4 1017 80 16093 7.2 340 11:20 06.12.2019
6672 Clear 4 1016 75 16093 4.1 300 10:43 06.12.2019
6673 Clouds 4 1015 80 16093 3.6 290 10:21 06.12.2019
6674 Clear 4 1015 70 16093 3.6 260 09:58 06.12.2019
6675 Clouds 4 1015 75 16093 4.1 270 09:37 06.12.2019
6676 Clouds 4 1015 75 16093 4.1 270 09:37 06.12.2019
6677 Clouds 4 1015 75 16093 4.1 270 09:37 06.12.2019
6678 Clouds 4 1015 75 16093 4.1 270 09:19 06.12.2019
6679 Clear 4 1014 70 16093 1.5 220 08:45 06.12.2019
6680 Clouds 4 1014 75 16093 4.1 240 08:26 06.12.2019
6681 Clear 4 1014 70 16093 2.6 230 07:44 06.12.2019
6682 Clouds 4 1014 75 16093 3.1 230 07:25 06.12.2019
6683 Clear 3 1014 86 16093 3.1 210 06:59 06.12.2019
6684 Clouds 4 1014 75 16093 3.1 210 06:28 06.12.2019
6685 Clear 4 1014 80 16093 4.1 200 05:53 06.12.2019
6686 Clouds 4 1014 70 16093 2.6 210 05:33 06.12.2019
6687 Clouds 5 1015 65 16093 3.6 180 02:19 06.12.2019
6688 Clouds 5 1015 65 16093 2.6 180 01:29 06.12.2019
6689 Clear 6 1015 75 16093 1.5 160 00:41 06.12.2019
6690 Clouds 6 1015 75 16093 3.1 190 00:20 06.12.2019
6691 Clear 6 1015 75 16093 3.1 190 23:45 05.12.2019
6692 Clouds 7 1015 68 16093 3.6 190 23:19 05.12.2019
6693 Clear 7 1015 65 16093 4.6 190 22:57 05.12.2019
6694 Clear